# Wetter Temperatur Luftdruck Luftfeuchtigkeit Sichtweite Windgeschwindigkeit Windrichtung Zeit
1 Rain 12 1019 58 7563 0.45 157 12:54 22.04.2021
2 Rain 11 1019 65 7563 0.45 291 12:36 22.04.2021
3 Rain 12 1019 65 4922 0.45 291 12:18 22.04.2021
4 Clouds 12 1018 56 4922 1.79 11 11:40 22.04.2021
5 Clouds 11 1018 56 9244 1.79 11 11:19 22.04.2021
6 Clouds 10 1018 63 9244 0.45 175 10:40 22.04.2021
7 Clouds 10 1018 63 10000 0.45 175 10:19 22.04.2021
8 Clouds 7 1018 65 10000 0.45 55 09:36 22.04.2021
9 Clouds 7 1018 65 10000 0.45 55 08:52 22.04.2021
10 Clouds 6 1018 70 10000 0.45 173 08:23 22.04.2021
11 Rain 5 1018 70 10000 0.45 173 07:54 22.04.2021
12 Clouds 4 1017 77 10000 0.18 208 07:31 22.04.2021
13 Clouds 4 1017 76 10000 0.45 174 06:46 22.04.2021
14 Clouds 4 1017 76 10000 0.45 174 06:18 22.04.2021
15 Clouds 4 1017 73 10000 0.89 215 05:23 22.04.2021
16 Clouds 5 1017 71 10000 0.45 305 02:25 22.04.2021
17 Clouds 6 1016 67 10000 1.34 164 23:59 21.04.2021
18 Clouds 6 1016 66 10000 2.48 175 23:39 21.04.2021
19 Clouds 7 1016 67 10000 2.32 175 23:19 21.04.2021
20 Clouds 7 1016 76 10000 3.09 280 22:40 21.04.2021
21 Clouds 7 1016 62 10000 1.54 280 22:19 21.04.2021
22 Clear 8 1015 61 10000 1.54 220 21:41 21.04.2021
23 Clear 7 1015 53 10000 2.06 200 21:19 21.04.2021
24 Clouds 13 1014 31 10000 1.03 340 20:31 21.04.2021
25 Clouds 12 1014 33 10000 2.06 300 19:49 21.04.2021
26 Clouds 10 1013 29 10000 0.89 292 19:27 21.04.2021
27 Clouds 13 1014 33 10000 2.06 260 18:52 21.04.2021
28 Clouds 14 1014 39 10000 0.45 313 18:34 21.04.2021
29 Rain 15 1014 39 10000 0.45 313 17:59 21.04.2021
30 Clouds 15 1013 42 10000 0.89 286 17:40 21.04.2021
31 Clouds 15 1013 40 10000 2.68 326 17:22 21.04.2021
32 Clouds 15 1014 31 10000 2.24 6 16:40 21.04.2021
33 Clouds 14 1014 31 10000 2.24 6 15:52 21.04.2021
34 Clouds 13 1015 46 10000 2.24 271 15:26 21.04.2021
35 Rain 13 1015 46 10000 2.24 271 14:45 21.04.2021
36 Rain 14 1015 46 10000 2.24 271 14:27 21.04.2021
37 Rain 14 1015 46 10000 2.24 271 13:50 21.04.2021
38 Clear 14 1015 31 10000 0.89 178 13:22 21.04.2021
39 Clear 14 1015 30 10000 1.34 286 12:47 21.04.2021
40 Clear 14 1015 30 10000 1.34 286 12:23 21.04.2021
41 Clear 13 1015 41 10000 1.34 4 11:46 21.04.2021
42 Clear 12 1015 41 10000 1.34 4 11:23 21.04.2021
43 Clear 10 1015 48 10000 0.45 24 10:40 21.04.2021
44 Clear 9 1015 48 10000 0.45 24 09:57 21.04.2021
45 Clear 8 1015 67 10000 0.45 146 09:31 21.04.2021
46 Clear 6 1014 54 10000 0.45 90 08:51 21.04.2021
47 Clear 4 1015 80 10000 2.24 146 08:24 21.04.2021
48 Clear 2 1015 88 10000 0.89 151 07:57 21.04.2021
49 Clear 0 1015 87 10000 0.45 209 07:29 21.04.2021
50 Clear 0 1015 87 10000 0.45 208 06:22 21.04.2021
51 Clear 3 1015 85 10000 0.45 217 02:28 21.04.2021
52 Clouds 4 1015 76 10000 0.89 175 00:28 21.04.2021
53 Clouds 5 1015 78 10000 0.45 149 23:41 20.04.2021
54 Clouds 5 1015 76 10000 0.45 149 22:50 20.04.2021
55 Clouds 5 1015 73 10000 0.89 132 22:24 20.04.2021
56 Clouds 4 933 66 10000 2.25 159 21:59 20.04.2021
57 Clouds 5 933 63 10000 2.25 159 21:40 20.04.2021
58 Clouds 5 933 60 10000 1.88 151 21:22 20.04.2021
59 Clear 8 1014 35 10000 1.03 290 20:41 20.04.2021
60 Clouds 7 932 54 10000 1.02 122 20:21 20.04.2021
61 Clear 9 1014 30 10000 1.54 280 19:50 20.04.2021
62 Clouds 11 1014 53 10000 0.45 18 19:29 20.04.2021
63 Clouds 12 1014 53 10000 1.79 300 18:47 20.04.2021
64 Clouds 13 1014 52 10000 2.68 323 18:29 20.04.2021
65 Clouds 12 1014 46 10000 3.13 17 17:41 20.04.2021
66 Clouds 12 1014 46 10000 3.13 17 16:55 20.04.2021
67 Clouds 12 1014 52 10000 1.34 333 16:35 20.04.2021
68 Clouds 12 1015 52 10000 1.79 5 15:41 20.04.2021
69 Clouds 12 1015 49 10000 3.13 314 15:21 20.04.2021
70 Clouds 12 1015 54 10000 2.68 338 14:48 20.04.2021
71 Clouds 12 1015 54 10000 1.34 334 14:23 20.04.2021
72 Clouds 12 1015 54 10000 1.34 334 14:23 20.04.2021
73 Clouds 12 1016 51 5418 2.68 303 13:29 20.04.2021
74 Clouds 11 1016 51 5418 0.89 24 12:55 20.04.2021
75 Clouds 9 1016 55 3710 0.45 344 12:27 20.04.2021
76 Clouds 8 1016 61 3710 0.89 295 11:47 20.04.2021
77 Clouds 8 1016 61 3710 0.89 295 11:47 20.04.2021
78 Clouds 8 1016 61 7296 0.89 295 11:28 20.04.2021
79 Clouds 7 1016 66 7296 0.45 11 10:48 20.04.2021
80 Clouds 7 1016 66 10000 0.45 11 10:26 20.04.2021
81 Clouds 7 1016 66 10000 0.45 11 09:50 20.04.2021
82 Clouds 5 1016 67 10000 0.4 74 09:18 20.04.2021
83 Clouds 4 1016 82 10000 0.45 184 08:42 20.04.2021
84 Clouds 3 1016 82 10000 0.45 184 07:58 20.04.2021
85 Clouds 3 1016 82 10000 1.1 157 07:32 20.04.2021
86 Clouds 2 1016 83 10000 0.45 154 05:42 20.04.2021
87 Clouds 2 1016 83 10000 0.45 154 04:57 20.04.2021
88 Clouds 2 1017 88 10000 2.21 169 03:41 20.04.2021
89 Clouds 4 1017 79 10000 1.7 179 00:51 20.04.2021
90 Clouds 5 1017 77 10000 0.89 217 23:54 19.04.2021
91 Clouds 5 1017 79 10000 0.89 219 23:31 19.04.2021
92 Clouds 5 1017 77 10000 0.45 229 22:43 19.04.2021
93 Clouds 5 1017 77 678 0.45 229 22:22 19.04.2021
94 Clouds 5 1017 75 678 0.45 75 21:42 19.04.2021
95 Clouds 5 1017 75 1820 0.45 75 21:20 19.04.2021
96 Clouds 6 1017 72 1820 0.89 234 20:41 19.04.2021
97 Clouds 6 1017 72 8981 0.89 234 20:20 19.04.2021
98 Clouds 7 1017 70 10000 0.45 233 19:48 19.04.2021
99 Clouds 7 1017 70 7681 0.45 233 19:26 19.04.2021
100 Clouds 7 1017 70 7681 0.45 233 18:56 19.04.2021
101 Clouds 7 1016 67 7681 0.89 205 18:37 19.04.2021
102 Clouds 7 1016 67 10000 0.89 205 18:18 19.04.2021
103 Rain 7 1016 64 10000 1.79 49 17:40 19.04.2021
104 Rain 7 1016 64 10000 1.79 49 17:22 19.04.2021
105 Rain 8 1016 53 10000 0.45 23 16:41 19.04.2021
106 Rain 8 1016 53 10000 0.45 23 16:22 19.04.2021
107 Clouds 9 1016 57 10000 1.34 317 15:40 19.04.2021
108 Clouds 9 1016 57 10000 1.34 317 15:22 19.04.2021
109 Rain 9 1016 47 10000 1.34 138 14:38 19.04.2021
110 Clouds 9 1016 47 10000 1.34 138 14:19 19.04.2021
111 Clouds 9 1016 50 10000 1.34 163 13:44 19.04.2021
112 Clouds 9 1016 50 7901 1.34 163 13:25 19.04.2021
113 Clouds 8 1017 48 7901 1.34 6 12:43 19.04.2021
114 Clouds 8 1017 48 7901 1.34 6 12:43 19.04.2021
115 Clouds 8 1017 48 5655 1.34 6 12:23 19.04.2021
116 Clouds 8 1017 48 5655 1.34 6 11:54 19.04.2021
117 Clouds 7 1017 62 4737 0.89 107 11:26 19.04.2021
118 Clouds 5 1017 79 4737 0.45 332 10:47 19.04.2021
119 Clouds 5 1017 79 9240 0.45 332 10:25 19.04.2021
120 Clouds 5 1017 79 9240 0.45 332 09:50 19.04.2021
121 Clouds 5 1017 84 9240 0.45 226 09:30 19.04.2021
122 Clouds 5 1017 84 9240 0.45 226 09:30 19.04.2021
123 Clouds 4 1017 84 10000 0.45 226 08:59 19.04.2021
124 Clouds 3 1017 88 10000 0.64 183 08:28 19.04.2021
125 Clouds 3 1017 92 10000 0.89 218 07:48 19.04.2021
126 Clouds 2 1017 92 10000 0.89 218 07:19 19.04.2021
127 Clouds 2 1017 93 10000 0.97 185 06:36 19.04.2021
128 Clouds 3 1018 91 9483 0.45 178 02:35 19.04.2021
129 Clouds 3 1018 88 2715 0.3 205 00:49 19.04.2021
130 Clouds 4 1018 89 481 0.45 163 23:50 18.04.2021
131 Clouds 4 1018 86 174 0.45 72 23:18 18.04.2021
132 Clouds 4 1018 87 174 0.45 68 22:47 18.04.2021
133 Clouds 4 1018 87 143 0.45 68 22:29 18.04.2021
134 Clouds 4 1018 82 91 0.45 80 21:29 18.04.2021
135 Clouds 4 1018 82 91 0.45 80 20:59 18.04.2021
136 Clouds 4 1018 84 288 1.79 329 20:39 18.04.2021
137 Clouds 4 1018 84 91 1.79 329 20:39 18.04.2021
138 Clouds 4 1018 84 349 1.79 329 20:20 18.04.2021
139 Clouds 4 1017 85 349 0.45 308 19:45 18.04.2021
140 Clouds 4 1017 85 427 0.45 308 19:25 18.04.2021
141 Clouds 4 1017 85 427 0.45 308 18:54 18.04.2021
142 Clouds 4 1017 85 427 0.45 308 18:54 18.04.2021
143 Clouds 5 1017 72 427 1.34 323 18:30 18.04.2021
144 Clouds 5 1017 72 411 1.34 323 17:50 18.04.2021
145 Clouds 5 1017 68 411 0.89 304 17:31 18.04.2021
146 Clouds 6 1017 68 460 0.89 304 16:54 18.04.2021
147 Clouds 6 1017 69 460 1.79 346 16:36 18.04.2021
148 Clouds 6 1017 69 725 1.79 346 15:51 18.04.2021
149 Clouds 6 1016 66 725 0.89 344 15:32 18.04.2021
150 Clouds 6 1016 66 935 0.89 344 14:58 18.04.2021
151 Clouds 5 1016 65 935 2.24 331 14:40 18.04.2021
152 Clouds 6 1016 65 1216 2.24 331 14:18 18.04.2021
153 Clouds 6 1016 62 1216 2.68 319 13:44 18.04.2021
154 Clouds 6 1016 62 2415 2.68 319 13:26 18.04.2021
155 Clouds 6 1016 61 2415 2.01 359 12:36 18.04.2021
156 Clouds 6 1016 61 4072 1.75 2 11:52 18.04.2021
157 Clouds 5 1016 70 5838 0.89 357 11:27 18.04.2021
158 Clouds 5 1016 70 5838 0.89 357 10:54 18.04.2021
159 Clouds 4 1017 76 5838 1.34 31 10:35 18.04.2021
160 Clouds 4 1017 76 7463 1.34 31 09:58 18.04.2021
161 Clouds 3 1017 84 7463 1.34 345 09:39 18.04.2021
162 Clouds 3 1017 84 7463 1.34 345 09:39 18.04.2021
163 Clouds 3 1017 84 10000 1.34 345 09:19 18.04.2021
164 Clouds 2 1017 86 10000 0.45 277 08:40 18.04.2021
165 Clouds 2 1017 86 3900 0.45 277 08:19 18.04.2021
166 Clouds 2 1018 89 3900 0.45 343 07:39 18.04.2021
167 Clouds 2 1018 87 5420 0.45 344 05:48 18.04.2021
168 Clouds 2 1018 86 10000 0.89 159 05:26 18.04.2021
169 Clouds 2 1018 84 10000 0.45 9 03:37 18.04.2021
170 Clouds 3 1017 80 10000 0.45 249 02:22 18.04.2021
171 Clouds 3 1019 76 10000 0.45 287 00:41 18.04.2021
172 Clouds 4 1019 76 10000 1.34 291 23:40 17.04.2021
173 Clouds 4 1020 75 8875 0.45 10 22:59 17.04.2021
174 Clouds 4 1020 74 8875 0.67 60 22:39 17.04.2021
175 Clouds 4 1020 74 8363 0.86 43 22:20 17.04.2021
176 Clouds 4 1019 73 8363 0.45 42 21:38 17.04.2021
177 Clouds 4 1019 73 8979 0.45 42 21:19 17.04.2021
178 Clouds 5 1017 67 10000 2.24 314 20:28 17.04.2021
179 Clouds 5 1017 66 10000 3.13 318 19:46 17.04.2021
180 Clouds 5 1017 66 10000 3.13 318 19:22 17.04.2021
181 Clouds 5 1017 66 10000 3.13 318 18:58 17.04.2021
182 Clouds 5 1016 64 10000 2.68 310 18:37 17.04.2021
183 Clouds 5 1016 64 9078 2.68 310 18:00 17.04.2021
184 Clouds 6 1016 62 9078 3.13 305 17:40 17.04.2021
185 Clouds 6 1016 62 10000 3.13 305 16:55 17.04.2021
186 Clouds 6 1016 60 10000 0.45 306 16:28 17.04.2021
187 Clouds 6 1016 60 10000 0.45 306 15:53 17.04.2021
188 Clouds 7 1016 56 10000 3.58 345 14:51 17.04.2021
189 Clouds 7 1016 53 10000 1.79 349 14:32 17.04.2021
190 Clouds 7 1016 53 10000 1.79 349 13:49 17.04.2021
191 Clouds 6 1017 55 10000 2.24 39 13:25 17.04.2021
192 Clouds 6 1017 60 10000 0.45 61 12:42 17.04.2021
193 Clouds 6 1017 60 10000 0.45 61 12:18 17.04.2021
194 Clouds 5 1018 64 10000 2.24 58 11:41 17.04.2021
195 Clouds 4 1018 64 10000 2.24 58 11:22 17.04.2021
196 Clouds 3 1018 74 10000 1.79 354 10:45 17.04.2021
197 Clear 2 1018 74 10000 1.79 354 10:26 17.04.2021
198 Clear 0 1018 80 10000 0.45 81 09:27 17.04.2021
199 Clouds -2 1018 88 10000 1.22 59 08:40 17.04.2021
200 Clear -2 1018 88 10000 1.19 117 08:21 17.04.2021
201 Clear -3 1018 84 10000 1.87 145 06:44 17.04.2021
202 Clear -2 1019 85 10000 0.45 190 03:53 17.04.2021
203 Clear -1 1019 79 10000 2.12 152 02:58 17.04.2021
204 Clouds -1 1022 79 10000 0.45 18 00:46 17.04.2021
205 Clouds 0 1022 77 10000 0.45 12 00:24 17.04.2021
206 Clouds -1 1020 40 10000 1.34 78 23:46 16.04.2021
207 Clouds -1 938 70 10000 2.1 136 23:24 16.04.2021
208 Clouds -1 938 69 10000 2.1 136 22:44 16.04.2021
209 Clouds 1 1020 37 10000 2.68 61 22:20 16.04.2021
210 Clouds 1 1020 35 10000 2.24 93 21:50 16.04.2021
211 Clouds 1 1020 35 10000 2.24 93 21:50 16.04.2021
212 Clouds 1 938 63 10000 1.59 97 21:29 16.04.2021
213 Clouds 1 1020 31 10000 0.89 50 20:48 16.04.2021
214 Clouds 3 1019 29 10000 1.79 49 20:24 16.04.2021
215 Clouds 4 1017 44 10000 0.89 270 19:50 16.04.2021
216 Clouds 6 1017 48 10000 1.34 313 19:27 16.04.2021
217 Clouds 6 1017 46 10000 2.68 11 18:28 16.04.2021
218 Clouds 6 1017 46 10000 2.68 11 18:28 16.04.2021
219 Clouds 6 1017 46 10000 2.68 11 17:55 16.04.2021
220 Clouds 6 1017 48 10000 4.92 6 17:22 16.04.2021
221 Clouds 7 1017 48 10000 4.92 6 16:59 16.04.2021
222 Clouds 7 1018 46 10000 1.34 10 16:41 16.04.2021
223 Clouds 7 1018 46 10000 1.34 10 16:21 16.04.2021
224 Clouds 8 1021 49 10000 2.24 347 15:42 16.04.2021
225 Clouds 7 1018 50 10000 2.24 344 14:59 16.04.2021
226 Clouds 7 1018 50 10000 2.24 344 14:40 16.04.2021
227 Clear 6 1018 50 10000 2.24 344 13:59 16.04.2021
228 Clear 5 1018 52 10000 0.89 311 13:38 16.04.2021
229 Clear 5 1018 52 10000 0.89 311 13:18 16.04.2021
230 Clear 4 1019 52 10000 1.79 75 12:44 16.04.2021
231 Clear 4 1019 52 10000 1.79 75 12:25 16.04.2021
232 Clear 3 1019 60 10000 1.79 62 11:43 16.04.2021
233 Clear 2 1019 60 10000 1.79 62 11:23 16.04.2021
234 Clear 1 1019 66 10000 0.89 355 10:43 16.04.2021
235 Clear 0 1019 66 10000 0.89 355 10:24 16.04.2021
236 Clear 1 1019 66 10000 0.89 355 09:49 16.04.2021
237 Clear -1 1019 76 10000 0.89 74 09:23 16.04.2021
238 Clear -3 1020 82 10000 1.15 90 08:45 16.04.2021
239 Clouds -4 1020 82 10000 1.69 140 08:27 16.04.2021
240 Clouds -4 1023 88 10000 1.69 140 07:47 16.04.2021
241 Clouds -4 1022 88 10000 2.49 153 07:27 16.04.2021
242 Clouds -4 1022 88 10000 2.49 153 06:46 16.04.2021
243 Clouds -4 1022 87 10000 2.57 154 05:32 16.04.2021
244 Clouds -3 1022 85 10000 2.66 154 03:59 16.04.2021
245 Clear -1 1023 75 10000 1.54 0 00:48 16.04.2021
246 Clouds -3 940 66 10000 2.52 149 00:22 16.04.2021
247 Clouds 1 1023 65 10000 2.06 20 23:58 15.04.2021
248 Clouds 0 1023 65 10000 2.06 20 23:34 15.04.2021
249 Clouds -1 1023 56 10000 3.09 50 22:51 15.04.2021
250 Clouds -2 1022 41 10000 1.34 57 22:26 15.04.2021
251 Clouds -1 1022 37 10000 2.03 138 21:48 15.04.2021
252 Clouds 1 1022 36 10000 0.89 60 21:29 15.04.2021
253 Clouds 2 1022 32 10000 1.85 125 20:58 15.04.2021
254 Clouds 2 1023 55 10000 1.34 350 20:38 15.04.2021
255 Clouds 3 1023 62 10000 0.45 18 20:18 15.04.2021
256 Clouds 4 1020 54 10000 2.24 24 19:41 15.04.2021
257 Clouds 4 1020 54 10000 2.24 24 19:21 15.04.2021
258 Clouds 4 1020 57 10000 2.24 290 18:41 15.04.2021
259 Clouds 4 1020 57 10000 2.24 290 18:41 15.04.2021
260 Clouds 4 1020 57 10000 2.24 290 18:20 15.04.2021
261 Clouds 4 1020 57 10000 2.24 290 17:54 15.04.2021
262 Clouds 4 1020 41 10000 4.02 345 17:33 15.04.2021
263 Clouds 4 1020 50 5048 4.47 314 16:45 15.04.2021
264 Clouds 4 1020 50 5186 4.47 314 16:25 15.04.2021
265 Clouds 4 1020 50 5186 4.47 314 15:51 15.04.2021
266 -273 0 0 0 0 0 15:31 15.04.2021
267 Clouds 4 1021 57 3008 2.24 305 14:47 15.04.2021
268 Clouds 4 1021 57 2741 2.24 305 14:28 15.04.2021
269 Clouds 4 1021 57 2741 2.24 305 13:59 15.04.2021
270 Clouds 3 1021 54 2741 1.34 95 13:40 15.04.2021
271 Clouds 3 1021 54 2625 1.34 95 12:55 15.04.2021
272 Clouds 4 1022 69 2454 1.34 302 12:28 15.04.2021
273 Clouds 4 1022 69 2454 1.34 302 11:59 15.04.2021
274 Clouds 2 1022 78 2454 1.34 133 11:40 15.04.2021
275 Clouds 2 1022 78 2181 1.34 133 11:21 15.04.2021
276 Clouds 2 1022 80 2181 0.89 25 10:46 15.04.2021
277 Clouds 1 1022 80 3621 0.89 25 10:26 15.04.2021
278 Clouds 1 1022 88 3621 0.89 0 09:35 15.04.2021
279 Clouds 0 1022 88 6818 0.89 0 08:54 15.04.2021
280 Clouds 0 1022 88 10000 0.45 359 08:36 15.04.2021
281 Clouds -1 1024 88 10000 0.89 328 07:48 15.04.2021
282 Clouds -2 1029 100 10000 1.89 154 07:20 15.04.2021
283 Clouds -4 1029 100 10000 1.89 154 06:36 15.04.2021
284 Clouds -3 940 81 10000 2.16 153 05:47 15.04.2021
285 Clouds -2 1022 52 10000 0.89 58 03:59 15.04.2021
286 Clouds 0 1023 50 5973 1.34 74 00:23 15.04.2021
287 Snow 0 1025 78 5973 1.34 284 23:36 14.04.2021
288 Clouds 1 1026 73 8347 0.89 348 22:59 14.04.2021
289 Clouds 1 1026 73 8347 0.89 348 22:39 14.04.2021
290 Snow 1 1026 75 8277 3.13 309 22:20 14.04.2021
291 Snow 1 1022 74 8277 1.79 144 21:42 14.04.2021
292 Clouds 1 1022 74 2422 1.79 144 21:22 14.04.2021
293 Clouds 2 1021 64 2422 3.13 329 20:48 14.04.2021
294 Clouds 2 1021 64 2989 3.13 329 20:29 14.04.2021
295 Clouds 2 1021 61 2989 2.24 322 19:48 14.04.2021
296 Clouds 3 1021 61 5233 2.24 322 19:19 14.04.2021
297 Clouds 3 1021 61 5233 2.24 322 19:19 14.04.2021
298 Clouds 3 1021 61 5233 2.24 322 18:55 14.04.2021
299 Clouds 4 1021 54 10000 1.79 315 18:21 14.04.2021
300 Clouds 4 1021 54 10000 1.79 315 17:57 14.04.2021
301 Clouds 4 1021 52 6347 0.89 243 17:24 14.04.2021
302 Clouds 4 1021 52 6347 0.89 243 16:52 14.04.2021
303 Clouds 4 1021 47 6724 2.24 4 16:24 14.04.2021
304 Clouds 4 1022 44 6724 1.34 331 15:42 14.04.2021
305 Clouds 5 1022 44 9236 1.34 331 15:22 14.04.2021
306 Clouds 5 1022 41 9236 2.68 13 14:44 14.04.2021
307 Clouds 5 1022 41 10000 2.68 13 14:23 14.04.2021
308 Clouds 5 1022 41 10000 2.68 13 13:54 14.04.2021
309 Clouds 5 1022 44 10000 1.34 18 13:19 14.04.2021
310 Clouds 4 1023 46 10000 0.89 75 12:36 14.04.2021
311 Clouds 3 1023 67 10000 0.45 359 11:43 14.04.2021
312 Clouds 3 1023 67 10000 0.45 359 11:25 14.04.2021
313 Clouds 2 1024 70 10000 0.45 69 10:38 14.04.2021
314 Clouds 0 1024 70 10000 0.45 69 09:59 14.04.2021
315 Clouds -1 1024 83 10000 0.89 67 09:41 14.04.2021
316 Clouds -1 1024 83 10000 0.89 67 09:20 14.04.2021
317 Clouds -3 1024 85 10000 1.54 106 08:34 14.04.2021
318 Clouds -4 1024 85 10000 2.04 138 07:58 14.04.2021
319 Clouds -5 942 83 10000 2.69 148 06:48 14.04.2021
320 Clouds -5 1025 70 10000 2.75 150 06:23 14.04.2021
321 Clouds -4 943 81 10000 2.61 151 03:59 14.04.2021
322 Clouds -3 1027 68 10000 0.89 71 01:42 14.04.2021
323 Clouds -3 1027 68 10000 0.89 71 01:42 14.04.2021
324 Clouds -3 1027 68 10000 0.89 71 01:42 14.04.2021
325 Clouds -3 1027 62 10000 1.95 151 00:37 14.04.2021
326 Clouds -3 945 81 10000 1.56 152 23:46 13.04.2021
327 Clouds 0 1030 88 6057 0.45 49 23:21 13.04.2021
328 Clouds 0 1026 85 6057 0.81 143 22:41 13.04.2021
329 Snow 0 1026 85 518 0.36 41 22:19 13.04.2021
330 Snow 0 1026 83 518 0.36 41 21:45 13.04.2021
331 Snow 1 1026 83 193 1.02 21 21:27 13.04.2021
332 Snow 1 1025 80 193 0.45 79 20:42 13.04.2021
333 Snow 1 1025 80 2305 0.45 79 20:21 13.04.2021
334 Snow 1 1025 82 2305 0.45 14 19:43 13.04.2021
335 Snow 1 1025 82 1974 0.45 14 19:23 13.04.2021
336 Snow 1 1025 77 1974 4.02 342 18:37 13.04.2021
337 Snow 1 1025 77 742 4.02 342 17:54 13.04.2021
338 Snow 1 1025 58 742 2.24 287 17:36 13.04.2021
339 Clouds 2 1025 58 1231 2.24 287 17:18 13.04.2021
340 Clouds 3 1025 76 1231 3.58 351 16:42 13.04.2021
341 Clouds 2 1025 76 1722 3.58 351 16:20 13.04.2021
342 Clouds 2 1029 79 1722 3.13 317 15:41 13.04.2021
343 Clouds 2 1029 81 1436 2.68 338 15:21 13.04.2021
344 Clouds 4 1029 70 1436 1.34 327 14:46 13.04.2021
345 Clouds 2 1025 75 2699 3.58 338 14:19 13.04.2021
346 Snow 1 1025 75 2699 3.58 338 13:45 13.04.2021
347 Snow 0 1025 75 2588 3.58 338 13:24 13.04.2021
348 Snow 1 1025 75 2588 3.58 338 12:55 13.04.2021
349 Clouds 2 1025 79 2096 1.34 35 12:24 13.04.2021
350 Clouds 2 1025 79 2096 1.34 35 11:52 13.04.2021
351 Snow 1 1025 85 1995 0.45 43 11:29 13.04.2021
352 Snow 0 1025 91 1995 0.89 48 10:45 13.04.2021
353 Snow 0 1025 91 1432 0.89 48 10:21 13.04.2021
354 Snow 0 1025 91 1432 0.89 48 09:53 13.04.2021
355 Snow 0 1025 94 1432 0.89 39 09:34 13.04.2021
356 Snow -1 1025 94 900 0.89 39 08:54 13.04.2021
357 Snow -1 1025 95 900 0.45 318 08:36 13.04.2021
358 Clouds -2 1025 95 763 0.45 318 08:18 13.04.2021
359 Clouds -2 1029 94 763 0.56 167 07:35 13.04.2021
360 Clouds -2 943 87 1446 1.3 170 06:31 13.04.2021
361 Clouds -3 1026 72 10000 0.83 158 04:45 13.04.2021
362 Snow -1 1025 100 10000 0.45 35 01:37 13.04.2021
363 Snow -1 1025 100 10000 0.99 135 00:18 13.04.2021
364 Snow -1 1025 100 10000 0.45 65 23:42 12.04.2021
365 Clouds -1 1025 100 10000 0.45 65 23:20 12.04.2021
366 Clouds -1 1025 100 10000 0.79 137 22:38 12.04.2021
367 Clouds -1 1025 100 10000 0.4 83 21:56 12.04.2021
368 Clouds -1 1025 100 10000 0.45 78 21:36 12.04.2021
369 Snow -1 1025 100 8087 0.45 78 21:18 12.04.2021
370 Snow -1 1025 100 393 0.45 334 20:38 12.04.2021
371 Snow -1 1025 100 154 0.45 334 20:20 12.04.2021
372 Snow -1 1025 100 154 0.45 334 20:20 12.04.2021
373 Snow -1 1025 100 154 1.61 7 19:43 12.04.2021
374 Snow -1 1025 100 121 2.04 355 19:22 12.04.2021
375 Snow 0 1025 100 121 2.04 355 18:56 12.04.2021
376 Snow 0 1024 100 121 1.34 2 18:37 12.04.2021
377 Snow 0 1024 100 123 1.34 2 18:18 12.04.2021
378 Snow 0 1024 100 123 0.89 331 17:42 12.04.2021
379 Snow 0 1024 100 140 0.89 331 17:20 12.04.2021
380 Snow 0 1024 100 140 2.68 307 16:43 12.04.2021
381 Snow 0 1024 100 156 2.68 307 16:24 12.04.2021
382 Snow 0 1024 100 156 0.89 331 15:47 12.04.2021
383 Snow 0 1024 100 156 0.89 331 15:21 12.04.2021
384 Snow 0 1023 100 156 0.89 345 14:49 12.04.2021
385 Snow 0 1023 100 167 0.89 345 14:29 12.04.2021
386 Snow 0 1022 100 167 1.79 306 13:43 12.04.2021
387 Snow 0 1022 100 124 1.79 306 13:21 12.04.2021
388 Snow 1 1022 100 124 1.34 313 12:44 12.04.2021
389 Snow 1 1022 100 70 1.34 313 12:23 12.04.2021
390 Snow 1 1022 100 70 1.34 313 11:51 12.04.2021
391 Snow 0 1022 97 39 2.24 336 10:55 12.04.2021
392 Snow 0 1021 96 32 1.79 340 10:29 12.04.2021
393 Snow 0 1021 96 32 1.79 340 09:59 12.04.2021
394 Snow 1 1020 93 32 1.79 314 09:40 12.04.2021
395 Snow 1 1020 93 30 1.79 314 08:59 12.04.2021
396 Snow 1 1019 89 31 0.89 331 08:30 12.04.2021
397 Rain 3 1017 84 29 0.89 204 07:31 12.04.2021
398 Rain 5 1017 84 36 0.89 204 06:49 12.04.2021
399 Rain 5 1016 84 42 1.34 117 05:51 12.04.2021
400 Clouds 8 1014 80 2927 0.45 248 03:58 12.04.2021
401 Clouds 8 1013 78 10000 0.45 173 00:50 12.04.2021
402 Clouds 9 1014 74 10000 0.89 163 00:23 12.04.2021
403 Clouds 9 1012 74 10000 1.74 177 23:45 11.04.2021
404 Clouds 10 1014 40 10000 2.68 206 23:23 11.04.2021
405 Clouds 10 932 64 10000 1.83 182 22:41 11.04.2021
406 Clouds 11 1013 59 10000 0.45 292 22:22 11.04.2021
407 Clouds 13 1013 67 10000 6.17 270 21:45 11.04.2021
408 Clouds 11 1012 55 10000 4.63 270 21:27 11.04.2021
409 Clouds 12 1012 55 10000 4.63 270 20:52 11.04.2021
410 Clouds 12 1010 47 10000 4.12 280 20:28 11.04.2021
411 Clouds 14 1009 27 10000 5.14 180 19:44 11.04.2021
412 Clouds 13 1009 27 10000 5.14 180 19:22 11.04.2021
413 Clouds 14 1008 30 10000 4.12 180 19:00 11.04.2021
414 Clouds 14 1008 30 10000 4.12 180 18:41 11.04.2021
415 Clouds 15 1008 30 10000 4.12 180 18:22 11.04.2021
416 Clouds 15 1008 28 10000 5.66 180 17:44 11.04.2021
417 Clouds 17 1008 25 2326 2.24 202 17:24 11.04.2021
418 Clouds 15 1009 44 10000 4.63 310 16:47 11.04.2021
419 Clouds 16 1010 100 2893 2.68 310 16:22 11.04.2021
420 Clouds 19 1009 27 2893 1.79 202 15:51 11.04.2021
421 Clouds 18 1009 42 10000 1.54 0 15:27 11.04.2021
422 Clouds 18 1008 50 2924 2.24 185 14:54 11.04.2021
423 Clouds 17 1010 15 2917 1.34 222 14:31 11.04.2021
424 Clouds 16 1010 17 2870 1.34 173 13:51 11.04.2021
425 Clouds 16 1009 47 2870 1.79 259 13:30 11.04.2021
426 Clouds 15 1009 49 2839 1.34 345 12:49 11.04.2021
427 Clouds 13 1010 46 2820 3.13 352 12:21 11.04.2021
428 Clouds 12 1010 46 2820 3.13 352 11:50 11.04.2021
429 Clouds 12 1010 47 2854 0.45 297 11:23 11.04.2021
430 Clouds 10 1010 64 2854 0.45 101 10:48 11.04.2021
431 Rain 9 1010 64 2854 0.45 101 10:30 11.04.2021
432 Rain 8 1010 64 4274 0.45 101 09:56 11.04.2021
433 Rain 7 1010 72 4274 0.45 228 09:33 11.04.2021
434 Clouds 6 1010 72 10000 0.45 228 08:51 11.04.2021
435 Clouds 5 1011 78 10000 2.29 157 08:24 11.04.2021
436 Clouds 4 1011 77 10000 2.58 159 07:22 11.04.2021
437 Clouds 4 1011 77 10000 2.58 159 06:50 11.04.2021
438 Clouds 5 1011 81 10000 0.89 186 05:41 11.04.2021
439 Clouds 4 1011 81 10000 0.89 186 05:19 11.04.2021
440 Clouds 5 1011 78 10000 0.45 242 04:34 11.04.2021
441 Clouds 5 1012 69 10000 0.89 238 01:45 11.04.2021
442 Clouds 5 1012 73 10000 0.45 239 00:33 11.04.2021
443 Clouds 7 1013 65 10000 0.45 209 23:47 10.04.2021
444 Clouds 7 1013 65 10000 0.45 209 23:24 10.04.2021
445 Clouds 7 1013 62 10000 3.33 166 22:43 10.04.2021
446 Clouds 7 1013 62 10000 3.17 164 22:20 10.04.2021
447 Clouds 7 1013 62 10000 3.17 164 22:20 10.04.2021
448 Clouds 10 1012 31 10000 4.12 190 21:40 10.04.2021
449 Clouds 10 1012 36 10000 3.09 190 21:20 10.04.2021
450 Clouds 10 1012 38 10000 3.09 200 20:42 10.04.2021
451 Clear 11 1012 41 10000 3.6 0 20:23 10.04.2021
452 Clear 11 1012 41 10000 3.6 0 19:44 10.04.2021
453 Clear 11 1012 41 10000 3.6 0 19:25 10.04.2021
454 Clear 12 1012 41 10000 3.6 0 18:50 10.04.2021
455 Clouds 13 930 37 1743 2.54 173 18:28 10.04.2021
456 Clouds 14 1015 100 1743 0.89 357 17:37 10.04.2021
457 Clouds 14 1015 100 1517 2.43 177 16:57 10.04.2021
458 Clouds 14 1012 49 2268 2.29 179 16:27 10.04.2021
459 Clouds 15 1013 33 2268 0.45 292 15:53 10.04.2021
460 Clouds 15 1013 35 2188 0.45 292 15:19 10.04.2021
461 Clouds 14 1014 19 2188 0.89 242 14:41 10.04.2021
462 Clouds 14 1014 36 686 1.34 292 14:18 10.04.2021
463 Clouds 14 1015 17 686 1.34 241 13:40 10.04.2021
464 Clouds 13 1015 20 643 1.34 195 12:49 10.04.2021
465 Clouds 12 1015 57 663 1.21 148 12:26 10.04.2021
466 Clouds 10 1016 49 663 1.21 148 11:47 10.04.2021
467 Clouds 10 1016 49 2316 1.36 181 11:25 10.04.2021
468 Clouds 10 1016 49 2316 1.36 181 10:52 10.04.2021
469 Clouds 8 1016 59 2316 0.45 82 10:31 10.04.2021
470 Clouds 6 1015 66 10000 1.74 178 09:45 10.04.2021
471 Clouds 5 1015 66 10000 2.07 174 09:20 10.04.2021
472 Clouds 6 1016 82 10000 2.07 174 08:47 10.04.2021
473 Clouds 3 1016 82 10000 0.45 163 08:28 10.04.2021
474 Clouds 1 1015 77 10000 0.45 185 07:38 10.04.2021
475 Clouds 1 1015 77 10000 0.45 185 07:19 10.04.2021
476 Clouds 2 1015 79 10000 0.45 114 06:24 10.04.2021
477 Clouds 1 1015 80 10000 0.89 201 03:49 10.04.2021
478 Clouds 1 1015 80 10000 0.89 201 02:50 10.04.2021
479 Clouds 2 1015 79 10000 0.45 187 02:18 10.04.2021
480 Clouds 2 1016 76 10000 1.34 119 00:41 10.04.2021
481 Clouds 2 1016 76 10000 1.34 119 00:19 10.04.2021
482 Clouds 3 1016 71 10000 1.34 124 23:37 09.04.2021
483 Clouds 3 1016 71 10000 1.34 124 22:58 09.04.2021
484 Clouds 4 1016 71 10000 0.89 238 22:37 09.04.2021
485 Clouds 4 1016 71 10000 0.89 238 21:55 09.04.2021
486 Clouds 5 1016 65 10000 0.89 165 21:37 09.04.2021
487 Clouds 5 1016 65 10000 0.89 165 21:18 09.04.2021
488 Clouds 6 1015 60 10000 1.34 217 20:40 09.04.2021
489 Clouds 7 1015 60 10000 1.34 217 20:21 09.04.2021
490 Clear 12 1015 35 10000 2.57 130 19:43 09.04.2021
491 Clear 11 1015 35 10000 2.57 130 19:23 09.04.2021
492 Clear 12 1016 33 10000 1.54 40 18:50 09.04.2021
493 Clouds 12 933 31 3614 2.55 176 18:29 09.04.2021
494 Clear 13 1016 36 10000 0.51 0 17:52 09.04.2021
495 Clear 14 1016 36 10000 0.51 0 17:33 09.04.2021
496 Clear 14 1016 36 10000 1.03 0 16:55 09.04.2021
497 Clouds 14 1016 17 3576 1.79 227 16:32 09.04.2021
498 Clouds 14 1016 17 2843 0.89 310 15:50 09.04.2021
499 Rain 12 1016 17 2156 1.79 227 15:25 09.04.2021
500 Clear 13 1017 43 10000 3.6 280 14:47 09.04.2021
501 Rain 13 1017 17 2136 1.79 210 14:29 09.04.2021
502 Clouds 13 1018 35 2136 0.89 324 13:49 09.04.2021
503 Clouds 13 1019 37 2147 0.89 318 13:23 09.04.2021
504 Clouds 12 1019 38 2147 1.34 305 12:48 09.04.2021
505 Clouds 12 1019 38 2147 1.34 305 12:48 09.04.2021
506 Clouds 11 1020 37 3539 2.39 175 12:27 09.04.2021
507 Clouds 9 1018 47 3539 0.45 202 11:44 09.04.2021
508 Clouds 9 1018 47 6309 0.45 202 11:21 09.04.2021
509 Clouds 6 1018 59 6309 0.45 192 10:40 09.04.2021
510 Clouds 4 1018 59 10000 0.45 192 10:18 09.04.2021
511 Clouds 3 1021 70 10000 1.34 145 09:29 09.04.2021
512 Clouds 2 1022 81 10000 1.79 175 08:56 09.04.2021
513 Clouds 2 1022 81 10000 1.79 175 08:34 09.04.2021
514 Clouds -3 1019 86 10000 1.34 169 07:34 09.04.2021
515 Clouds -5 1019 87 10000 0.45 184 06:30 09.04.2021
516 Clouds -4 1019 89 10000 0.45 202 05:44 09.04.2021
517 Clouds -3 1020 90 10000 0.45 199 03:43 09.04.2021
518 Clear -2 1021 88 10000 0.45 224 00:39 09.04.2021
519 Clear -2 1021 88 10000 0.45 224 00:21 09.04.2021
520 Clear -2 1021 88 10000 0.45 224 23:56 08.04.2021
521 Clear -1 1021 89 10000 0.89 218 22:58 08.04.2021
522 Clear -1 1024 86 10000 0.89 161 22:36 08.04.2021
523 Clear -1 1024 85 10000 0.89 149 22:18 08.04.2021
524 Clear -2 939 65 10000 3.29 170 21:42 08.04.2021
525 Clear 0 1024 82 10000 0.45 148 21:23 08.04.2021
526 Clear 0 1024 79 10000 0.45 184 20:59 08.04.2021
527 Clear -1 1021 40 10000 3.03 169 20:40 08.04.2021
528 Clouds 1 1024 74 10000 0.45 198 20:19 08.04.2021
529 Clouds 6 1021 66 10000 0.45 229 19:41 08.04.2021
530 Clouds 6 1021 66 10000 0.45 229 19:19 08.04.2021
531 Clouds 6 1021 66 10000 0.45 229 19:19 08.04.2021
532 Clouds 5 1024 52 10000 0.89 318 18:43 08.04.2021
533 Clouds 6 1024 51 10000 0.89 347 18:19 08.04.2021
534 Clouds 6 1024 50 10000 0.89 17 17:42 08.04.2021
535 Clouds 6 1024 49 10000 1.34 354 17:21 08.04.2021
536 Clouds 6 1022 37 10000 0.45 301 16:45 08.04.2021
537 Clouds 6 1022 37 10000 0.45 301 16:23 08.04.2021
538 Clouds 6 1022 40 10000 0.45 277 15:46 08.04.2021
539 Clouds 6 1022 40 10000 0.45 277 15:28 08.04.2021
540 Clouds 6 1022 40 10000 0.45 277 15:28 08.04.2021
541 Clouds 5 1022 43 10000 1.34 69 14:44 08.04.2021
542 Clouds 5 1022 43 10000 1.34 69 14:22 08.04.2021
543 Clouds 4 1022 43 10000 1.34 69 13:49 08.04.2021
544 Clouds 4 1023 46 10000 0.45 21 13:25 08.04.2021
545 Clouds 4 1023 46 10000 0.45 21 13:25 08.04.2021
546 Clouds 4 1023 46 10000 0.45 21 12:59 08.04.2021
547 Clouds 4 1023 55 10000 1.48 269 12:37 08.04.2021
548 Clouds 3 1023 55 10000 1.68 264 11:58 08.04.2021
549 Clouds 2 1023 60 10000 0.89 219 11:29 08.04.2021
550 Clouds 2 1023 60 10000 0.89 219 10:56 08.04.2021
551 Clouds 0 1023 82 10000 0.45 155 10:26 08.04.2021
552 Clouds 0 1023 82 10000 0.45 155 10:26 08.04.2021
553 Clouds 0 1023 82 10000 0.45 155 10:26 08.04.2021
554 Clouds 0 1023 82 10000 0.45 155 10:26 08.04.2021
555 Clouds 0 1023 82 10000 0.45 155 09:49 08.04.2021
556 Clouds -1 1023 90 10000 1.84 256 09:30 08.04.2021
557 Clouds -1 1027 82 10000 1.9 227 08:45 08.04.2021
558 Clouds -2 1025 48 10000 3.6 210 08:22 08.04.2021
559 Clouds -2 1027 84 10000 0.89 259 07:47 08.04.2021
560 Clouds -1 1025 52 10000 2.57 230 06:46 08.04.2021
561 Snow -2 1022 93 796 0.89 178 01:28 08.04.2021
562 Clouds -2 1022 94 796 1.79 175 00:32 08.04.2021
563 Snow -2 1022 94 347 1.79 175 23:50 07.04.2021
564 Snow -2 1022 92 243 0.45 200 23:27 07.04.2021
565 Snow -2 1022 92 243 0.45 200 22:58 07.04.2021
566 Snow -2 1021 84 243 0.45 93 22:39 07.04.2021
567 Snow -2 1021 84 212 0.45 93 22:21 07.04.2021
568 Snow -2 1021 86 212 0.89 209 21:34 07.04.2021
569 Snow -2 1021 86 165 0.89 209 20:59 07.04.2021
570 Snow -2 1020 78 165 0.89 105 20:40 07.04.2021
571 Snow -2 1020 78 126 0.89 105 20:19 07.04.2021
572 Snow -2 1020 78 126 0.89 83 19:41 07.04.2021
573 Snow -2 1020 78 196 0.89 83 19:22 07.04.2021
574 Snow -2 1019 76 196 2.24 120 18:42 07.04.2021
575 Snow -2 1019 76 447 2.24 120 18:18 07.04.2021
576 Snow -2 1019 73 447 1.79 52 17:48 07.04.2021
577 Snow -2 1019 73 447 1.79 52 17:30 07.04.2021
578 Snow -1 1019 80 963 0.89 192 16:47 07.04.2021
579 Snow -1 1019 80 1068 0.89 192 16:21 07.04.2021
580 Snow -1 1019 80 1068 0.89 192 15:56 07.04.2021
581 Snow -2 1022 78 1068 0.89 132 15:38 07.04.2021
582 Clouds -2 1018 79 1037 4.45 274 14:48 07.04.2021
583 Snow -2 1018 79 1389 4.41 277 14:25 07.04.2021
584 Snow -3 1018 87 2071 1.34 87 13:45 07.04.2021
585 Snow -3 1018 87 1386 1.34 87 13:20 07.04.2021
586 Snow -3 1017 84 1386 0.45 190 12:47 07.04.2021
587 Snow -2 1017 84 772 0.45 190 12:21 07.04.2021
588 Snow -3 1016 88 772 3.94 290 11:45 07.04.2021
589 Snow -4 1016 88 237 3.38 296 11:24 07.04.2021
590 Snow -4 1016 88 237 3.38 296 10:50 07.04.2021
591 Snow -3 1015 89 123 3.19 304 09:51 07.04.2021
592 Snow -4 1014 91 89 0.45 340 09:28 07.04.2021
593 Snow -4 1014 91 89 0.45 340 08:53 07.04.2021
594 Snow -4 1013 93 90 3.58 0 08:33 07.04.2021
595 Snow -4 1013 93 85 3.58 0 07:54 07.04.2021
596 Snow -4 1012 93 94 0.45 290 07:29 07.04.2021
597 Snow -4 1012 93 94 0.45 290 06:52 07.04.2021
598 Snow -4 1011 92 144 1.77 297 06:18 07.04.2021
599 Snow -4 1010 86 182 0.45 90 03:32 07.04.2021
600 Snow -3 1010 93 140 0.89 189 23:52 06.04.2021
601 Snow -3 1011 92 97 1.34 180 23:23 06.04.2021
602 Snow -3 1011 92 97 1.34 180 22:59 06.04.2021
603 Snow -3 1011 94 98 1.2 289 22:21 06.04.2021
604 Snow -3 1011 94 98 1.2 289 21:57 06.04.2021
605 Snow -3 1011 89 98 1.34 11 21:38 06.04.2021
606 Snow -3 1011 89 124 1.34 11 21:19 06.04.2021
607 Snow -2 1010 66 124 2.24 303 20:45 06.04.2021
608 Snow -2 1010 66 112 2.24 303 20:21 06.04.2021
609 Snow -1 1010 64 112 1.34 192 19:47 06.04.2021
610 Snow -1 1010 64 489 1.34 192 19:29 06.04.2021
611 Snow -1 1010 65 489 2.24 104 18:45 06.04.2021
612 Snow -1 1010 65 1418 2.24 104 18:23 06.04.2021
613 Snow -1 1010 74 1418 0.45 262 17:45 06.04.2021
614 Snow -1 1010 74 4014 0.45 262 17:27 06.04.2021
615 Snow -1 1010 74 4014 0.45 262 16:49 06.04.2021
616 Snow 0 1010 57 4014 0.45 111 16:30 06.04.2021
617 Snow 0 1011 61 10000 0.45 163 15:28 06.04.2021
618 Snow 0 1011 61 10000 0.45 163 14:55 06.04.2021
619 Snow -1 1011 61 10000 0.89 256 14:37 06.04.2021
620 Snow -1 1011 61 10000 0.89 256 14:37 06.04.2021
621 Snow -1 1011 61 10000 0.89 256 14:18 06.04.2021
622 Snow -1 1012 61 10000 0.45 351 13:40 06.04.2021
623 Snow -1 1012 61 5683 0.45 351 13:21 06.04.2021
624 Snow -2 1012 67 5683 1.34 228 12:41 06.04.2021
625 Clouds -2 1012 67 9596 1.34 228 12:20 06.04.2021
626 Clouds -1 1012 77 9596 0.45 84 11:48 06.04.2021
627 Clouds -2 1012 77 10000 0.45 84 11:21 06.04.2021
628 Clouds -3 1012 85 10000 1.79 125 10:47 06.04.2021
629 Clouds -3 1012 85 10000 1.79 125 10:25 06.04.2021
630 Clouds -4 1013 89 10000 0.45 207 09:48 06.04.2021
631 Clouds -4 1013 89 10000 0.45 207 09:48 06.04.2021
632 Clouds -4 1013 89 10000 0.45 207 09:29 06.04.2021
633 Clouds -5 1013 91 10000 1.68 246 08:40 06.04.2021
634 Clouds -5 1013 91 10000 1.86 204 07:57 06.04.2021
635 Clouds -7 930 82 10000 1.94 200 06:55 06.04.2021
636 Snow -5 1012 93 4855 0.45 115 05:22 06.04.2021
637 Snow -4 1012 98 167 2.24 348 01:57 06.04.2021
638 Snow -3 1012 98 133 0.45 10 00:44 06.04.2021
639 Snow -3 1012 98 98 0.45 10 00:21 06.04.2021
640 Snow -3 1011 98 98 1.34 296 23:42 05.04.2021
641 Snow -3 1011 98 97 1.34 296 23:19 05.04.2021
642 Snow -2 1009 95 97 2.68 324 22:45 05.04.2021
643 Snow -2 1009 95 84 2.68 324 22:24 05.04.2021
644 Snow 1 1007 86 84 0.89 124 21:40 05.04.2021
645 Rain 2 1007 86 54 0.89 124 21:20 05.04.2021
646 Rain 4 1007 61 60 0.89 354 20:42 05.04.2021
647 Rain 6 1007 61 94 0.89 354 20:23 05.04.2021
648 Rain 8 1007 50 10000 6.17 260 19:39 05.04.2021
649 Rain 8 1005 41 484 2.24 292 19:19 05.04.2021
650 Rain 8 1005 41 484 2.24 292 19:19 05.04.2021
651 Clouds 8 1006 19 484 4.47 228 18:43 05.04.2021
652 Clouds 10 1005 39 10000 3.13 267 18:25 05.04.2021
653 Clouds 10 1005 39 10000 3.13 267 17:48 05.04.2021
654 Clouds 12 1005 39 10000 2.68 228 17:25 05.04.2021
655 Clouds 12 1006 34 10000 2.24 233 16:57 05.04.2021
656 Clouds 12 1006 34 10000 2.24 233 16:38 05.04.2021
657 Clouds 13 1006 34 10000 3.13 220 16:18 05.04.2021
658 Clouds 13 1006 34 10000 2.24 215 15:47 05.04.2021
659 Clouds 13 1006 34 10000 3.13 150 15:22 05.04.2021
660 Clouds 13 1007 33 10000 4.02 139 14:36 05.04.2021
661 Clouds 13 1009 29 10000 1.79 305 13:56 05.04.2021
662 Clouds 13 1009 29 10000 1.79 305 13:31 05.04.2021
663 Clouds 12 1009 30 10000 1.34 246 12:47 05.04.2021
664 Clouds 12 1009 30 10000 1.34 246 12:26 05.04.2021
665 Clouds 13 1009 30 10000 1.34 246 11:53 05.04.2021
666 Clouds 12 1010 30 10000 0.89 215 11:31 05.04.2021
667 Clouds 12 1010 30 10000 0.89 215 10:56 05.04.2021
668 Clouds 11 1010 43 10000 0.89 204 10:36 05.04.2021
669 Clouds 8 1010 43 10000 0.89 204 09:49 05.04.2021
670 Clouds 6 1011 58 10000 0.89 134 09:26 05.04.2021
671 Clouds 6 1012 28 10000 2.24 247 08:54 05.04.2021
672 Clouds 5 1012 72 10000 2.35 240 08:36 05.04.2021
673 Clear 2 1012 31 10000 0.89 171 08:18 05.04.2021
674 Clear 0 1012 76 10000 0.45 118 07:33 05.04.2021
675 Clear -1 1015 77 10000 2.86 187 03:42 05.04.2021
676 Clear 0 1016 75 10000 0.89 237 00:57 05.04.2021
677 Clear 1 1017 70 10000 0.45 228 00:20 05.04.2021
678 Clear 2 1017 65 10000 0.45 242 23:32 04.04.2021
679 Clear 3 1017 65 10000 0.45 242 22:58 04.04.2021
680 Clear 2 1019 68 10000 2.37 180 22:40 04.04.2021
681 Clouds 3 1019 67 10000 2.15 178 22:21 04.04.2021
682 Clouds 4 1017 61 10000 0.45 226 21:22 04.04.2021
683 Clouds 2 936 52 10000 1.73 169 20:43 04.04.2021
684 Clouds 3 935 49 10000 0.48 121 20:23 04.04.2021
685 Clouds 10 1018 40 10000 1.34 311 19:41 04.04.2021
686 Clouds 9 1018 43 10000 2.24 334 19:20 04.04.2021
687 Clouds 10 1018 40 10000 1.34 315 18:51 04.04.2021
688 Clouds 10 1017 33 10000 2.68 5 18:25 04.04.2021
689 Clouds 10 1017 33 10000 2.68 5 17:59 04.04.2021
690 Clear 11 1017 32 10000 0.89 287 17:25 04.04.2021
691 Clear 11 1017 32 10000 0.89 287 17:25 04.04.2021
692 Clear 11 1017 32 10000 0.89 287 16:57 04.04.2021
693 Clear 11 1017 32 10000 1.81 3 16:39 04.04.2021
694 Clear 10 1017 32 10000 2.13 3 15:54 04.04.2021
695 Clear 11 1020 37 10000 2.24 352 15:32 04.04.2021
696 Clear 10 1020 37 10000 2.24 284 14:40 04.04.2021
697 Clear 9 1019 38 10000 1.79 299 14:21 04.04.2021
698 Clear 8 1019 38 10000 1.79 299 13:27 04.04.2021
699 Clear 8 1019 38 10000 1.79 299 12:52 04.04.2021
700 Clear 7 1019 41 10000 0.89 282 12:28 04.04.2021
701 Clear 7 1019 41 10000 0.89 282 11:50 04.04.2021
702 Clear 6 1019 39 10000 1.34 52 11:30 04.04.2021
703 Clear 6 1019 39 10000 1.34 52 10:54 04.04.2021
704 Clear 4 1020 59 10000 0.89 32 10:32 04.04.2021
705 Clear 3 1020 59 10000 0.89 32 09:50 04.04.2021
706 Clear 1 1020 83 10000 0.45 172 09:23 04.04.2021
707 Clear 0 1020 83 10000 0.45 172 08:48 04.04.2021
708 Clear -1 1020 83 10000 0.45 172 08:30 04.04.2021
709 Clouds -3 1020 84 10000 0.89 125 06:40 04.04.2021
710 Clouds -2 1020 81 10000 0.45 230 05:44 04.04.2021
711 Clouds -1 1022 80 10000 2.34 140 03:25 04.04.2021
712 Clouds 0 1023 75 10000 2.16 133 01:18 04.04.2021
713 Clouds 0 1023 71 10000 2.04 131 00:19 04.04.2021
714 Clouds 1 1023 71 10000 0.89 13 23:42 03.04.2021
715 Clouds 2 1023 53 10000 2.06 40 22:59 03.04.2021
716 Clouds 0 940 62 10000 1.87 124 22:40 03.04.2021
717 Clouds 1 1022 34 10000 1.65 120 22:19 03.04.2021
718 Clouds 2 1023 53 10000 3.09 30 21:46 03.04.2021
719 Clouds 2 1022 30 10000 1.34 63 21:23 03.04.2021
720 Clouds 2 1027 100 10000 1.36 93 20:48 03.04.2021
721 Clouds 4 1022 57 10000 1.34 321 20:26 03.04.2021
722 Clouds 5 1020 52 10000 0.89 298 19:48 03.04.2021
723 Clouds 5 1020 52 10000 0.89 298 19:24 03.04.2021
724 Clouds 5 1020 52 10000 2.24 316 18:46 03.04.2021
725 Clouds 5 1020 52 10000 2.24 316 18:23 03.04.2021
726 Clouds 5 1020 52 10000 2.24 316 17:50 03.04.2021
727 Clouds 5 1020 53 10000 3.13 320 17:21 03.04.2021
728 Clouds 5 1020 53 10000 3.13 320 16:49 03.04.2021
729 Clouds 6 1020 55 10000 2.68 309 16:21 03.04.2021
730 Clouds 6 1021 59 10000 2.68 351 15:48 03.04.2021
731 Clouds 5 1020 60 10000 3.58 327 15:22 03.04.2021
732 Clouds 5 1020 60 10000 3.58 327 14:44 03.04.2021
733 Clouds 5 1020 60 10000 3.58 327 14:22 03.04.2021
734 Clouds 5 1020 60 10000 3.58 327 13:50 03.04.2021
735 Clouds 4 1020 63 10000 2.24 318 13:24 03.04.2021
736 Clouds 4 1020 63 10000 2.24 318 12:56 03.04.2021
737 Clouds 4 1020 68 10000 0.45 305 12:31 03.04.2021
738 Clouds 3 1020 71 10000 0.89 330 11:39 03.04.2021
739 Clouds 3 1020 71 4660 0.89 330 10:58 03.04.2021
740 Clouds 3 1019 74 4660 1.79 347 10:40 03.04.2021
741 Clouds 2 1019 74 1496 1.79 347 10:18 03.04.2021
742 Clouds 2 1018 82 1582 0.89 10 09:28 03.04.2021
743 Clouds 2 1018 82 1582 0.89 10 08:58 03.04.2021
744 Clouds 2 1018 82 978 0.89 10 08:30 03.04.2021
745 Clouds 2 1018 82 3153 1.79 275 07:29 03.04.2021
746 Clouds 3 1017 75 3153 2.24 347 06:44 03.04.2021
747 Clouds 5 1017 70 7540 0.45 344 03:53 03.04.2021
748 Clouds 5 1017 78 791 0.89 315 02:51 03.04.2021
749 Clouds 5 1018 73 626 0.45 61 02:26 03.04.2021
750 Clouds 6 1017 68 849 0.45 356 00:23 03.04.2021
751 Clouds 6 1017 68 849 0.45 356 23:50 02.04.2021
752 Clouds 8 1017 61 7557 0.45 81 23:24 02.04.2021
753 Clouds 8 1017 61 7557 0.45 81 22:55 02.04.2021
754 Clouds 7 1017 60 7557 1.34 344 22:36 02.04.2021
755 Clouds 9 1017 76 7321 0.89 321 21:46 02.04.2021
756 Clouds 10 1017 76 1520 0.89 321 21:26 02.04.2021
757 Clouds 10 1017 76 1520 0.89 321 20:53 02.04.2021
758 Clouds 10 1016 74 1656 0.45 69 20:34 02.04.2021
759 Clouds 11 1016 74 750 0.45 69 19:59 02.04.2021
760 Clouds 11 1016 74 750 1.79 323 19:39 02.04.2021
761 Clouds 11 1016 74 982 1.79 323 19:21 02.04.2021
762 Clouds 11 1016 74 982 0.45 333 18:39 02.04.2021
763 Clouds 11 1016 74 1928 0.45 333 18:20 02.04.2021
764 Clouds 12 1015 69 1928 3.13 334 17:40 02.04.2021
765 Clouds 12 1015 69 8420 3.13 334 16:51 02.04.2021
766 Clouds 12 1015 69 8420 3.13 334 16:50 02.04.2021
767 Clouds 13 1014 73 5321 3.13 331 16:22 02.04.2021
768 Clear 14 1016 51 10000 3.09 270 15:35 02.04.2021
769 Clouds 13 1016 55 10000 2.57 280 14:55 02.04.2021
770 Clouds 16 1014 55 10000 1.79 351 14:31 02.04.2021
771 Clouds 16 1014 55 10000 1.79 351 14:31 02.04.2021
772 Clouds 15 1016 57 7578 2.68 345 13:44 02.04.2021
773 Clouds 15 1016 57 8344 2.68 345 13:23 02.04.2021
774 Clouds 14 1016 59 8344 0.89 3 12:41 02.04.2021
775 Clouds 14 1016 59 10000 0.89 3 12:20 02.04.2021
776 Clouds 14 1016 59 10000 0.89 3 11:56 02.04.2021
777 Clouds 12 1017 63 10000 0.89 26 11:21 02.04.2021
778 Clouds 12 1017 63 10000 0.89 26 11:21 02.04.2021
779 Clouds 12 1017 63 10000 0.89 26 10:50 02.04.2021
780 Clouds 11 1017 71 10000 0.45 81 10:29 02.04.2021
781 Clouds 10 1017 71 10000 0.45 81 09:53 02.04.2021
782 Clouds 10 1015 80 10000 0.45 0 09:27 02.04.2021
783 Clouds 7 1015 84 10000 0.89 336 08:54 02.04.2021
784 Clouds 6 1017 82 10000 0.45 138 08:30 02.04.2021
785 Clouds 6 1017 85 10000 1.34 148 07:30 02.04.2021
786 Clouds 6 1017 85 10000 1.34 148 07:30 02.04.2021
787 Clouds 6 1017 85 10000 1.34 148 06:52 02.04.2021
788 Clouds 7 1018 81 10000 1.46 196 05:28 02.04.2021
789 Clouds 9 1018 75 10000 0.45 224 02:30 02.04.2021
790 Clouds 10 1019 72 10000 0.45 154 00:52 02.04.2021
791 Clouds 11 1017 73 10000 0.45 111 00:22 02.04.2021
792 Clouds 11 1017 73 10000 0.45 111 00:22 02.04.2021
793 Clouds 11 937 63 10000 0.89 292 23:39 01.04.2021
794 Rain 9 1022 100 10000 2.51 169 22:57 01.04.2021
795 Rain 12 1019 41 10000 2.84 166 22:20 01.04.2021
796 Clouds 11 1018 60 10000 0.89 180 21:50 01.04.2021
797 Rain 12 1018 59 10000 2.06 240 21:27 01.04.2021
798 Rain 12 1018 55 10000 6.17 340 20:47 01.04.2021
799 Clouds 12 1017 59 10000 0.51 0 20:25 01.04.2021
800 Clouds 13 1017 48 10000 1.03 0 19:56 01.04.2021
801 Clouds 13 1017 48 10000 1.03 0 19:35 01.04.2021
802 Clouds 14 1017 48 10000 1.03 0 19:35 01.04.2021
803 Clouds 17 1016 46 10000 1.54 80 18:45 01.04.2021
804 Clouds 19 1017 35 10000 1.03 0 18:18 01.04.2021
805 Clouds 21 1016 34 10000 1.34 355 17:51 01.04.2021
806 Clouds 21 1016 34 10000 1.34 355 17:32 01.04.2021
807 Clouds 21 1016 34 10000 1.34 355 16:51 01.04.2021
808 Clouds 21 1016 33 10000 2.24 344 16:28 01.04.2021
809 Clouds 21 1016 33 10000 2.24 350 15:46 01.04.2021
810 Clouds 21 1016 32 10000 2.24 346 15:19 01.04.2021
811 Clouds 21 1016 32 10000 2.24 346 15:19 01.04.2021
812 Clouds 21 1017 33 10000 1.34 319 14:43 01.04.2021
813 Clouds 21 1017 33 10000 0.89 317 14:24 01.04.2021
814 Clouds 21 1017 34 10000 1.34 330 13:55 01.04.2021
815 Clouds 20 1018 33 10000 1.34 310 13:30 01.04.2021
816 Clouds 20 1018 35 10000 1.34 355 12:51 01.04.2021
817 Clouds 19 1018 36 10000 1.34 1 12:31 01.04.2021
818 Clouds 19 1019 35 10000 0.45 319 11:49 01.04.2021
819 Clouds 19 1019 35 10000 0.45 319 11:49 01.04.2021
820 Clouds 17 1021 35 10000 0.45 321 11:24 01.04.2021
821 Clouds 16 1021 35 10000 0.45 321 10:53 01.04.2021
822 Clouds 13 1021 48 10000 0.45 183 10:35 01.04.2021
823 Clouds 13 1021 48 10000 0.45 183 09:54 01.04.2021
824 Clouds 11 1021 39 10000 1.69 173 09:27 01.04.2021
825 Clouds 10 1020 41 10000 0.45 112 08:33 01.04.2021
826 Clouds 9 1020 44 10000 0.45 90 07:59 01.04.2021
827 Clouds 8 1021 44 10000 0.45 112 07:20 01.04.2021
828 Clouds 7 1020 47 10000 0.45 112 06:48 01.04.2021
829 Clouds 7 1020 47 10000 0.45 112 06:48 01.04.2021
830 Clouds 10 1022 43 10000 0.45 135 03:52 01.04.2021
831 Clear 8 1021 73 10000 2.24 150 01:52 01.04.2021
832 Clouds 10 1021 68 10000 0.89 159 23:51 31.03.2021
833 Clouds 8 1022 63 10000 0.45 239 23:31 31.03.2021
834 Clouds 9 1022 59 10000 0.45 233 22:41 31.03.2021
835 Clouds 9 1022 59 10000 0.45 233 22:21 31.03.2021
836 Clouds 10 1022 47 10000 1.34 144 21:47 31.03.2021
837 Clouds 11 1022 47 10000 1.34 144 21:24 31.03.2021
838 Clouds 12 1022 47 10000 1.34 144 20:57 31.03.2021
839 Clear 12 1022 46 10000 0.45 231 20:39 31.03.2021
840 Clear 12 1022 46 10000 0.45 231 20:18 31.03.2021
841 Clear 16 1022 42 10000 1.54 100 19:40 31.03.2021
842 Clear 16 940 36 10000 0.67 336 19:19 31.03.2021
843 Clear 17 1022 49 10000 1.03 80 18:49 31.03.2021
844 Clear 20 1020 36 10000 2.24 349 18:21 31.03.2021
845 Clear 21 1021 33 10000 2.24 9 17:37 31.03.2021
846 Clear 21 1021 32 10000 2.68 358 17:18 31.03.2021
847 Clear 21 1021 33 10000 0.89 338 16:48 31.03.2021
848 Clear 21 1021 32 10000 2.24 349 16:25 31.03.2021
849 Clear 21 1022 33 10000 0.89 25 15:50 31.03.2021
850 Clouds 21 1022 31 10000 1.34 333 15:20 31.03.2021
851 Clouds 21 1022 31 10000 1.34 333 15:20 31.03.2021
852 Clouds 21 1022 31 10000 2.24 355 14:45 31.03.2021
853 Clouds 21 1023 30 10000 2.68 330 14:24 31.03.2021
854 Clouds 20 1023 29 10000 1.34 334 13:42 31.03.2021
855 Clouds 20 1023 30 10000 1.34 327 13:18 31.03.2021
856 Clouds 19 1024 30 10000 1.34 296 12:36 31.03.2021
857 Clouds 18 1024 32 10000 0.89 337 12:18 31.03.2021
858 Clouds 16 1025 33 10000 0.51 271 11:22 31.03.2021
859 Clouds 14 1025 40 10000 0.45 157 10:47 31.03.2021
860 Clouds 13 1025 55 10000 0.72 196 10:26 31.03.2021
861 Clouds 11 1025 68 10000 0.72 196 09:45 31.03.2021
862 Clouds 11 1026 39 10000 1.73 171 09:26 31.03.2021
863 Clouds 7 1025 63 10000 0.89 45 08:39 31.03.2021
864 Clouds 7 1025 66 10000 2.36 170 07:58 31.03.2021
865 Clouds 6 1026 47 10000 0.45 112 06:50 31.03.2021
866 Clouds 8 1025 61 10000 0.89 112 03:52 31.03.2021
867 Clouds 8 1025 59 10000 1.79 157 02:30 31.03.2021
868 Clouds 8 945 66 10000 1.34 337 00:53 31.03.2021
869 Clouds 8 945 64 10000 2.33 165 00:21 31.03.2021
870 Clouds 9 1028 67 10000 1.34 163 23:47 30.03.2021
871 Clouds 9 1028 65 10000 0.89 148 23:19 30.03.2021
872 Clouds 10 1028 62 10000 0.89 151 22:42 30.03.2021
873 Clouds 10 1028 60 10000 0.89 161 22:24 30.03.2021
874 Clouds 10 1028 57 10000 0.45 152 21:53 30.03.2021
875 Clouds 11 1028 52 10000 0.45 219 21:24 30.03.2021
876 Clouds 11 1028 52 10000 0.45 219 20:57 30.03.2021
877 Clouds 13 1028 48 10000 0.45 253 20:29 30.03.2021
878 Clouds 12 1028 48 10000 0.45 253 19:52 30.03.2021
879 Clouds 16 1027 42 10000 0.89 264 19:28 30.03.2021
880 Clear 16 1028 39 10000 1.03 0 18:47 30.03.2021
881 Clear 16 1028 51 10000 1.03 0 18:24 30.03.2021
882 Clouds 21 1028 28 10000 1.79 324 17:42 30.03.2021
883 Clouds 21 1028 29 10000 1.34 340 17:24 30.03.2021
884 Clouds 21 1028 27 10000 1.79 349 16:46 30.03.2021
885 Clouds 21 1028 27 10000 1.79 349 16:46 30.03.2021
886 Clouds 21 1028 27 10000 2.68 312 16:25 30.03.2021
887 Clouds 21 1029 28 10000 2.68 325 15:21 30.03.2021
888 Clouds 21 1029 26 10000 2.68 315 14:58 30.03.2021
889 Clouds 20 1029 28 10000 1.34 357 14:39 30.03.2021
890 Clouds 19 1030 23 10000 0.89 26 14:18 30.03.2021
891 Clouds 18 1030 23 10000 0.89 26 13:38 30.03.2021
892 Clouds 17 1030 23 10000 0.89 26 12:49 30.03.2021
893 Clouds 17 1031 24 10000 0.89 84 12:29 30.03.2021
894 Clouds 17 1031 24 10000 0.89 84 11:59 30.03.2021
895 Clouds 14 1031 39 10000 0.65 87 11:24 30.03.2021
896 Clouds 13 1031 31 10000 0.45 135 10:47 30.03.2021
897 Clouds 14 1031 55 10000 1.06 146 10:29 30.03.2021
898 Clouds 12 1032 68 10000 1.06 146 09:57 30.03.2021
899 Clouds 12 1032 39 10000 1.06 146 09:37 30.03.2021
900 Clouds 10 1030 65 10000 0.45 225 09:18 30.03.2021
901 Clouds 7 1032 42 10000 1.86 158 08:39 30.03.2021
902 Clouds 4 1032 73 10000 0.89 144 07:52 30.03.2021
903 Clouds 2 1032 73 10000 0.89 148 07:22 30.03.2021
904 Clouds 4 1032 72 10000 0.45 154 05:49 30.03.2021
905 Clouds 4 1032 72 10000 1.34 134 05:19 30.03.2021
906 Clouds 4 1032 70 10000 0.45 225 00:40 30.03.2021
907 Clouds 5 1032 68 10000 0.45 190 23:36 29.03.2021
908 Clouds 6 1032 68 10000 0.45 190 22:52 29.03.2021
909 Clouds 6 1032 64 10000 2.73 159 22:30 29.03.2021
910 Clouds 7 1032 59 10000 0.89 221 21:47 29.03.2021
911 Clouds 7 1032 59 10000 0.89 221 21:29 29.03.2021
912 Clear 11 1032 44 10000 1.03 150 20:48 29.03.2021
913 Clear 11 1032 44 10000 1.03 0 20:27 29.03.2021
914 Clear 14 1032 41 10000 1.03 0 19:49 29.03.2021
915 Clear 13 1032 31 10000 1.54 0 19:24 29.03.2021
916 Clear 16 1032 27 10000 1.54 300 18:44 29.03.2021
917 Clear 18 1032 17 10000 2.06 340 18:26 29.03.2021
918 Clear 17 1032 29 10000 2.06 340 17:51 29.03.2021
919 Clear 18 1032 32 10000 2.06 340 17:31 29.03.2021
920 Clear 18 1032 32 10000 2.06 340 17:30 29.03.2021
921 Clear 18 1032 32 10000 1.03 0 16:41 29.03.2021
922 Clear 18 1033 42 10000 1.03 0 16:20 29.03.2021
923 Clouds 19 1032 36 3559 1.36 172 15:35 29.03.2021
924 Clouds 18 1033 39 3539 1.17 181 14:57 29.03.2021
925 Clouds 18 1033 17 3535 0.45 202 14:38 29.03.2021
926 Clouds 17 1033 27 3530 2.68 357 13:54 29.03.2021
927 Clouds 17 1033 27 3530 3.13 1 13:31 29.03.2021
928 Clouds 17 1033 25 3536 2.24 342 12:53 29.03.2021
929 Clouds 16 1033 27 3536 1.34 349 12:35 29.03.2021
930 Clouds 13 1032 37 3865 0.45 266 11:43 29.03.2021
931 Clouds 12 1032 37 7235 0.45 266 11:24 29.03.2021
932 Clouds 9 1032 50 7235 0.45 223 10:41 29.03.2021
933 Clouds 8 1032 50 10000 0.45 223 09:56 29.03.2021
934 Clouds 7 1034 61 10000 0.89 175 09:23 29.03.2021
935 Clouds 3 1033 70 10000 1.34 148 08:30 29.03.2021
936 Clouds 2 1033 73 10000 0.89 158 07:51 29.03.2021
937 Clouds 1 1031 70 10000 0.89 180 06:42 29.03.2021
938 Clouds 2 1031 72 10000 0.89 141 05:19 29.03.2021
939 Clouds 2 1031 67 10000 0.89 150 02:22 29.03.2021
940 Clouds 3 1031 65 10000 1.34 173 00:26 29.03.2021
941 Clouds 3 1031 65 10000 1.34 173 23:53 28.03.2021
942 Clouds 4 1030 61 10000 0.89 168 23:24 28.03.2021
943 Clouds 4 1030 65 10000 0.89 221 22:42 28.03.2021
944 Clouds 5 1030 65 10000 0.89 221 22:24 28.03.2021
945 Clouds 5 1029 54 10000 1.34 221 21:45 28.03.2021
946 Clouds 6 1029 54 10000 1.34 221 21:24 28.03.2021
947 Clouds 6 1029 54 10000 1.34 221 20:51 28.03.2021
948 Clear 8 1030 66 10000 1.03 160 20:33 28.03.2021
949 Clear 11 1030 54 10000 1.03 0 19:47 28.03.2021
950 Clear 9 1030 54 10000 1.03 0 19:25 28.03.2021
951 Clear 11 1030 41 10000 1.03 0 18:59 28.03.2021
952 Clear 11 1030 41 10000 1.03 0 18:36 28.03.2021
953 Clear 12 1030 47 10000 1.54 0 17:56 28.03.2021
954 Clear 12 1030 47 10000 1.54 0 17:36 28.03.2021
955 Clouds 12 1029 33 3802 0.89 292 16:55 28.03.2021
956 Clouds 14 1029 34 2835 1.34 292 16:24 28.03.2021
957 Clouds 14 1029 35 2835 1.34 292 15:49 28.03.2021
958 Clouds 13 1030 40 2948 0.89 292 15:24 28.03.2021
959 Clouds 13 1031 43 2948 1.79 355 14:39 28.03.2021
960 Clouds 12 1031 45 9927 2.68 2 13:55 28.03.2021
961 Clouds 12 1029 41 9927 0.45 41 13:34 28.03.2021
962 Clouds 10 1029 41 10000 0.45 41 12:55 28.03.2021
963 Clouds 9 1029 48 10000 0.45 130 12:34 28.03.2021
964 Clouds 9 1029 48 10000 0.45 130 11:50 28.03.2021
965 Clouds 7 1029 59 10000 0.89 132 11:32 28.03.2021
966 Clouds 4 1030 76 10000 0.89 81 10:47 28.03.2021
967 Clouds 4 1030 76 10000 0.89 81 10:28 28.03.2021
968 Clouds 4 1030 76 10000 0.89 81 09:49 28.03.2021
969 Clouds 1 1029 91 10000 0.71 187 09:25 28.03.2021
970 Clouds -1 1029 94 10000 0.45 140 08:48 28.03.2021
971 Clouds -2 1029 94 10000 0.45 140 07:53 28.03.2021
972 Clouds -1 1028 93 10000 2.17 168 07:34 28.03.2021
973 Clouds 0 1028 92 10000 0.45 262 05:19 28.03.2021
974 Clouds 1 1028 86 10000 0.45 45 01:38 28.03.2021
975 Clouds 2 947 70 10000 2.29 181 00:22 28.03.2021
976 Clouds 2 1029 90 10000 0.45 133 23:44 27.03.2021
977 Clouds 2 1029 90 10000 0.45 133 23:21 27.03.2021
978 Clouds 3 1029 90 10000 0.89 150 22:38 27.03.2021
979 Clouds 3 1029 90 10000 0.89 150 21:59 27.03.2021
980 Clouds 3 1028 90 10000 0.45 218 21:40 27.03.2021
981 Clouds 3 1028 90 10000 0.45 218 21:19 27.03.2021
982 Clouds 4 1028 90 10000 0.45 218 20:50 27.03.2021
983 Clouds 4 1028 86 2408 0.45 132 20:31 27.03.2021
984 Clouds 4 1027 84 2408 1.34 216 19:45 27.03.2021
985 Clouds 5 1027 84 3945 1.34 216 19:23 27.03.2021
986 Clouds 4 1027 84 3945 1.34 216 18:50 27.03.2021
987 Clouds 5 1026 80 1046 0.89 136 18:29 27.03.2021
988 Clouds 5 1026 80 1046 0.89 136 17:56 27.03.2021
989 Clouds 6 1026 70 109 0.89 160 17:26 27.03.2021
990 Clouds 6 1026 70 109 0.89 160 16:53 27.03.2021
991 Clouds 6 1025 74 109 0.45 10 16:30 27.03.2021
992 Clouds 5 1025 74 70 0.45 10 15:55 27.03.2021
993 Clouds 5 1025 73 70 1.57 282 15:33 27.03.2021
994 Clouds 5 1025 73 143 1.51 282 14:52 27.03.2021
995 Clouds 5 1025 73 512 0.45 205 13:59 27.03.2021
996 Clouds 5 1025 75 373 1.79 146 13:26 27.03.2021
997 Clouds 5 1025 75 547 1.79 146 12:56 27.03.2021
998 Clouds 4 1025 78 360 0.45 73 12:27 27.03.2021
999 Clouds 4 1025 79 360 0.45 208 11:46 27.03.2021
1000 Clouds 4 1025 79 83 0.45 208 11:25 27.03.2021
1001 Clouds 4 1024 79 83 2.68 126 10:45 27.03.2021
1002 Clouds 4 1024 79 40 2.68 126 10:24 27.03.2021
1003 Rain 4 1023 80 55 2.24 150 09:29 27.03.2021
1004 Rain 5 1022 83 55 0.45 152 08:48 27.03.2021
1005 Rain 5 1022 83 55 0.45 152 08:30 27.03.2021
1006 Rain 5 1020 79 170 0.45 150 07:35 27.03.2021
1007 Rain 4 1020 77 517 0.89 216 06:47 27.03.2021
1008 Clouds 4 1020 77 4027 0.89 216 06:28 27.03.2021
1009 Clouds 3 1018 77 10000 0.45 286 04:40 27.03.2021
1010 Clouds 5 1018 69 10000 0.45 152 00:54 27.03.2021
1011 Clouds 5 1018 72 10000 1.34 109 00:30 27.03.2021
1012 Clouds 5 1018 72 10000 1.34 109 23:54 26.03.2021
1013 Clouds 5 1018 72 10000 1.34 109 23:54 26.03.2021
1014 Clouds 5 1019 74 10000 0.45 281 23:19 26.03.2021
1015 Clouds 5 1019 74 10000 0.89 217 22:35 26.03.2021
1016 Clouds 6 1019 70 10000 0.89 167 21:36 26.03.2021
1017 Clouds 6 1019 70 10000 0.89 167 21:18 26.03.2021
1018 Clouds 7 1018 65 10000 0.45 138 20:38 26.03.2021
1019 Clouds 7 1018 65 10000 0.45 138 20:19 26.03.2021
1020 Clouds 8 1018 59 10000 2.35 173 19:47 26.03.2021
1021 Clouds 8 1018 59 10000 2.15 164 19:28 26.03.2021
1022 Clouds 8 1018 57 10000 1.79 217 18:42 26.03.2021
1023 Clouds 10 1018 57 10000 1.79 217 18:20 26.03.2021
1024 Clouds 14 1018 33 10000 0.89 292 17:46 26.03.2021
1025 Clouds 14 1018 59 10000 0.47 210 16:56 26.03.2021
1026 Clouds 14 1018 33 10000 0.89 292 16:33 26.03.2021
1027 Clouds 14 1018 36 10000 0.89 292 15:53 26.03.2021
1028 Clouds 16 1018 30 10000 0.89 292 15:21 26.03.2021
1029 Clouds 16 1019 26 10000 1.34 292 14:30 26.03.2021
1030 Clouds 14 1019 40 10000 0.89 9 13:38 26.03.2021
1031 Clouds 13 1019 40 10000 0.89 9 12:54 26.03.2021
1032 Clouds 13 1020 43 10000 1.34 16 12:32 26.03.2021
1033 Clouds 11 1020 43 10000 0.57 191 11:35 26.03.2021
1034 Clear 11 1020 43 10000 0.66 174 10:55 26.03.2021
1035 Clear 10 1020 54 10000 0.45 89 10:35 26.03.2021
1036 Clear 8 1021 68 10000 0.89 147 09:44 26.03.2021
1037 Clear 6 1021 74 10000 1.34 151 09:22 26.03.2021
1038 Clear 6 1021 81 10000 1.51 155 08:40 26.03.2021
1039 Clear 5 1019 52 10000 0.45 180 08:21 26.03.2021
1040 Clear -1 1021 88 10000 0.89 138 07:23 26.03.2021
1041 Clear -1 1021 88 10000 0.89 138 06:58 26.03.2021
1042 Clear -1 1021 87 10000 0.45 226 06:32 26.03.2021
1043 Clear -1 1021 85 10000 0.45 109 05:30 26.03.2021
1044 Clear 1 1022 82 10000 0.89 217 01:59 26.03.2021
1045 Clouds 2 1022 80 10000 1.34 150 00:31 26.03.2021
1046 Clouds 2 1022 78 10000 0.89 177 23:44 25.03.2021
1047 Clouds 3 1022 78 10000 0.89 177 23:20 25.03.2021
1048 Clouds 3 1022 78 10000 0.45 164 22:36 25.03.2021
1049 Clouds 4 1022 78 10000 0.45 164 21:53 25.03.2021
1050 Clouds 4 1021 70 10000 0.45 218 21:34 25.03.2021
1051 Clear 7 1021 50 10000 2.57 210 20:45 25.03.2021
1052 Clear 8 1021 50 10000 2.57 210 20:25 25.03.2021
1053 Clouds 10 1021 47 10000 2.57 180 19:48 25.03.2021
1054 Clear 11 1021 47 10000 1.03 0 19:30 25.03.2021
1055 Clear 12 1021 41 10000 2.06 120 18:49 25.03.2021
1056 Clear 9 1020 47 10000 1.03 90 18:27 25.03.2021
1057 Clear 10 1020 47 10000 1.03 90 17:55 25.03.2021
1058 Clear 13 1020 47 10000 1.03 90 17:36 25.03.2021
1059 Clear 12 1020 41 10000 1.03 0 16:55 25.03.2021
1060 Clouds 13 1019 31 10000 0.45 292 16:32 25.03.2021
1061 Clear 14 1020 36 10000 0.51 0 15:46 25.03.2021
1062 Clear 13 1021 41 10000 2.06 60 15:23 25.03.2021
1063 Clear 15 1021 38 10000 1.54 60 14:48 25.03.2021
1064 Clouds 15 1018 44 1309 1.08 234 14:18 25.03.2021
1065 Clouds 14 1019 44 1053 0.97 228 13:24 25.03.2021
1066 Clouds 11 1020 34 1053 0.45 77 12:45 25.03.2021
1067 Clouds 11 1020 34 912 0.45 77 12:21 25.03.2021
1068 Clouds 12 1020 34 912 0.45 77 11:53 25.03.2021
1069 Clouds 11 1021 34 912 0.45 131 11:31 25.03.2021
1070 Clouds 11 1021 34 863 0.45 131 10:57 25.03.2021
1071 Clouds 8 1021 47 863 0.45 18 10:38 25.03.2021
1072 Clouds 8 1021 47 5577 0.45 18 10:18 25.03.2021
1073 Clouds 6 1021 61 5577 0.79 272 09:43 25.03.2021
1074 Clouds 4 1021 61 10000 0.94 208 08:59 25.03.2021
1075 Clouds 5 1022 82 10000 0.94 208 08:30 25.03.2021
1076 Clouds -2 1021 78 10000 0.45 217 07:26 25.03.2021
1077 Clouds -2 1021 83 10000 0.89 186 06:27 25.03.2021
1078 Clouds -2 1021 83 10000 0.89 186 05:49 25.03.2021
1079 Clouds -2 1021 82 10000 2.94 168 04:42 25.03.2021
1080 Clear -1 1022 83 10000 0.45 191 00:46 25.03.2021
1081 Clear 0 1022 83 10000 0.45 191 00:18 25.03.2021
1082 Clear 0 1022 82 10000 0.89 171 23:36 24.03.2021
1083 Clear 0 1022 82 10000 0.89 171 22:58 24.03.2021
1084 Clear 0 1022 81 10000 0.89 207 22:38 24.03.2021
1085 Clear 0 1022 81 10000 0.89 207 21:50 24.03.2021
1086 Clear 1 1022 77 10000 0.45 232 21:31 24.03.2021
1087 Clear 2 1022 77 10000 0.45 232 20:55 24.03.2021
1088 Clear 5 1023 71 10000 1.03 0 20:37 24.03.2021
1089 Clear 5 1023 57 10000 2.06 180 20:18 24.03.2021
1090 Clear 6 1022 61 10000 1.03 180 19:31 24.03.2021
1091 Clear 10 1022 47 10000 0.51 0 18:52 24.03.2021
1092 Clouds 7 1021 61 10000 0.89 232 18:24 24.03.2021
1093 Clouds 6 1021 61 10000 0.89 232 17:53 24.03.2021
1094 Clouds 10 939 37 10000 1.86 177 17:32 24.03.2021
1095 Clouds 10 939 37 10000 1.86 177 17:32 24.03.2021
1096 Clouds 10 939 37 10000 1.86 177 17:32 24.03.2021
1097 Clear 10 1023 46 10000 2.57 280 16:54 24.03.2021
1098 Clouds 10 1024 100 10000 0.45 282 16:31 24.03.2021
1099 Clear 12 1023 54 10000 2.57 280 15:57 24.03.2021
1100 Clouds 13 1024 50 701 1.61 183 15:33 24.03.2021
1101 Clouds 12 1025 47 205 0.89 5 14:55 24.03.2021
1102 Clouds 11 1022 41 136 1.79 6 14:28 24.03.2021
1103 Clouds 11 1022 41 136 1.79 6 13:57 24.03.2021
1104 Clear 9 1022 44 891 0.89 14 13:28 24.03.2021
1105 Clear 8 1023 47 891 0.89 27 12:48 24.03.2021
1106 Clear 8 1023 47 1565 0.89 27 12:27 24.03.2021
1107 Clear 8 1023 47 1565 0.89 27 11:49 24.03.2021
1108 Clear 7 1023 47 2000 0.45 33 11:20 24.03.2021
1109 Clear 6 1023 60 2000 0.53 350 10:44 24.03.2021
1110 Clear 5 1023 60 5407 0.1 26 10:25 24.03.2021
1111 Clear 5 1023 60 5407 0.1 26 09:54 24.03.2021
1112 Clear 5 1025 100 10000 0.44 143 09:23 24.03.2021
1113 Clear 5 1025 100 10000 0.44 143 08:55 24.03.2021
1114 Clear 1 1026 92 10000 1.43 163 08:29 24.03.2021
1115 Clear -4 1023 90 10000 1.43 163 07:42 24.03.2021
1116 Clear -5 1023 90 10000 2.52 166 06:54 24.03.2021
1117 Clear -5 1023 93 10000 0.89 166 06:34 24.03.2021
1118 Clouds -2 1024 90 10000 0.45 261 01:20 24.03.2021
1119 Clouds -2 1024 91 10000 0.45 220 00:32 24.03.2021
1120 Clouds -1 1024 89 10000 0.45 216 23:23 23.03.2021
1121 Clouds -1 1024 89 10000 0.45 216 22:58 23.03.2021
1122 Clouds -1 1024 85 10000 2.75 169 22:40 23.03.2021
1123 Clouds -1 1024 85 10000 2.65 172 21:59 23.03.2021
1124 Clouds 0 1024 86 10000 0.45 118 21:41 23.03.2021
1125 Clouds 0 1024 86 10000 0.45 118 21:20 23.03.2021
1126 Clouds 0 1023 80 10000 2.44 171 20:42 23.03.2021
1127 Clouds 1 1023 80 10000 2.14 171 20:23 23.03.2021
1128 Clouds 2 1023 77 10000 0.89 174 19:45 23.03.2021
1129 Clouds 2 1023 77 10000 0.89 174 19:25 23.03.2021
1130 Clouds 4 1022 65 10000 0.89 208 18:43 23.03.2021
1131 Clouds 4 1022 65 10000 0.89 208 18:21 23.03.2021
1132 Clouds 5 1025 63 10000 0.45 270 17:44 23.03.2021
1133 Clouds 6 1022 46 10000 1.79 306 17:21 23.03.2021
1134 Clouds 6 1022 46 10000 1.79 306 17:21 23.03.2021
1135 Clouds 7 1022 46 6302 1.79 306 16:26 23.03.2021
1136 Clouds 7 1022 46 6302 1.79 306 15:59 23.03.2021
1137 Clouds 7 1022 44 6302 0.45 20 15:38 23.03.2021
1138 Clouds 6 1022 44 2881 0.45 20 14:51 23.03.2021
1139 Clouds 6 1022 46 6736 1.34 341 14:21 23.03.2021
1140 Clouds 5 1022 46 6736 1.34 341 13:49 23.03.2021
1141 Clouds 5 1023 46 10000 0.45 74 13:26 23.03.2021
1142 Clouds 4 1023 48 10000 0.45 19 12:47 23.03.2021
1143 Clouds 4 1023 48 10000 0.45 19 12:27 23.03.2021
1144 Clouds 4 1023 48 10000 0.45 19 11:51 23.03.2021
1145 Clouds 4 1023 53 10000 0.89 119 11:33 23.03.2021
1146 Clouds 3 1023 61 10000 1.23 32 10:44 23.03.2021
1147 Clouds 1 1023 61 10000 1.12 29 10:22 23.03.2021
1148 Clouds 1 1023 61 10000 1.12 29 09:55 23.03.2021
1149 Clouds -1 1023 74 10000 0.45 152 09:29 23.03.2021
1150 Clouds -1 1023 74 10000 0.45 152 08:57 23.03.2021
1151 Clouds 0 1022 76 10000 1.34 97 08:38 23.03.2021
1152 Clouds -3 1027 88 10000 0.45 184 08:20 23.03.2021
1153 Clouds -4 1023 88 10000 2.65 156 07:28 23.03.2021
1154 Clouds -4 1023 88 10000 2.61 157 06:54 23.03.2021
1155 Clouds -4 1024 93 10000 1.03 50 05:48 23.03.2021
1156 Clouds -4 1024 87 10000 0.51 0 03:20 23.03.2021
1157 Clouds -2 1025 87 10000 1.03 100 00:22 23.03.2021
1158 Clouds -2 1025 87 10000 0.51 0 23:24 22.03.2021
1159 Clouds -2 1025 81 10000 1.03 0 22:46 22.03.2021
1160 Clouds -2 940 75 4077 1.71 156 22:22 22.03.2021
1161 Clouds -2 940 75 4077 1.71 156 21:51 22.03.2021
1162 Clouds -1 1025 81 10000 1.03 0 21:27 22.03.2021
1163 Clouds -1 1024 70 10000 0.51 0 20:54 22.03.2021
1164 Clouds -1 940 72 2834 1.4 147 20:30 22.03.2021
1165 Clouds -1 940 70 6876 0.78 140 19:59 22.03.2021
1166 Clouds -1 940 70 6876 0.78 140 19:59 22.03.2021
1167 Clouds -1 939 69 6876 0.78 140 19:40 22.03.2021
1168 Clouds -1 939 68 10000 0.53 36 19:21 22.03.2021
1169 Clouds -1 939 68 10000 0.53 36 19:21 22.03.2021
1170 Clouds 1 1020 72 10000 0.45 300 18:42 22.03.2021
1171 Clouds 1 1020 72 10000 0.45 300 18:23 22.03.2021
1172 Clouds 1 1020 72 10000 0.45 300 17:51 22.03.2021
1173 Snow 2 1019 74 2436 0.89 165 17:22 22.03.2021
1174 Snow 2 1019 74 2436 0.89 165 16:58 22.03.2021
1175 Snow 1 1019 73 2436 0.45 297 16:39 22.03.2021
1176 Snow 2 1019 70 1178 0.89 294 15:45 22.03.2021
1177 Snow 2 1019 70 1407 0.89 294 15:27 22.03.2021
1178 Snow 2 1019 70 1407 0.89 294 14:59 22.03.2021
1179 Snow 1 1022 75 1407 2.68 342 14:35 22.03.2021
1180 Snow 2 1019 73 1272 1.34 314 13:53 22.03.2021
1181 Snow 2 1019 73 1272 1.34 314 13:34 22.03.2021
1182 Snow 2 1019 73 1254 1.34 314 12:59 22.03.2021
1183 Clouds 1 1019 77 1429 0.45 316 12:41 22.03.2021
1184 Snow 1 1019 77 1787 0.45 316 12:18 22.03.2021
1185 Snow 1 1019 83 1787 1.34 298 11:41 22.03.2021
1186 Clouds 1 1019 83 1623 1.34 298 11:21 22.03.2021
1187 Clouds 1 1018 90 1623 1.34 304 10:42 22.03.2021
1188 Snow 0 1018 90 1240 1.34 304 10:22 22.03.2021
1189 Snow 0 1018 93 1240 0.89 298 09:37 22.03.2021
1190 Snow 0 1018 93 662 0.89 298 08:59 22.03.2021
1191 Snow -1 1018 93 662 1.81 331 08:41 22.03.2021
1192 Snow -1 1018 93 558 1.36 322 08:23 22.03.2021
1193 Snow -1 1017 93 558 1.36 322 07:43 22.03.2021
1194 Snow -1 1017 93 2175 0.58 205 06:52 22.03.2021
1195 Snow -1 1017 92 1064 0.34 217 05:24 22.03.2021
1196 Snow -1 1017 87 178 0.45 237 01:40 22.03.2021
1197 Snow -1 1017 86 845 0.45 183 00:21 22.03.2021
1198 Snow 0 1017 86 845 0.45 183 23:53 21.03.2021
1199 Snow -1 1017 84 1072 0.89 91 23:19 21.03.2021
1200 Clouds 0 1017 84 1072 0.89 91 22:54 21.03.2021
1201 Snow -1 1017 90 550 0.45 139 21:56 21.03.2021
1202 Snow -1 1017 89 550 0.89 206 21:38 21.03.2021
1203 Snow -1 1017 89 192 0.89 206 21:20 21.03.2021
1204 Snow 0 1017 92 192 0.45 226 20:41 21.03.2021
1205 Snow 0 1017 92 141 0.45 226 20:22 21.03.2021
1206 Snow 0 1017 92 141 0.45 226 19:50 21.03.2021
1207 Snow 0 1017 92 141 0.45 226 19:50 21.03.2021
1208 Snow -1 1017 87 209 0.45 161 19:21 21.03.2021
1209 Snow -1 1017 88 250 0.45 173 18:46 21.03.2021
1210 Clouds 0 1017 88 2926 0.45 173 18:27 21.03.2021
1211 Clouds -1 1017 82 2926 1.42 299 17:45 21.03.2021
1212 Snow -1 1017 82 8927 1.7 301 17:19 21.03.2021
1213 Snow -1 1017 82 8927 1.7 301 16:54 21.03.2021
1214 Snow 0 1017 82 2538 0.45 152 16:29 21.03.2021
1215 Clouds 0 1017 82 2538 0.45 152 15:49 21.03.2021
1216 Snow -1 1017 79 231 0.45 125 15:23 21.03.2021
1217 Snow 0 1017 79 231 0.45 125 14:59 21.03.2021
1218 Snow 0 1018 76 231 1.34 99 14:40 21.03.2021
1219 Snow 0 1018 76 175 1.34 99 14:21 21.03.2021
1220 Rain -1 1018 76 175 1.34 99 13:52 21.03.2021
1221 Snow 0 1018 54 336 1.79 154 12:46 21.03.2021
1222 Snow 0 1018 54 520 1.79 154 12:26 21.03.2021
1223 Snow 0 1018 54 520 1.79 154 11:49 21.03.2021
1224 Snow 0 1019 57 1846 1.34 143 11:27 21.03.2021
1225 Clouds 0 1019 57 1846 1.34 143 10:53 21.03.2021
1226 Clouds 0 1019 65 1846 0.45 275 10:32 21.03.2021
1227 Clouds -2 1019 65 1853 0.45 275 09:56 21.03.2021
1228 Clouds -3 1019 71 1853 0.89 56 09:37 21.03.2021
1229 Snow -3 1019 71 1842 0.89 56 09:19 21.03.2021
1230 Snow -4 1019 77 1842 0.89 150 08:38 21.03.2021
1231 Clouds -4 1019 77 3518 0.89 150 08:19 21.03.2021
1232 Clouds -5 1019 78 3518 0.74 263 07:31 21.03.2021
1233 Clouds -5 1019 77 10000 1.58 178 06:30 21.03.2021
1234 Clouds -5 1020 76 10000 1.18 177 04:58 21.03.2021
1235 Clouds -5 1026 82 10000 0.45 184 00:59 21.03.2021
1236 Clouds -5 1026 82 10000 1.91 170 00:39 21.03.2021
1237 Clouds -5 1027 82 10000 0.89 150 00:20 21.03.2021
1238 Clouds -5 1027 82 10000 0.89 150 23:46 20.03.2021
1239 Clouds -6 1027 84 10000 2.11 168 23:20 20.03.2021
1240 Clouds -6 1027 82 10000 0.45 229 22:36 20.03.2021
1241 Clouds -6 1027 81 10000 1.96 169 22:18 20.03.2021
1242 Clouds -5 940 71 10000 1.96 169 21:42 20.03.2021
1243 Clouds -5 1026 79 10000 1.72 170 21:24 20.03.2021
1244 Clouds -7 940 68 10000 1.72 170 20:42 20.03.2021
1245 Clouds -7 1021 63 10000 0.45 292 20:21 20.03.2021
1246 Clouds -7 940 63 10000 1.59 162 19:44 20.03.2021
1247 Clouds -6 940 60 10000 0.63 130 19:25 20.03.2021
1248 Clouds -3 1026 63 10000 0.45 310 18:46 20.03.2021
1249 Clouds -2 1022 59 10000 0.89 287 18:24 20.03.2021
1250 Clouds -2 1022 59 10000 0.89 287 17:51 20.03.2021
1251 Clouds -2 1022 59 10000 0.89 287 17:27 20.03.2021
1252 Clouds -2 1022 62 10000 1.79 336 16:44 20.03.2021
1253 Snow -2 1022 62 2108 1.79 336 16:20 20.03.2021
1254 Snow -1 1022 62 2108 1.79 336 15:56 20.03.2021
1255 Snow -1 1021 63 2108 2.24 287 15:38 20.03.2021
1256 Snow -2 1021 63 1368 1.34 313 14:44 20.03.2021
1257 Snow -2 1021 63 969 1.34 313 14:22 20.03.2021
1258 Snow -2 1021 60 969 2.24 300 13:33 20.03.2021
1259 Snow -2 1021 60 945 2.24 300 12:51 20.03.2021
1260 Snow -2 1021 67 928 0.89 309 12:26 20.03.2021
1261 Snow -2 1021 78 928 2.68 347 11:45 20.03.2021
1262 Snow -3 1021 78 780 2.68 347 11:27 20.03.2021
1263 Snow -3 1021 78 780 2.68 347 10:54 20.03.2021
1264 Snow -3 1021 82 1486 0.89 349 10:27 20.03.2021
1265 Snow -3 1021 82 1486 0.89 349 09:55 20.03.2021
1266 Snow -3 1021 84 1150 0.45 37 09:27 20.03.2021
1267 Snow -3 1021 84 1150 0.45 37 08:56 20.03.2021
1268 Clouds -4 1020 86 1304 0.89 0 08:29 20.03.2021
1269 Clouds -4 1020 86 1304 0.89 0 07:51 20.03.2021
1270 Clouds -4 1024 90 1304 0.89 355 07:31 20.03.2021
1271 Clouds -4 1024 90 1177 0.89 334 06:46 20.03.2021
1272 Clouds -4 1023 92 1185 2.24 296 05:38 20.03.2021
1273 Clouds -3 1019 89 906 1.79 331 03:46 20.03.2021
1274 Snow -3 1019 89 460 1.79 319 02:42 20.03.2021
1275 Snow -2 1018 91 818 1.34 347 23:57 19.03.2021
1276 Snow -2 1018 91 212 1.79 353 23:29 19.03.2021
1277 Snow -2 1018 93 212 2.24 2 22:46 19.03.2021
1278 Snow -2 1018 93 666 2.24 2 22:26 19.03.2021
1279 Snow -1 1018 93 666 2.24 2 21:53 19.03.2021
1280 Snow -1 1017 94 324 1.34 309 21:21 19.03.2021
1281 Clouds -1 1017 92 324 0.89 309 20:46 19.03.2021
1282 Snow -1 1017 92 418 0.89 309 20:27 19.03.2021
1283 Snow -1 1017 92 418 0.89 309 19:59 19.03.2021
1284 Snow -1 1016 81 418 1.79 325 19:39 19.03.2021
1285 Snow -1 1016 81 1146 1.79 325 19:19 19.03.2021
1286 Clouds -1 1020 88 861 2.24 326 18:39 19.03.2021
1287 Snow 0 1020 85 6108 2.24 320 18:18 19.03.2021
1288 Snow 2 1019 78 6108 4.47 328 17:51 19.03.2021
1289 Clouds 2 1019 61 10000 2.24 328 17:27 19.03.2021
1290 Clouds 2 1018 59 10000 0.89 301 16:51 19.03.2021
1291 Clouds 2 1014 65 10000 3.58 115 16:26 19.03.2021
1292 Clouds 2 1014 61 10000 0.89 12 15:43 19.03.2021
1293 Clouds 2 1014 61 10000 0.89 12 15:22 19.03.2021
1294 Clouds 2 1014 54 10000 0.45 20 14:42 19.03.2021
1295 Snow 2 1014 54 6301 0.45 20 14:21 19.03.2021
1296 Snow 2 1014 54 6218 1.34 346 13:34 19.03.2021
1297 Snow 1 1014 55 4268 0.45 44 12:49 19.03.2021
1298 Snow 1 1014 55 4567 0.45 44 12:30 19.03.2021
1299 Clouds 1 1014 54 5232 1.86 31 11:39 19.03.2021
1300 Clouds 0 1014 54 8967 1.82 32 10:53 19.03.2021
1301 Clouds -2 1014 61 10000 1.37 45 10:27 19.03.2021
1302 Clouds -3 1015 76 10000 1.37 45 09:48 19.03.2021
1303 Clouds -3 1015 76 10000 0.77 87 09:29 19.03.2021
1304 Clouds -2 1015 76 10000 0.77 87 08:54 19.03.2021
1305 Clouds -5 1018 91 10000 0.45 169 08:32 19.03.2021
1306 Clear -6 1018 91 10000 0.45 169 07:52 19.03.2021
1307 Clear -8 1014 86 10000 0.45 257 07:34 19.03.2021
1308 Clouds -8 1014 87 10000 0.45 226 06:36 19.03.2021
1309 Clouds -6 1015 86 10000 2.01 171 02:45 19.03.2021
1310 Clouds -6 1015 84 10000 0.89 222 00:26 19.03.2021
1311 Clouds -5 1016 84 10000 0.89 221 23:30 18.03.2021
1312 Clouds -5 1016 84 10000 0.89 221 22:58 18.03.2021
1313 Clouds -4 1016 82 10000 0.45 230 22:38 18.03.2021
1314 Clouds -4 1016 82 10000 0.45 230 22:18 18.03.2021
1315 Clouds -3 1016 83 10000 0.89 216 21:38 18.03.2021
1316 Clouds -2 1016 81 10000 0.45 180 20:43 18.03.2021
1317 Clouds -2 1016 81 10000 0.45 180 20:23 18.03.2021
1318 Clouds -2 1017 80 10000 0.45 244 19:45 18.03.2021
1319 Clouds -1 1017 80 3435 0.45 244 19:25 18.03.2021
1320 Clouds -1 1017 80 10000 0.45 244 18:54 18.03.2021
1321 Snow 0 1017 70 10000 0.45 235 18:27 18.03.2021
1322 Snow 0 1017 70 10000 0.45 235 17:49 18.03.2021
1323 Snow 1 1017 64 7288 0.45 315 17:25 18.03.2021
1324 Snow 1 1017 65 7288 1.79 317 16:44 18.03.2021
1325 Snow 1 1017 65 10000 1.79 317 16:26 18.03.2021
1326 Snow 1 1018 70 10000 1.79 316 15:45 18.03.2021
1327 Snow 1 1018 70 2875 1.79 316 15:23 18.03.2021
1328 Snow 1 1018 70 2875 1.79 316 14:53 18.03.2021
1329 Snow 0 1018 80 2875 0.89 22 14:32 18.03.2021
1330 Snow 0 1018 80 2192 0.89 22 13:53 18.03.2021
1331 Snow 0 1019 81 2390 0.45 15 13:26 18.03.2021
1332 Snow -1 1019 84 2412 1.79 17 12:44 18.03.2021
1333 Snow -1 1019 84 2355 1.79 17 12:25 18.03.2021
1334 Snow -1 1019 84 2355 1.79 17 11:52 18.03.2021
1335 Snow -1 1019 82 2355 0.45 355 11:32 18.03.2021
1336 Snow -1 1019 86 3276 1.9 348 10:45 18.03.2021
1337 Snow -1 1019 86 4222 1.46 351 10:27 18.03.2021
1338 Snow -1 1019 86 4222 1.46 351 09:54 18.03.2021
1339 Clouds -2 1020 88 3626 0.45 360 09:29 18.03.2021
1340 Clouds -2 1020 88 3626 0.45 360 08:50 18.03.2021
1341 Clouds -2 1020 90 3626 0.45 11 08:30 18.03.2021
1342 Clouds -2 1020 90 1291 0.45 11 07:52 18.03.2021
1343 Snow -3 937 87 1556 0.43 64 07:24 18.03.2021
1344 Clouds -2 1023 93 10000 1.54 350 06:28 18.03.2021
1345 Clouds -2 1023 93 10000 1.54 350 05:53 18.03.2021
1346 Snow -2 1019 93 823 0.89 23 02:29 18.03.2021
1347 Snow -1 1019 96 368 0.89 331 23:59 17.03.2021
1348 Snow -1 1019 96 223 1.34 211 22:54 17.03.2021
1349 Snow -1 1019 94 102 0.45 130 22:27 17.03.2021
1350 Clouds -1 1019 94 102 0.45 130 21:57 17.03.2021
1351 Snow -1 1019 94 102 0.45 17 21:39 17.03.2021
1352 Snow -1 1019 94 103 0.45 17 21:19 17.03.2021
1353 Snow -1 1019 91 103 0.45 295 20:43 17.03.2021
1354 Snow -1 1019 91 625 0.45 295 20:24 17.03.2021
1355 Snow 0 1018 84 625 0.45 357 19:46 17.03.2021
1356 Snow 0 1018 84 333 0.45 357 19:22 17.03.2021
1357 Snow 0 1018 84 333 0.45 357 18:55 17.03.2021
1358 Snow 1 1018 79 10000 0.89 209 18:37 17.03.2021
1359 Snow 1 1018 79 10000 0.89 209 17:49 17.03.2021
1360 Snow 1 1018 78 9364 2.24 146 17:27 17.03.2021
1361 Snow 1 1018 78 9364 0.89 108 16:47 17.03.2021
1362 Snow 1 1018 78 7466 0.89 108 16:25 17.03.2021
1363 Snow 1 1018 78 7466 0.89 108 15:56 17.03.2021
1364 Snow 1 1018 82 7466 0.45 1 15:36 17.03.2021
1365 Clouds 1 1021 79 5588 0.45 320 14:45 17.03.2021
1366 Snow 1 1021 82 802 0.89 276 14:27 17.03.2021
1367 Clouds 1 1022 92 802 1.34 284 13:55 17.03.2021
1368 Clouds 0 1022 93 802 0.89 258 13:31 17.03.2021
1369 Snow 0 1019 84 1365 1.34 306 12:54 17.03.2021
1370 Clouds 0 1019 84 1614 1.34 306 12:34 17.03.2021
1371 Snow 1 1019 84 998 1.34 306 11:51 17.03.2021
1372 Clouds 1 1019 92 675 0.89 314 11:23 17.03.2021
1373 Snow 1 1019 92 675 0.89 314 10:55 17.03.2021
1374 Snow 0 1019 94 260 0.89 314 10:28 17.03.2021
1375 Snow 0 1019 94 260 0.89 314 09:49 17.03.2021
1376 Snow 0 1018 92 309 0.45 158 09:26 17.03.2021
1377 Snow 0 1018 92 309 0.45 158 08:59 17.03.2021
1378 Snow 0 1018 95 309 1.27 310 08:39 17.03.2021
1379 Snow 0 1018 95 1005 0.96 260 07:50 17.03.2021
1380 Snow -1 1018 94 1005 0.45 134 07:32 17.03.2021
1381 Snow -1 1018 92 505 0.85 234 06:46 17.03.2021
1382 Snow -1 1018 93 173 1.58 204 04:26 17.03.2021
1383 Snow -1 1018 93 164 1.34 212 03:25 17.03.2021
1384 Snow -1 1020 94 388 1.34 159 00:40 17.03.2021
1385 Snow 0 1020 94 457 0.89 215 23:33 16.03.2021
1386 Snow 0 1020 94 135 0.89 215 22:59 16.03.2021
1387 Snow 0 1021 88 135 0.45 234 22:35 16.03.2021
1388 Snow 0 1021 88 135 0.45 234 22:35 16.03.2021
1389 Snow 0 1021 88 98 0.45 234 21:54 16.03.2021
1390 Snow 0 1021 93 98 2.68 95 21:35 16.03.2021
1391 Snow 0 1021 93 88 2.68 95 20:59 16.03.2021
1392 Snow 0 1021 93 88 2.68 95 20:59 16.03.2021
1393 Snow 0 1021 95 88 0.45 138 20:41 16.03.2021
1394 Snow 0 1021 95 97 0.45 138 20:18 16.03.2021
1395 Snow 0 1021 89 97 0.45 305 19:42 16.03.2021
1396 Snow 0 1021 89 543 0.45 305 19:23 16.03.2021
1397 Snow 0 1021 92 347 1.79 115 18:45 16.03.2021
1398 Snow 0 1021 92 124 1.79 115 18:27 16.03.2021
1399 Snow 0 1021 92 124 1.79 115 17:50 16.03.2021
1400 Snow 0 1021 94 124 0.89 99 17:32 16.03.2021
1401 Snow 0 1021 94 94 0.89 99 16:53 16.03.2021
1402 Snow 1 1021 80 94 1.34 138 16:30 16.03.2021
1403 Snow 1 1021 91 125 1.34 111 15:47 16.03.2021
1404 Snow 1 1021 91 142 1.34 111 15:22 16.03.2021
1405 Snow 0 1021 91 142 1.34 111 14:59 16.03.2021
1406 Snow 1 1024 93 142 0.45 142 14:40 16.03.2021
1407 Snow 0 1021 94 142 1.34 114 14:21 16.03.2021
1408 Snow 0 1021 94 142 1.34 114 13:54 16.03.2021
1409 Snow 0 1021 94 130 1.34 114 13:28 16.03.2021
1410 Snow 0 1021 94 130 1.34 114 12:54 16.03.2021
1411 Snow 1 1021 95 130 0.45 200 12:35 16.03.2021
1412 Snow 0 1021 95 151 0.45 200 11:55 16.03.2021
1413 Snow 0 1021 93 244 0.45 351 11:29 16.03.2021
1414 Snow 0 1020 93 244 0.45 317 10:46 16.03.2021
1415 Snow 0 1020 93 215 0.45 317 10:20 16.03.2021
1416 Snow 0 1019 94 215 0.89 17 09:39 16.03.2021
1417 Snow 0 1019 94 114 0.89 17 09:19 16.03.2021
1418 Snow 0 1019 94 114 0.89 17 08:51 16.03.2021
1419 Snow -1 1019 96 114 0.45 228 08:32 16.03.2021
1420 Snow -1 1019 96 90 0.45 228 07:50 16.03.2021
1421 Snow -1 1018 96 104 1.79 330 06:57 16.03.2021
1422 Snow -1 1018 91 104 0.45 297 06:37 16.03.2021
1423 Snow 0 1018 94 80 0.45 294 05:35 16.03.2021
1424 Snow 0 1016 94 70 0.45 328 02:46 16.03.2021
1425 Snow 0 1016 94 76 0.45 328 02:25 16.03.2021
1426 Snow 0 1015 98 80 0.45 234 00:25 16.03.2021
1427 Snow 0 1015 98 80 0.45 234 00:25 16.03.2021
1428 Snow 0 1015 96 85 0.45 292 23:29 15.03.2021
1429 Snow 0 1015 96 85 0.45 292 22:57 15.03.2021
1430 Snow 0 1015 94 85 0.45 252 22:38 15.03.2021
1431 Snow 0 1015 94 91 0.45 252 22:20 15.03.2021
1432 Snow 1 1015 94 91 1.52 263 21:44 15.03.2021
1433 Snow 1 1015 94 157 1.34 258 21:26 15.03.2021
1434 Snow 1 1015 98 157 0.89 119 20:47 15.03.2021
1435 Snow 1 1015 98 906 0.89 119 20:27 15.03.2021
1436 Snow 1 1015 98 906 0.89 119 19:57 15.03.2021
1437 Snow 1 1014 98 906 0.45 339 19:38 15.03.2021
1438 Snow 1 1014 98 147 0.45 339 19:19 15.03.2021
1439 Snow 1 1013 95 147 0.45 246 18:40 15.03.2021
1440 Snow 1 1013 95 63 0.45 246 18:22 15.03.2021
1441 Snow 1 1012 91 63 1.79 70 17:43 15.03.2021
1442 Snow 1 1012 91 65 1.79 70 17:22 15.03.2021
1443 Snow 2 1011 88 65 1.79 72 16:44 15.03.2021
1444 Clouds 2 1011 88 149 1.79 72 15:56 15.03.2021
1445 Clouds 2 1011 91 90 0.89 360 15:28 15.03.2021
1446 Clouds 2 1011 91 90 0.89 360 14:55 15.03.2021
1447 Clouds 1 1011 95 90 1.34 130 14:36 15.03.2021
1448 Snow 1 1011 95 115 1.34 130 14:18 15.03.2021
1449 Clouds 1 1011 95 115 0.45 62 13:41 15.03.2021
1450 Snow 1 1011 95 114 0.45 62 13:23 15.03.2021
1451 Snow 1 1011 93 95 2.68 104 12:45 15.03.2021
1452 Snow 1 1011 93 118 2.68 104 12:18 15.03.2021
1453 Snow 1 1011 96 118 2.68 71 11:41 15.03.2021
1454 Snow 1 1011 96 164 2.68 71 11:21 15.03.2021
1455 Snow 0 1012 96 164 0.45 195 10:41 15.03.2021
1456 Snow 0 1012 96 141 0.45 195 10:22 15.03.2021
1457 Snow 0 1012 96 141 0.45 177 09:41 15.03.2021
1458 Snow 0 1012 96 150 0.45 177 09:21 15.03.2021
1459 Snow 0 1012 96 150 0.45 173 08:45 15.03.2021
1460 Clouds 0 1012 96 150 0.45 173 08:25 15.03.2021
1461 Snow 0 1012 96 150 0.89 159 07:40 15.03.2021
1462 Snow 0 1012 96 116 0.89 159 07:22 15.03.2021
1463 Snow 0 1013 93 89 0.89 157 05:37 15.03.2021
1464 Snow 0 1014 97 750 0.89 87 03:20 15.03.2021
1465 Snow 0 1014 96 705 1.86 271 00:42 15.03.2021
1466 Snow 0 1014 94 64 2.36 297 23:24 14.03.2021
1467 Snow 1 1014 94 64 2.36 297 22:49 14.03.2021
1468 Snow 1 1014 92 62 1.34 115 22:28 14.03.2021
1469 Snow 1 1014 92 62 1.34 115 21:53 14.03.2021
1470 Snow 1 1014 91 72 1.32 279 21:24 14.03.2021
1471 Snow 1 1014 91 72 1.32 279 20:52 14.03.2021
1472 Snow 1 1014 91 72 1.32 279 20:52 14.03.2021
1473 Snow 1 1014 93 72 0.45 78 20:31 14.03.2021
1474 Snow 1 1014 93 72 0.45 78 19:59 14.03.2021
1475 Snow 1 1014 93 72 0.45 78 19:59 14.03.2021
1476 Snow 0 1013 96 72 0.89 89 19:41 14.03.2021
1477 Snow 0 1013 96 86 0.89 89 19:18 14.03.2021
1478 Snow 0 1013 96 86 0.89 89 19:18 14.03.2021
1479 Snow 0 1013 93 77 0.45 220 18:36 14.03.2021
1480 Snow 0 1013 93 69 0.45 220 17:54 14.03.2021
1481 Snow 1 1012 92 69 0.45 164 17:36 14.03.2021
1482 Snow 1 1012 92 217 0.45 164 17:18 14.03.2021
1483 Snow 1 1012 82 217 0.89 172 16:40 14.03.2021
1484 Snow 1 1012 82 1328 0.89 172 16:19 14.03.2021
1485 Snow 2 1012 77 1328 0.45 295 15:42 14.03.2021
1486 Clouds 2 1012 77 1310 0.45 295 14:51 14.03.2021
1487 Snow 2 1012 73 1310 3.13 135 14:30 14.03.2021
1488 Snow 2 1012 73 1310 3.13 135 14:30 14.03.2021
1489 Clouds 2 1012 73 4439 3.13 135 13:52 14.03.2021
1490 Clouds 2 1012 73 4439 3.13 135 13:52 14.03.2021
1491 Snow 2 1012 74 4439 0.89 72 13:33 14.03.2021
1492 Snow 2 1012 76 2768 1.34 74 12:49 14.03.2021
1493 Snow 1 1012 76 1078 1.34 74 12:29 14.03.2021
1494 Snow 1 1012 76 1078 1.34 74 11:59 14.03.2021
1495 Snow 1 1012 78 1078 2.24 218 11:37 14.03.2021
1496 Snow 1 1012 78 447 2.24 218 10:59 14.03.2021
1497 Snow 1 1012 87 447 0.45 91 10:38 14.03.2021
1498 Snow 1 1012 87 447 0.45 91 10:38 14.03.2021
1499 Snow 1 1012 87 179 0.45 91 10:19 14.03.2021
1500 Snow 0 1012 79 179 1.34 131 09:44 14.03.2021
1501 Snow 0 1012 79 254 1.34 131 09:23 14.03.2021
1502 Snow 1 1012 79 254 1.34 131 08:51 14.03.2021
1503 Snow 1 1011 83 254 4.69 275 08:32 14.03.2021
1504 Snow 1 1011 83 155 5.32 274 07:52 14.03.2021
1505 Snow 1 1010 94 137 1.34 116 07:22 14.03.2021
1506 Snow 1 1008 91 203 0.89 128 05:33 14.03.2021
1507 Snow 1 1008 91 203 0.89 128 05:33 14.03.2021
1508 Clouds 3 1006 88 1106 0.45 165 00:59 14.03.2021
1509 Clouds 4 1007 92 230 0.45 246 00:20 14.03.2021
1510 Clouds 4 1007 92 230 0.45 246 00:20 14.03.2021
1511 Clouds 4 1007 92 230 0.45 246 00:20 14.03.2021
1512 Clouds 4 1007 92 230 0.45 246 23:57 13.03.2021
1513 Clouds 4 1008 91 230 3.58 78 23:36 13.03.2021
1514 Rain 3 1008 91 557 3.58 78 22:58 13.03.2021
1515 Clouds 3 1007 86 557 0.89 241 22:40 13.03.2021
1516 Rain 3 1007 86 1334 0.89 241 21:50 13.03.2021
1517 Rain 3 1008 82 1785 0.89 171 21:27 13.03.2021
1518 Rain 4 1008 82 1785 0.89 171 20:54 13.03.2021
1519 Clouds 4 1008 77 1785 2.68 222 20:32 13.03.2021
1520 Clouds 4 1008 77 9150 2.68 222 19:56 13.03.2021
1521 Clouds 5 1007 78 9150 0.89 279 19:32 13.03.2021
1522 Clouds 6 1006 74 10000 1.34 275 18:58 13.03.2021
1523 Clouds 6 1006 71 10000 4.02 266 18:40 13.03.2021
1524 Clouds 5 1006 61 10000 4.02 292 18:18 13.03.2021
1525 Clouds 8 923 49 10000 4.47 22 17:44 13.03.2021
1526 Clouds 9 1005 22 10000 4.47 204 17:25 13.03.2021
1527 Clouds 9 1005 58 10000 6.71 302 16:45 13.03.2021
1528 Clouds 10 923 40 10000 3.11 202 16:27 13.03.2021
1529 Clouds 11 922 38 10000 3.11 202 15:41 13.03.2021
1530 Clouds 10 1005 19 3072 7.15 218 14:51 13.03.2021
1531 Clouds 10 1005 19 3037 5.81 214 14:29 13.03.2021
1532 Clouds 11 1005 53 3037 4.02 248 13:51 13.03.2021
1533 Clouds 11 1005 54 8127 4.02 239 13:25 13.03.2021
1534 Clouds 10 1006 19 10000 5.81 188 12:45 13.03.2021
1535 Clouds 9 1009 19 10000 3.13 204 12:27 13.03.2021
1536 Clouds 8 1007 37 10000 1.79 180 11:50 13.03.2021
1537 Clouds 8 1007 21 10000 4.02 277 11:29 13.03.2021
1538 Clouds 8 1008 40 10000 0.89 292 10:50 13.03.2021
1539 Clouds 8 1008 46 10000 1.34 3 10:29 13.03.2021
1540 Clouds 7 1009 54 10000 1.47 226 09:47 13.03.2021
1541 Clouds 5 1009 54 10000 1.97 204 08:59 13.03.2021
1542 Clouds 4 1009 60 10000 0.89 249 08:41 13.03.2021
1543 Clouds 4 1009 60 10000 0.89 249 08:19 13.03.2021
1544 Clouds 4 1009 60 10000 0.89 249 08:19 13.03.2021
1545 Clouds 3 1009 60 10000 0.89 249 07:54 13.03.2021
1546 Clouds 4 927 62 10000 0.45 337 06:51 13.03.2021
1547 Clouds 3 1012 70 10000 0.89 244 02:54 13.03.2021
1548 Clouds 3 1013 68 10000 0.89 270 00:56 13.03.2021
1549 Clouds 3 1013 67 10000 0.45 167 23:57 12.03.2021
1550 Clouds 2 1013 70 10000 0.89 263 23:32 12.03.2021
1551 Clouds 2 1013 68 10000 0.89 157 22:43 12.03.2021
1552 Clouds 2 1013 68 10000 0.89 157 22:23 12.03.2021
1553 Clouds 3 1013 72 10000 3.88 183 21:45 12.03.2021
1554 Clouds 3 1013 71 10000 3.48 188 21:26 12.03.2021
1555 Clouds 3 1013 71 10000 3.48 188 20:56 12.03.2021
1556 Clouds 3 1013 69 10000 3.48 188 20:32 12.03.2021
1557 Clouds 2 929 64 10000 3 192 19:59 12.03.2021
1558 Clouds 2 930 66 10000 3 192 19:40 12.03.2021
1559 Clouds 4 1012 29 10000 2.24 199 19:21 12.03.2021
1560 Clouds 5 1012 29 10000 1.34 219 18:36 12.03.2021
1561 Clouds 6 1011 47 10000 0.45 270 17:50 12.03.2021
1562 Clouds 6 1012 60 10000 2.24 193 17:30 12.03.2021
1563 Clouds 7 1012 53 10000 0.89 302 16:59 12.03.2021
1564 Clouds 7 1013 47 10000 1.34 161 16:36 12.03.2021
1565 Clouds 7 1013 47 7685 1.34 161 15:52 12.03.2021
1566 Clouds 8 1012 27 2664 3.13 234 15:28 12.03.2021
1567 Clouds 7 1012 41 2664 2.24 202 14:48 12.03.2021
1568 Clouds 8 1012 24 1146 3.13 242 14:21 12.03.2021
1569 Clouds 8 1013 25 1146 4.47 234 13:44 12.03.2021
1570 Clouds 7 1013 27 1049 3.13 229 13:21 12.03.2021
1571 Clouds 7 1013 58 1277 0.89 343 12:57 12.03.2021
1572 Clouds 7 1014 58 1277 1.34 201 12:38 12.03.2021
1573 Clouds 7 1013 53 1194 0.89 202 12:19 12.03.2021
1574 Clouds 7 1014 28 1194 2.68 218 11:49 12.03.2021
1575 Clouds 6 1014 58 1005 0.89 190 11:21 12.03.2021
1576 Clouds 6 1015 65 1005 1.34 162 10:48 12.03.2021
1577 Clouds 6 1015 65 1866 1.34 162 10:24 12.03.2021
1578 Clouds 6 1015 65 1866 1.34 162 09:49 12.03.2021
1579 Clouds 5 1015 69 1399 1.34 182 09:20 12.03.2021
1580 Clouds 5 1014 78 1399 0.89 236 08:43 12.03.2021
1581 Clouds 5 1014 78 1353 0.89 236 07:54 12.03.2021
1582 Clouds 5 1014 83 1353 3.58 127 07:31 12.03.2021
1583 Clouds 5 1013 73 902 0.45 99 06:45 12.03.2021
1584 Clouds 4 1013 73 868 0.45 99 05:56 12.03.2021
1585 Clouds 6 1012 80 89 3.13 318 00:59 12.03.2021
1586 Clouds 6 1012 80 108 3.13 318 23:56 11.03.2021
1587 Clouds 5 928 85 422 3.39 230 23:19 11.03.2021
1588 Rain 6 1010 61 422 4.47 216 22:41 11.03.2021
1589 Rain 8 927 82 86 2.96 250 22:20 11.03.2021
1590 Rain 7 1009 87 86 0.45 121 21:46 11.03.2021
1591 Rain 7 1009 87 1783 0.45 121 21:25 11.03.2021
1592 Rain 7 1008 83 1783 1.79 292 20:49 11.03.2021
1593 Rain 8 1008 84 10000 2.68 291 20:23 11.03.2021
1594 Rain 7 1008 69 10000 2.68 222 19:54 11.03.2021
1595 Clouds 7 1008 66 10000 3.58 218 19:36 11.03.2021
1596 Clouds 9 1007 88 10000 4.47 276 18:53 11.03.2021
1597 Clouds 9 1007 51 10000 2.24 295 18:35 11.03.2021
1598 Rain 9 924 74 7664 3.04 202 17:53 11.03.2021
1599 Rain 11 924 68 7664 3.04 202 17:35 11.03.2021
1600 Clouds 12 924 60 2891 3.56 177 16:37 11.03.2021
1601 Clouds 13 924 60 1965 3.37 192 16:19 11.03.2021
1602 Clouds 14 925 48 1965 3.37 192 15:39 11.03.2021
1603 Clouds 14 1008 41 1855 1.34 202 15:20 11.03.2021
1604 Clouds 14 926 44 1855 2.68 337 14:45 11.03.2021
1605 Clouds 14 926 44 2152 3.51 218 14:18 11.03.2021
1606 Clouds 13 1009 62 2152 3.13 225 13:45 11.03.2021
1607 Clouds 13 1009 61 2246 3.13 239 13:22 11.03.2021
1608 Clouds 13 1009 23 2372 4.02 216 12:54 11.03.2021
1609 Clouds 12 1010 25 2982 4.47 201 12:29 11.03.2021
1610 Clouds 11 1010 23 2982 3.13 167 11:47 11.03.2021
1611 Clouds 11 1014 53 10000 5.81 221 11:29 11.03.2021
1612 Clouds 9 1011 42 10000 0.45 315 10:55 11.03.2021
1613 Clouds 9 1012 60 10000 1.79 174 10:25 11.03.2021
1614 Clouds 8 1012 60 10000 1.79 174 09:50 11.03.2021
1615 Clouds 7 1012 54 10000 0.89 159 09:32 11.03.2021
1616 Clouds 7 1012 54 10000 0.89 159 09:32 11.03.2021
1617 Clouds 7 1012 54 10000 0.89 159 08:50 11.03.2021
1618 Clouds 6 1012 49 10000 0.89 148 08:31 11.03.2021
1619 Clouds 5 1012 52 10000 0.45 276 07:47 11.03.2021
1620 Clouds 5 1012 52 10000 0.45 276 07:20 11.03.2021
1621 Clouds 5 1011 50 10000 0.89 219 06:40 11.03.2021
1622 Clouds 5 1011 50 10000 0.89 219 06:21 11.03.2021
1623 Clouds 2 1014 64 10000 1.79 239 02:26 11.03.2021
1624 Clouds 0 1015 64 10000 0.45 180 00:26 11.03.2021
1625 Clouds 1 1016 63 10000 0.89 172 23:23 10.03.2021
1626 Clouds 1 1016 63 10000 1.34 171 22:42 10.03.2021
1627 Clouds 1 1016 63 10000 1.34 171 22:21 10.03.2021
1628 Clouds 1 1017 63 10000 1.79 178 21:44 10.03.2021
1629 Clouds 2 1017 63 10000 1.79 178 21:21 10.03.2021
1630 Clouds 1 1017 68 10000 0.45 182 20:44 10.03.2021
1631 Clouds 2 1017 68 10000 0.45 182 20:26 10.03.2021
1632 Clouds 2 1019 69 10000 0.45 226 19:42 10.03.2021
1633 Clouds 1 1019 67 10000 2.22 177 19:23 10.03.2021
1634 Clouds 1 934 60 10000 2.22 177 18:44 10.03.2021
1635 Clouds 4 934 57 10000 1.33 198 18:24 10.03.2021
1636 Clouds 4 934 57 10000 1.33 198 18:24 10.03.2021
1637 Clouds 4 1020 100 10000 1.33 198 17:46 10.03.2021
1638 Clouds 8 1018 47 10000 1.34 282 17:21 10.03.2021
1639 Clouds 7 1019 47 10000 0.89 270 16:57 10.03.2021
1640 Clouds 7 1017 41 10000 1.79 132 16:37 10.03.2021
1641 Clouds 7 1017 41 10000 1.79 132 16:19 10.03.2021
1642 Clouds 8 1017 41 10000 0.89 214 15:41 10.03.2021
1643 Clouds 8 1017 41 10000 0.89 214 15:22 10.03.2021
1644 Clouds 7 1018 46 10000 0.45 281 14:43 10.03.2021
1645 Clouds 7 1018 46 10000 0.45 281 14:19 10.03.2021
1646 Clouds 6 1018 49 10000 0.89 353 13:46 10.03.2021
1647 Clouds 6 1018 49 10000 0.89 353 13:25 10.03.2021
1648 Clouds 5 1019 54 10000 1.34 327 12:45 10.03.2021
1649 Clouds 5 1019 54 10000 1.34 327 12:19 10.03.2021
1650 Clouds 4 1019 65 10000 0.45 59 11:32 10.03.2021
1651 Clouds 4 1019 65 10000 0.45 59 10:58 10.03.2021
1652 Clouds 3 1019 78 10000 0.45 118 10:37 10.03.2021
1653 Clouds 3 1019 78 10000 0.45 118 10:19 10.03.2021
1654 Clouds 2 1019 89 10000 1.56 270 09:42 10.03.2021
1655 Clouds 2 1019 89 10000 1.55 235 09:21 10.03.2021
1656 Clouds 1 1019 89 10000 1.55 235 08:50 10.03.2021
1657 Clouds 1 1018 91 1558 0.89 153 08:28 10.03.2021
1658 Clouds 1 1018 91 1558 0.89 153 07:58 10.03.2021
1659 Clouds 0 1020 90 1558 0.45 226 07:30 10.03.2021
1660 Clouds 0 1020 90 1558 0.45 226 07:30 10.03.2021
1661 Clouds 0 1020 89 1743 1.73 217 06:56 10.03.2021
1662 Clouds 1 1020 89 2864 1.69 217 06:23 10.03.2021
1663 Snow 1 1019 81 2359 1.78 208 02:26 10.03.2021
1664 Snow 1 1019 75 7618 0.45 27 23:49 09.03.2021
1665 Clouds 1 1019 72 10000 1.68 209 22:59 09.03.2021
1666 Clouds 1 1017 71 10000 1.68 209 22:38 09.03.2021
1667 Clouds 1 1017 71 10000 1.56 205 22:18 09.03.2021
1668 Clouds 1 1017 73 10000 1.34 217 21:45 09.03.2021
1669 Clouds 1 1017 73 10000 1.34 217 21:24 09.03.2021
1670 Clouds 0 1017 73 10000 1.34 217 20:56 09.03.2021
1671 Clouds 1 1016 67 10000 0.45 179 20:38 09.03.2021
1672 Clouds 1 1016 67 10000 0.45 179 20:19 09.03.2021
1673 Clouds 1 1018 66 10000 1.35 211 19:45 09.03.2021
1674 Clouds 2 1018 62 10000 0.88 239 19:25 09.03.2021
1675 Clouds 3 1015 31 10000 0.83 250 18:42 09.03.2021
1676 Clouds 4 1017 54 10000 0.45 227 18:23 09.03.2021
1677 Clouds 4 1016 50 10000 1.34 259 17:49 09.03.2021
1678 Clouds 5 1014 50 10000 0.89 189 17:28 09.03.2021
1679 Clouds 5 1014 50 10000 0.89 223 16:41 09.03.2021
1680 Clouds 5 1014 50 10000 0.89 223 16:22 09.03.2021
1681 Clouds 5 1014 50 10000 0.89 223 15:57 09.03.2021
1682 Clouds 5 1014 65 10000 0.45 276 15:28 09.03.2021
1683 Clouds 5 1014 65 10000 0.45 276 14:52 09.03.2021
1684 Clouds 4 1014 68 10000 1.34 315 14:27 09.03.2021
1685 Clouds 4 1014 67 10000 0.45 32 13:43 09.03.2021
1686 Clouds 4 1014 67 10000 0.45 32 13:21 09.03.2021
1687 Clouds 4 1014 67 10000 0.45 32 12:55 09.03.2021
1688 Clouds 4 1014 64 10000 0.89 349 12:37 09.03.2021
1689 Clouds 4 1014 64 10000 0.89 349 11:58 09.03.2021
1690 Clouds 3 1014 66 10000 1.34 0 11:39 09.03.2021
1691 Clouds 3 1014 66 10000 1.34 0 11:19 09.03.2021
1692 Clouds 2 1015 73 10000 1.59 327 10:39 09.03.2021
1693 Clouds 1 1015 73 10000 1.33 314 10:21 09.03.2021
1694 Clouds 1 1014 78 10000 1.33 314 09:47 09.03.2021
1695 Clouds 0 1014 78 10000 0.72 242 09:27 09.03.2021
1696 Clouds 0 1014 78 10000 0.72 242 08:57 09.03.2021
1697 Clouds -1 1014 89 10000 0.45 175 08:33 09.03.2021
1698 Clear -4 1014 91 10000 0.45 208 07:47 09.03.2021
1699 Clear -4 1014 91 10000 0.45 208 07:27 09.03.2021
1700 Clear -4 1014 91 10000 0.45 208 06:59 09.03.2021
1701 Clear -3 1014 89 10000 0.45 181 05:53 09.03.2021
1702 Clear -1 1016 89 10000 2.21 166 01:43 09.03.2021
1703 Clouds 0 1016 87 10000 0.45 222 23:58 08.03.2021
1704 Clouds 0 1017 86 10000 1.9 162 23:39 08.03.2021
1705 Clouds 0 1017 86 10000 1.9 164 23:19 08.03.2021
1706 Clouds 1 1017 86 10000 0.89 227 22:40 08.03.2021
1707 Clouds 1 1017 86 10000 0.89 227 22:21 08.03.2021
1708 Clouds 1 1017 86 10000 0.89 227 21:50 08.03.2021
1709 Clouds 1 1016 85 10000 0.45 289 21:29 08.03.2021
1710 Clouds 2 1016 84 10000 0.45 222 20:43 08.03.2021
1711 Clouds 2 1016 84 10000 0.45 222 20:22 08.03.2021
1712 Clouds 3 1016 80 10000 0.45 249 19:46 08.03.2021
1713 Clouds 3 1016 80 10000 0.45 249 19:24 08.03.2021
1714 Clouds 4 1016 66 10000 0.84 99 18:38 08.03.2021
1715 Clouds 4 1016 66 10000 0.93 45 18:19 08.03.2021
1716 Clouds 4 1016 66 10000 0.93 45 18:19 08.03.2021
1717 Clouds 5 1016 61 10000 1.34 349 17:44 08.03.2021
1718 Clouds 6 1016 61 10000 1.34 349 17:23 08.03.2021
1719 Clouds 6 1016 63 10000 0.89 277 16:43 08.03.2021
1720 Clouds 6 1016 63 10000 0.89 277 16:24 08.03.2021
1721 Clouds 6 1016 63 10000 2.68 291 15:45 08.03.2021
1722 Clouds 6 1016 63 7059 2.68 291 15:23 08.03.2021
1723 Clouds 6 1016 65 6771 3.13 320 14:22 08.03.2021
1724 Clouds 6 1016 65 6771 3.13 320 13:58 08.03.2021
1725 Clouds 6 1017 68 6459 0.89 318 13:24 08.03.2021
1726 Clouds 6 1017 68 6459 0.89 318 12:58 08.03.2021
1727 Clouds 5 1017 75 6461 1.34 34 12:35 08.03.2021
1728 Clouds 5 1017 75 6512 1.34 34 11:55 08.03.2021
1729 Clouds 4 1017 83 6512 2.68 0 11:34 08.03.2021
1730 Clouds 4 1017 83 2304 2.68 0 10:57 08.03.2021
1731 Clouds 4 1017 88 2304 1.34 348 10:39 08.03.2021
1732 Clouds 4 1017 88 933 1.34 348 10:18 08.03.2021
1733 Clouds 3 1017 93 1010 1.12 357 09:29 08.03.2021
1734 Clouds 3 1017 93 1010 1.12 357 08:52 08.03.2021
1735 Snow 1 1017 96 1173 0.89 330 08:25 08.03.2021
1736 Snow 1 1016 94 1373 0.45 232 07:22 08.03.2021
1737 Snow 1 1016 93 2577 0.87 210 05:46 08.03.2021
1738 Snow 2 1017 93 375 1.35 230 02:43 08.03.2021
1739 Clouds 2 1017 92 248 0.45 196 00:42 08.03.2021
1740 Clouds 2 1017 92 266 0.45 196 23:53 07.03.2021
1741 Clouds 3 1017 88 2649 0.45 134 23:22 07.03.2021
1742 Clouds 3 1017 90 2649 1.34 160 22:48 07.03.2021
1743 Clouds 4 1017 90 2104 1.34 160 22:28 07.03.2021
1744 Clouds 4 1017 90 2104 1.34 160 21:53 07.03.2021
1745 Clouds 4 1017 90 2104 1.34 160 21:53 07.03.2021
1746 Clouds 3 1017 93 2104 1.79 137 21:33 07.03.2021
1747 Clouds 4 1017 93 9181 1.79 137 20:59 07.03.2021
1748 Clouds 4 1018 93 9181 1.62 217 20:40 07.03.2021
1749 Clouds 4 1018 93 10000 1.89 193 20:19 07.03.2021
1750 Clouds 4 1018 93 10000 1.89 193 20:19 07.03.2021
1751 Clouds 4 1017 90 10000 0.45 172 19:40 07.03.2021
1752 Clouds 5 1017 90 10000 0.45 172 19:22 07.03.2021
1753 Clouds 5 1017 90 9069 0.45 172 18:54 07.03.2021
1754 Clouds 6 1017 83 9346 0.45 138 18:21 07.03.2021
1755 Clouds 6 1017 83 9346 0.45 138 17:59 07.03.2021
1756 Clouds 6 1018 78 9346 0.45 258 17:38 07.03.2021
1757 Clouds 6 1018 78 3710 0.45 258 17:18 07.03.2021
1758 Clouds 6 1018 76 3710 0.45 66 16:42 07.03.2021
1759 Clouds 6 1018 76 3262 0.45 66 16:21 07.03.2021
1760 Clouds 6 1018 76 3197 0.45 66 16:21 07.03.2021
1761 Clouds 6 1018 76 2904 0.45 66 15:49 07.03.2021
1762 Clouds 6 1018 74 2904 0.89 220 15:31 07.03.2021
1763 Rain 7 1018 74 1743 0.89 220 14:51 07.03.2021
1764 Rain 8 1019 66 1300 0.45 203 14:29 07.03.2021
1765 Clouds 8 1019 66 1300 0.45 203 13:48 07.03.2021
1766 Clouds 8 1019 66 1704 0.45 203 13:26 07.03.2021
1767 Clouds 7 1020 72 6333 0.45 308 12:48 07.03.2021
1768 Clouds 7 1020 72 9420 0.45 308 12:29 07.03.2021
1769 Clouds 6 1020 72 9420 0.45 308 11:53 07.03.2021
1770 Clouds 5 1020 86 10000 0.89 200 11:23 07.03.2021
1771 Clouds 5 1020 86 10000 0.89 200 10:51 07.03.2021
1772 Clouds 4 1021 57 10000 1.13 284 10:33 07.03.2021
1773 Clouds 6 938 75 10000 2.24 315 09:52 07.03.2021
1774 Rain 3 1021 94 10000 0.89 237 09:27 07.03.2021
1775 Snow 1 1020 99 10000 2.68 275 08:55 07.03.2021
1776 Snow 0 1020 97 10000 1.79 99 08:37 07.03.2021
1777 Snow -1 1021 82 10000 0.45 180 08:19 07.03.2021
1778 Clear -2 1021 91 10000 1.97 177 04:57 07.03.2021
1779 Clear -2 1023 93 10000 0.45 206 02:26 07.03.2021
1780 Clear -1 1023 94 10000 2.35 174 00:24 07.03.2021
1781 Clear -1 1023 92 10000 0.45 240 23:40 06.03.2021
1782 Clear -1 1023 92 10000 0.45 240 23:19 06.03.2021
1783 Clear 0 1024 90 10000 2.42 175 22:41 06.03.2021
1784 Clear 0 1024 90 10000 2.44 175 22:21 06.03.2021
1785 Clear 1 1024 89 10000 0.89 173 21:40 06.03.2021
1786 Clear 1 1024 89 10000 0.89 173 21:20 06.03.2021
1787 Clear 2 1024 84 10000 0.45 163 20:41 06.03.2021
1788 Clear 2 1024 84 10000 0.45 163 19:51 06.03.2021
1789 Clear 2 1024 81 10000 1.41 155 19:25 06.03.2021
1790 Clear 2 1024 81 10000 1.39 152 18:57 06.03.2021
1791 Clear 2 1024 79 10000 1.34 346 18:39 06.03.2021
1792 Clear 2 1024 79 10000 1.34 346 18:20 06.03.2021
1793 Clear 3 1024 74 10000 0.89 332 17:47 06.03.2021
1794 Clear 3 1024 74 10000 0.89 332 17:26 06.03.2021
1795 Clear 3 1024 74 10000 0.89 332 16:53 06.03.2021
1796 Clear 4 1024 69 10000 0.45 298 16:30 06.03.2021
1797 Clear 5 1024 69 10000 0.45 298 15:55 06.03.2021
1798 Clear 5 1028 78 10000 2.24 311 15:34 06.03.2021
1799 Clear 6 943 56 10000 0.89 180 14:55 06.03.2021
1800 Clear 5 1028 69 10000 1.32 27 14:31 06.03.2021
1801 Clear 5 1025 39 10000 1.79 190 13:46 06.03.2021
1802 Clear 5 1025 61 10000 0.89 292 13:24 06.03.2021
1803 Clear 5 1025 65 10000 0.89 292 12:49 06.03.2021
1804 Clear 4 1026 62 10000 0.45 292 12:20 06.03.2021
1805 Clear 3 944 69 10000 1.34 180 11:58 06.03.2021
1806 Clear 1 944 69 10000 1.79 180 11:23 06.03.2021
1807 Clear 2 944 67 10000 1.32 77 10:54 06.03.2021
1808 Clear 1 944 73 10000 1.79 202 10:35 06.03.2021
1809 Clear 0 1025 46 10000 1.79 66 09:51 06.03.2021
1810 Clear -1 1025 87 10000 0.45 82 09:21 06.03.2021
1811 Clear -1 1025 87 10000 0.45 82 08:54 06.03.2021
1812 Clear -3 1024 91 10000 0.45 135 08:29 06.03.2021
1813 Clear -3 1028 93 10000 2.2 145 07:43 06.03.2021
1814 Clear -4 1028 93 10000 2.36 146 07:21 06.03.2021
1815 Clear -3 1028 92 10000 2.35 144 05:40 06.03.2021
1816 Clear -2 1028 90 10000 2.27 140 03:36 06.03.2021
1817 Clear -1 1028 87 10000 0.45 327 01:32 06.03.2021
1818 Clouds -1 1028 87 10000 0.89 348 00:45 06.03.2021
1819 Clouds -1 1028 87 10000 0.45 346 23:41 05.03.2021
1820 Clouds -1 1027 87 10000 0.89 288 23:19 05.03.2021
1821 Clouds 0 1027 90 10000 1.34 298 22:43 05.03.2021
1822 Clouds 0 1027 91 10000 2.24 302 22:20 05.03.2021
1823 Clouds 0 1023 94 10000 0.45 33 21:43 05.03.2021
1824 Clouds 0 1023 94 10000 0.45 33 21:23 05.03.2021
1825 Clouds 0 1023 95 10000 0.45 347 20:47 05.03.2021
1826 Clouds 0 1023 95 10000 0.45 347 20:24 05.03.2021
1827 Clouds 0 1022 98 10000 0.89 339 19:45 05.03.2021
1828 Clouds 0 1022 98 944 0.89 339 19:22 05.03.2021
1829 Snow 0 1021 97 223 1.34 353 18:44 05.03.2021
1830 Snow 0 1021 97 60 1.34 353 18:25 05.03.2021
1831 Snow 0 1021 97 60 1.34 353 17:51 05.03.2021
1832 Snow 1 1021 97 60 1.34 322 17:32 05.03.2021
1833 Snow 1 1020 97 60 0.45 353 16:43 05.03.2021
1834 Snow 1 1020 97 74 0.45 353 16:23 05.03.2021
1835 Clouds 1 1020 97 74 0.45 353 15:54 05.03.2021
1836 Snow 1 1020 97 77 1.34 12 15:27 05.03.2021
1837 Snow 1 1020 98 58 1.34 338 14:46 05.03.2021
1838 Snow 1 1020 98 49 1.34 338 14:27 05.03.2021
1839 Clouds 1 1019 98 49 1.79 10 13:44 05.03.2021
1840 Snow 1 1019 98 41 1.79 10 13:21 05.03.2021
1841 Snow 1 1019 97 41 1.34 337 12:45 05.03.2021
1842 Snow 1 1018 97 38 0.45 356 11:40 05.03.2021
1843 Snow 1 1018 97 50 0.45 356 11:20 05.03.2021
1844 Snow 1 1018 97 50 0.45 356 10:57 05.03.2021
1845 Rain 2 1018 97 50 0.89 167 10:37 05.03.2021
1846 Rain 2 1018 97 66 0.89 167 10:18 05.03.2021
1847 Rain 2 1018 95 66 0.89 143 09:39 05.03.2021
1848 Clouds 2 1018 95 168 0.89 143 09:20 05.03.2021
1849 Clouds 2 1017 95 168 0.89 352 08:39 05.03.2021
1850 Clouds 2 1017 95 104 0.89 352 08:20 05.03.2021
1851 Rain 2 1016 95 104 0.45 182 07:34 05.03.2021
1852 Clouds 3 1017 95 174 0.89 212 06:35 05.03.2021
1853 Clouds 3 1017 94 74 0.45 155 05:42 05.03.2021
1854 Rain 4 1017 93 303 0.45 193 01:35 05.03.2021
1855 Rain 5 1017 83 78 0.89 162 23:55 04.03.2021
1856 Rain 5 1017 83 157 0.45 149 23:24 04.03.2021
1857 Rain 6 1017 71 157 1.34 234 22:30 04.03.2021
1858 Clouds 6 1017 71 284 1.34 234 21:54 04.03.2021
1859 Rain 6 1016 62 284 0.45 99 21:33 04.03.2021
1860 Rain 7 1016 62 3799 0.45 99 20:58 04.03.2021
1861 Rain 8 1016 53 3799 1.61 276 20:39 04.03.2021
1862 Clouds 8 1016 53 10000 1.47 176 20:20 04.03.2021
1863 Clouds 8 1016 53 10000 1.47 176 19:49 04.03.2021
1864 Clouds 9 1017 59 4712 0.89 333 19:23 04.03.2021
1865 Clouds 9 1017 56 10000 0.45 297 18:51 04.03.2021
1866 Clouds 9 1017 54 10000 0.45 277 18:30 04.03.2021
1867 Clouds 10 1017 45 10000 0.45 275 17:48 04.03.2021
1868 Rain 10 1017 45 10000 0.45 275 17:30 04.03.2021
1869 Rain 11 1017 45 10000 0.45 275 16:50 04.03.2021
1870 Rain 11 1017 35 10000 1.69 284 16:32 04.03.2021
1871 Rain 12 1017 35 10000 1.92 292 15:57 04.03.2021
1872 Rain 12 1017 34 10000 0.45 241 15:38 04.03.2021
1873 Rain 13 1017 34 10000 0.45 241 15:19 04.03.2021
1874 Rain 13 1017 36 10000 0.45 341 14:39 04.03.2021
1875 Clouds 13 1017 36 10000 0.45 341 13:54 04.03.2021
1876 Clouds 12 1018 35 10000 1.34 1 13:33 04.03.2021
1877 Clouds 12 1018 35 10000 1.34 1 12:58 04.03.2021
1878 Clouds 12 1019 35 10000 0.45 67 12:40 04.03.2021
1879 Clouds 10 1019 45 10000 1.34 228 11:49 04.03.2021
1880 Clouds 9 1019 45 10000 1.34 228 11:28 04.03.2021
1881 Clouds 9 1019 45 10000 1.34 228 10:56 04.03.2021
1882 Clouds 7 1020 54 10000 0.45 146 10:34 04.03.2021
1883 Clouds 7 1021 27 10000 1.2 254 09:47 04.03.2021
1884 Clouds 5 938 55 10000 1.1 229 09:25 04.03.2021
1885 Clouds 5 1021 29 10000 1.1 229 08:42 04.03.2021
1886 Clouds 4 1022 65 10000 0.45 128 08:22 04.03.2021
1887 Clouds 3 1021 69 10000 0.45 105 07:33 04.03.2021
1888 Clouds 2 1022 66 10000 1.77 184 06:25 04.03.2021
1889 Clouds 2 1022 64 10000 0.45 207 05:40 04.03.2021
1890 Clouds 2 1024 72 10000 0.45 234 01:44 04.03.2021
1891 Clouds 3 1025 70 10000 0.45 227 22:56 03.03.2021
1892 Clouds 4 1026 67 10000 0.45 150 22:28 03.03.2021
1893 Clouds 4 1026 64 10000 0.45 219 21:46 03.03.2021
1894 Clouds 4 1026 64 10000 0.45 219 21:25 03.03.2021
1895 Clouds 5 1026 64 10000 0.45 219 20:59 03.03.2021
1896 Clouds 5 1026 65 10000 0.45 231 20:41 03.03.2021
1897 Clouds 5 1026 65 10000 0.45 231 20:19 03.03.2021
1898 Clouds 7 1026 57 10000 0.45 174 19:42 03.03.2021
1899 Clear 7 1026 57 10000 0.45 174 19:23 03.03.2021
1900 Clear 8 1026 58 10000 0.45 206 18:48 03.03.2021
1901 Clear 9 1026 58 10000 0.45 206 18:26 03.03.2021
1902 Clear 9 1026 58 10000 0.45 206 17:54 03.03.2021
1903 Clear 11 1026 39 10000 0.3 304 17:19 03.03.2021
1904 Clear 11 1027 35 10000 0.89 13 16:44 03.03.2021
1905 Clear 12 1027 35 10000 0.89 13 16:24 03.03.2021
1906 Clear 12 1027 30 10000 0.45 26 15:35 03.03.2021
1907 Clear 12 1027 30 10000 0.45 26 14:59 03.03.2021
1908 Clear 12 1029 35 10000 0.45 296 14:31 03.03.2021
1909 Clear 12 1028 30 10000 0.45 6 13:53 03.03.2021
1910 Clear 12 1028 30 10000 0.45 6 13:33 03.03.2021
1911 Clouds 12 1028 30 10000 0.45 6 12:58 03.03.2021
1912 Clouds 11 1029 21 10000 0.88 318 12:39 03.03.2021
1913 Clouds 11 947 41 10000 0.62 309 12:19 03.03.2021
1914 Clouds 11 947 44 10000 0.62 309 11:42 03.03.2021
1915 Clouds 11 1028 62 10000 0.45 228 11:21 03.03.2021
1916 Clear 8 1031 93 10000 0.3 253 10:41 03.03.2021
1917 Clouds 8 1028 68 10000 0.45 198 10:19 03.03.2021
1918 Clear 6 1032 100 10000 1.03 0 09:40 03.03.2021
1919 Clouds 5 1032 100 10000 1.37 175 08:46 03.03.2021
1920 Clouds 2 1029 45 10000 1.87 177 08:23 03.03.2021
1921 Clouds 2 1033 44 10000 1.87 177 07:52 03.03.2021
1922 Clouds 1 1031 65 10000 2.2 169 06:52 03.03.2021
1923 Clouds 3 1033 44 10000 2.33 166 05:49 03.03.2021
1924 Clouds 2 1031 63 10000 2.32 169 05:29 03.03.2021
1925 Clouds 2 1031 69 10000 0.45 153 04:35 03.03.2021
1926 Clouds 3 1031 62 10000 2.26 172 03:52 03.03.2021
1927 Clouds 3 1032 71 10000 0.89 147 00:18 03.03.2021
1928 Clouds 3 1032 70 10000 0.89 159 23:31 02.03.2021
1929 Clouds 5 1032 82 10000 2.51 171 22:43 02.03.2021
1930 Clouds 4 1032 64 10000 2.55 170 22:20 02.03.2021
1931 Clouds 3 1030 59 10000 0.45 219 21:41 02.03.2021
1932 Clouds 3 1030 59 10000 0.45 219 21:23 02.03.2021
1933 Clouds 4 1030 59 10000 0.45 219 20:49 02.03.2021
1934 Clouds 4 1030 59 10000 0.45 198 20:23 02.03.2021
1935 Clouds 5 1030 59 10000 0.45 198 19:58 02.03.2021
1936 Clouds 5 1030 59 10000 0.45 198 19:58 02.03.2021
1937 Clouds 7 1029 49 10000 0.45 175 19:39 02.03.2021
1938 Clear 7 1029 49 10000 0.45 175 19:21 02.03.2021
1939 Clear 10 1029 46 10000 0.89 220 18:41 02.03.2021
1940 Clear 10 1029 46 10000 0.89 220 18:21 02.03.2021
1941 Clear 9 1029 46 10000 0.89 220 17:49 02.03.2021
1942 Clear 10 947 34 10000 0.99 156 17:30 02.03.2021
1943 Clear 10 947 34 10000 0.99 156 17:30 02.03.2021
1944 Clear 10 947 34 10000 0.99 156 17:30 02.03.2021
1945 Clear 10 947 34 10000 0.99 156 17:30 02.03.2021
1946 Clear 10 947 34 10000 0.99 156 17:30 02.03.2021
1947 Clear 14 1031 27 10000 1.34 347 16:54 02.03.2021
1948 Clear 14 1031 27 10000 1.34 347 16:22 02.03.2021
1949 Clear 15 1031 27 10000 1.34 347 15:49 02.03.2021
1950 Clear 15 1031 27 10000 1.34 347 15:22 02.03.2021
1951 Clear 14 1029 23 10000 2.68 316 14:23 02.03.2021
1952 Clear 14 1029 23 10000 2.68 316 13:49 02.03.2021
1953 Clear 14 1031 31 10000 2.24 339 13:31 02.03.2021
1954 Clear 13 1029 28 10000 0.89 90 12:55 02.03.2021
1955 Clear 12 1029 28 10000 0.89 90 12:29 02.03.2021
1956 Clear 12 1029 28 10000 0.89 90 11:53 02.03.2021
1957 Clear 10 1029 34 10000 0.45 66 11:32 02.03.2021
1958 Clear 10 1029 34 10000 0.45 66 10:57 02.03.2021
1959 Clear 9 1032 41 10000 0.35 151 10:32 02.03.2021
1960 Clear 8 1030 37 10000 0.89 60 09:57 02.03.2021
1961 Clear 7 1029 70 10000 0.45 216 09:39 02.03.2021
1962 Clear 7 1029 70 10000 0.45 216 09:39 02.03.2021
1963 Clear 5 1029 79 10000 0.45 213 09:18 02.03.2021
1964 Clear 4 1032 100 10000 0.51 0 08:36 02.03.2021
1965 Clear 1 1034 100 10000 2.53 168 07:52 02.03.2021
1966 Clear 0 1034 45 10000 2.61 168 06:59 02.03.2021
1967 Clear 0 1034 45 10000 2.6 169 05:54 02.03.2021
1968 Clear 0 1031 93 10000 2.6 169 05:34 02.03.2021
1969 Clear 0 1031 92 10000 2.66 168 04:58 02.03.2021
1970 Clear 0 1028 62 10000 1.34 59 01:44 02.03.2021
1971 Clear 2 1030 76 10000 2.76 167 01:22 02.03.2021
1972 Clear 1 1028 81 10000 0.45 213 23:45 01.03.2021
1973 Clear 1 1028 81 10000 0.45 213 23:20 01.03.2021
1974 Clear 1 1028 79 10000 0.89 217 22:39 01.03.2021
1975 Clear 1 1028 79 10000 0.89 217 22:21 01.03.2021
1976 Clear 2 1028 75 10000 0.45 210 21:43 01.03.2021
1977 Clear 2 1028 75 10000 0.45 210 21:23 01.03.2021
1978 Clear 3 1028 69 10000 0.45 188 20:46 01.03.2021
1979 Clear 3 1028 69 10000 0.45 188 20:27 01.03.2021
1980 Clear 5 1027 68 10000 0.45 247 19:45 01.03.2021
1981 Clear 5 1027 68 10000 0.45 247 19:27 01.03.2021
1982 Clear 6 1027 60 10000 0.89 249 18:44 01.03.2021
1983 Clear 6 1027 60 10000 0.89 249 18:24 01.03.2021
1984 Clear 7 1027 60 10000 0.89 249 17:49 01.03.2021
1985 Clear 9 945 47 10000 0.89 180 17:24 01.03.2021
1986 Clear 11 1026 40 10000 1.79 311 16:48 01.03.2021
1987 Clear 12 1026 40 10000 1.79 311 16:30 01.03.2021
1988 Clear 12 1026 40 10000 1.79 311 15:58 01.03.2021
1989 Clear 11 1026 40 10000 0.45 328 15:38 01.03.2021
1990 Clear 11 1026 40 10000 0.45 328 15:18 01.03.2021
1991 Clear 11 1026 49 10000 2.68 356 14:40 01.03.2021
1992 Clear 11 1026 49 10000 2.68 356 14:21 01.03.2021
1993 Clear 10 1027 43 10000 0.45 349 13:38 01.03.2021
1994 Clear 10 1027 43 10000 0.45 349 13:20 01.03.2021
1995 Clear 9 1027 42 10000 0.89 1 12:42 01.03.2021
1996 Clear 9 1027 42 10000 0.89 1 12:24 01.03.2021
1997 Clear 9 1027 42 10000 0.89 1 11:56 01.03.2021
1998 -273 0 0 0 0 0 11:26 01.03.2021
1999 Clear 6 1028 38 10000 1.79 64 10:42 01.03.2021
2000 Clear 5 1028 38 10000 0.89 64 10:22 01.03.2021
2001 Clear 5 1028 75 10000 0.35 82 09:50 01.03.2021
2002 Clear 3 1028 75 10000 0.89 64 09:28 01.03.2021
2003 Clear 3 1032 43 10000 1.27 164 08:56 01.03.2021
2004 Clear 2 1032 44 10000 1.27 164 08:32 01.03.2021
2005 Clear -3 1028 70 10000 1.96 166 07:32 01.03.2021
2006 Clear -1 1030 86 10000 2 166 06:25 01.03.2021
2007 Clear -1 1028 61 10000 2.04 168 02:40 01.03.2021
2008 Clear -2 1028 89 10000 0.45 167 23:47 28.02.2021
2009 Clear -1 1028 89 10000 0.45 167 22:57 28.02.2021
2010 Clear -1 1028 88 10000 1.88 166 22:38 28.02.2021
2011 Clear -1 1028 88 10000 1.88 165 22:20 28.02.2021
2012 Clear 0 1028 87 10000 0.45 192 21:43 28.02.2021
2013 Clear 0 1028 87 10000 0.45 192 21:23 28.02.2021
2014 Clear 2 1028 85 10000 0.45 208 20:39 28.02.2021
2015 Clear 2 1028 85 10000 0.45 208 20:19 28.02.2021
2016 Clear 2 1028 83 10000 0.45 181 19:46 28.02.2021
2017 Clear 3 1028 83 10000 0.45 181 19:25 28.02.2021
2018 Clear 4 1028 73 10000 0.45 225 18:44 28.02.2021
2019 Clear 4 1028 73 10000 0.45 225 18:26 28.02.2021
2020 Clear 5 1028 73 10000 0.45 225 17:53 28.02.2021
2021 Clear 6 1028 64 10000 0.45 296 17:29 28.02.2021
2022 Clear 6 1028 64 10000 0.45 296 16:57 28.02.2021
2023 Clear 7 1028 62 10000 2.24 358 16:39 28.02.2021
2024 Clear 7 1028 62 9420 2.24 358 16:19 28.02.2021
2025 Clear 7 1028 62 9420 2.24 358 15:49 28.02.2021
2026 Clear 8 1028 63 10000 1.34 312 15:25 28.02.2021
2027 Clear 8 1028 63 10000 1.34 312 14:53 28.02.2021
2028 Clear 7 1028 65 10000 0.45 299 14:30 28.02.2021
2029 Clear 6 1028 65 10000 0.45 299 13:53 28.02.2021
2030 Clear 8 1029 28 10000 1.79 78 13:22 28.02.2021
2031 Clear 8 947 46 10000 1.19 35 12:59 28.02.2021
2032 Clear 8 947 46 10000 1.19 35 12:59 28.02.2021
2033 Clear 8 947 46 10000 1.19 35 12:59 28.02.2021
2034 Clear 7 947 46 10000 1.79 225 12:41 28.02.2021
2035 Clear 7 947 46 10000 1.79 225 12:40 28.02.2021
2036 Clear 6 1029 55 10000 1.34 292 12:22 28.02.2021
2037 Clear 6 1029 34 10000 2.68 74 11:55 28.02.2021
2038 Clear 6 1029 38 10000 0.79 90 11:26 28.02.2021
2039 Clear 6 1032 41 10000 0.79 90 10:59 28.02.2021
2040 Clear 3 1029 44 10000 1.79 76 10:29 28.02.2021
2041 Clear 4 947 70 10000 1 116 09:57 28.02.2021
2042 Clear 4 1032 42 10000 1 116 09:35 28.02.2021
2043 Clear 2 1033 43 10000 1.48 137 08:55 28.02.2021
2044 Clear -1 1029 91 10000 0.89 281 08:33 28.02.2021
2045 Clear -1 1029 91 10000 0.89 281 07:59 28.02.2021
2046 Clear -1 1029 93 10000 0.45 315 07:39 28.02.2021
2047 Clear -1 1029 93 10000 0.45 315 07:19 28.02.2021
2048 Clear -1 1029 93 10000 2.13 148 06:23 28.02.2021
2049 Clear -2 1029 90 10000 2.4 148 03:48 28.02.2021
2050 Clear -2 1030 90 10000 2.43 141 02:25 28.02.2021
2051 Clear -1 1030 86 10000 2.42 141 01:20 28.02.2021
2052 Clear 0 1030 86 10000 2.34 141 00:38 28.02.2021
2053 Clear 0 1030 86 10000 2.55 143 23:49 27.02.2021
2054 Clear 0 1030 83 10000 1.34 350 23:21 27.02.2021
2055 Clear 1 1031 81 10000 2.65 141 22:49 27.02.2021
2056 Clear 1 1031 81 10000 2.59 135 22:23 27.02.2021
2057 Clear 2 1031 81 10000 2.59 135 21:55 27.02.2021
2058 Clear 2 1033 85 10000 0.45 317 21:35 27.02.2021
2059 Clear 2 1033 84 10000 0.89 315 20:54 27.02.2021
2060 Clear 2 1033 84 10000 2.42 128 20:35 27.02.2021
2061 Clear 2 1033 84 10000 0.89 338 19:58 27.02.2021
2062 Clear 3 1030 83 10000 0.45 242 19:39 27.02.2021
2063 Clouds 3 1030 83 10000 0.45 242 19:21 27.02.2021
2064 Clouds 4 1030 76 10000 2.08 109 18:38 27.02.2021
2065 Clouds 4 1030 76 10000 2.05 87 18:18 27.02.2021
2066 Clouds 4 1030 78 10000 2.05 87 17:43 27.02.2021
2067 Clouds 4 1030 78 10000 2.3 75 17:20 27.02.2021
2068 Clouds 4 1030 78 10000 2.3 75 16:50 27.02.2021
2069 Clouds 4 1030 82 10000 0.89 307 16:30 27.02.2021
2070 Clouds 4 1030 82 6406 0.89 307 15:49 27.02.2021
2071 Clouds 4 1030 84 6406 0.89 35 15:30 27.02.2021
2072 Clouds 4 1030 86 10000 0.89 4 14:41 27.02.2021
2073 Clouds 3 1030 86 10000 0.89 4 14:23 27.02.2021
2074 Clouds 3 1031 88 2410 2.24 17 13:47 27.02.2021
2075 Clouds 3 1031 88 10000 2.24 17 13:25 27.02.2021
2076 Clouds 3 1031 88 10000 2.24 17 12:49 27.02.2021
2077 Clouds 3 1031 87 10000 0.89 5 12:26 27.02.2021
2078 Clouds 3 1031 87 10000 0.89 5 11:54 27.02.2021
2079 Clouds 3 1031 89 10000 1.34 344 11:31 27.02.2021
2080 Clouds 3 1031 89 10000 1.34 344 10:53 27.02.2021
2081 Clouds 3 1030 91 10000 0.89 340 10:35 27.02.2021
2082 Clouds 3 1030 91 318 0.89 340 09:54 27.02.2021
2083 Clouds 3 1030 93 318 0.89 50 09:33 27.02.2021
2084 Clouds 2 1030 95 91 0.45 355 08:44 27.02.2021
2085 Clouds 2 1030 95 55 0.45 355 08:24 27.02.2021
2086 Clouds 2 1030 95 55 0.45 355 07:58 27.02.2021
2087 Clouds 2 1030 95 49 2.38 38 07:25 27.02.2021
2088 Clouds 6 1029 80 610 1.63 20 01:30 27.02.2021
2089 Clouds 7 1029 77 1511 0.45 275 00:31 27.02.2021
2090 Clouds 7 1029 71 10000 0.45 245 23:41 26.02.2021
2091 Clouds 7 1029 71 10000 0.45 245 23:22 26.02.2021
2092 Clouds 7 1028 66 10000 0.45 160 22:34 26.02.2021
2093 Clouds 8 1028 66 10000 0.45 160 21:54 26.02.2021
2094 Clouds 8 1028 61 10000 0.45 207 21:35 26.02.2021
2095 Rain 8 1028 61 10000 0.45 207 20:56 26.02.2021
2096 Rain 8 1028 61 10000 0.45 207 20:56 26.02.2021
2097 Rain 8 1028 61 10000 0.45 160 20:37 26.02.2021
2098 Rain 8 1028 61 10000 0.45 160 20:37 26.02.2021
2099 Rain 8 1028 61 10000 0.45 160 20:18 26.02.2021
2100 Clouds 9 946 53 10000 0.21 64 19:27 26.02.2021
2101 Clouds 10 946 51 10000 0.21 64 18:57 26.02.2021
2102 Clouds 9 1027 35 10000 0.87 338 18:25 26.02.2021
2103 Clouds 8 1026 29 10000 0.87 338 17:59 26.02.2021
2104 Clouds 10 1026 26 10000 0.87 338 17:37 26.02.2021
2105 Clouds 13 1027 47 10000 1.34 338 17:18 26.02.2021
2106 Clouds 13 945 39 10000 1.23 337 16:46 26.02.2021
2107 Clouds 14 1027 43 10000 2.68 336 16:27 26.02.2021
2108 Clouds 15 1027 44 10000 2.68 355 15:44 26.02.2021
2109 Clear 15 1027 42 10000 2.24 354 15:24 26.02.2021
2110 Clear 15 1027 38 10000 2.68 335 14:57 26.02.2021
2111 Clear 15 1027 36 10000 2.24 345 14:35 26.02.2021
2112 Clear 16 1027 36 10000 2.68 343 13:54 26.02.2021
2113 Clouds 15 1027 39 10000 1.79 355 13:34 26.02.2021
2114 Clouds 15 1028 38 10000 0.89 359 12:57 26.02.2021
2115 Clouds 14 1028 40 10000 1.34 318 12:28 26.02.2021
2116 Clouds 14 1028 39 10000 0.45 119 11:43 26.02.2021
2117 Clouds 13 1028 39 10000 0.45 119 11:20 26.02.2021
2118 Clouds 9 1029 51 10000 0.45 86 10:37 26.02.2021
2119 Clouds 10 947 42 10000 1.34 315 09:48 26.02.2021
2120 Clouds 7 1030 74 10000 1.75 172 09:28 26.02.2021
2121 Clouds 8 1031 42 10000 1.75 172 08:36 26.02.2021
2122 Clouds 6 1032 43 10000 1.92 171 07:57 26.02.2021
2123 Clear 4 1029 67 10000 1.34 147 07:22 26.02.2021
2124 Clear 6 1025 55 10000 1.39 174 06:31 26.02.2021
2125 Clear 6 1032 43 10000 1.39 188 04:59 26.02.2021
2126 Clear 7 1025 45 10000 1.97 193 02:38 26.02.2021
2127 Clear 5 1031 67 10000 2.59 172 00:27 26.02.2021
2128 Clear 5 1030 64 10000 0.45 153 23:39 25.02.2021
2129 Clear 4 1030 65 10000 0.89 140 22:57 25.02.2021
2130 Clear 4 1029 62 10000 0.45 218 22:37 25.02.2021
2131 Clear 5 1029 62 10000 0.45 218 21:51 25.02.2021
2132 Clear 6 1029 60 10000 2.78 162 21:32 25.02.2021
2133 Clear 6 1029 60 10000 2.74 160 20:54 25.02.2021
2134 Clear 7 1028 56 10000 0.45 219 20:36 25.02.2021
2135 Clear 7 1028 56 10000 0.45 219 20:18 25.02.2021
2136 Clear 7 1028 56 10000 0.45 219 20:18 25.02.2021
2137 Clear 9 1028 54 10000 1.79 215 19:46 25.02.2021
2138 Clear 9 1028 54 10000 1.79 215 19:19 25.02.2021
2139 Clear 10 1028 43 10000 0.45 251 18:39 25.02.2021
2140 Clear 11 1028 43 10000 0.45 251 17:59 25.02.2021
2141 Clear 14 1028 35 10000 1.34 248 17:31 25.02.2021
2142 Clear 15 1028 35 10000 1.34 248 16:55 25.02.2021
2143 Clear 16 1028 51 10000 1.16 176 16:33 25.02.2021
2144 Clear 18 1027 15 10000 1.34 242 15:39 25.02.2021
2145 Clear 18 1027 15 10000 2.24 222 15:19 25.02.2021
2146 Clear 18 1027 15 10000 2.24 222 15:19 25.02.2021
2147 Clear 18 1023 35 10000 1.25 181 14:32 25.02.2021
2148 Clear 18 1029 32 10000 0.89 360 13:58 25.02.2021
2149 Clear 18 1029 29 10000 0.89 325 13:40 25.02.2021
2150 Clear 17 1029 28 10000 0.89 75 13:19 25.02.2021
2151 Clear 17 1029 28 10000 0.89 75 12:23 25.02.2021
2152 Clear 16 1029 28 10000 0.89 75 11:51 25.02.2021
2153 Clear 13 1029 43 10000 1.32 159 11:31 25.02.2021
2154 Clear 12 1030 46 10000 0.89 138 10:47 25.02.2021
2155 Clear 10 1030 59 10000 1.34 139 10:29 25.02.2021
2156 Clear 10 947 45 10000 2.02 157 09:45 25.02.2021
2157 Clear 8 948 55 10000 0.45 315 09:19 25.02.2021
2158 Clear 5 1031 88 10000 2.74 161 08:28 25.02.2021
2159 Clear 6 1029 44 10000 0.45 135 07:58 25.02.2021
2160 Clear 4 1031 100 6000 1.03 240 07:37 25.02.2021
2161 Clear 3 1031 100 7000 1.03 0 06:57 25.02.2021
2162 Clear 6 1031 73 10000 0.45 167 03:23 25.02.2021
2163 Clear 7 1016 85 10000 1.79 202 01:39 25.02.2021
2164 Clear 6 1032 76 10000 1.34 158 00:42 25.02.2021
2165 Clear 6 1032 76 10000 2.24 140 23:54 24.02.2021
2166 Clear 5 1032 76 10000 1.34 152 23:32 24.02.2021
2167 Clear 5 1031 79 10000 0.89 202 22:46 24.02.2021
2168 Clear 5 1031 79 10000 0.89 202 22:26 24.02.2021
2169 Clear 5 1031 79 10000 0.89 202 22:26 24.02.2021
2170 Clear 6 1031 74 10000 0.45 208 21:48 24.02.2021
2171 Clear 6 1031 74 10000 0.45 208 21:24 24.02.2021
2172 Clear 7 1031 67 10000 0.89 218 20:45 24.02.2021
2173 Clear 7 1031 67 10000 0.89 218 20:22 24.02.2021
2174 Clear 9 1031 59 10000 0.45 191 19:38 24.02.2021
2175 Clear 9 1031 59 10000 0.45 191 19:18 24.02.2021
2176 Clear 11 1031 56 10000 1.34 207 18:42 24.02.2021
2177 Clear 11 1031 56 10000 1.34 207 18:22 24.02.2021
2178 Clear 12 1031 49 10000 1.34 231 17:38 24.02.2021
2179 Clear 13 1031 49 10000 1.34 231 17:19 24.02.2021
2180 Clear 13 1032 44 10000 1.03 310 16:44 24.02.2021
2181 Clear 17 1032 31 10000 0.45 180 16:19 24.02.2021
2182 Clear 18 1027 37 10000 1.46 157 15:40 24.02.2021
2183 Clear 18 1032 38 10000 0.89 297 14:57 24.02.2021
2184 Clear 17 1032 32 10000 0.89 1 14:35 24.02.2021
2185 Clear 17 1032 32 10000 0.89 1 13:59 24.02.2021
2186 Clear 17 1032 35 10000 1.34 317 13:40 24.02.2021
2187 Clear 17 1032 35 10000 1.34 317 13:21 24.02.2021
2188 Clear 15 1033 41 10000 0.45 9 12:44 24.02.2021
2189 Clear 15 1033 41 10000 0.45 9 12:24 24.02.2021
2190 Clear 13 1033 55 10000 0.45 293 11:47 24.02.2021
2191 Clear 11 1033 55 10000 0.45 293 10:57 24.02.2021
2192 Clear 11 1035 63 10000 1.86 160 10:32 24.02.2021
2193 Clear 9 952 50 10000 1.86 160 09:46 24.02.2021
2194 Clear 8 1035 74 10000 1.34 172 09:20 24.02.2021
2195 Clear 9 1037 100 10000 2.17 161 08:34 24.02.2021
2196 Clear 7 1038 43 10000 2.42 161 07:57 24.02.2021
2197 Clear 7 1016 85 10000 1.79 202 07:20 24.02.2021
2198 Clear 7 1038 42 10000 2.17 166 06:23 24.02.2021
2199 Clear 6 1038 43 10000 2.49 168 03:28 24.02.2021
2200 Clear 6 1037 77 10000 1.34 142 00:22 24.02.2021
2201 Clear 6 1037 74 10000 1.34 164 23:24 23.02.2021
2202 Clear 7 1037 73 10000 1.34 141 22:37 23.02.2021
2203 Clear 7 1037 74 10000 1.34 135 22:19 23.02.2021
2204 Clear 6 1035 73 10000 0.45 175 21:42 23.02.2021
2205 Clear 6 1035 73 10000 0.45 175 21:22 23.02.2021
2206 Clear 7 1034 68 10000 0.45 140 20:48 23.02.2021
2207 Clear 7 1034 68 10000 0.45 140 20:29 23.02.2021
2208 Clear 9 1034 61 10000 1.79 153 19:48 23.02.2021
2209 Clouds 8 1034 61 10000 1.79 153 19:27 23.02.2021
2210 Clouds 9 1034 61 10000 1.79 153 18:55 23.02.2021
2211 Clouds 9 1033 58 10000 1.34 203 18:32 23.02.2021
2212 Clouds 10 1033 58 10000 1.34 203 17:54 23.02.2021
2213 Clouds 12 1032 47 10000 0.89 240 17:33 23.02.2021
2214 Clouds 12 1032 47 10000 0.89 240 16:50 23.02.2021
2215 Clouds 14 951 35 10000 0.85 176 16:27 23.02.2021
2216 Clear 14 1034 58 10000 1.54 290 15:57 23.02.2021
2217 Clear 14 1034 58 10000 1.54 290 15:38 23.02.2021
2218 Clouds 16 1033 39 10000 1.79 319 15:18 23.02.2021
2219 Clouds 16 1033 39 10000 1.79 319 14:42 23.02.2021
2220 Clouds 16 1033 39 10000 1.79 319 14:42 23.02.2021
2221 Clouds 16 1033 39 10000 2.24 311 14:24 23.02.2021
2222 Clouds 16 1033 37 10000 1.34 299 13:43 23.02.2021
2223 Clouds 16 1033 39 10000 0.89 295 13:23 23.02.2021
2224 Clouds 14 1033 44 10000 1.34 310 12:51 23.02.2021
2225 Clouds 14 1033 44 10000 0.45 30 12:20 23.02.2021
2226 Clouds 11 1033 50 10000 0.8 177 11:46 23.02.2021
2227 Clouds 10 1033 50 10000 1.31 169 11:21 23.02.2021
2228 Clouds 9 1034 59 10000 0.45 152 10:41 23.02.2021
2229 Clouds 8 1034 64 10000 0.89 142 10:21 23.02.2021
2230 Clouds 11 951 47 10000 1.5 167 09:43 23.02.2021
2231 Clouds 8 951 56 10000 1.66 165 09:22 23.02.2021
2232 Clouds 6 1035 100 10000 1.66 165 08:48 23.02.2021
2233 Clouds 5 950 69 10000 0.45 337 08:21 23.02.2021
2234 Clouds 6 1016 85 10000 1.79 202 07:49 23.02.2021
2235 Clouds 4 1033 77 10000 2.24 142 05:30 23.02.2021
2236 Clouds 3 1032 49 10000 0.45 90 04:25 23.02.2021
2237 Clouds 3 1031 70 10000 0.45 163 02:34 23.02.2021
2238 Clouds 4 1028 67 10000 0.45 163 00:20 23.02.2021
2239 Clouds 4 1028 66 10000 0.45 227 23:46 22.02.2021
2240 Clouds 4 1028 66 10000 0.45 227 23:20 22.02.2021
2241 Clouds 4 1027 62 10000 0.45 224 22:39 22.02.2021
2242 Clouds 5 1027 62 10000 0.45 224 22:20 22.02.2021
2243 Clouds 6 1027 58 10000 0.89 149 21:40 22.02.2021
2244 Clouds 6 1027 58 10000 0.89 149 21:21 22.02.2021
2245 Clouds 6 1027 58 10000 0.89 149 20:49 22.02.2021
2246 Clouds 7 1026 53 10000 0.45 176 20:27 22.02.2021
2247 Clouds 6 1026 53 10000 0.45 176 19:50 22.02.2021
2248 Clouds 8 1026 45 10000 0.89 143 19:30 22.02.2021
2249 Clouds 8 1026 45 10000 0.89 143 19:30 22.02.2021
2250 Clouds 9 942 35 10000 3.1 167 18:49 22.02.2021
2251 Clouds 10 942 33 10000 3.1 167 18:30 22.02.2021
2252 Clear 11 1023 58 10000 1.54 0 17:51 22.02.2021
2253 Clear 12 1023 54 10000 2.57 250 17:22 22.02.2021
2254 Clear 12 1022 50 10000 2.57 270 16:51 22.02.2021
2255 Clouds 15 940 24 10000 2.67 162 16:30 22.02.2021
2256 Clear 13 1022 50 10000 3.09 290 15:36 22.02.2021
2257 Clear 14 1022 71 10000 2.57 280 14:54 22.02.2021
2258 Clear 15 1022 71 10000 2.57 280 14:35 22.02.2021
2259 Clear 15 1024 100 10000 1.79 237 13:58 22.02.2021
2260 Clear 15 1024 100 10000 2.36 155 13:36 22.02.2021
2261 Clear 15 1024 31 10000 2.24 196 12:52 22.02.2021
2262 Clear 14 1025 100 10000 2.68 156 12:23 22.02.2021
2263 Clear 16 1022 36 10000 2.28 162 11:56 22.02.2021
2264 Clear 15 1022 22 10000 0.45 202 11:32 22.02.2021
2265 Clear 13 1023 37 10000 0.89 149 10:59 22.02.2021
2266 Clear 11 1022 41 10000 2.57 162 10:39 22.02.2021
2267 Clear 10 1022 41 10000 2.98 162 10:19 22.02.2021
2268 Clear 4 1022 48 10000 2.98 162 09:37 22.02.2021
2269 Clear 4 1022 48 10000 3.45 166 09:19 22.02.2021
2270 Clear 3 1022 48 10000 3.45 166 08:49 22.02.2021
2271 Clear 2 1021 44 10000 0.89 142 08:20 22.02.2021
2272 Clear 2 1021 45 10000 0.89 195 07:46 22.02.2021
2273 Clear 2 1021 45 10000 0.89 195 07:22 22.02.2021
2274 Clear 1 1020 56 10000 0.45 196 06:26 22.02.2021
2275 Clear 4 1019 51 10000 0.89 192 04:25 22.02.2021
2276 Clear 4 1019 52 10000 0.45 184 03:22 22.02.2021
2277 Clear 3 1019 59 10000 1.34 170 00:54 22.02.2021
2278 Clear 3 1018 61 10000 1.34 215 00:28 22.02.2021
2279 Clear 3 1018 61 10000 1.34 215 23:52 21.02.2021
2280 Clear 2 1018 67 10000 0.45 153 22:59 21.02.2021
2281 Clear 3 1017 66 10000 0.45 186 22:27 21.02.2021
2282 Clear 3 1017 66 10000 0.45 186 21:51 21.02.2021
2283 Clear 3 1017 67 10000 0.45 199 21:32 21.02.2021
2284 Clear 4 1017 67 10000 0.45 199 20:55 21.02.2021
2285 Clear 5 1017 65 10000 1.34 206 20:22 21.02.2021
2286 Clear 6 1017 65 10000 1.34 206 19:59 21.02.2021
2287 Clear 7 1017 57 10000 0.89 170 19:39 21.02.2021
2288 Clear 7 1017 57 10000 0.89 170 19:21 21.02.2021
2289 Clear 9 1016 47 10000 0.89 179 18:28 21.02.2021
2290 Clear 9 1016 47 10000 0.89 179 17:52 21.02.2021
2291 Clear 12 1016 39 10000 1.34 240 17:24 21.02.2021
2292 Clear 12 1016 39 10000 1.34 240 16:52 21.02.2021
2293 Clear 13 934 32 10000 2.56 164 16:31 21.02.2021
2294 Clear 13 1016 62 10000 2.06 290 15:36 21.02.2021
2295 Clear 13 1017 62 10000 2.57 280 15:18 21.02.2021
2296 Clear 15 1010 43 10000 0.89 317 14:39 21.02.2021
2297 Clear 16 1016 24 10000 0.45 292 14:18 21.02.2021
2298 Clear 16 1017 33 10000 0.89 295 13:30 21.02.2021
2299 Clear 15 1017 32 10000 0.89 311 12:56 21.02.2021
2300 Clear 13 1018 30 10000 1.59 151 12:27 21.02.2021
2301 Clear 11 1018 42 10000 1.59 151 11:43 21.02.2021
2302 Clear 10 1018 42 10000 1.73 154 10:52 21.02.2021
2303 Clear 8 1019 58 10000 1.34 152 10:22 21.02.2021
2304 Clear 7 1019 38 10000 1.34 61 09:52 21.02.2021
2305 Clear 5 1019 47 10000 1.34 61 09:26 21.02.2021
2306 Clear 5 1023 43 10000 2.65 157 08:43 21.02.2021
2307 Clear 3 1023 44 10000 3 158 08:19 21.02.2021
2308 Clear 1 1023 44 10000 2.87 156 07:30 21.02.2021
2309 Clear 3 1023 43 10000 2.83 155 06:46 21.02.2021
2310 Clear 4 1023 43 10000 2.76 159 02:45 21.02.2021
2311 Clear 2 1017 79 10000 0.45 60 02:24 21.02.2021
2312 Clouds 7 1016 85 10000 1.79 202 00:36 21.02.2021
2313 Clouds 7 1016 85 10000 1.79 202 00:18 21.02.2021
2314 Clouds 4 1019 75 10000 1.34 147 22:59 20.02.2021
2315 Clouds 3 1019 73 10000 1.34 150 22:38 20.02.2021
2316 Clouds 5 1019 72 10000 1.34 152 21:59 20.02.2021
2317 Clouds 5 1019 71 10000 0.89 147 21:41 20.02.2021
2318 Clouds 5 1019 68 10000 3.04 158 21:18 20.02.2021
2319 Clouds 5 1018 67 10000 0.45 218 20:42 20.02.2021
2320 Clouds 5 1018 67 10000 0.45 218 20:20 20.02.2021
2321 Clouds 6 1018 63 10000 0.89 218 19:48 20.02.2021
2322 Clear 7 1018 63 10000 0.89 218 18:58 20.02.2021
2323 Clear 8 1017 51 10000 0.45 166 18:37 20.02.2021
2324 Clear 8 1017 51 10000 0.45 166 18:18 20.02.2021
2325 Clear 11 1017 46 10000 0.89 258 17:36 20.02.2021
2326 Clear 11 1017 46 10000 0.89 258 16:50 20.02.2021
2327 Clouds 15 1017 54 10000 1.69 148 16:27 20.02.2021
2328 Clouds 15 1018 45 10000 0.89 360 15:44 20.02.2021
2329 Clouds 16 1018 43 10000 0.45 297 14:53 20.02.2021
2330 Clouds 15 1018 42 10000 1.34 343 14:29 20.02.2021
2331 Clouds 15 1018 43 10000 1.34 315 13:59 20.02.2021
2332 Clouds 15 1018 42 10000 0.45 355 13:40 20.02.2021
2333 Clouds 15 1019 40 10000 0.89 291 13:21 20.02.2021
2334 Clouds 14 1019 40 10000 1.24 132 12:46 20.02.2021
2335 Clouds 13 1019 40 10000 1.18 145 11:56 20.02.2021
2336 Clouds 10 1019 52 10000 1.18 145 11:36 20.02.2021
2337 Clouds 9 1019 52 10000 1.58 154 10:54 20.02.2021
2338 Clouds 7 1020 64 10000 0.45 139 10:29 20.02.2021
2339 Clouds 9 937 57 10000 1.96 159 09:48 20.02.2021
2340 Clouds 5 1017 93 10000 0.45 169 08:56 20.02.2021
2341 Clouds 5 1023 43 10000 2.5 158 08:27 20.02.2021
2342 Clouds 5 1023 43 10000 2.5 158 07:50 20.02.2021
2343 Clouds 2 1020 83 10000 0.45 177 02:37 20.02.2021
2344 Clouds 3 1014 55 10000 2.42 165 02:19 20.02.2021
2345 Clouds 2 1020 81 10000 2.47 166 01:20 20.02.2021
2346 Clouds 3 1020 80 10000 0.45 155 00:42 20.02.2021
2347 Clouds 4 1020 82 10000 0.89 149 23:42 19.02.2021
2348 Clouds 3 1019 79 10000 2.57 166 22:48 19.02.2021
2349 Clouds 3 1019 79 10000 2.5 168 22:26 19.02.2021
2350 Clouds 3 1019 78 10000 2.5 168 21:47 19.02.2021
2351 Clouds 3 1019 78 10000 2.39 168 21:26 19.02.2021
2352 Clouds 4 1019 81 10000 0.45 213 20:45 19.02.2021
2353 Clouds 4 1019 81 10000 0.45 213 20:45 19.02.2021
2354 Clouds 4 1019 81 10000 0.45 213 20:27 19.02.2021
2355 Clouds 4 1019 81 10000 0.45 213 19:50 19.02.2021
2356 Clouds 6 1019 69 10000 0.45 179 19:20 19.02.2021
2357 Clouds 7 1019 69 10000 0.45 179 18:53 19.02.2021
2358 Clouds 6 1018 64 10000 1.34 215 18:30 19.02.2021
2359 Clouds 7 1018 39 10000 1.34 70 17:45 19.02.2021
2360 Clouds 10 936 57 10000 1.89 164 16:46 19.02.2021
2361 Clouds 10 936 57 6490 1.42 163 16:23 19.02.2021
2362 Clouds 12 936 55 6490 1.42 163 15:56 19.02.2021
2363 Clouds 13 1019 64 6490 1.42 163 15:30 19.02.2021
2364 Clouds 13 1019 65 6404 0.64 160 14:55 19.02.2021
2365 Clouds 12 1018 48 6404 0.89 288 14:35 19.02.2021
2366 Clouds 12 1018 48 6941 0.89 288 13:57 19.02.2021
2367 Clouds 11 1019 52 6758 0.45 73 13:36 19.02.2021
2368 Clouds 10 1019 52 7786 0.45 73 12:58 19.02.2021
2369 Clouds 9 1020 56 7786 0.72 185 12:38 19.02.2021
2370 Clouds 9 1020 56 10000 0.61 258 12:20 19.02.2021
2371 Clouds 9 1020 56 10000 0.61 258 12:20 19.02.2021
2372 Clouds 7 1020 63 10000 0.45 96 11:41 19.02.2021
2373 Clouds 7 1020 63 10000 0.45 96 11:18 19.02.2021
2374 Clouds 5 1019 70 10000 1.34 324 10:34 19.02.2021
2375 Clouds 5 1019 70 10000 1.34 324 10:34 19.02.2021
2376 Clouds 5 1019 70 10000 1.34 324 09:59 19.02.2021
2377 Clouds 4 1019 75 10000 0.89 133 09:29 19.02.2021
2378 Rain 4 1019 75 10000 0.89 133 08:55 19.02.2021
2379 Rain 4 1019 75 10000 0.45 204 08:29 19.02.2021
2380 Clouds 4 1019 75 10000 0.45 204 07:57 19.02.2021
2381 Rain 4 1018 75 10000 0.89 160 07:37 19.02.2021
2382 Clouds 4 1018 75 10000 0.89 160 07:19 19.02.2021
2383 Rain 4 1018 68 10000 0.89 108 06:36 19.02.2021
2384 Clouds 3 1017 72 10000 0.89 106 04:42 19.02.2021
2385 Rain 4 1019 75 10000 0.45 151 02:44 19.02.2021
2386 Clouds 5 1018 69 10000 1.5 234 01:26 19.02.2021
2387 Clouds 6 1018 65 10000 2.32 200 00:27 19.02.2021
2388 Clouds 5 1016 64 10000 0.89 235 23:45 18.02.2021
2389 Clouds 4 1016 64 10000 0.89 235 23:27 18.02.2021
2390 Clouds 5 1014 73 10000 0.89 177 22:37 18.02.2021
2391 Clouds 4 1014 73 10000 0.89 177 22:18 18.02.2021
2392 Clouds 4 1014 66 10000 0.45 204 21:37 18.02.2021
2393 Clouds 4 1014 66 10000 0.45 204 21:19 18.02.2021
2394 Clouds 5 1014 63 10000 0.89 220 20:39 18.02.2021
2395 Clouds 5 1014 63 10000 0.89 220 20:20 18.02.2021
2396 Clouds 6 1015 55 10000 0.89 134 19:43 18.02.2021
2397 Clouds 6 1015 55 10000 0.89 134 19:20 18.02.2021
2398 Clouds 6 1015 55 10000 0.89 134 19:20 18.02.2021
2399 Clouds 7 1015 50 10000 1.34 124 18:48 18.02.2021
2400 Clouds 8 1015 50 10000 1.34 124 18:26 18.02.2021
2401 Clouds 8 1015 50 10000 0.89 167 17:46 18.02.2021
2402 Clouds 8 1015 50 10000 0.89 167 17:24 18.02.2021
2403 Clouds 8 1015 47 10000 0.45 274 16:46 18.02.2021
2404 Clouds 10 1015 47 10000 0.45 274 16:28 18.02.2021
2405 Clouds 11 1017 37 10000 1.34 150 15:42 18.02.2021
2406 Rain 11 1017 35 10000 0.89 179 15:23 18.02.2021
2407 Clouds 11 1015 37 10000 0.45 112 14:52 18.02.2021
2408 Clouds 11 1015 17 10000 0.98 157 14:31 18.02.2021
2409 Clouds 10 1016 33 10000 1.04 135 13:49 18.02.2021
2410 Clouds 10 1016 33 10000 0.45 237 13:21 18.02.2021
2411 Clouds 10 1016 33 10000 0.45 237 12:54 18.02.2021
2412 Clouds 8 1016 44 10000 0.45 237 12:30 18.02.2021
2413 Clouds 7 1017 28 10000 0.73 189 11:47 18.02.2021
2414 Clouds 7 1017 28 10000 0.73 189 11:47 18.02.2021
2415 Clouds 7 1017 31 10000 1.18 170 11:27 18.02.2021
2416 Clouds 8 1018 83 10000 1.18 170 10:57 18.02.2021
2417 Clouds 7 1018 85 10000 1.18 170 10:36 18.02.2021
2418 Clouds 5 1016 85 10000 1.79 202 10:18 18.02.2021
2419 Clouds 2 934 87 10000 2.4 173 09:28 18.02.2021
2420 Clouds 3 1019 94 10000 2.4 173 08:48 18.02.2021
2421 Clouds 0 1022 44 10000 2.4 173 08:30 18.02.2021
2422 Clouds 0 1022 44 10000 2.94 168 07:42 18.02.2021
2423 Clouds 0 1022 44 10000 2.94 165 07:20 18.02.2021
2424 Clouds -1 1022 45 10000 2.86 166 05:42 18.02.2021
2425 Clear -1 1020 91 10000 2.28 161 00:26 18.02.2021
2426 Clear -1 1021 89 10000 0.45 184 23:38 17.02.2021
2427 Clear 0 1021 89 10000 0.45 184 22:57 17.02.2021
2428 Clear 0 1021 90 10000 0.45 182 22:38 17.02.2021
2429 Clear 0 1021 90 10000 0.45 182 22:18 17.02.2021
2430 Clear 1 1021 89 10000 0.45 224 21:41 17.02.2021
2431 Clear 1 1021 89 10000 0.45 224 21:19 17.02.2021
2432 Clear 2 1020 86 10000 0.45 197 20:40 17.02.2021
2433 Clear 2 1020 86 10000 0.45 197 19:56 17.02.2021
2434 Clear 3 1020 82 10000 2.12 166 19:36 17.02.2021
2435 Clear 4 1020 82 10000 2.15 168 18:57 17.02.2021
2436 Clear 5 1020 76 10000 0.89 225 18:34 17.02.2021
2437 Clear 4 938 70 10000 1.84 174 17:46 17.02.2021
2438 Clear 7 938 66 10000 1.5 178 17:21 17.02.2021
2439 Clear 8 1021 68 10000 0.89 360 16:51 17.02.2021
2440 Clear 9 1021 70 10000 0.89 332 16:29 17.02.2021
2441 Clear 9 1021 55 10000 1.34 302 15:46 17.02.2021
2442 Clouds 10 1021 59 10000 1.34 276 15:28 17.02.2021
2443 Clouds 10 1021 57 10000 1.34 266 14:59 17.02.2021
2444 Clouds 10 1021 56 10000 2.24 257 14:39 17.02.2021
2445 Clouds 10 1021 56 10000 2.68 256 14:21 17.02.2021
2446 Clouds 8 1022 61 10000 3.13 216 13:40 17.02.2021
2447 Clouds 9 1021 61 10000 1.51 253 12:58 17.02.2021
2448 Clouds 9 1021 61 10000 1.51 250 12:26 17.02.2021
2449 Clouds 8 1021 82 10000 0.89 321 11:48 17.02.2021
2450 Clouds 7 1021 82 10000 0.89 321 11:29 17.02.2021
2451 Clouds 7 1021 82 10000 0.89 321 10:58 17.02.2021
2452 Clouds 6 1021 90 10000 0.45 224 10:40 17.02.2021
2453 Clouds 5 1021 90 10000 0.45 224 10:20 17.02.2021
2454 Clouds 5 1021 94 10000 1.34 218 09:40 17.02.2021
2455 Clouds 5 1021 94 7806 1.34 218 08:58 17.02.2021
2456 Clouds 4 1021 87 7806 1.79 232 08:37 17.02.2021
2457 Clouds 5 1021 87 263 1.79 232 08:19 17.02.2021
2458 Clouds 6 1021 75 94 1.75 260 07:23 17.02.2021
2459 Rain 6 1020 86 162 4.02 140 03:54 17.02.2021
2460 Rain 5 1018 87 474 1.79 150 02:33 17.02.2021
2461 Rain 6 1018 86 2325 1.34 205 01:37 17.02.2021
2462 Rain 5 1018 91 10000 0.45 169 00:28 17.02.2021
2463 Clouds 4 1018 91 10000 0.45 169 23:49 16.02.2021
2464 Clouds 4 1018 87 10000 0.45 93 23:25 16.02.2021
2465 Clouds 4 1018 94 10000 1.79 212 22:42 16.02.2021
2466 Clouds 3 1018 94 10000 1.79 212 22:22 16.02.2021
2467 Clouds 3 1018 92 10000 2.24 139 21:40 16.02.2021
2468 Clouds 4 1018 92 10000 0.89 127 21:22 16.02.2021
2469 Clouds 4 1017 92 10000 2.68 170 20:58 16.02.2021
2470 Clouds 4 1016 93 10000 0.45 195 20:38 16.02.2021
2471 Clouds 4 1016 93 10000 0.45 195 20:20 16.02.2021
2472 Clouds 5 1017 89 10000 2.99 168 19:40 16.02.2021
2473 Clouds 5 1017 89 10000 3.01 169 19:21 16.02.2021
2474 Clouds 6 1017 90 10000 0.45 202 18:38 16.02.2021
2475 Clouds 6 1017 90 10000 0.45 202 18:19 16.02.2021
2476 Clouds 6 1017 90 10000 0.45 202 17:49 16.02.2021
2477 Clouds 8 1017 84 10000 0.89 210 17:23 16.02.2021
2478 Clouds 9 1019 82 10000 0.45 194 16:47 16.02.2021
2479 Clouds 9 1019 82 1151 0.45 194 16:24 16.02.2021
2480 Clouds 9 1019 48 1151 0.89 68 15:47 16.02.2021
2481 Clouds 10 1020 80 355 0.89 141 15:26 16.02.2021
2482 Clouds 10 1020 80 355 0.89 245 14:48 16.02.2021
2483 Clouds 10 1020 80 114 0.89 245 14:29 16.02.2021
2484 Clouds 9 1020 80 114 0.89 245 13:56 16.02.2021
2485 Clouds 8 1020 85 114 0.45 322 13:33 16.02.2021
2486 Clouds 6 1021 97 286 0.45 226 12:44 16.02.2021
2487 Clouds 6 1021 97 206 0.45 226 12:22 16.02.2021
2488 Clouds 5 1022 98 206 0.89 189 11:49 16.02.2021
2489 Clouds 5 1022 98 977 0.89 189 11:23 16.02.2021
2490 Clouds 5 1022 98 977 0.89 189 10:55 16.02.2021
2491 Clouds 4 1022 98 977 0.45 234 10:36 16.02.2021
2492 Clouds 4 1022 98 8479 0.45 234 10:18 16.02.2021
2493 Clouds 4 1025 95 8479 0.45 150 09:44 16.02.2021
2494 Clouds 3 1025 95 3309 1.55 229 09:25 16.02.2021
2495 Clouds 3 1023 99 3309 0.45 143 08:42 16.02.2021
2496 Clouds 3 1023 99 9405 0.45 143 08:19 16.02.2021
2497 Clouds 3 1024 99 8700 0.89 168 07:21 16.02.2021
2498 Clouds 3 1025 98 4863 0.45 172 04:39 16.02.2021
2499 Clouds 3 1026 86 203 1.99 206 00:45 16.02.2021
2500 Clouds 3 1026 79 4361 0.89 91 23:39 15.02.2021
2501 Clouds 3 1026 79 10000 0.89 91 23:20 15.02.2021
2502 Clouds 3 1026 78 10000 1.34 179 22:43 15.02.2021
2503 Clouds 3 1026 78 10000 1.34 179 22:20 15.02.2021
2504 Clouds 3 1027 79 10000 0.89 214 21:38 15.02.2021
2505 Rain 2 1027 79 10000 0.89 214 21:20 15.02.2021
2506 Clouds 3 1027 68 10000 0.45 159 20:45 15.02.2021
2507 Rain 3 1027 68 1341 0.45 159 20:25 15.02.2021
2508 Rain 2 1027 72 1346 1.34 171 19:44 15.02.2021
2509 Rain 2 1027 72 5255 1.34 171 19:22 15.02.2021
2510 Rain 2 1027 61 10000 0.45 142 18:44 15.02.2021
2511 Rain 2 1027 61 9593 0.45 142 18:26 15.02.2021
2512 Clouds 2 1027 55 9593 0.45 321 17:42 15.02.2021
2513 Clouds 3 1027 55 10000 0.45 321 17:22 15.02.2021
2514 Clouds 3 1027 55 10000 0.45 321 16:55 15.02.2021
2515 Clouds 3 1027 51 10000 0.89 241 16:27 15.02.2021
2516 Clouds 3 1027 51 10000 0.89 241 15:50 15.02.2021
2517 Clouds 3 1028 46 9268 0.45 303 15:22 15.02.2021
2518 Rain 3 1028 46 9268 0.45 303 14:54 15.02.2021
2519 Rain 4 945 42 10000 1.11 197 14:22 15.02.2021
2520 Rain 4 945 41 10000 1.11 197 13:58 15.02.2021
2521 Rain 4 945 41 10000 1.11 197 13:58 15.02.2021
2522 Rain 3 945 40 10000 1.11 197 13:39 15.02.2021
2523 Rain 3 946 42 10000 0.87 227 13:18 15.02.2021
2524 Clouds 3 946 43 10000 0.45 315 12:39 15.02.2021
2525 Clouds 4 947 43 10000 1.16 229 12:19 15.02.2021
2526 Clouds 2 1031 27 10000 1.16 230 11:41 15.02.2021
2527 Clouds 1 1031 30 10000 1.33 215 11:19 15.02.2021
2528 Clouds 2 1030 61 10000 0.45 205 10:46 15.02.2021
2529 Clouds 1 1030 67 10000 1.34 233 10:22 15.02.2021
2530 Clouds -2 1031 41 10000 1.72 199 09:53 15.02.2021
2531 Clouds -1 947 64 10000 1.34 315 09:33 15.02.2021
2532 Clouds -1 947 64 10000 1.34 315 09:33 15.02.2021
2533 Clouds -2 1031 92 10000 0.45 229 08:41 15.02.2021
2534 Clear -6 1034 100 10000 0.51 0 07:38 15.02.2021
2535 Clouds -6 1038 100 10000 1.67 194 06:45 15.02.2021
2536 Clouds -7 1038 100 10000 1.67 213 06:27 15.02.2021
2537 Clouds -6 1031 81 10000 0.45 180 02:28 15.02.2021
2538 Clouds -6 1031 73 10000 0.45 45 00:35 15.02.2021
2539 Clouds -5 1036 75 10000 2.45 160 23:33 14.02.2021
2540 Clouds -6 1037 75 10000 2.53 160 22:54 14.02.2021
2541 Clouds -5 1037 71 10000 2.53 160 22:36 14.02.2021
2542 Clouds -8 1039 84 10000 1.34 139 22:18 14.02.2021
2543 Clouds -8 1032 85 10000 0.89 192 21:42 14.02.2021
2544 Clouds -7 1032 85 10000 0.89 192 21:21 14.02.2021
2545 Clouds -8 1032 83 10000 2.89 158 20:39 14.02.2021
2546 Clouds -8 1032 83 10000 2.94 156 20:20 14.02.2021
2547 Clouds -6 1032 79 10000 0.45 235 19:40 14.02.2021
2548 Clouds -6 1032 79 10000 0.45 235 18:51 14.02.2021
2549 Clouds -5 1032 77 10000 0.45 219 18:29 14.02.2021
2550 Clouds -4 1032 77 10000 0.45 219 17:51 14.02.2021
2551 Clouds -2 1031 61 10000 0.45 240 17:32 14.02.2021
2552 Clouds 0 1031 39 10000 0.45 64 16:44 14.02.2021
2553 Clear 0 1031 39 10000 0.45 64 16:25 14.02.2021
2554 Clear -1 1032 46 10000 0.89 22 15:47 14.02.2021
2555 Clear -1 1032 46 10000 0.89 22 15:29 14.02.2021
2556 Clear -1 1032 48 10000 2.24 353 14:43 14.02.2021
2557 Clear -1 1032 48 10000 2.24 353 14:24 14.02.2021
2558 Clear 1 1033 37 10000 0.89 292 13:41 14.02.2021
2559 Clear -1 1032 62 10000 0.45 43 13:23 14.02.2021
2560 Clear -1 1032 62 10000 0.45 43 12:24 14.02.2021
2561 Clear -2 1032 62 10000 0.45 43 11:52 14.02.2021
2562 Clear -1 1033 21 10000 2.68 73 11:33 14.02.2021
2563 Clear -2 1033 21 10000 3.13 49 10:59 14.02.2021
2564 Clear -6 1033 21 10000 2.68 89 10:23 14.02.2021
2565 Clear -5 1033 21 10000 3.13 79 09:40 14.02.2021
2566 Clear -9 950 76 10000 0.45 315 09:21 14.02.2021
2567 Clear -8 1032 91 10000 0.45 218 08:56 14.02.2021
2568 Clear -12 1033 62 10000 0.89 67 07:58 14.02.2021
2569 Clear -14 1031 82 10000 0.45 212 06:54 14.02.2021
2570 Clear -12 1032 31 10000 0.89 65 05:43 14.02.2021
2571 Clear -14 1031 83 10000 0.45 159 03:51 14.02.2021
2572 Clear -15 1030 84 10000 0.45 174 02:29 14.02.2021
2573 Clear -14 1030 82 10000 0.45 258 00:54 14.02.2021
2574 Clear -14 1030 82 10000 0.45 258 00:34 14.02.2021
2575 Clear -13 1030 83 10000 0.45 234 23:42 13.02.2021
2576 Clear -13 1030 83 10000 0.45 234 23:23 13.02.2021
2577 Clear -13 1030 82 10000 0.45 225 22:47 13.02.2021
2578 Clear -13 1030 82 10000 0.45 225 22:20 13.02.2021
2579 Clear -11 1030 84 10000 0.45 170 21:44 13.02.2021
2580 Clear -11 1030 84 10000 0.45 170 21:22 13.02.2021
2581 Clear -11 1029 83 10000 2.82 139 20:30 13.02.2021
2582 Clear -10 1029 83 10000 2.77 136 19:59 13.02.2021
2583 Clear -9 1028 80 10000 0.89 236 19:40 13.02.2021
2584 Clear -9 1028 80 10000 0.89 236 19:21 13.02.2021
2585 Clear -8 1028 78 10000 1.34 222 18:45 13.02.2021
2586 Clear -7 1028 78 10000 1.34 222 18:24 13.02.2021
2587 Clear -6 1027 60 10000 0.89 142 17:43 13.02.2021
2588 Clear -6 1027 60 10000 0.89 142 17:23 13.02.2021
2589 Clear -5 1027 57 10000 0.45 79 16:44 13.02.2021
2590 Clear -5 1027 57 10000 0.45 79 16:26 13.02.2021
2591 Clear -5 1026 60 10000 0.89 43 15:41 13.02.2021
2592 Clear -5 1026 60 10000 0.89 43 15:22 13.02.2021
2593 Clear -6 1026 61 10000 1.79 20 14:33 13.02.2021
2594 Clear -6 1034 70 10000 0.45 324 13:48 13.02.2021
2595 Clear -6 1034 71 10000 0.89 258 13:25 13.02.2021
2596 Clear -7 1034 72 10000 0.89 181 12:50 13.02.2021
2597 Clear -7 1026 59 10000 0.45 5 12:19 13.02.2021
2598 Clear -7 1028 33 10000 2.24 58 11:45 13.02.2021
2599 Clear -9 1034 78 10000 0.45 309 11:20 13.02.2021
2600 Clear -10 1026 73 10000 0.45 75 10:46 13.02.2021
2601 Clear -11 1026 73 10000 0.45 75 10:25 13.02.2021
2602 Clear -11 1026 73 10000 0.45 75 09:56 13.02.2021
2603 Clear -12 1026 79 10000 1.34 18 09:30 13.02.2021
2604 Clear -13 1026 79 10000 1.34 18 08:56 13.02.2021
2605 Clear -13 1025 80 10000 2.24 14 08:35 13.02.2021
2606 Clear -13 1025 80 10000 2.24 14 07:52 13.02.2021
2607 Clear -13 1024 80 10000 1.34 10 06:39 13.02.2021
2608 Clear -12 1023 81 10000 1.34 354 05:26 13.02.2021
2609 Clear -11 1023 80 10000 1.34 352 03:58 13.02.2021
2610 Clear -10 1022 78 10000 1.34 348 01:48 13.02.2021
2611 Clouds -10 1022 78 10000 1.34 41 00:36 13.02.2021
2612 Clouds -10 1022 78 10000 1.34 41 23:54 12.02.2021
2613 Clouds -9 1022 78 10000 0.89 342 23:24 12.02.2021
2614 Clouds -9 1022 78 10000 3.58 358 22:42 12.02.2021
2615 Clouds -9 1022 78 10000 3.58 358 22:21 12.02.2021
2616 Clouds -8 1021 79 10000 0.89 5 21:45 12.02.2021
2617 Clouds -8 1021 79 10000 0.89 5 21:26 12.02.2021
2618 Clouds -8 1021 79 10000 2.24 328 20:46 12.02.2021
2619 Clouds -8 1021 79 10000 2.24 328 20:27 12.02.2021
2620 Clouds -8 1021 79 10000 2.24 328 19:57 12.02.2021
2621 Clouds -7 1021 77 10000 0.89 4 19:37 12.02.2021
2622 Clouds -7 1021 77 10000 0.89 4 18:55 12.02.2021
2623 Clouds -7 1021 73 10000 0.89 352 18:29 12.02.2021
2624 Clouds -7 1020 73 10000 0.45 329 17:44 12.02.2021
2625 Clouds -7 1020 73 10000 0.45 329 17:20 12.02.2021
2626 Clouds -5 1027 80 10000 1.34 319 16:25 12.02.2021
2627 Clouds -5 1027 79 10000 1.34 315 15:46 12.02.2021
2628 Clouds -5 1027 78 10000 1.34 346 15:21 12.02.2021
2629 Clouds -4 1027 79 10000 0.89 311 14:40 12.02.2021
2630 Clear -4 1021 32 10000 2.24 57 13:58 12.02.2021
2631 Clear -4 1021 32 10000 1.79 78 13:40 12.02.2021
2632 Clouds -5 1024 79 10000 1.03 0 12:55 12.02.2021
2633 Clouds -5 1027 71 10000 2.06 26 12:36 12.02.2021
2634 Clouds -6 1021 66 10000 0.45 337 11:48 12.02.2021
2635 Clouds -8 1022 38 10000 3.13 49 11:22 12.02.2021
2636 Clouds -9 1024 86 10000 0.51 0 10:51 12.02.2021
2637 Clouds -8 1024 86 10000 0.51 0 10:33 12.02.2021
2638 Clouds -9 1024 86 10000 1.54 110 09:43 12.02.2021
2639 Clouds -9 938 86 10000 1.17 113 09:24 12.02.2021
2640 Clouds -9 1024 86 10000 1.54 110 08:47 12.02.2021
2641 Clouds -12 1028 90 10000 0.89 335 08:27 12.02.2021
2642 Clouds -12 1028 89 10000 1.34 347 07:53 12.02.2021
2643 Clouds -12 1027 89 10000 1.22 138 07:27 12.02.2021
2644 Clouds -12 1027 89 10000 1.2 140 06:54 12.02.2021
2645 Clouds -12 1028 87 10000 0.89 9 05:39 12.02.2021
2646 Clouds -11 1021 85 10000 0.45 223 03:48 12.02.2021
2647 Clouds -11 1021 82 10000 0.45 327 00:35 12.02.2021
2648 Clear -10 1022 82 10000 0.89 353 23:38 11.02.2021
2649 Clear -11 1022 82 10000 0.89 353 23:20 11.02.2021
2650 Clear -10 1021 81 10000 0.89 14 22:44 11.02.2021
2651 Clear -10 1021 81 10000 0.89 14 22:23 11.02.2021
2652 Clear -10 1022 80 10000 0.45 332 21:43 11.02.2021
2653 Clouds -10 1022 80 10000 0.45 332 21:25 11.02.2021
2654 Clouds -9 1022 80 10000 0.45 332 20:57 11.02.2021
2655 Clouds -9 1022 79 10000 1.79 0 20:39 11.02.2021
2656 Clouds -9 1022 79 10000 1.79 0 20:19 11.02.2021
2657 Clouds -8 1022 79 10000 1.34 354 19:46 11.02.2021
2658 Clouds -8 1022 79 10000 1.34 354 19:26 11.02.2021
2659 Clouds -8 1021 79 10000 1.34 4 18:42 11.02.2021
2660 Clouds -8 1021 79 10000 1.34 4 18:20 11.02.2021
2661 Clouds -8 1021 77 10000 0.89 8 17:47 11.02.2021
2662 Clouds -8 1021 77 8494 0.89 8 17:21 11.02.2021
2663 Clouds -7 1020 74 8494 0.89 10 16:45 11.02.2021
2664 Clouds -7 1020 74 7033 0.89 10 16:26 11.02.2021
2665 Clouds -6 1020 73 7033 0.89 3 15:45 11.02.2021
2666 Clouds -6 1020 73 10000 0.89 3 15:26 11.02.2021
2667 Clouds -6 1020 73 10000 0.89 3 15:26 11.02.2021
2668 Clouds -6 1020 73 10000 0.89 3 15:26 11.02.2021
2669 Clouds -6 1020 73 10000 0.89 3 14:53 11.02.2021
2670 Clouds -5 1021 33 10000 2.68 50 14:31 11.02.2021
2671 Clouds -6 1020 69 10000 0.45 315 13:42 11.02.2021
2672 Clouds -6 1020 71 10000 0.45 315 13:20 11.02.2021
2673 Clouds -6 1021 37 10000 1.79 50 12:56 11.02.2021
2674 Clouds -7 1020 72 10000 0.45 22 12:32 11.02.2021
2675 Clouds -7 1019 75 10000 0.45 112 11:47 11.02.2021
2676 Clouds -7 939 66 8606 1.28 21 11:27 11.02.2021
2677 Clouds -8 1021 44 8606 2.24 49 10:45 11.02.2021
2678 Clouds -10 1025 89 4410 1.34 302 10:26 11.02.2021
2679 Clouds -10 1025 89 4410 1.34 354 09:56 11.02.2021
2680 Clouds -11 1019 85 2930 1.79 358 09:26 11.02.2021
2681 Clouds -11 1019 85 2930 1.79 358 08:55 11.02.2021
2682 Clouds -11 1019 85 2930 1.79 358 08:55 11.02.2021
2683 Clouds -11 1018 86 2930 0.89 350 08:31 11.02.2021
2684 Snow -10 1017 86 2081 1.79 334 07:39 11.02.2021
2685 Clouds -10 1017 86 907 1.79 10 06:42 11.02.2021
2686 Snow -9 1016 86 399 0.99 298 05:44 11.02.2021
2687 Snow -9 1018 91 132 0.89 316 02:43 11.02.2021
2688 Snow -8 1012 89 118 1.79 7 02:19 11.02.2021
2689 Snow -7 1011 89 120 1.79 344 00:22 11.02.2021
2690 Snow -7 1010 89 120 0.89 342 23:46 10.02.2021
2691 Snow -7 1010 89 129 0.89 342 23:18 10.02.2021
2692 Snow -6 1009 91 129 0.45 27 22:42 10.02.2021
2693 Snow -6 1009 91 197 0.45 27 22:18 10.02.2021
2694 Snow -5 1007 94 197 0.45 295 21:39 10.02.2021
2695 Snow -5 1007 94 277 0.45 295 21:19 10.02.2021
2696 Clouds -5 1006 96 293 2.68 346 20:42 10.02.2021
2697 Clouds -5 1006 96 140 2.68 346 20:24 10.02.2021
2698 Snow -3 1005 98 140 1.34 318 19:47 10.02.2021
2699 Snow -2 1005 98 92 1.34 318 19:26 10.02.2021
2700 Snow -1 1003 95 126 0.89 326 18:47 10.02.2021
2701 Snow 0 1003 95 82 0.89 326 18:24 10.02.2021
2702 Snow 1 1003 95 82 0.89 326 17:57 10.02.2021
2703 Snow 1 1003 94 74 1.34 209 17:24 10.02.2021
2704 Clouds 1 1003 94 74 1.34 209 16:57 10.02.2021
2705 Snow 1 1002 94 74 0.45 237 16:31 10.02.2021
2706 Clouds 2 1002 94 76 0.45 237 15:59 10.02.2021
2707 Snow 2 1001 95 71 0.45 194 15:24 10.02.2021
2708 Clouds 2 1001 95 71 0.45 194 14:52 10.02.2021
2709 Snow 2 1001 94 71 1.62 308 14:31 10.02.2021
2710 Snow 2 1001 94 68 1.89 304 13:53 10.02.2021
2711 Snow 1 1000 95 75 0.45 217 13:29 10.02.2021
2712 Clouds 1 1000 95 126 0.45 217 12:52 10.02.2021
2713 Clouds 1 1000 94 126 0.89 3 12:30 10.02.2021
2714 Clouds 0 1000 94 192 0.89 3 11:56 10.02.2021
2715 Clouds 0 999 92 192 0.45 86 11:37 10.02.2021
2716 Snow 0 999 92 1073 0.45 86 11:19 10.02.2021
2717 Clouds 0 998 91 2055 0.45 300 10:23 10.02.2021
2718 Clouds 0 998 91 2055 0.45 300 09:53 10.02.2021
2719 Clouds -1 998 90 2055 0.45 194 09:30 10.02.2021
2720 Snow -1 998 90 3097 0.45 194 08:52 10.02.2021
2721 Snow -1 997 90 3097 0.89 156 08:32 10.02.2021
2722 Snow -2 997 89 10000 0.88 129 07:31 10.02.2021
2723 Snow -2 998 88 10000 0.45 250 06:21 10.02.2021
2724 Clouds -2 999 92 10000 0.45 176 01:21 10.02.2021
2725 Clouds -1 1000 87 10000 0.45 197 23:45 09.02.2021
2726 Clouds -1 1000 87 10000 0.45 197 23:27 09.02.2021
2727 Clouds 0 1000 85 10000 0.45 252 22:42 09.02.2021
2728 Clouds 0 1000 85 10000 0.45 252 22:23 09.02.2021
2729 Clouds -1 1001 86 10000 1.95 153 21:47 09.02.2021
2730 Clouds -1 1001 86 10000 2.13 158 21:21 09.02.2021
2731 Clouds -1 1001 89 10000 0.89 24 20:43 09.02.2021
2732 Clouds -1 1001 89 10000 0.89 24 20:24 09.02.2021
2733 Clouds 0 1001 90 10000 0.45 353 19:44 09.02.2021
2734 Clouds 0 1001 90 10000 0.45 353 19:22 09.02.2021
2735 Clouds 0 1001 87 10000 0.45 355 18:45 09.02.2021
2736 Clouds 0 1001 87 10000 0.45 355 18:26 09.02.2021
2737 Clouds 0 1001 87 10000 0.45 355 17:49 09.02.2021
2738 Clouds 1 1001 86 10000 0.45 100 17:27 09.02.2021
2739 Clouds 1 1001 86 10000 0.45 100 16:53 09.02.2021
2740 Clouds 1 1001 88 10000 0.89 354 16:20 09.02.2021
2741 Clouds 1 1001 88 10000 0.89 354 15:51 09.02.2021
2742 Clouds 1 1001 90 10000 1 310 15:31 09.02.2021
2743 Clouds 1 1001 90 10000 0.92 299 14:59 09.02.2021
2744 Clouds 1 1000 91 10000 0.89 324 14:36 09.02.2021
2745 Clouds 1 1000 91 10000 0.89 324 14:18 09.02.2021
2746 Clouds 1 1000 91 10000 0.45 5 13:40 09.02.2021
2747 Clouds 0 1000 91 10000 0.45 5 13:20 09.02.2021
2748 Clouds 0 1000 89 10000 0.45 224 12:43 09.02.2021
2749 Clouds 0 1000 89 10000 0.45 224 12:23 09.02.2021
2750 Clouds 0 1000 91 10000 1.59 293 11:44 09.02.2021
2751 Clouds -1 1000 91 10000 1.08 294 11:21 09.02.2021
2752 Clouds -1 1000 91 10000 1.08 294 10:57 09.02.2021
2753 Clouds -1 999 94 10000 0.45 285 10:20 09.02.2021
2754 Clouds -1 999 94 10000 0.45 285 09:52 09.02.2021
2755 Clouds -1 999 90 10000 0.45 59 09:26 09.02.2021
2756 Snow -2 999 90 10000 0.45 59 08:54 09.02.2021
2757 Snow -2 998 88 10000 0.45 191 08:28 09.02.2021
2758 Snow -2 997 85 10000 0.45 226 07:41 09.02.2021
2759 Snow -2 997 87 10000 0.45 235 05:33 09.02.2021
2760 Clouds -2 998 93 10000 0.45 214 03:47 09.02.2021
2761 Clouds -3 998 91 10000 0.45 160 01:51 09.02.2021
2762 Clear -3 997 90 10000 0.45 234 00:21 09.02.2021
2763 Clear -2 997 87 10000 0.89 237 23:23 08.02.2021
2764 Clear -2 997 87 10000 0.89 237 22:59 08.02.2021
2765 Clear -2 996 88 10000 0.45 246 22:39 08.02.2021
2766 Clear -2 996 88 10000 0.45 246 22:21 08.02.2021
2767 Clear -1 996 83 10000 1.34 220 21:39 08.02.2021
2768 Clear -1 996 83 10000 1.34 220 21:20 08.02.2021
2769 Clear -1 996 90 10000 1.34 185 20:44 08.02.2021
2770 Clear -1 996 90 10000 1.34 185 20:23 08.02.2021
2771 Clear -1 996 90 10000 1.34 185 19:49 08.02.2021
2772 Clear -1 996 90 10000 1.34 185 19:49 08.02.2021
2773 Clear 0 996 88 10000 1.34 214 19:30 08.02.2021
2774 Clear 0 996 88 10000 1.34 214 18:50 08.02.2021
2775 Clear 1 995 83 10000 0.89 210 18:25 08.02.2021
2776 Clear 1 995 83 10000 0.89 210 17:59 08.02.2021
2777 Clear 2 994 72 10000 0.89 231 17:41 08.02.2021
2778 Clear 3 994 72 10000 0.89 231 17:21 08.02.2021
2779 Clear 5 994 60 10000 0.45 281 16:40 08.02.2021
2780 Clouds 5 994 60 10000 0.45 281 16:20 08.02.2021
2781 Clouds 5 994 63 10000 1.79 313 15:38 08.02.2021
2782 Clouds 5 994 63 10000 1.79 313 15:18 08.02.2021
2783 Clouds 5 994 63 10000 1.79 313 14:50 08.02.2021
2784 Clouds 4 994 67 10000 0.89 324 14:28 08.02.2021
2785 Clouds 4 994 67 10000 0.89 324 13:49 08.02.2021
2786 Clouds 3 995 71 10000 0.45 13 13:28 08.02.2021
2787 Clouds 4 996 71 10000 0.45 52 12:39 08.02.2021
2788 Clouds 3 996 71 10000 0.45 52 12:19 08.02.2021
2789 Clouds 2 996 81 10000 0.62 88 11:39 08.02.2021
2790 Clouds 1 996 83 10000 0.45 156 10:47 08.02.2021
2791 Clouds 1 996 83 10000 0.45 156 10:26 08.02.2021
2792 Clouds 0 996 83 10000 0.45 156 09:56 08.02.2021
2793 Clouds 0 996 89 10000 0.89 171 09:36 08.02.2021
2794 Clouds 0 996 89 10000 0.89 171 08:57 08.02.2021
2795 Clouds -1 996 94 10000 0.45 175 08:26 08.02.2021
2796 Clouds 0 996 94 10000 0.45 213 07:42 08.02.2021
2797 Snow -1 996 95 1570 1.07 178 06:38 08.02.2021
2798 Clouds -1 996 93 8474 0.45 219 05:18 08.02.2021
2799 Snow 0 997 93 838 0.45 205 02:26 08.02.2021
2800 Snow 1 998 81 309 1.79 214 00:25 08.02.2021
2801 Snow 1 998 81 309 1.79 214 23:54 07.02.2021
2802 Snow 1 998 90 164 1.34 120 23:28 07.02.2021
2803 Snow 1 998 90 164 1.34 120 22:57 07.02.2021
2804 Snow 1 998 90 164 1.79 144 22:38 07.02.2021
2805 Snow 1 998 90 137 1.79 144 22:20 07.02.2021
2806 Snow 1 998 90 137 1.79 144 21:50 07.02.2021
2807 Snow 2 997 88 109 2.24 123 21:25 07.02.2021
2808 Snow 2 997 88 109 2.24 123 21:25 07.02.2021
2809 Snow 2 997 88 109 2.24 123 20:50 07.02.2021
2810 Snow 2 997 89 68 1.34 133 20:29 07.02.2021
2811 Clouds 2 997 89 68 1.34 133 19:52 07.02.2021
2812 Rain 2 996 95 73 0.89 166 19:29 07.02.2021
2813 Rain 2 996 92 71 1.34 156 18:48 07.02.2021
2814 Rain 2 996 92 55 1.34 156 18:27 07.02.2021
2815 Rain 2 996 92 55 1.34 156 17:58 07.02.2021
2816 Rain 3 995 91 55 1.79 115 17:39 07.02.2021
2817 Rain 3 995 91 54 1.79 115 17:18 07.02.2021
2818 Rain 3 995 93 54 0.45 160 16:42 07.02.2021
2819 Rain 4 995 93 44 0.45 160 16:21 07.02.2021
2820 Rain 4 995 95 44 0.45 162 15:44 07.02.2021
2821 Rain 4 995 95 47 0.45 162 15:22 07.02.2021
2822 Rain 5 996 90 47 1.84 275 14:46 07.02.2021
2823 Rain 5 996 90 72 1.54 322 14:26 07.02.2021
2824 Rain 5 996 90 72 1.54 322 13:50 07.02.2021
2825 Rain 5 996 92 72 0.45 43 13:30 07.02.2021
2826 Clouds 4 997 90 1129 1.07 316 12:42 07.02.2021
2827 Rain 4 997 90 10000 1.01 310 12:22 07.02.2021
2828 Rain 5 997 85 10000 2.24 211 11:45 07.02.2021
2829 Rain 5 997 85 10000 2.24 211 11:26 07.02.2021
2830 Rain 3 997 84 10000 0.34 268 10:42 07.02.2021
2831 Rain 3 997 84 10000 0.34 268 10:42 07.02.2021
2832 Rain 3 997 84 10000 1.46 211 10:22 07.02.2021
2833 Rain 3 997 84 10000 1.34 157 09:43 07.02.2021
2834 Rain 3 997 84 10000 1.34 157 09:20 07.02.2021
2835 Rain 3 997 83 10000 0.89 160 08:22 07.02.2021
2836 Clouds 2 998 87 10000 1.34 134 06:34 07.02.2021
2837 Clouds 1 998 87 10000 1.34 134 05:56 07.02.2021
2838 Clouds 1 999 87 10000 0.89 230 02:53 07.02.2021
2839 Clouds 3 1000 85 10000 0.45 271 01:24 07.02.2021
2840 Clouds 3 1000 87 10000 0.45 290 00:29 07.02.2021
2841 Clouds 3 1000 86 10000 3.71 166 23:42 06.02.2021
2842 Clouds 3 1000 84 10000 0.45 223 22:33 06.02.2021
2843 Clouds 4 1001 80 10000 0.45 32 21:39 06.02.2021
2844 Clouds 4 1001 80 10000 0.45 32 21:21 06.02.2021
2845 Clouds 5 1001 79 10000 0.89 220 20:47 06.02.2021
2846 Clouds 5 1001 79 10000 0.89 220 20:25 06.02.2021
2847 Clouds 5 1001 79 10000 0.89 220 19:55 06.02.2021
2848 Clouds 5 1002 81 10000 1.34 108 19:29 06.02.2021
2849 Clouds 5 1003 79 10000 0.89 125 18:46 06.02.2021
2850 Clouds 5 1003 79 10000 0.89 125 18:28 06.02.2021
2851 Clouds 7 1002 82 10000 3.44 155 17:45 06.02.2021
2852 Clouds 8 1002 82 10000 0.45 146 17:22 06.02.2021
2853 Clouds 7 1003 81 10000 0.45 171 16:58 06.02.2021
2854 Clouds 7 1003 79 10000 2.74 150 16:37 06.02.2021
2855 Clouds 8 1003 76 10000 2.21 148 16:19 06.02.2021
2856 Clouds 8 1004 77 10000 2.21 148 15:40 06.02.2021
2857 Clouds 9 1004 78 10000 2.15 154 15:19 06.02.2021
2858 Clouds 9 1004 75 10000 0.45 171 14:44 06.02.2021
2859 Clouds 8 1005 73 10000 2.04 157 14:23 06.02.2021
2860 Clouds 8 1005 74 10000 2.04 157 13:47 06.02.2021
2861 Clouds 9 1006 71 10000 2.22 205 12:51 06.02.2021
2862 Clouds 8 1006 75 10000 0.45 154 12:21 06.02.2021
2863 Clouds 8 1006 77 10000 0.89 154 11:45 06.02.2021
2864 Clouds 6 1007 78 10000 0.45 141 11:22 06.02.2021
2865 Clouds 5 1006 70 10000 0.45 112 10:54 06.02.2021
2866 Clouds 5 1007 86 10000 0.45 140 10:28 06.02.2021
2867 Clouds 6 1010 41 10000 3.14 157 09:56 06.02.2021
2868 Clouds 5 1016 85 10000 1.79 202 09:36 06.02.2021
2869 Clouds 3 925 82 10000 3 162 09:18 06.02.2021
2870 Rain 3 1008 91 10000 1.34 144 08:29 06.02.2021
2871 Clouds 3 1007 90 10000 2.83 165 07:54 06.02.2021
2872 Clouds 3 1007 58 10000 2.61 174 05:42 06.02.2021
2873 Clouds 4 1008 49 10000 2.49 173 03:48 06.02.2021
2874 Clouds 3 1009 89 10000 0.89 134 01:33 06.02.2021
2875 Clouds 3 1010 88 10000 0.45 131 00:46 06.02.2021
2876 Clouds 3 1010 88 10000 2.21 155 00:19 06.02.2021
2877 Clouds 4 1010 86 10000 0.45 131 23:42 05.02.2021
2878 Clouds 4 1010 86 10000 2.18 151 23:24 05.02.2021
2879 Clouds 4 1010 84 10000 0.89 131 22:45 05.02.2021
2880 Clouds 5 1012 80 10000 0.45 86 22:18 05.02.2021
2881 Clouds 5 1012 80 10000 0.45 86 21:41 05.02.2021
2882 Clouds 5 1012 80 10000 0.45 86 21:23 05.02.2021
2883 Rain 5 1012 80 10000 0.89 244 20:39 05.02.2021
2884 Clouds 6 1012 80 10000 0.89 244 19:50 05.02.2021
2885 Clouds 7 1012 75 10000 0.45 170 19:19 05.02.2021
2886 Clouds 7 1012 75 10000 0.45 170 19:19 05.02.2021
2887 Clouds 7 1012 75 10000 0.45 170 18:52 05.02.2021
2888 Clouds 7 1012 73 10000 1.53 155 18:20 05.02.2021
2889 Rain 8 1012 73 10000 1.34 212 17:44 05.02.2021
2890 Clouds 8 1012 73 10000 1.34 212 17:21 05.02.2021
2891 Clouds 8 1012 73 10000 1.34 212 17:21 05.02.2021
2892 Clouds 9 1012 63 10000 0.45 257 16:46 05.02.2021
2893 Clouds 9 1012 63 4472 0.45 257 16:23 05.02.2021
2894 Clouds 10 1012 63 4472 0.45 257 15:53 05.02.2021
2895 Clouds 12 1012 56 5354 1.34 321 15:26 05.02.2021
2896 Clouds 12 1012 51 5354 0.89 238 14:40 05.02.2021
2897 Clouds 12 1012 51 5878 0.89 238 14:22 05.02.2021
2898 Clouds 11 1012 51 5878 0.89 238 13:58 05.02.2021
2899 Clouds 11 1012 57 5878 0.89 270 13:35 05.02.2021
2900 Clouds 9 1013 64 5904 1.79 208 12:49 05.02.2021
2901 Clouds 8 1013 64 10000 1.79 208 12:27 05.02.2021
2902 Clouds 8 1014 70 10000 0.89 155 11:40 05.02.2021
2903 Clouds 8 1014 70 10000 0.45 171 11:21 05.02.2021
2904 Clouds 7 1014 73 10000 2.01 183 10:54 05.02.2021
2905 Clear 6 1014 76 10000 2.27 181 10:27 05.02.2021
2906 Clear 5 1016 85 10000 1.79 202 09:47 05.02.2021
2907 Clouds 5 1014 89 10000 2.67 176 09:27 05.02.2021
2908 Clouds 4 1016 44 10000 2.67 176 08:52 05.02.2021
2909 Clouds 1 1014 89 10000 0.45 153 08:20 05.02.2021
2910 Clouds 1 1012 90 10000 0.89 139 07:36 05.02.2021
2911 Clouds 1 1012 89 10000 0.89 155 06:49 05.02.2021
2912 Clouds 1 1012 93 10000 0.45 211 05:37 05.02.2021
2913 Clouds 3 1012 88 10000 0.45 112 03:18 05.02.2021
2914 Clouds 3 1013 88 10000 0.89 208 02:24 05.02.2021
2915 Clouds 3 1013 88 10000 0.45 208 00:40 05.02.2021
2916 Clouds 3 1013 88 10000 0.45 208 00:20 05.02.2021
2917 Clouds 3 1013 88 10000 0.45 208 23:55 04.02.2021
2918 Clouds 3 1013 86 10000 1.34 234 23:37 04.02.2021
2919 Clouds 3 1013 86 10000 1.34 234 23:19 04.02.2021
2920 Clouds 3 1013 86 10000 1.34 234 22:49 04.02.2021
2921 Clouds 3 1014 89 10000 0.89 177 22:25 04.02.2021
2922 Clouds 3 1014 89 10000 0.89 177 21:42 04.02.2021
2923 Clouds 3 1014 89 10000 0.89 177 21:19 04.02.2021
2924 Clouds 3 1014 89 10000 0.89 177 21:19 04.02.2021
2925 Clouds 4 1014 87 10000 0.45 219 20:46 04.02.2021
2926 Clouds 4 1014 87 10000 0.45 219 20:28 04.02.2021
2927 Clouds 5 1014 87 10000 0.45 133 19:43 04.02.2021
2928 Clouds 5 1014 87 10000 0.45 133 18:56 04.02.2021
2929 Rain 6 1014 88 10000 0.45 200 18:25 04.02.2021
2930 Rain 6 1014 88 10000 0.45 200 17:53 04.02.2021
2931 Rain 7 1014 88 10000 0.45 200 17:26 04.02.2021
2932 Rain 7 1014 88 10000 0.45 200 16:56 04.02.2021
2933 Clouds 8 1014 85 10000 0.89 169 16:38 04.02.2021
2934 Clouds 8 1014 85 10000 0.89 169 16:18 04.02.2021
2935 Clouds 8 1014 85 10000 0.89 169 16:18 04.02.2021
2936 Clouds 8 1015 77 10000 0.45 148 15:39 04.02.2021
2937 Clouds 8 1015 77 10000 0.45 148 15:20 04.02.2021
2938 Clouds 9 1014 65 10000 0.45 70 14:42 04.02.2021
2939 Rain 9 1014 65 10000 0.45 70 14:20 04.02.2021
2940 Clouds 9 1015 71 10000 0.45 164 13:45 04.02.2021
2941 Clouds 9 1015 71 10000 0.45 164 13:24 04.02.2021
2942 Clouds 9 1015 71 10000 0.45 164 12:52 04.02.2021
2943 Clouds 8 1016 76 10000 0.45 216 11:54 04.02.2021
2944 Clouds 7 1016 78 10000 0.45 149 11:34 04.02.2021
2945 Clouds 7 1016 78 10000 0.45 149 10:54 04.02.2021
2946 Clouds 6 1015 91 10000 1.47 181 10:33 04.02.2021
2947 Clouds 4 1015 96 10000 0.89 151 09:45 04.02.2021
2948 Clouds 3 1015 96 10000 0.89 151 09:20 04.02.2021
2949 Clouds 3 1015 96 10000 0.89 151 08:51 04.02.2021
2950 Clouds 3 1015 97 10000 0.89 264 08:25 04.02.2021
2951 Clouds 3 1015 97 10000 0.89 264 07:51 04.02.2021
2952 Clouds 3 1014 95 10000 1.34 209 07:32 04.02.2021
2953 Clouds 4 1014 96 10000 0.89 160 06:45 04.02.2021
2954 Clouds 5 1013 91 10000 0.45 165 05:45 04.02.2021
2955 Clouds 6 1012 82 10000 1.97 237 02:30 04.02.2021
2956 Clouds 7 1011 39 10000 3.58 230 01:24 04.02.2021
2957 Clouds 4 1011 99 10000 0.45 178 23:55 03.02.2021
2958 Clouds 4 1010 96 10000 1.34 203 23:30 03.02.2021
2959 Clouds 4 1009 95 10000 0.89 202 22:38 03.02.2021
2960 Clouds 4 1009 95 10000 0.89 202 22:20 03.02.2021
2961 Clouds 4 1010 99 10000 2.24 166 21:46 03.02.2021
2962 Clouds 4 1010 99 8821 2.24 166 21:23 03.02.2021
2963 Rain 4 1010 99 8821 2.24 166 20:50 03.02.2021
2964 Rain 4 1009 97 8821 1.34 152 20:31 03.02.2021
2965 Rain 4 1009 97 171 1.34 152 19:55 03.02.2021
2966 Rain 5 1009 97 340 0.89 220 19:25 03.02.2021
2967 Rain 5 1009 97 340 0.89 220 18:57 03.02.2021
2968 Rain 5 1008 86 333 1.34 146 18:37 03.02.2021
2969 Clouds 6 1008 86 364 1.34 146 18:19 03.02.2021
2970 Clouds 6 1008 92 364 1.34 85 17:43 03.02.2021
2971 Rain 6 1008 92 471 1.34 85 17:19 03.02.2021
2972 Rain 6 1005 95 561 1.79 144 16:40 03.02.2021
2973 Rain 7 1005 95 1516 1.79 144 16:20 03.02.2021
2974 Rain 7 1005 88 1516 1.34 223 15:39 03.02.2021
2975 Rain 7 1005 88 3501 1.34 223 15:20 03.02.2021
2976 Rain 8 1005 85 3947 0.89 183 14:44 03.02.2021
2977 Rain 8 1005 85 3550 0.89 183 14:21 03.02.2021
2978 Rain 8 1004 88 3550 2.93 175 13:44 03.02.2021
2979 Clouds 8 1004 88 7405 2.5 187 13:19 03.02.2021
2980 Clouds 7 1004 93 7396 0.45 336 12:40 03.02.2021
2981 Clouds 7 1004 93 10000 0.45 336 12:20 03.02.2021
2982 Clouds 6 1003 96 10000 0.45 165 11:42 03.02.2021
2983 Clouds 6 1004 96 10000 0.45 211 11:23 03.02.2021
2984 Rain 6 1005 96 10000 2.25 174 10:37 03.02.2021
2985 Rain 5 1004 96 10000 2.05 185 10:18 03.02.2021
2986 Rain 5 1005 96 10000 0.89 192 09:39 03.02.2021
2987 Clouds 4 1005 96 10000 0.89 148 09:20 03.02.2021
2988 Rain 4 1007 98 10000 0.89 182 08:45 03.02.2021
2989 Rain 4 1007 98 10000 0.89 182 07:58 03.02.2021
2990 Rain 4 1007 100 10000 1.34 176 06:43 03.02.2021
2991 Clouds 4 1008 100 10000 0.45 218 05:19 03.02.2021
2992 Clouds 4 1009 100 10000 0.45 139 04:42 03.02.2021
2993 Clouds 4 1009 100 10000 0.45 139 03:51 03.02.2021
2994 Clouds 5 1010 100 10000 1.34 198 02:40 03.02.2021
2995 Rain 5 1010 100 6682 1.34 213 01:47 03.02.2021
2996 Rain 5 1009 99 10000 1.34 161 00:24 03.02.2021
2997 Rain 5 1008 100 10000 0.89 218 23:43 02.02.2021
2998 Rain 5 1008 100 2110 0.89 218 23:25 02.02.2021
2999 Rain 6 1008 100 2110 0.45 244 22:43 02.02.2021
3000 Rain 5 1008 100 10000 0.45 244 22:19 02.02.2021
3001 Clouds 5 1008 98 10000 2.24 221 21:44 02.02.2021
3002 Clouds 5 1008 98 10000 2.24 221 21:23 02.02.2021
3003 Clouds 5 1008 98 10000 2.24 221 20:49 02.02.2021
3004 Clouds 5 1008 98 10000 1.34 257 20:21 02.02.2021
3005 Clouds 6 1008 98 10000 1.34 257 19:51 02.02.2021
3006 Clouds 6 1008 98 10000 3.2 204 19:33 02.02.2021
3007 Rain 6 1008 98 10000 3.57 181 18:56 02.02.2021
3008 Rain 6 1008 97 10000 1.34 166 18:37 02.02.2021
3009 Clouds 6 1008 97 10000 1.34 166 18:19 02.02.2021
3010 Clouds 6 1007 95 10000 1.79 156 17:38 02.02.2021
3011 Rain 6 1007 95 10000 1.79 156 17:19 02.02.2021
3012 Clouds 7 1007 95 10000 0.89 227 16:44 02.02.2021
3013 Clouds 7 1007 95 8097 0.89 227 16:25 02.02.2021
3014 Clouds 6 1007 95 8097 0.89 227 15:54 02.02.2021
3015 Clouds 7 1007 95 5270 0.45 143 15:29 02.02.2021
3016 Clouds 7 1007 95 5270 0.45 143 14:52 02.02.2021
3017 Rain 6 1006 89 5270 0.89 62 14:33 02.02.2021
3018 Rain 6 1006 89 2383 0.89 62 13:56 02.02.2021
3019 Rain 6 1006 91 2383 0.89 142 13:38 02.02.2021
3020 Rain 6 1007 90 10000 0.45 86 13:19 02.02.2021
3021 Rain 6 1007 90 10000 0.45 86 12:47 02.02.2021
3022 Rain 5 1007 95 6335 1.34 176 11:46 02.02.2021
3023 Clouds 5 1007 95 10000 1.34 176 11:25 02.02.2021
3024 Rain 4 1007 95 10000 1.34 176 10:56 02.02.2021
3025 Rain 4 1007 96 10000 0.89 139 10:37 02.02.2021
3026 Rain 4 1007 96 10000 0.89 139 10:19 02.02.2021
3027 Clouds 4 1007 96 10000 0.89 202 09:39 02.02.2021
3028 Clouds 4 1007 96 10000 0.89 202 09:19 02.02.2021
3029 Clouds 3 1007 99 10000 1.34 222 08:34 02.02.2021
3030 Clouds 3 1007 99 1056 0.89 186 07:42 02.02.2021
3031 Clouds 3 1007 99 742 0.89 157 06:46 02.02.2021
3032 Clouds 3 1007 99 410 0.89 157 06:27 02.02.2021
3033 Clouds 3 1007 99 410 1.34 219 05:47 02.02.2021
3034 Clouds 3 1006 98 196 1.34 232 02:53 02.02.2021
3035 Clouds 3 1006 99 93 2.24 116 02:23 02.02.2021
3036 Clouds 3 1004 98 138 0.45 173 00:37 02.02.2021
3037 Clouds 3 1003 99 132 0.45 225 23:45 01.02.2021
3038 Rain 3 1003 99 121 0.45 225 22:52 01.02.2021
3039 Clouds 3 1003 99 121 0.89 231 22:34 01.02.2021
3040 Rain 3 1003 99 94 0.89 231 21:55 01.02.2021
3041 Rain 3 1002 97 93 0.45 137 21:37 01.02.2021
3042 Rain 3 1002 97 87 0.45 137 21:18 01.02.2021
3043 Rain 3 1001 97 87 0.89 184 20:40 01.02.2021
3044 Rain 3 1001 97 94 0.89 184 20:22 01.02.2021
3045 Clouds 4 1000 100 94 0.89 214 19:41 01.02.2021
3046 Rain 4 1000 100 92 0.89 214 19:21 01.02.2021
3047 Rain 4 1000 100 92 0.89 214 19:21 01.02.2021
3048 Rain 4 1000 100 90 0.89 214 18:49 01.02.2021
3049 Rain 4 999 92 96 0.45 125 18:28 01.02.2021
3050 Rain 4 998 96 96 0.89 202 17:48 01.02.2021
3051 Rain 4 998 96 320 0.89 202 17:25 01.02.2021
3052 Rain 4 998 96 320 0.89 202 16:56 01.02.2021
3053 Rain 5 997 90 3003 0.45 71 16:29 01.02.2021
3054 Rain 6 997 88 3003 0.45 283 15:47 01.02.2021
3055 Rain 6 997 88 8304 0.45 283 15:19 01.02.2021
3056 Rain 6 997 88 8304 0.45 283 14:52 01.02.2021
3057 Rain 6 996 82 8304 1.47 216 14:33 01.02.2021
3058 Rain 6 996 82 7832 1.53 208 13:50 01.02.2021
3059 Rain 6 996 83 5209 0.45 68 13:27 01.02.2021
3060 Clouds 5 996 83 10000 0.45 68 12:56 01.02.2021
3061 Clouds 5 995 85 10000 0.89 308 12:37 01.02.2021
3062 Clouds 5 995 85 10000 0.89 308 12:19 01.02.2021
3063 Clouds 4 995 92 10000 1.34 133 11:39 01.02.2021
3064 Clouds 4 995 92 10000 1.34 133 11:18 01.02.2021
3065 Clouds 3 995 96 10000 0.89 156 10:42 01.02.2021
3066 Rain 2 995 96 10000 0.89 156 10:19 01.02.2021
3067 Rain 2 995 97 10000 1.57 189 09:43 01.02.2021
3068 Clouds 1 995 97 10000 2.24 166 08:58 01.02.2021
3069 Clouds 1 994 98 10000 0.45 221 08:27 01.02.2021
3070 Clouds 1 994 96 10000 0.45 137 07:36 01.02.2021
3071 Clouds 1 994 96 10000 0.45 231 05:46 01.02.2021
3072 Clouds 2 995 95 10000 0.45 230 02:41 01.02.2021
3073 Clouds 2 996 98 10000 2.28 164 00:31 01.02.2021
3074 Clouds 2 997 98 10000 2.27 163 23:40 31.01.2021
3075 Clouds 2 997 98 10000 0.45 234 22:42 31.01.2021
3076 Clouds 2 997 98 10000 0.45 234 22:23 31.01.2021
3077 Clouds 2 997 98 10000 0.45 234 21:49 31.01.2021
3078 Clouds 2 998 97 10000 0.45 241 21:22 31.01.2021
3079 Clouds 2 998 97 10000 0.45 328 20:46 31.01.2021
3080 Clouds 3 998 97 10000 0.45 328 20:21 31.01.2021
3081 Clouds 3 999 96 10000 0.45 224 19:41 31.01.2021
3082 Clouds 3 999 96 10000 0.45 224 19:23 31.01.2021
3083 Clouds 3 999 96 4002 0.45 224 18:57 31.01.2021
3084 Clouds 4 999 92 4002 1.13 176 18:38 31.01.2021
3085 Clouds 4 999 92 1183 0.68 182 18:19 31.01.2021
3086 Clouds 4 999 92 1183 0.68 182 17:44 31.01.2021
3087 Clouds 4 999 92 365 0.31 180 17:23 31.01.2021
3088 Clouds 5 999 88 365 0.45 2 16:46 31.01.2021
3089 Clouds 4 999 88 269 0.45 2 16:27 31.01.2021
3090 Clouds 5 999 88 269 0.45 2 15:50 31.01.2021
3091 Clouds 5 999 87 269 0.45 74 15:31 31.01.2021
3092 Clouds 5 1000 88 321 0.45 45 14:42 31.01.2021
3093 Clouds 5 1000 88 332 0.45 45 14:21 31.01.2021
3094 Clouds 5 1000 88 332 0.45 45 13:49 31.01.2021
3095 Clouds 5 1000 90 472 0.96 356 13:26 31.01.2021
3096 Clouds 4 1000 90 521 0.49 355 12:48 31.01.2021
3097 Clouds 4 1000 90 1186 0.65 335 12:22 31.01.2021
3098 Clouds 4 1000 95 1186 0.65 335 11:44 31.01.2021
3099 Clouds 4 1000 95 1186 0.65 335 11:44 31.01.2021
3100 Clouds 4 1000 95 3157 0.84 316 11:22 31.01.2021
3101 Clouds 3 1000 95 3157 0.84 316 10:49 31.01.2021
3102 Clouds 3 1000 96 3157 0.89 17 10:31 31.01.2021
3103 Clouds 3 1000 96 9864 0.89 17 09:50 31.01.2021
3104 Clouds 2 999 98 10000 0.71 189 08:59 31.01.2021
3105 Clouds 2 999 97 10000 0.45 226 08:32 31.01.2021
3106 Clouds 2 999 97 2550 0.45 177 06:55 31.01.2021
3107 Rain 2 998 98 4890 0.45 208 05:31 31.01.2021
3108 Rain 3 998 99 78 0.89 172 00:41 31.01.2021
3109 Rain 3 998 99 89 0.89 172 00:21 31.01.2021
3110 Rain 3 998 98 111 0.45 206 23:28 30.01.2021
3111 Rain 3 998 98 111 0.45 206 22:56 30.01.2021
3112 Rain 3 998 99 211 0.45 204 22:29 30.01.2021
3113 Rain 3 998 99 211 2.24 149 21:40 30.01.2021
3114 Rain 3 998 99 211 2.24 149 21:40 30.01.2021
3115 Rain 3 998 99 3785 2.24 149 21:20 30.01.2021
3116 Rain 3 997 97 3785 0.89 226 20:44 30.01.2021
3117 Rain 3 997 97 1214 0.89 226 20:26 30.01.2021
3118 Clouds 3 997 99 1214 0.89 208 19:44 30.01.2021
3119 Clouds 3 997 99 528 0.89 208 19:25 30.01.2021
3120 Rain 3 998 98 1394 0.45 209 18:42 30.01.2021
3121 Rain 3 998 98 2491 0.45 209 18:21 30.01.2021
3122 Rain 3 998 98 2491 0.45 209 17:57 30.01.2021
3123 Rain 4 998 96 2862 0.45 220 17:19 30.01.2021
3124 Rain 3 998 92 2862 0.45 163 16:44 30.01.2021
3125 Rain 4 998 92 3475 0.45 163 16:24 30.01.2021
3126 Rain 4 998 92 3475 0.45 163 15:55 30.01.2021
3127 Rain 4 999 88 3475 1.72 192 15:37 30.01.2021
3128 Rain 4 999 88 2513 2 194 15:19 30.01.2021
3129 Rain 5 1000 76 2513 0.45 160 14:42 30.01.2021
3130 Rain 6 1000 76 2237 0.45 160 14:19 30.01.2021
3131 Rain 5 999 77 2237 0.45 132 13:30 30.01.2021
3132 Clouds 5 1001 87 2146 0.45 169 12:49 30.01.2021
3133 Clouds 5 1001 87 10000 0.45 169 12:28 30.01.2021
3134 Rain 5 1001 87 10000 0.45 169 11:56 30.01.2021
3135 Clouds 4 1002 91 10000 1.23 220 11:26 30.01.2021
3136 Rain 4 1002 94 10000 0.45 136 10:47 30.01.2021
3137 Rain 3 1003 95 10000 1.34 173 09:48 30.01.2021
3138 Clouds 3 1003 95 10000 1.34 173 09:26 30.01.2021
3139 Clouds 3 1004 95 10000 0.89 235 08:47 30.01.2021
3140 Clouds 3 1004 92 10000 1.34 139 07:48 30.01.2021
3141 Clouds 3 1005 93 10000 0.45 230 06:48 30.01.2021
3142 Clouds 4 1006 86 265 0.45 204 04:29 30.01.2021
3143 Clouds 5 1006 77 265 1.34 155 03:34 30.01.2021
3144 Clouds 4 1005 87 63 2.24 77 02:23 30.01.2021
3145 Rain 4 1005 85 56 1.79 101 01:28 30.01.2021
3146 Clouds 4 1005 86 53 1.34 123 00:35 30.01.2021
3147 Rain 3 1005 86 52 1.34 123 23:58 29.01.2021
3148 Clouds 3 1005 90 52 3.32 264 23:40 29.01.2021
3149 Rain 3 1005 90 52 3.37 260 23:18 29.01.2021
3150 Rain 2 1005 93 52 2.24 78 22:38 29.01.2021
3151 Rain 2 1005 93 47 2.24 78 21:59 29.01.2021
3152 Rain 3 1004 92 53 1.34 178 21:28 29.01.2021
3153 Rain 3 1004 89 53 2.24 130 20:45 29.01.2021
3154 Rain 4 1004 89 46 2.24 130 20:24 29.01.2021
3155 Rain 4 1003 94 46 0.89 207 19:42 29.01.2021
3156 Rain 4 1003 94 47 0.89 207 19:22 29.01.2021
3157 Rain 4 1003 94 47 0.89 207 18:57 29.01.2021
3158 Clouds 4 1005 88 76 0.45 317 17:59 29.01.2021
3159 Clouds 4 1004 80 76 2.66 244 17:37 29.01.2021
3160 Rain 5 1004 80 64 2.38 253 17:18 29.01.2021
3161 Rain 5 1004 91 64 0.89 89 16:39 29.01.2021
3162 Rain 5 1004 91 846 0.89 89 16:21 29.01.2021
3163 Rain 5 1004 91 846 0.89 89 16:21 29.01.2021
3164 Clouds 5 1005 87 907 0.89 140 15:41 29.01.2021
3165 Rain 5 1005 87 259 0.89 140 15:22 29.01.2021
3166 Rain 5 1003 83 259 1.34 174 14:30 29.01.2021
3167 Rain 5 1005 94 134 0.45 252 13:58 29.01.2021
3168 Clouds 5 1005 94 134 0.45 252 13:34 29.01.2021
3169 Clouds 5 1005 92 153 0.89 127 12:48 29.01.2021
3170 Clouds 6 1005 92 107 0.89 127 12:20 29.01.2021
3171 Rain 6 1004 81 107 4.59 261 11:46 29.01.2021
3172 Rain 7 1004 81 210 4.12 263 11:18 29.01.2021
3173 Rain 6 1004 93 210 0.45 318 10:47 29.01.2021
3174 Rain 5 1004 93 248 0.45 318 10:26 29.01.2021
3175 Rain 8 1004 93 248 2.68 148 09:41 29.01.2021
3176 Rain 7 1004 93 333 2.68 148 08:52 29.01.2021
3177 Rain 5 1003 100 408 1.79 212 08:27 29.01.2021
3178 Rain 4 1003 100 408 1.79 212 07:51 29.01.2021
3179 Rain 4 1003 100 408 1.79 212 07:51 29.01.2021
3180 Clouds 4 1004 100 408 1.34 133 07:32 29.01.2021
3181 Clouds 4 1004 100 502 1.34 133 06:50 29.01.2021
3182 Rain 5 1005 99 344 0.89 173 05:18 29.01.2021
3183 Rain 5 1007 99 267 0.89 219 02:37 29.01.2021
3184 Rain 5 1008 97 187 0.89 190 00:38 29.01.2021
3185 Rain 5 1008 97 183 0.89 190 00:19 29.01.2021
3186 Clouds 7 1009 89 183 1.34 213 23:41 28.01.2021
3187 Clouds 6 1009 89 138 1.34 213 23:23 28.01.2021
3188 Rain 7 1009 90 138 1.34 224 22:43 28.01.2021
3189 Rain 7 1009 90 109 1.34 224 22:25 28.01.2021
3190 Clouds 7 1009 90 109 1.34 224 21:49 28.01.2021
3191 Rain 7 1008 90 109 2.68 72 21:31 28.01.2021
3192 Rain 7 1008 90 104 2.68 72 20:54 28.01.2021
3193 Rain 7 1008 86 104 3.13 248 20:36 28.01.2021
3194 Rain 7 1008 86 95 3.01 261 20:18 28.01.2021
3195 Rain 7 1008 84 95 1.79 35 19:37 28.01.2021
3196 Rain 7 1008 84 148 1.79 35 19:18 28.01.2021
3197 Clouds 7 1007 82 148 1.34 254 18:42 28.01.2021
3198 Clouds 7 1007 82 180 1.34 254 18:20 28.01.2021
3199 Clouds 5 1007 99 180 0.89 344 17:44 28.01.2021
3200 Clouds 5 1007 99 204 0.89 344 17:26 28.01.2021
3201 Rain 4 1007 99 204 0.89 239 16:44 28.01.2021
3202 Rain 5 1007 99 506 0.89 239 16:22 28.01.2021
3203 Clouds 5 1007 100 506 2.24 137 15:41 28.01.2021
3204 Rain 4 1007 100 539 2.24 137 14:58 28.01.2021
3205 Clouds 4 1007 100 539 0.45 203 14:39 28.01.2021
3206 Clouds 4 1007 100 1257 0.45 203 14:20 28.01.2021
3207 Rain 3 1007 99 1257 3.76 213 13:44 28.01.2021
3208 Rain 3 1007 99 689 3.76 204 12:53 28.01.2021
3209 Rain 3 1008 99 1246 0.89 159 12:34 28.01.2021
3210 Rain 2 1008 99 164 0.89 159 11:59 28.01.2021
3211 Rain 2 1009 99 164 0.45 175 11:40 28.01.2021
3212 Rain 2 1009 99 123 0.45 175 11:19 28.01.2021
3213 Snow 2 1009 98 124 0.89 147 10:50 28.01.2021
3214 Snow 2 1009 98 123 0.89 147 10:32 28.01.2021
3215 Snow 2 1009 99 121 0.89 226 09:44 28.01.2021
3216 Snow 2 1009 99 117 0.89 226 09:22 28.01.2021
3217 Snow 2 1009 99 117 0.89 226 08:54 28.01.2021
3218 Snow 1 1010 98 110 0.89 165 08:18 28.01.2021
3219 Snow 2 1010 97 110 0.89 170 07:44 28.01.2021
3220 Snow 1 1010 97 98 0.89 170 06:49 28.01.2021
3221 Snow 1 1012 96 124 0.89 180 05:35 28.01.2021
3222 Clouds 1 1013 96 147 0.89 210 03:49 28.01.2021
3223 Clouds 0 1014 96 156 1.34 212 00:58 28.01.2021
3224 Snow 0 1014 95 72 0.89 224 23:47 27.01.2021
3225 Snow 0 1014 95 99 0.89 224 23:23 27.01.2021
3226 Snow 0 1014 96 99 0.45 218 22:41 27.01.2021
3227 Snow 0 1014 96 95 0.45 218 22:21 27.01.2021
3228 Snow 0 1014 94 95 1.69 234 21:42 27.01.2021
3229 Snow 0 1014 94 122 1.87 224 21:22 27.01.2021
3230 Snow 0 1014 94 122 1.87 224 20:50 27.01.2021
3231 Snow -1 1014 96 113 1.34 211 20:20 27.01.2021
3232 Snow -1 1014 96 113 1.34 211 19:49 27.01.2021
3233 Snow -1 1014 95 122 0.45 243 19:22 27.01.2021
3234 Snow -1 1014 94 104 0.89 245 18:45 27.01.2021
3235 Snow -1 1014 94 104 0.89 245 18:24 27.01.2021
3236 Snow -1 1014 94 104 0.89 245 17:52 27.01.2021
3237 Snow -1 1013 92 104 0.89 168 17:32 27.01.2021
3238 Snow -1 1013 92 100 0.89 168 16:56 27.01.2021
3239 Snow -2 1014 91 100 0.89 236 16:38 27.01.2021
3240 Snow -2 1014 91 106 0.89 236 16:20 27.01.2021
3241 Snow -2 1014 91 106 0.89 155 15:48 27.01.2021
3242 Snow -2 1014 91 110 0.89 155 15:27 27.01.2021
3243 Snow -2 1015 89 126 0.45 316 14:24 27.01.2021
3244 Snow -2 1015 89 126 0.45 316 13:50 27.01.2021
3245 Snow -3 1018 90 126 1.78 239 13:32 27.01.2021
3246 Snow -2 1015 79 201 0.45 46 12:42 27.01.2021
3247 Snow -2 1015 79 949 0.45 46 12:23 27.01.2021
3248 Snow -2 1014 80 949 0.89 41 11:47 27.01.2021
3249 Snow -2 1014 80 3790 0.89 41 11:23 27.01.2021
3250 Snow -2 1014 80 3790 0.89 41 11:23 27.01.2021
3251 Snow -3 1015 84 3790 0.45 222 10:42 27.01.2021
3252 Clouds -3 1015 84 4216 0.45 222 10:21 27.01.2021
3253 Snow -3 1015 84 4216 0.45 222 09:51 27.01.2021
3254 Snow -3 1015 87 10000 0.45 203 09:25 27.01.2021
3255 Snow -3 1015 84 10000 0.45 219 08:39 27.01.2021
3256 Clouds -5 1016 85 10000 1.34 170 07:46 27.01.2021
3257 Clouds -5 1016 85 10000 1.34 170 07:21 27.01.2021
3258 Clouds -6 1016 86 10000 0.45 234 06:23 27.01.2021
3259 Clouds -5 1017 85 10000 0.45 143 05:48 27.01.2021
3260 Clouds -6 1017 86 10000 1.34 142 04:37 27.01.2021
3261 Clouds -4 1020 51 10000 3.6 190 02:24 27.01.2021
3262 Clouds -5 1021 48 10000 1.54 160 01:52 27.01.2021
3263 Clouds -4 1022 69 10000 1.03 0 00:48 27.01.2021
3264 Clouds -5 1026 100 10000 2.63 186 23:51 26.01.2021
3265 Clouds -4 1022 60 10000 0.51 0 23:32 26.01.2021
3266 Clouds -5 1020 42 10000 2.47 191 22:52 26.01.2021
3267 Clouds -3 1020 84 10000 0.89 228 22:33 26.01.2021
3268 Clouds -3 1020 84 10000 0.89 228 21:57 26.01.2021
3269 Clouds -2 1020 82 10000 1.34 179 21:39 26.01.2021
3270 Clouds -2 1020 82 10000 1.34 179 21:21 26.01.2021
3271 Clouds -2 1020 75 10000 0.45 273 20:41 26.01.2021
3272 Snow -2 1020 75 420 0.45 273 20:21 26.01.2021
3273 Snow -2 1019 86 420 1.34 152 19:46 26.01.2021
3274 Snow -2 1019 86 146 1.34 152 19:24 26.01.2021
3275 Snow -2 1019 86 280 1.34 152 18:49 26.01.2021
3276 Snow -2 1019 83 178 0.45 270 18:28 26.01.2021
3277 Snow -2 1019 83 178 0.45 270 17:58 26.01.2021
3278 Snow -2 1019 83 178 1.34 147 17:40 26.01.2021
3279 Snow -2 1019 83 170 1.34 147 17:19 26.01.2021
3280 Snow -2 1019 80 170 1.34 155 16:40 26.01.2021
3281 Snow -2 1019 80 281 1.34 155 16:19 26.01.2021
3282 Snow -2 1019 81 281 0.89 88 15:48 26.01.2021
3283 Snow -2 1019 81 1360 0.89 88 15:26 26.01.2021
3284 Snow -2 1018 86 1360 0.45 86 14:48 26.01.2021
3285 Snow -3 1018 86 900 0.45 86 14:29 26.01.2021
3286 Snow -3 1018 85 900 1.34 100 13:37 26.01.2021
3287 Snow -3 1018 85 315 1.34 100 13:18 26.01.2021
3288 Snow -3 1018 81 396 0.45 66 12:43 26.01.2021
3289 Snow -3 1018 81 1036 0.45 66 12:24 26.01.2021
3290 Snow -3 1018 81 1036 0.45 66 11:54 26.01.2021
3291 Snow -3 1018 78 1036 0.89 193 11:33 26.01.2021
3292 Snow -3 1017 79 7991 0.89 207 10:45 26.01.2021
3293 Clouds -3 1017 79 7617 0.89 207 10:26 26.01.2021
3294 Clouds -3 1017 84 7617 0.45 96 09:42 26.01.2021
3295 Clouds -3 1017 84 1365 0.45 96 09:23 26.01.2021
3296 Clouds -3 1017 84 1365 0.45 96 08:50 26.01.2021
3297 Snow -3 1016 83 1248 0.89 47 08:21 26.01.2021
3298 Snow -3 1016 84 116 1.34 127 07:27 26.01.2021
3299 Snow -3 1015 85 101 0.89 125 05:59 26.01.2021
3300 Snow -3 1014 87 101 0.89 142 05:41 26.01.2021
3301 Snow -3 1013 90 110 0.89 136 03:58 26.01.2021
3302 Snow -3 1012 94 99 0.45 149 02:19 26.01.2021
3303 Snow -3 1012 92 98 1.68 291 00:49 26.01.2021
3304 Snow -2 1010 92 98 0.45 264 23:36 25.01.2021
3305 Snow -2 1010 92 84 0.45 264 22:56 25.01.2021
3306 Snow -2 1009 88 84 0.45 232 22:35 25.01.2021
3307 Snow -2 1009 88 88 0.45 232 21:49 25.01.2021
3308 Snow -2 1009 80 96 0.89 108 21:23 25.01.2021
3309 Snow -2 1009 80 96 0.89 108 20:50 25.01.2021
3310 Snow -2 1008 88 96 0.45 108 20:32 25.01.2021
3311 Snow -2 1008 88 116 0.45 108 19:51 25.01.2021
3312 Snow -2 1007 81 777 0.89 85 19:28 25.01.2021
3313 Snow -2 1006 88 777 1.79 81 18:48 25.01.2021
3314 Snow -2 1006 88 246 1.79 81 18:28 25.01.2021
3315 Snow -2 1006 88 246 1.79 81 17:56 25.01.2021
3316 Snow -2 1005 82 246 0.45 125 17:38 25.01.2021
3317 Snow -2 1005 82 619 0.45 125 17:19 25.01.2021
3318 Snow -2 1005 92 619 2.68 51 16:41 25.01.2021
3319 Snow -2 1005 92 1198 2.68 51 16:21 25.01.2021
3320 Snow -2 1004 81 1198 2.06 253 15:43 25.01.2021
3321 Snow -2 1004 81 590 2.69 256 15:24 25.01.2021
3322 Snow -1 1003 74 590 2.68 133 14:46 25.01.2021
3323 Snow 0 1003 74 1728 2.68 133 14:19 25.01.2021
3324 Snow 0 1003 74 1728 2.68 133 13:49 25.01.2021
3325 Snow 0 1003 70 2722 1.79 141 13:26 25.01.2021
3326 Snow 0 1002 76 2978 0.89 195 12:45 25.01.2021
3327 Snow 0 1002 76 4221 0.89 195 12:20 25.01.2021
3328 Snow -1 1001 87 4221 2.68 152 11:47 25.01.2021
3329 Snow -1 1001 87 1868 2.68 152 11:18 25.01.2021
3330 Snow -2 1001 93 1868 2.24 124 10:40 25.01.2021
3331 Snow -2 1001 93 273 2.24 124 10:18 25.01.2021
3332 Snow -3 1000 93 273 0.45 127 09:43 25.01.2021
3333 Snow -3 1000 93 163 0.45 127 09:25 25.01.2021
3334 Snow -4 1000 91 2009 0.89 151 08:28 25.01.2021
3335 Snow -5 1000 82 2009 0.45 253 07:32 25.01.2021
3336 Snow -5 1000 82 417 0.45 253 06:55 25.01.2021
3337 Snow -7 999 82 1972 0.89 145 03:46 25.01.2021
3338 Clouds -7 1000 76 10000 0.45 314 01:30 25.01.2021
3339 Clouds -7 1000 76 10000 0.45 314 01:30 25.01.2021
3340 Clouds -7 1000 76 10000 1.34 139 23:41 24.01.2021
3341 Clouds -7 1000 76 10000 1.34 139 23:19 24.01.2021
3342 Clouds -8 1001 80 10000 0.89 170 22:42 24.01.2021
3343 Clouds -8 1001 80 10000 0.89 170 22:20 24.01.2021
3344 Clouds -7 1001 78 10000 0.45 162 21:48 24.01.2021
3345 Clear -6 1001 78 10000 0.45 162 21:24 24.01.2021
3346 Clear -6 1002 80 10000 0.45 230 20:45 24.01.2021
3347 Clear -6 1002 80 10000 0.45 230 20:21 24.01.2021
3348 Clear -5 1002 80 10000 0.45 230 19:52 24.01.2021
3349 Clear -5 1002 84 10000 0.89 205 19:27 24.01.2021
3350 Clear -5 1002 84 10000 0.89 205 18:58 24.01.2021
3351 Clear -4 1002 76 10000 0.89 161 18:39 24.01.2021
3352 Clear -4 1002 76 10000 0.89 161 18:20 24.01.2021
3353 Clear -5 1002 76 10000 0.89 161 17:50 24.01.2021
3354 Clouds -4 1002 80 10000 0.45 204 17:28 24.01.2021
3355 Clouds -2 1002 80 10000 0.45 204 16:58 24.01.2021
3356 Clouds -1 918 84 10000 2.58 202 16:38 24.01.2021
3357 Clouds 1 1003 52 10000 0.45 265 16:18 24.01.2021
3358 Clouds 1 1002 55 10000 0.89 148 15:43 24.01.2021
3359 Clouds 1 1002 55 10000 0.89 148 15:18 24.01.2021
3360 Clouds 1 1002 57 10000 2.24 230 14:39 24.01.2021
3361 Clouds 0 1002 64 10000 3.63 259 13:48 24.01.2021
3362 Clouds 0 1002 64 10000 3.63 259 13:48 24.01.2021
3363 Clouds 0 1002 64 10000 4.04 261 13:27 24.01.2021
3364 Clouds 0 1002 64 10000 3.69 259 12:50 24.01.2021
3365 Clouds -1 1002 65 10000 0.89 149 12:20 24.01.2021
3366 Clouds -1 1002 65 10000 0.89 149 12:20 24.01.2021
3367 Clouds -1 1002 65 10000 0.89 149 11:52 24.01.2021
3368 Clouds -1 1002 70 10000 1.34 94 11:24 24.01.2021
3369 Clouds -1 1002 70 10000 1.34 94 10:49 24.01.2021
3370 Clouds -1 1001 73 10000 0.45 69 10:26 24.01.2021
3371 Snow -2 1000 80 1521 0.45 69 09:23 24.01.2021
3372 Snow -2 1000 80 1521 0.45 69 08:59 24.01.2021
3373 Snow -1 999 86 599 2.81 264 08:24 24.01.2021
3374 Snow 0 996 86 3186 0.45 130 03:25 24.01.2021
3375 Snow 0 996 87 9249 0.45 181 02:18 24.01.2021
3376 Clouds -2 994 88 10000 1.34 138 00:27 24.01.2021
3377 Clouds -2 994 88 10000 1.34 138 23:57 23.01.2021
3378 Clouds -2 995 84 10000 0.89 90 23:29 23.01.2021
3379 Clouds -2 995 84 10000 0.89 90 22:57 23.01.2021
3380 Clouds -2 995 87 10000 0.45 112 22:38 23.01.2021
3381 Clouds -1 995 91 10000 1.34 128 21:57 23.01.2021
3382 Clouds -1 996 83 10000 0.45 129 21:23 23.01.2021
3383 Snow -2 995 92 10000 0.45 147 20:49 23.01.2021
3384 Snow -2 995 92 10000 0.45 147 20:28 23.01.2021
3385 Clouds -1 995 91 10000 2.37 180 19:47 23.01.2021
3386 Clouds -1 995 91 10000 2.37 180 19:47 23.01.2021
3387 Clouds -1 995 91 10000 2.71 173 19:25 23.01.2021
3388 Clouds -1 995 91 10000 2.39 168 18:51 23.01.2021
3389 Clouds 0 996 89 10000 0.45 155 18:28 23.01.2021
3390 Clouds 0 996 89 10000 0.45 155 18:28 23.01.2021
3391 Clouds 0 996 89 10000 0.45 155 17:55 23.01.2021
3392 Clouds 0 996 87 10000 0.89 53 17:28 23.01.2021
3393 Clouds 0 996 87 10000 0.89 53 16:51 23.01.2021
3394 Clouds 2 997 80 10000 0.45 237 16:31 23.01.2021
3395 Clouds 2 997 83 10000 0.89 295 15:48 23.01.2021
3396 Clouds 2 997 83 10000 0.89 295 15:26 23.01.2021
3397 Clouds 2 997 84 10000 0.89 242 14:37 23.01.2021
3398 Clouds 2 997 84 10000 0.89 242 14:19 23.01.2021
3399 Clouds 2 998 100 10000 0.45 229 13:40 23.01.2021
3400 Clouds 2 998 100 10000 0.45 229 13:21 23.01.2021
3401 Clouds 2 999 99 10000 0.39 246 12:42 23.01.2021
3402 Clouds 1 999 99 10000 0.97 261 12:22 23.01.2021
3403 Clouds 2 1000 80 10000 0.45 159 11:34 23.01.2021
3404 Clouds 1 1000 80 10000 0.45 159 10:53 23.01.2021
3405 Snow 1 1001 88 10000 0.89 209 10:22 23.01.2021
3406 Snow 0 1001 75 10000 1.48 260 09:49 23.01.2021
3407 Snow 0 1001 75 951 1.9 246 09:24 23.01.2021
3408 Snow 0 1001 82 951 2.68 108 08:39 23.01.2021
3409 Clouds 0 1001 87 363 3.13 115 07:38 23.01.2021
3410 Clouds 0 1001 87 135 1.79 69 06:48 23.01.2021
3411 Rain 2 993 81 62 0.45 146 01:44 23.01.2021
3412 Snow 1 992 82 1183 1.34 357 23:59 22.01.2021
3413 Snow 1 992 83 1183 0.89 170 23:35 22.01.2021
3414 Clouds 2 991 81 4633 0.45 280 22:40 22.01.2021
3415 Clouds 2 991 81 10000 0.45 280 21:56 22.01.2021
3416 Clouds 2 991 79 10000 0.45 220 21:37 22.01.2021
3417 Clouds 2 991 79 10000 0.45 220 21:37 22.01.2021
3418 Rain 3 991 79 10000 0.45 220 21:19 22.01.2021
3419 Clouds 3 992 79 10000 0.89 207 20:43 22.01.2021
3420 Rain 3 992 79 10000 0.89 207 20:22 22.01.2021
3421 Clouds 3 993 76 10000 0.45 127 19:37 22.01.2021
3422 Clouds 3 993 76 10000 0.45 127 19:18 22.01.2021
3423 Clouds 3 993 73 10000 2.4 155 18:41 22.01.2021
3424 Clouds 3 993 73 10000 2.43 153 18:23 22.01.2021
3425 Clouds 5 993 68 10000 0.89 112 17:44 22.01.2021
3426 Clouds 5 993 68 10000 0.89 112 17:24 22.01.2021
3427 Clouds 6 993 57 10000 0.45 127 16:44 22.01.2021
3428 Rain 6 993 57 10000 0.45 127 16:23 22.01.2021
3429 Clouds 8 993 48 10000 0.89 82 15:30 22.01.2021
3430 Clouds 8 993 48 10000 0.89 82 14:59 22.01.2021
3431 Clouds 7 992 57 10000 0.45 355 14:31 22.01.2021
3432 Clouds 8 993 57 10000 2.36 150 13:50 22.01.2021
3433 Clear 8 994 66 10000 5.14 300 13:31 22.01.2021
3434 Clouds 7 997 55 10000 2.73 153 12:48 22.01.2021
3435 Clouds 8 997 55 10000 1.73 157 12:23 22.01.2021
3436 Clouds 6 998 66 10000 0.89 160 11:46 22.01.2021
3437 Clouds 5 998 66 10000 0.89 160 10:56 22.01.2021
3438 Clouds 3 998 77 10000 0.89 133 10:35 22.01.2021
3439 Clouds 3 998 77 10000 0.89 133 09:59 22.01.2021
3440 Clouds 2 999 82 10000 0.45 126 09:29 22.01.2021
3441 Clouds 1 999 82 10000 0.45 126 08:50 22.01.2021
3442 Clouds 3 999 78 10000 3.38 162 08:27 22.01.2021
3443 Clouds 4 999 71 10000 0.89 156 07:34 22.01.2021
3444 Clouds 3 1000 76 10000 1.85 232 03:38 22.01.2021
3445 Clouds 2 999 76 10000 1.34 76 00:39 22.01.2021
3446 Clouds 2 999 76 10000 1.34 76 23:52 21.01.2021
3447 Clouds 1 1000 82 10000 0.45 160 23:32 21.01.2021
3448 Clouds 1 1000 82 10000 0.45 160 22:51 21.01.2021
3449 Clouds 1 1001 79 10000 1.34 79 22:30 21.01.2021
3450 Clouds 1 1002 79 10000 0.89 114 21:43 21.01.2021
3451 Clouds 1 1002 79 10000 0.89 114 21:20 21.01.2021
3452 Clouds 2 1002 76 10000 3.68 163 20:48 21.01.2021
3453 Clouds 2 1002 76 10000 3.52 163 20:29 21.01.2021
3454 Clouds 2 1002 76 10000 3.52 163 19:52 21.01.2021
3455 Clouds 3 1003 69 10000 0.45 175 19:30 21.01.2021
3456 Clouds 3 1003 69 10000 0.45 175 18:59 21.01.2021
3457 Clouds 3 1002 80 10000 3.4 166 18:39 21.01.2021
3458 Clouds 3 1002 79 10000 3.36 163 18:20 21.01.2021
3459 Clouds 4 1002 74 10000 0.45 45 17:51 21.01.2021
3460 Clouds 4 1002 70 10000 0.45 45 17:20 21.01.2021
3461 Clouds 3 920 90 10000 2.92 167 16:48 21.01.2021
3462 Clouds 6 1002 64 10000 0.89 119 16:26 21.01.2021
3463 Clear 4 1003 65 10000 2.06 270 15:59 21.01.2021
3464 Clear 4 1003 65 10000 2.06 270 15:33 21.01.2021
3465 Clear 7 1003 57 10000 2.57 140 14:53 21.01.2021
3466 Clear 6 1003 57 10000 2.57 140 14:35 21.01.2021
3467 Clear 6 1004 65 10000 1.03 0 13:48 21.01.2021
3468 Clouds 6 1005 70 10000 3.6 270 13:28 21.01.2021
3469 Clouds 6 1005 70 10000 3.6 270 12:55 21.01.2021
3470 Clouds 6 1005 70 10000 3.6 270 12:37 21.01.2021
3471 Clouds 6 1005 75 10000 3.09 260 12:18 21.01.2021
3472 Clouds 4 1005 87 10000 3.6 270 11:43 21.01.2021
3473 Clouds 4 1005 87 10000 3.6 270 11:22 21.01.2021
3474 Clouds 4 1006 81 10000 4.26 168 10:45 21.01.2021
3475 Clouds 2 921 91 10000 4.74 166 10:24 21.01.2021
3476 Clouds 1 1004 48 10000 0.89 70 09:40 21.01.2021
3477 Clouds 1 920 91 10000 4.68 167 09:21 21.01.2021
3478 Clouds 1 1004 55 10000 1.34 146 08:35 21.01.2021
3479 Clouds 1 921 91 10000 4.72 166 07:49 21.01.2021
3480 Snow 1 1005 94 10000 4.94 168 07:26 21.01.2021
3481 Clouds 0 920 91 10000 4.9 168 06:37 21.01.2021
3482 Clouds 0 1004 76 10000 4.37 170 04:58 21.01.2021
3483 Clouds -1 1004 77 10000 1.79 60 02:22 21.01.2021
3484 Clouds -2 1006 96 10000 5.11 168 00:43 21.01.2021
3485 Clouds -2 1006 96 10000 5.05 167 23:52 20.01.2021
3486 Clouds -2 1006 96 10000 5.05 167 23:30 20.01.2021
3487 Clouds -2 1006 96 10000 4.87 167 22:53 20.01.2021
3488 Clouds -2 1007 96 10000 4.87 167 22:32 20.01.2021
3489 Clouds -2 1007 96 10000 4.85 167 21:56 20.01.2021
3490 Clouds 0 1007 80 10000 0.89 90 21:24 20.01.2021
3491 Clouds 1 1007 84 10000 0.89 65 20:54 20.01.2021
3492 Clouds 0 1007 93 10000 0.45 89 20:24 20.01.2021
3493 Clouds -1 1007 94 10000 4.74 166 19:55 20.01.2021
3494 Clouds -1 1007 94 10000 4.74 166 19:37 20.01.2021
3495 Clouds -1 1008 93 10000 0.45 205 19:18 20.01.2021
3496 Clouds 0 1007 89 10000 0.89 179 18:41 20.01.2021
3497 Clouds 1 1007 89 10000 0.89 179 17:56 20.01.2021
3498 Clouds 1 1007 90 10000 1.79 142 17:36 20.01.2021
3499 Clouds 3 1007 90 10000 1.79 142 16:52 20.01.2021
3500 Clouds 4 1007 87 10000 0.89 140 16:30 20.01.2021
3501 Clouds 4 1007 87 10000 0.89 140 16:30 20.01.2021
3502 Clouds 5 1007 74 10000 0.45 145 15:47 20.01.2021
3503 Clouds 5 1007 74 10000 0.45 145 15:19 20.01.2021
3504 Clouds 4 1009 84 10000 3.09 170 14:44 20.01.2021
3505 Clouds 4 1009 77 10000 3.16 167 14:21 20.01.2021
3506 Clouds 4 1009 77 10000 3.16 167 13:41 20.01.2021
3507 Clouds 3 1009 77 10000 3.21 162 13:19 20.01.2021
3508 Clouds 4 1011 84 10000 3.18 164 12:35 20.01.2021
3509 Clouds 2 1010 60 10000 1.34 58 11:54 20.01.2021
3510 Clouds 3 1012 90 10000 3.23 163 11:35 20.01.2021
3511 Clouds 2 1010 87 10000 1.34 45 10:51 20.01.2021
3512 Clouds 2 1013 94 10000 3.5 165 10:28 20.01.2021
3513 Clouds 2 1010 90 10000 1.34 45 09:48 20.01.2021
3514 Clouds -1 1014 96 10000 3.63 163 09:24 20.01.2021
3515 Clouds 0 1011 75 10000 0.45 112 08:47 20.01.2021
3516 Clouds 0 928 91 10000 3.49 161 08:26 20.01.2021
3517 Clouds 0 928 91 10000 3.49 161 07:56 20.01.2021
3518 Clouds 0 1018 93 10000 3.23 157 07:25 20.01.2021
3519 Clouds 0 1018 93 10000 3.12 165 05:24 20.01.2021
3520 Clouds 0 1018 93 10000 3.12 171 02:59 20.01.2021
3521 Clouds -1 1015 94 10000 2.91 174 00:59 20.01.2021
3522 Clouds -1 1015 94 10000 2.78 180 00:25 20.01.2021
3523 Clouds 1 1015 95 10000 1.34 109 23:42 19.01.2021
3524 Clouds 1 1015 95 10000 1.34 109 23:18 19.01.2021
3525 Clouds 1 1015 93 10000 0.45 242 22:41 19.01.2021
3526 Clouds 1 1015 93 10000 0.45 242 22:22 19.01.2021
3527 Clouds 1 1015 93 10000 0.45 242 21:58 19.01.2021
3528 Clouds 1 1016 93 10000 2.65 178 21:40 19.01.2021
3529 Clouds 1 1016 93 10000 2.66 189 21:18 19.01.2021
3530 Clouds 2 1016 92 10000 0.45 127 20:40 19.01.2021
3531 Clouds 1 1016 92 10000 0.45 127 20:22 19.01.2021
3532 Snow 2 1016 91 10000 2.86 192 19:41 19.01.2021
3533 Snow 2 1016 91 10000 2.94 189 19:20 19.01.2021
3534 Snow 2 1016 95 10000 0.45 189 18:39 19.01.2021
3535 Snow 2 1016 95 10000 0.45 189 18:21 19.01.2021
3536 Snow 2 1016 92 10000 0.45 245 17:45 19.01.2021
3537 Clouds 2 1016 92 10000 0.45 245 17:23 19.01.2021
3538 Rain 3 1015 90 10000 0.45 165 16:45 19.01.2021
3539 Rain 3 1015 90 10000 0.45 165 16:25 19.01.2021
3540 Rain 3 1015 90 10000 0.45 165 15:55 19.01.2021
3541 Rain 3 1015 90 10000 0.89 255 15:34 19.01.2021
3542 Clouds 3 1015 90 10000 0.89 255 14:51 19.01.2021
3543 Clouds 2 1016 80 10000 0.89 218 14:31 19.01.2021
3544 Clouds 2 1016 80 10000 0.89 218 13:53 19.01.2021
3545 Clouds 1 1016 76 10000 0.45 243 13:34 19.01.2021
3546 Clouds 1 1016 76 10000 0.45 243 12:58 19.01.2021
3547 Clouds 1 1020 82 10000 2.12 248 12:35 19.01.2021
3548 Clouds 1 1021 83 10000 2.04 223 11:59 19.01.2021
3549 Clouds 1 1017 86 10000 0.45 90 11:40 19.01.2021
3550 Clouds 0 1017 94 10000 0.45 201 11:21 19.01.2021
3551 Clouds -1 1022 85 10000 2.49 191 10:47 19.01.2021
3552 Clouds -2 935 91 10000 3.02 179 10:27 19.01.2021
3553 Clouds -3 935 91 10000 3.02 179 09:51 19.01.2021
3554 Clouds -3 935 91 10000 3.11 182 09:20 19.01.2021
3555 Clouds -4 1018 81 10000 0.45 112 08:35 19.01.2021
3556 Clouds -4 1022 92 10000 3.36 178 07:53 19.01.2021
3557 Clouds -4 936 91 10000 3.25 180 07:18 19.01.2021
3558 Clouds -5 1021 51 10000 2.85 186 04:49 19.01.2021
3559 Clouds -5 1022 90 10000 0.89 165 02:23 19.01.2021
3560 Clouds -4 1026 92 10000 2.78 187 00:41 19.01.2021
3561 Clouds -4 1027 92 10000 2.75 185 23:55 18.01.2021
3562 Clouds -4 1027 92 10000 2.63 190 23:27 18.01.2021
3563 Clouds -4 1027 92 10000 2.63 190 22:44 18.01.2021
3564 Clouds -4 1028 93 10000 2.72 190 22:22 18.01.2021
3565 Clouds -4 1027 93 10000 2.72 190 21:47 18.01.2021
3566 Clouds -4 1027 93 10000 0.89 97 21:23 18.01.2021
3567 Clouds -4 1027 93 10000 2.5 195 20:57 18.01.2021
3568 Clouds -3 1028 92 10000 2.5 195 20:34 18.01.2021
3569 Clouds -3 1027 91 10000 0.45 262 19:54 18.01.2021
3570 Clouds -2 1027 92 10000 0.89 158 19:35 18.01.2021
3571 Clouds -2 1027 90 10000 2.37 201 18:51 18.01.2021
3572 Clouds -2 1027 89 10000 0.45 238 18:32 18.01.2021
3573 Clouds -1 941 90 10000 2.27 203 17:50 18.01.2021
3574 Clouds -1 1027 87 10000 2.27 203 17:31 18.01.2021
3575 Clouds -1 941 90 10000 1.68 227 16:54 18.01.2021
3576 Clouds 0 1022 91 10000 1.79 124 16:32 18.01.2021
3577 Clouds 0 1022 91 10000 1.79 124 15:56 18.01.2021
3578 Clouds 0 1022 91 10000 1.79 124 15:37 18.01.2021
3579 Snow 0 1022 91 6754 1.79 124 15:18 18.01.2021
3580 Snow 0 1022 91 6754 1.79 124 14:41 18.01.2021
3581 Snow 0 1022 91 2800 1.79 124 14:22 18.01.2021
3582 Snow 0 1022 91 2800 1.79 124 13:44 18.01.2021
3583 Snow 0 1022 91 1827 1.79 124 13:21 18.01.2021
3584 Snow 0 1022 91 1827 1.79 124 12:47 18.01.2021
3585 Snow 0 1022 91 963 1.79 124 12:19 18.01.2021
3586 Snow 0 1022 91 963 1.79 124 11:48 18.01.2021
3587 Snow 0 1022 91 737 1.79 124 11:27 18.01.2021
3588 Snow 0 1022 91 737 1.79 124 10:49 18.01.2021
3589 Snow 0 1022 91 737 1.79 124 10:30 18.01.2021
3590 Snow 0 1022 91 286 1.79 124 09:40 18.01.2021
3591 Snow 0 1022 91 301 1.79 124 09:18 18.01.2021
3592 Snow -1 1022 91 286 1.79 124 08:27 18.01.2021
3593 Snow -1 1022 91 286 1.79 124 07:54 18.01.2021
3594 Snow -1 1022 91 272 1.79 124 06:35 18.01.2021
3595 Snow -1 1022 91 355 1.79 124 04:46 18.01.2021
3596 Snow 0 1022 91 147 1.79 124 04:27 18.01.2021
3597 Snow 0 1022 91 147 1.79 124 03:52 18.01.2021
3598 Snow 0 1022 91 103 1.79 124 03:29 18.01.2021
3599 Snow 0 1022 91 103 1.79 124 02:58 18.01.2021
3600 Snow -1 1021 93 83 2.24 138 02:19 18.01.2021
3601 Snow 0 1021 90 81 1.34 166 00:41 18.01.2021
3602 Snow 0 1021 90 70 1.34 166 23:57 17.01.2021
3603 Snow -1 1025 96 70 1.82 294 23:39 17.01.2021
3604 Snow -1 1025 96 65 1.8 294 23:19 17.01.2021
3605 Snow -1 1025 96 61 1.86 291 22:24 17.01.2021
3606 Snow -1 1024 96 61 1.86 291 21:45 17.01.2021
3607 Snow -1 1025 96 63 1.91 290 21:27 17.01.2021
3608 Snow -1 1024 96 63 1.91 290 20:55 17.01.2021
3609 Snow -1 1024 96 63 1.91 290 20:37 17.01.2021
3610 Snow -1 1024 96 66 1.95 289 20:18 17.01.2021
3611 Snow -1 1024 96 66 1.95 289 19:40 17.01.2021
3612 Snow -1 1023 96 65 1.91 293 18:57 17.01.2021
3613 Snow -1 1023 96 65 1.91 293 18:30 17.01.2021
3614 Clouds -1 1023 96 67 2 294 17:52 17.01.2021
3615 Snow -1 1022 96 67 2 294 17:34 17.01.2021
3616 Snow -1 1022 96 71 2.03 288 16:56 17.01.2021
3617 Snow 0 1021 95 71 2.03 288 16:37 17.01.2021
3618 Snow 0 1021 95 75 2.33 283 16:18 17.01.2021
3619 Snow -1 1021 95 75 2.33 283 15:37 17.01.2021
3620 Snow -1 1020 96 58 2.91 291 15:19 17.01.2021
3621 Snow -1 1020 95 58 2.91 291 14:40 17.01.2021
3622 Snow -1 1020 95 59 2.93 293 14:21 17.01.2021
3623 Snow -1 1020 95 59 2.93 293 13:43 17.01.2021
3624 Snow -1 1020 95 69 2.9 290 13:24 17.01.2021
3625 Snow -1 1020 95 65 2.67 293 12:45 17.01.2021
3626 Snow -1 1020 95 75 2.66 286 12:25 17.01.2021
3627 Snow -1 1019 95 89 2.34 278 11:26 17.01.2021
3628 Snow -2 1019 95 89 2.34 278 10:54 17.01.2021
3629 Snow -2 1019 95 89 2.34 278 10:36 17.01.2021
3630 Clouds -2 1019 95 96 2.29 266 10:18 17.01.2021
3631 Snow -3 1019 94 104 0.89 169 08:59 17.01.2021
3632 Snow -3 1019 95 104 0.45 138 08:41 17.01.2021
3633 Snow -4 1015 87 124 0.45 140 04:36 17.01.2021
3634 Snow -5 1015 87 188 0.45 140 03:44 17.01.2021
3635 Snow -4 1016 71 2959 1.39 237 01:37 17.01.2021
3636 Clouds -7 1018 68 10000 2.25 221 00:21 17.01.2021
3637 Clouds -6 1019 86 10000 2.25 221 23:53 16.01.2021
3638 Clouds -7 1023 88 10000 2.33 202 23:25 16.01.2021
3639 Clouds -7 1023 88 10000 2.33 202 22:55 16.01.2021
3640 Clouds -7 1023 88 10000 2.27 208 22:21 16.01.2021
3641 Clouds -7 1023 88 10000 2.27 208 21:46 16.01.2021
3642 Clouds -7 1023 88 10000 2.2 217 21:23 16.01.2021
3643 Clouds -7 1023 88 10000 2.2 217 20:49 16.01.2021
3644 Clouds -7 1023 88 10000 2.42 203 20:27 16.01.2021
3645 Clouds -7 1023 88 10000 2.42 203 19:49 16.01.2021
3646 Clouds -8 1023 88 10000 2.42 203 19:30 16.01.2021
3647 Clouds -7 1023 88 10000 2.42 202 18:47 16.01.2021
3648 Clouds -7 1023 88 10000 2.19 211 18:27 16.01.2021
3649 Clouds -7 1023 88 10000 2.19 211 17:58 16.01.2021
3650 Clouds -7 1023 88 10000 2.19 211 17:39 16.01.2021
3651 Clear -6 1023 88 10000 1.71 229 17:20 16.01.2021
3652 Clear -5 1023 88 10000 1.71 229 16:41 16.01.2021
3653 Clear -5 1023 88 10000 1.13 271 15:58 16.01.2021
3654 Clear -3 1025 81 10000 0.89 295 15:39 16.01.2021
3655 Clear -2 1025 80 10000 0.89 238 14:33 16.01.2021
3656 Clear -3 1026 81 10000 0.89 147 13:53 16.01.2021
3657 Clear -3 1026 81 10000 0.89 147 13:53 16.01.2021
3658 Clear -3 1026 82 10000 1.34 292 13:31 16.01.2021
3659 Clear -3 1027 85 10000 0.45 136 12:48 16.01.2021
3660 Clear -4 1027 85 10000 0.89 136 12:27 16.01.2021
3661 Clear -3 1028 87 10000 1.17 279 11:55 16.01.2021
3662 Clear -4 1028 87 10000 1.15 270 11:26 16.01.2021
3663 Clear -4 1029 89 10000 1.15 270 10:54 16.01.2021
3664 Clear -6 1023 88 10000 1.15 270 10:35 16.01.2021
3665 Clouds -7 1023 88 10000 1.37 198 09:54 16.01.2021
3666 Clouds -7 1023 88 10000 1.87 186 09:19 16.01.2021
3667 Clouds -7 1023 88 10000 1.81 183 08:18 16.01.2021
3668 Clouds -7 1029 94 10000 1.69 188 06:49 16.01.2021
3669 Clouds -7 1028 94 10000 1.49 185 04:53 16.01.2021
3670 Clouds -7 1028 94 10000 1.69 184 02:59 16.01.2021
3671 Clouds -7 1028 94 10000 1.69 184 02:37 16.01.2021
3672 Clouds -8 1028 94 10000 1.41 178 00:45 16.01.2021
3673 Clouds -8 1028 94 10000 0.45 119 00:20 16.01.2021
3674 Clouds -8 1028 94 10000 1.57 174 23:36 15.01.2021
3675 Clouds -8 1028 94 10000 1.67 170 22:38 15.01.2021
3676 Clouds -8 1028 94 10000 1.64 172 22:18 15.01.2021
3677 Clouds -7 1028 94 10000 1.64 172 21:42 15.01.2021
3678 Clouds -6 1027 93 10000 0.45 48 20:47 15.01.2021
3679 Clouds -6 1027 93 3899 0.42 88 20:23 15.01.2021
3680 Clouds -6 1027 93 3899 0.45 15 19:47 15.01.2021
3681 Clouds -6 1027 93 2777 0.45 28 19:26 15.01.2021
3682 Clouds -5 1012 96 2915 0.46 13 18:45 15.01.2021
3683 Clouds -4 1012 96 2286 0.95 7 18:20 15.01.2021
3684 Clouds -4 1012 96 2286 0.95 7 17:56 15.01.2021
3685 Clouds -4 1012 96 2286 0.95 7 17:38 15.01.2021
3686 Clouds -4 1012 96 3916 1.29 3 17:19 15.01.2021
3687 Clouds -4 1012 96 3916 1.29 3 17:19 15.01.2021
3688 Clouds -4 1012 96 3916 1.29 3 16:43 15.01.2021
3689 Clouds -4 1012 96 5353 1.54 4 16:22 15.01.2021
3690 Clouds -4 1012 96 5353 1.54 4 15:40 15.01.2021
3691 Clouds -4 1012 96 2750 1.6 6 15:19 15.01.2021
3692 Clouds -3 1022 94 2750 0.89 319 14:41 15.01.2021
3693 Clouds -3 1021 94 2453 2.11 1 14:22 15.01.2021
3694 Clouds -2 1021 94 2453 2.11 1 13:40 15.01.2021
3695 Clouds -2 1021 94 2453 2.11 1 13:40 15.01.2021
3696 Clouds 0 935 90 1589 1.88 354 13:20 15.01.2021
3697 Clouds -1 1017 77 1518 1.81 352 12:47 15.01.2021
3698 Clouds -1 935 90 2185 1.56 354 12:26 15.01.2021
3699 Clouds -1 935 90 2185 1.56 354 11:42 15.01.2021
3700 Snow -1 1017 76 4272 1.37 6 11:21 15.01.2021
3701 Snow -2 1017 89 4272 1.37 6 10:51 15.01.2021
3702 Snow -4 1012 96 1635 1.18 17 10:22 15.01.2021
3703 Snow -4 1012 96 1635 1.18 17 09:49 15.01.2021
3704 Snow -4 1012 96 303 1.08 55 09:29 15.01.2021
3705 Snow -4 1012 96 136 1.08 57 08:28 15.01.2021
3706 Snow -4 1012 96 136 1.08 57 07:45 15.01.2021
3707 Snow -4 1012 96 122 1.1 45 07:23 15.01.2021
3708 Snow -4 1012 96 122 1.1 45 06:51 15.01.2021
3709 Snow -4 1012 96 114 0.66 100 02:45 15.01.2021
3710 Snow -3 1012 95 134 1.23 132 00:52 15.01.2021
3711 Snow -3 1013 96 147 1.34 133 23:35 14.01.2021
3712 Snow -3 1013 96 160 1.32 136 22:58 14.01.2021
3713 Snow -3 1014 95 160 0.45 4 22:38 14.01.2021
3714 Snow -3 1014 95 155 0.45 4 22:20 14.01.2021
3715 Snow -2 1014 93 155 1.2 142 21:41 14.01.2021
3716 Snow -2 1014 93 136 1.16 147 21:20 14.01.2021
3717 Snow -2 1014 93 136 1.16 147 20:48 14.01.2021
3718 Snow -2 1014 93 129 1.1 144 20:22 14.01.2021
3719 Snow -3 1015 94 129 1.1 144 19:41 14.01.2021
3720 Snow -3 1015 94 169 1.33 163 19:23 14.01.2021
3721 Snow -3 1015 94 169 1.33 163 18:49 14.01.2021
3722 Snow -3 1015 94 232 1.19 137 18:18 14.01.2021
3723 Snow -3 1016 94 232 1.19 137 17:44 14.01.2021
3724 Snow -3 1016 94 180 1.01 76 17:25 14.01.2021
3725 Snow -3 1016 91 180 0.45 224 16:39 14.01.2021
3726 Snow -3 1016 91 133 0.45 224 15:56 14.01.2021
3727 Snow -3 1016 92 133 1.41 32 15:38 14.01.2021
3728 Snow -3 1016 92 123 1.57 10 14:58 14.01.2021
3729 Snow -3 1016 93 123 1.57 10 14:35 14.01.2021
3730 Snow -3 1016 93 138 1.29 345 13:57 14.01.2021
3731 Snow -3 1016 93 138 1.29 345 13:57 14.01.2021
3732 Snow -3 1016 95 138 1.34 18 13:39 14.01.2021
3733 Snow -3 1016 95 144 1.34 18 13:18 14.01.2021
3734 Snow -3 1016 95 144 0.89 343 12:38 14.01.2021
3735 Snow -3 1016 95 179 0.89 343 12:18 14.01.2021
3736 Snow -3 1016 98 179 0.89 299 11:41 14.01.2021
3737 Snow -3 1016 98 172 0.89 299 11:20 14.01.2021
3738 Snow -2 1015 99 172 2.68 326 10:47 14.01.2021
3739 Snow -2 1015 99 124 2.68 326 10:20 14.01.2021
3740 Snow -1 1014 99 124 0.45 234 09:44 14.01.2021
3741 Snow -1 1014 99 104 0.45 234 09:22 14.01.2021
3742 Snow -1 1014 99 104 0.45 13 08:40 14.01.2021
3743 Snow -1 1014 99 89 0.45 13 08:21 14.01.2021
3744 Snow 0 1014 100 89 3.58 4 07:42 14.01.2021
3745 Snow 0 1013 97 79 4.47 310 06:41 14.01.2021
3746 Snow 1 1012 92 54 0.45 324 05:23 14.01.2021
3747 Snow 1 1013 98 76 1.79 221 00:36 14.01.2021
3748 Snow 1 1013 98 82 0.45 244 23:48 13.01.2021
3749 Snow 0 1013 98 86 0.45 244 22:51 13.01.2021
3750 Snow 0 1014 96 98 1.34 213 22:27 13.01.2021
3751 Snow 0 1014 96 98 1.34 213 21:50 13.01.2021
3752 Snow 0 1015 96 126 1.79 143 21:24 13.01.2021
3753 Snow 0 1015 96 126 1.79 143 20:51 13.01.2021
3754 Snow 0 1016 86 1267 0.45 211 20:28 13.01.2021
3755 Snow 1 1016 86 1267 0.45 211 19:56 13.01.2021
3756 Snow 1 1015 84 1267 3.56 212 19:31 13.01.2021
3757 Snow 1 1015 84 2973 3.43 230 18:53 13.01.2021
3758 Snow 1 1015 84 2973 3.43 230 18:53 13.01.2021
3759 Snow 1 1015 87 1619 1.34 216 18:34 13.01.2021
3760 Clouds 1 1015 87 4936 1.34 216 17:51 13.01.2021
3761 Clouds 1 1016 84 10000 0.45 186 17:19 13.01.2021
3762 Clouds 2 1016 69 10000 3.58 296 16:47 13.01.2021
3763 Clouds 2 1016 69 10000 3.58 296 16:21 13.01.2021
3764 Clouds 2 1016 69 10000 3.58 296 15:51 13.01.2021
3765 Clouds 2 1016 64 10000 0.89 76 15:32 13.01.2021
3766 Clouds 1 1017 71 10000 0.89 231 14:34 13.01.2021
3767 Clouds 1 1017 71 10000 0.89 231 13:50 13.01.2021
3768 Clouds 1 1018 75 10000 2.24 104 13:26 13.01.2021
3769 Clouds 0 1018 76 10000 1.34 122 12:46 13.01.2021
3770 Clouds 0 1018 76 10000 1.34 122 12:27 13.01.2021
3771 Clouds 0 1018 76 10000 1.34 122 11:53 13.01.2021
3772 Clouds -1 1018 83 10000 2.24 121 11:34 13.01.2021
3773 Clouds -1 1018 83 8816 2.24 121 10:50 13.01.2021
3774 Clouds -1 1018 87 8816 0.45 168 10:30 13.01.2021
3775 Snow -1 1018 87 1197 0.45 168 09:51 13.01.2021
3776 Snow -1 1017 88 1197 0.45 250 09:30 13.01.2021
3777 Snow -1 1017 88 401 0.45 250 08:49 13.01.2021
3778 Snow -1 1016 87 113 2.25 281 08:25 13.01.2021
3779 Snow 0 1016 92 113 1.34 318 07:32 13.01.2021
3780 Snow 0 1016 92 109 1.34 318 06:51 13.01.2021
3781 Snow 0 1015 98 73 0.45 340 04:20 13.01.2021
3782 Snow 0 1014 97 73 2.14 306 03:44 13.01.2021
3783 Snow 0 1014 97 55 2.39 297 03:24 13.01.2021
3784 Snow 0 1014 96 62 0.45 315 01:19 13.01.2021
3785 Snow 1 1013 95 64 2.06 276 23:54 12.01.2021
3786 Snow 1 1013 98 76 1.79 113 23:22 12.01.2021
3787 Snow 1 1012 100 76 0.89 71 22:45 12.01.2021
3788 Snow 1 1012 100 90 0.89 71 22:23 12.01.2021
3789 Snow 1 1012 100 91 0.45 107 21:49 12.01.2021
3790 Snow 1 1012 100 93 0.45 107 21:28 12.01.2021
3791 Snow 1 1012 100 93 0.45 165 20:49 12.01.2021
3792 Snow 1 1012 100 99 0.45 165 20:27 12.01.2021
3793 Snow 1 1012 100 99 0.89 152 19:48 12.01.2021
3794 Snow 1 1012 100 99 0.89 152 19:27 12.01.2021
3795 Snow 1 1012 98 103 0.89 157 18:44 12.01.2021
3796 Snow 1 1012 98 110 0.89 157 18:23 12.01.2021
3797 Snow 1 1012 97 110 1.79 157 17:40 12.01.2021
3798 Snow 1 1012 97 131 1.79 157 17:22 12.01.2021
3799 Snow 1 1012 97 131 2.24 175 16:43 12.01.2021
3800 Snow 1 1012 97 152 2.24 175 16:23 12.01.2021
3801 Snow 0 1012 95 152 1.34 144 15:39 12.01.2021
3802 Snow 0 1012 95 217 1.34 144 15:18 12.01.2021
3803 Snow 0 1013 87 217 0.89 217 14:41 12.01.2021
3804 Snow 0 1013 87 445 0.89 217 14:21 12.01.2021
3805 Snow 0 1013 87 445 0.89 217 13:52 12.01.2021
3806 Snow 1 1013 70 2958 1.34 169 12:54 12.01.2021
3807 Snow 1 1014 56 6091 3.4 226 12:22 12.01.2021
3808 Snow 0 1019 69 6091 0.45 278 11:40 12.01.2021
3809 Clouds -1 1020 66 10000 0.89 355 10:52 12.01.2021
3810 Clouds -1 1020 66 10000 0.89 355 10:52 12.01.2021
3811 Clouds 0 1020 69 10000 0.89 82 10:22 12.01.2021
3812 Clouds 0 931 65 10000 2.94 213 09:57 12.01.2021
3813 Clouds -5 1015 78 10000 0.89 206 09:28 12.01.2021
3814 Clouds -4 1015 78 10000 0.89 206 08:54 12.01.2021
3815 Clouds -3 932 68 10000 2.65 223 08:26 12.01.2021
3816 Clouds -4 932 68 10000 2.65 223 07:37 12.01.2021
3817 Clouds -4 932 70 10000 3.13 315 06:39 12.01.2021
3818 Clouds -4 1017 35 10000 3.13 199 05:34 12.01.2021
3819 Clouds -6 1018 45 10000 2.2 218 03:27 12.01.2021
3820 Clouds -7 934 72 10000 1.96 227 02:19 12.01.2021
3821 Clouds -7 934 72 10000 2.21 212 01:28 12.01.2021
3822 Clouds -7 1024 82 10000 2.26 202 23:57 11.01.2021
3823 Clouds -7 1024 82 10000 2.26 202 23:36 11.01.2021
3824 Clouds -7 1024 82 10000 1.96 208 23:18 11.01.2021
3825 Clouds -7 1024 83 10000 0.45 147 22:44 11.01.2021
3826 Clouds -7 1019 48 10000 1.7 215 22:26 11.01.2021
3827 Clouds -7 935 76 10000 1.7 215 21:39 11.01.2021
3828 Clouds -7 1019 59 10000 1.74 203 21:21 11.01.2021
3829 Clouds -8 935 76 10000 1.73 211 20:41 11.01.2021
3830 Clouds -8 1023 88 10000 1.84 196 20:23 11.01.2021
3831 Clouds -8 1019 58 10000 1.84 196 19:56 11.01.2021
3832 Clouds -9 1025 82 10000 0.45 139 19:33 11.01.2021
3833 Clouds -8 1018 82 10000 1.34 216 18:46 11.01.2021
3834 Clouds -8 1018 82 10000 1.34 216 18:27 11.01.2021
3835 Clouds -8 1018 82 10000 1.34 216 17:56 11.01.2021
3836 Clouds -7 1018 81 10000 0.89 217 17:37 11.01.2021
3837 Clouds -7 1018 81 10000 0.89 217 17:19 11.01.2021
3838 Clouds -5 1018 58 10000 0.45 269 16:39 11.01.2021
3839 Clear -4 1018 58 10000 0.45 269 16:20 11.01.2021
3840 Clear -3 1017 51 10000 0.45 119 15:47 11.01.2021
3841 Clear -3 1017 51 10000 0.45 119 15:26 11.01.2021
3842 Clear -3 1017 53 10000 0.45 104 14:40 11.01.2021
3843 Clear -3 1017 53 10000 0.45 104 13:53 11.01.2021
3844 Clear -3 1024 70 10000 0.89 325 13:27 11.01.2021
3845 Clear -3 1020 34 10000 1.34 193 12:52 11.01.2021
3846 Clear -3 1020 65 10000 1.34 202 12:32 11.01.2021
3847 Clear -6 1020 64 10000 0.79 338 11:56 11.01.2021
3848 Clear -3 1024 82 10000 0.79 338 11:34 11.01.2021
3849 Clear -5 1019 82 10000 0.45 239 10:51 11.01.2021
3850 Clear -7 1024 85 10000 0.42 173 10:25 11.01.2021
3851 Clear -7 1024 90 10000 0.42 173 09:43 11.01.2021
3852 Clear -10 936 82 10000 1.79 315 09:21 11.01.2021
3853 Clear -10 936 82 10000 1.35 162 08:45 11.01.2021
3854 Clear -12 936 82 10000 1.38 166 08:18 11.01.2021
3855 Clear -12 936 82 10000 1.31 163 07:27 11.01.2021
3856 Clear -13 936 81 10000 1.31 163 06:58 11.01.2021
3857 Clear -9 935 78 10000 1.46 154 03:57 11.01.2021
3858 Clear -8 1017 89 10000 0.45 135 01:33 11.01.2021
3859 Clear -7 1019 51 10000 1.79 71 00:34 11.01.2021
3860 Clear -8 936 76 10000 1.91 149 23:35 10.01.2021
3861 Clear -8 936 77 10000 1.67 141 22:48 10.01.2021
3862 Clear -7 936 77 10000 1.68 146 22:24 10.01.2021
3863 Clear -7 936 77 10000 1.68 146 22:24 10.01.2021
3864 Clear -10 1018 86 10000 0.45 171 21:46 10.01.2021
3865 Clear -10 1018 86 10000 0.45 171 21:21 10.01.2021
3866 Clear -10 1018 86 10000 0.45 171 21:21 10.01.2021
3867 Clear -10 1018 86 10000 0.45 171 20:56 10.01.2021
3868 Clear -10 1018 84 10000 1.61 143 20:33 10.01.2021
3869 Clear -9 1018 82 10000 0.89 161 19:44 10.01.2021
3870 Clear -9 1018 82 10000 0.89 161 19:26 10.01.2021
3871 Clear -9 1018 82 10000 0.89 161 18:56 10.01.2021
3872 Clear -8 1017 77 10000 0.89 215 18:37 10.01.2021
3873 Clear -8 1017 77 10000 0.89 215 18:18 10.01.2021
3874 Clear -7 1017 80 10000 0.89 221 17:21 10.01.2021
3875 Clear -4 1017 64 10000 1.53 107 16:33 10.01.2021
3876 Clear -4 1017 64 10000 1.53 107 16:33 10.01.2021
3877 Clear -4 1017 64 10000 1.44 75 15:57 10.01.2021
3878 Clear -4 1016 61 10000 0.89 78 15:25 10.01.2021
3879 Clear -3 1016 61 10000 0.89 78 14:50 10.01.2021
3880 Clear -3 1022 72 10000 0.45 9 14:32 10.01.2021
3881 Clear -3 1022 70 10000 0.45 283 13:55 10.01.2021
3882 Clear -3 1022 72 10000 0.45 84 13:37 10.01.2021
3883 Clear -1 1017 63 10000 1.38 57 13:18 10.01.2021
3884 Clear 0 1018 33 10000 0.89 54 12:47 10.01.2021
3885 Clear -3 1021 67 10000 0.45 65 12:27 10.01.2021
3886 Clear -2 1018 37 10000 2.68 74 11:39 10.01.2021
3887 Clear -3 1016 69 10000 1.55 98 11:18 10.01.2021
3888 Clear -3 1018 44 10000 4.47 54 10:36 10.01.2021
3889 Clear -5 1016 70 10000 1.51 114 10:18 10.01.2021
3890 Clear -7 1018 56 10000 1.83 131 09:27 10.01.2021
3891 Clear -7 1018 57 10000 1.34 28 08:21 10.01.2021
3892 Clear -8 1017 82 10000 1.8 127 07:29 10.01.2021
3893 Clouds -10 1017 76 10000 0.45 216 06:20 10.01.2021
3894 Clouds -10 1018 78 10000 1.58 131 05:36 10.01.2021
3895 Clouds -9 1018 80 10000 1.76 133 02:58 10.01.2021
3896 Clouds -8 1023 89 10000 0.89 167 01:22 10.01.2021
3897 Clouds -7 1023 89 10000 1.72 131 23:49 09.01.2021
3898 Clouds -5 935 81 10000 1.72 131 23:30 09.01.2021
3899 Clouds -7 1023 88 10000 1.91 137 22:48 09.01.2021
3900 Clouds -8 1023 87 10000 1.98 135 22:19 09.01.2021
3901 Clouds -8 1023 87 10000 0.45 154 21:57 09.01.2021
3902 Clouds -9 1017 83 10000 1.98 135 21:38 09.01.2021
3903 Clouds -9 1017 83 10000 2.13 135 21:18 09.01.2021
3904 Clouds -9 1017 84 10000 0.45 227 20:44 09.01.2021
3905 Clouds -7 1017 85 10000 0.89 211 19:45 09.01.2021
3906 Clouds -7 1017 85 10000 0.89 211 19:22 09.01.2021
3907 Clouds -6 1017 85 10000 0.89 211 18:52 09.01.2021
3908 Clouds -6 1016 78 10000 0.89 215 18:33 09.01.2021
3909 Clouds -5 1016 76 10000 1.34 215 17:48 09.01.2021
3910 Clouds -5 1016 76 10000 1.34 215 17:30 09.01.2021
3911 Clouds -2 1016 66 10000 1.73 109 16:36 09.01.2021
3912 Clouds -2 1016 66 10000 1.59 79 15:52 09.01.2021
3913 Clouds -2 1016 68 10000 1.34 352 15:33 09.01.2021
3914 Clouds -3 1016 65 10000 1.34 327 14:41 09.01.2021
3915 Clouds -3 1016 65 10000 1.34 327 14:20 09.01.2021
3916 Clouds -3 1016 65 10000 1.34 327 13:49 09.01.2021
3917 Clouds -3 1016 64 10000 0.89 22 13:31 09.01.2021
3918 Clouds -2 1016 64 10000 0.89 22 12:50 09.01.2021
3919 Clouds -1 1017 43 10000 1.79 45 12:25 09.01.2021
3920 Clouds -1 1017 50 10000 1.34 58 11:56 09.01.2021
3921 Clouds -3 1017 55 10000 1.34 47 11:33 09.01.2021
3922 Clouds -3 1017 55 10000 1.34 47 11:33 09.01.2021
3923 Clouds -4 1018 67 10000 1.34 47 10:55 09.01.2021
3924 Clouds -6 1018 70 10000 1.06 94 10:36 09.01.2021
3925 Clouds -7 1015 97 10000 2.24 145 09:53 09.01.2021
3926 Clouds -8 934 87 10000 1.63 150 09:29 09.01.2021
3927 Clouds -8 1007 100 10000 1.63 150 08:35 09.01.2021
3928 Clear -10 1016 87 10000 0.89 214 06:58 09.01.2021
3929 Clear -10 1020 90 10000 0.89 147 06:40 09.01.2021
3930 Clear -10 1016 89 10000 0.45 235 04:50 09.01.2021
3931 Clear -9 1016 82 10000 2.09 160 03:22 09.01.2021
3932 Clear -9 1016 89 10000 0.45 187 02:31 09.01.2021
3933 Clear -8 1016 85 10000 2.09 160 01:46 09.01.2021
3934 Clear -8 1016 83 10000 0.45 243 00:36 09.01.2021
3935 Clear -7 1016 83 10000 0.45 243 23:57 08.01.2021
3936 Clear -6 1016 83 10000 0.45 172 22:58 08.01.2021
3937 Clear -6 1015 85 10000 0.45 295 22:18 08.01.2021
3938 Clear -5 1019 87 10000 2.02 163 21:37 08.01.2021
3939 Clear -5 1018 83 10000 0.45 114 20:46 08.01.2021
3940 Clear -4 1018 81 10000 2.05 171 20:25 08.01.2021
3941 Clear -6 1015 55 10000 2.05 171 19:45 08.01.2021
3942 Clouds -5 1015 53 10000 0.89 114 19:22 08.01.2021
3943 Clear -5 931 77 10000 2.03 175 18:35 08.01.2021
3944 Clouds -5 1014 50 10000 1.82 181 17:57 08.01.2021
3945 Clouds -4 931 74 10000 1.82 181 17:35 08.01.2021
3946 Clouds -4 1014 45 10000 1.34 181 16:56 08.01.2021
3947 Clouds -1 1017 75 10000 0.89 3 16:26 08.01.2021
3948 Clouds -1 1017 75 10000 0.89 3 16:26 08.01.2021
3949 Clouds -1 1016 74 10000 0.89 326 15:40 08.01.2021
3950 Clouds -1 1016 71 10000 0.45 353 14:45 08.01.2021
3951 Clouds -1 1016 72 10000 0.45 346 14:26 08.01.2021
3952 Clouds -1 1016 75 10000 0.89 345 13:23 08.01.2021
3953 Clouds -1 1016 77 10000 1.34 341 12:57 08.01.2021
3954 Clouds -1 1016 76 10000 1.34 338 12:39 08.01.2021
3955 Clouds -1 1016 71 10000 1.34 261 12:19 08.01.2021
3956 Clouds -1 1016 72 10000 0.89 146 11:42 08.01.2021
3957 Clouds -2 1016 77 10000 1.24 235 11:22 08.01.2021
3958 Clouds -2 1016 86 10000 1.24 235 10:46 08.01.2021
3959 Clouds -3 1016 89 10000 1.57 207 10:24 08.01.2021
3960 Clouds -3 1016 90 10000 0.45 173 09:43 08.01.2021
3961 Clouds -4 1014 53 10000 1.34 214 09:21 08.01.2021
3962 Clouds -5 1004 100 10000 2.02 191 07:56 08.01.2021
3963 Clouds -3 1013 69 10000 0.89 225 07:25 08.01.2021
3964 Clouds -5 1011 93 10000 0.45 90 04:20 08.01.2021
3965 Clouds -3 1013 65 10000 2.01 187 23:45 07.01.2021
3966 Clouds -3 1013 64 10000 2.03 188 23:27 07.01.2021
3967 Clouds -3 929 81 10000 2.03 188 22:38 07.01.2021
3968 Clear -4 1012 57 10000 1.99 187 21:53 07.01.2021
3969 Clear -4 1012 58 10000 0.89 231 21:34 07.01.2021
3970 Clouds -4 1004 100 10000 1.91 183 20:57 07.01.2021
3971 Clouds -5 1012 63 10000 1.91 183 20:38 07.01.2021
3972 Clouds -3 1010 90 10000 0.45 180 20:18 07.01.2021
3973 Clouds -3 1010 89 10000 1.76 181 19:38 07.01.2021
3974 Clear -3 1012 58 10000 1.67 179 18:50 07.01.2021
3975 Clear -4 1010 85 10000 0.45 90 18:22 07.01.2021
3976 Clear -4 1004 100 10000 1.38 184 17:36 07.01.2021
3977 Clear -4 1010 82 10000 0.45 118 17:18 07.01.2021
3978 Clear -3 1010 77 10000 0.45 125 16:45 07.01.2021
3979 Clear -1 1014 81 10000 1.34 331 16:20 07.01.2021
3980 Clear -1 1011 71 10000 2.68 316 15:31 07.01.2021
3981 Clear 0 1011 72 10000 0.89 17 14:42 07.01.2021
3982 Clear 0 1011 72 10000 0.89 17 14:22 07.01.2021
3983 Clear 0 1011 67 10000 0.89 2 13:31 07.01.2021
3984 Clear 0 1011 67 10000 0.89 2 12:57 07.01.2021
3985 Clear 0 1012 73 10000 0.45 86 12:29 07.01.2021
3986 Clear -1 1012 73 10000 0.45 86 11:51 07.01.2021
3987 Clear -2 1012 79 10000 0.45 264 11:30 07.01.2021
3988 Clear -2 1012 84 10000 0.45 228 10:47 07.01.2021
3989 Clear -3 1012 84 10000 0.45 228 10:19 07.01.2021
3990 Clear -4 1012 87 10000 1.43 172 09:44 07.01.2021
3991 Clear -4 1012 87 10000 1.92 170 09:18 07.01.2021
3992 Clear -4 1015 93 10000 1.97 176 08:25 07.01.2021
3993 Clear -4 1015 93 10000 1.34 151 07:44 07.01.2021
3994 Clouds -4 1015 92 10000 0.45 144 06:52 07.01.2021
3995 Clouds -3 1013 64 10000 1.34 226 03:34 07.01.2021
3996 Clouds -3 1015 92 10000 0.45 190 00:25 07.01.2021
3997 Clouds -3 1012 87 10000 0.45 238 23:36 06.01.2021
3998 Clouds -3 1012 89 10000 0.45 174 22:37 06.01.2021
3999 Clouds -3 1012 87 10000 1.92 212 21:42 06.01.2021
4000 Clouds -3 1012 87 10000 1.94 211 21:22 06.01.2021
4001 Clouds -3 1012 87 10000 1.94 211 20:50 06.01.2021
4002 Clouds -3 1011 85 7724 0.89 220 20:23 06.01.2021
4003 Clouds -2 1011 85 7724 0.89 220 19:49 06.01.2021
4004 Clouds -2 1011 87 10000 1.82 216 19:29 06.01.2021
4005 Clouds -2 1011 87 4125 1.59 219 18:52 06.01.2021
4006 Clouds -2 1010 87 4125 0.45 172 18:34 06.01.2021
4007 Clouds -2 1010 87 1697 0.45 172 17:59 06.01.2021
4008 Clouds -2 1010 80 1697 1.34 220 17:41 06.01.2021
4009 Snow -2 1010 80 531 1.34 220 17:21 06.01.2021
4010 Snow -1 1010 77 531 0.89 174 16:38 06.01.2021
4011 Snow -1 1010 77 531 0.89 174 16:38 06.01.2021
4012 Snow -1 1010 77 332 0.89 174 16:18 06.01.2021
4013 Snow -1 1009 71 332 0.45 194 15:46 06.01.2021
4014 Snow -1 1009 71 318 0.45 194 15:24 06.01.2021
4015 Snow -1 1009 69 318 1.28 277 14:36 06.01.2021
4016 Snow -1 1009 69 352 1.41 284 13:55 06.01.2021
4017 Clouds -1 1009 81 468 0.45 241 13:27 06.01.2021
4018 Clouds -1 1009 81 468 0.45 241 12:58 06.01.2021
4019 Snow -2 1009 73 336 0.89 123 12:32 06.01.2021
4020 Snow -2 1010 81 510 0.45 183 11:46 06.01.2021
4021 Snow -2 1010 81 360 0.45 183 11:23 06.01.2021
4022 Snow -3 1009 90 360 0.89 207 10:44 06.01.2021
4023 Snow -3 1009 90 219 0.89 207 09:52 06.01.2021
4024 Snow -4 1009 93 219 0.45 231 09:32 06.01.2021
4025 Snow -4 1009 93 262 0.45 231 08:52 06.01.2021
4026 Snow -4 1008 88 236 1.23 221 08:19 06.01.2021
4027 Snow -4 1008 88 236 1.23 221 07:52 06.01.2021
4028 Snow -4 1008 86 216 1.22 224 06:44 06.01.2021
4029 Clouds -5 1008 87 8147 0.45 229 05:29 06.01.2021
4030 Clouds -5 1008 87 9514 1.25 206 04:18 06.01.2021
4031 Clouds -4 1008 83 10000 0.45 57 02:43 06.01.2021
4032 Snow -4 1008 83 10000 0.45 57 02:20 06.01.2021
4033 Clouds -4 1008 78 10000 1.02 202 23:51 05.01.2021
4034 Snow -4 1008 80 10000 0.89 150 22:57 05.01.2021
4035 Snow -4 1009 83 10000 0.45 227 22:38 05.01.2021
4036 Clouds -4 1009 83 10000 0.45 227 22:19 05.01.2021
4037 Clouds -4 1009 82 10000 0.45 247 21:26 05.01.2021
4038 Clouds -4 1008 83 10000 0.45 204 20:31 05.01.2021
4039 Clouds -4 1008 83 10000 0.45 204 19:57 05.01.2021
4040 Clouds -4 1008 80 10000 0.89 169 19:38 05.01.2021
4041 Clouds -4 1008 80 10000 0.89 169 19:18 05.01.2021
4042 Clouds -3 1009 77 10000 0.86 157 18:42 05.01.2021
4043 Clouds -4 1009 77 10000 1.13 142 18:18 05.01.2021
4044 Clouds -4 1008 79 10000 0.89 27 17:40 05.01.2021
4045 Clouds -4 1008 79 10000 0.89 27 17:20 05.01.2021
4046 Clouds -4 1008 79 10000 1.34 320 16:39 05.01.2021
4047 Clouds -4 1008 79 10000 1.34 320 16:20 05.01.2021
4048 Clouds -3 1008 75 10000 0.45 9 15:44 05.01.2021
4049 Clear -3 1011 83 10000 0.89 334 14:49 05.01.2021
4050 Clear -3 1009 54 10000 1.18 25 14:19 05.01.2021
4051 Clear -2 1011 88 10000 1.18 25 13:44 05.01.2021
4052 Clear -3 1009 79 10000 0.45 157 13:20 05.01.2021
4053 Clouds -3 1009 59 10000 0.99 1 12:46 05.01.2021
4054 Clouds -3 1009 60 10000 0.72 28 12:21 05.01.2021
4055 -273 0 0 0 0 0 11:34 05.01.2021
4056 -273 0 0 0 0 0 11:32 05.01.2021
4057 Clouds -4 1010 62 10000 0.72 28 11:32 05.01.2021
4058 Clouds -4 1009 88 10000 0.45 220 10:46 05.01.2021
4059 Clouds -5 1009 88 10000 0.45 220 10:25 05.01.2021
4060 Clouds -6 1009 85 10000 0.45 219 09:47 05.01.2021
4061 Clouds -7 1009 85 10000 0.45 219 09:26 05.01.2021
4062 Clouds -7 1009 89 10000 0.45 250 08:23 05.01.2021
4063 Clouds -7 1008 90 10000 1.71 192 06:39 05.01.2021
4064 Clouds -5 1007 85 10000 0.89 208 03:42 05.01.2021
4065 Clouds -4 1007 89 10000 0.89 204 00:28 05.01.2021
4066 Clouds -4 1008 85 10000 0.45 181 23:43 04.01.2021
4067 Clouds -4 1008 85 10000 0.45 181 23:24 04.01.2021
4068 Clouds -4 1008 83 10000 0.45 245 22:46 04.01.2021
4069 Clouds -4 1008 83 10000 0.45 245 22:46 04.01.2021
4070 Clouds -4 1008 83 10000 0.45 245 22:21 04.01.2021
4071 Clouds -4 1007 85 10000 0.45 296 21:42 04.01.2021
4072 Clouds -3 1007 85 10000 0.45 296 21:22 04.01.2021
4073 Clouds -3 1008 85 10000 0.89 215 20:42 04.01.2021
4074 Clouds -3 1008 85 10000 0.89 215 20:21 04.01.2021
4075 Clouds -4 1008 85 10000 0.45 219 19:43 04.01.2021
4076 Clouds -4 1008 85 10000 0.45 219 19:19 04.01.2021
4077 Clouds -3 1008 84 10000 1.44 142 18:46 04.01.2021
4078 Clouds -3 1008 84 10000 1.39 136 17:59 04.01.2021
4079 Clouds -2 1008 87 10000 0.45 238 17:39 04.01.2021
4080 Clouds -2 1008 87 10000 0.45 238 17:21 04.01.2021
4081 Clouds -2 1007 77 10000 0.45 245 16:42 04.01.2021
4082 Clouds -2 1007 77 10000 0.45 245 16:24 04.01.2021
4083 Clouds -2 1008 74 10000 0.89 2 15:48 04.01.2021
4084 Clouds -2 1008 74 10000 0.89 2 15:24 04.01.2021
4085 Clouds -1 1008 70 10000 0.45 35 13:58 04.01.2021
4086 Clouds -1 1011 81 10000 0.45 21 13:36 04.01.2021
4087 Clouds -1 1011 81 10000 0.56 38 12:57 04.01.2021
4088 Clouds -2 1011 82 10000 0.45 228 12:30 04.01.2021
4089 Clouds -2 926 76 10000 0.58 67 11:45 04.01.2021
4090 Clouds -2 1010 53 10000 1.34 74 11:19 04.01.2021
4091 Clouds -4 1012 88 10000 0.54 119 10:45 04.01.2021
4092 Clouds -4 1012 88 10000 1.24 157 10:23 04.01.2021
4093 Clouds -5 1009 80 10000 0.89 244 09:44 04.01.2021
4094 Clouds -5 1009 80 10000 0.89 244 09:18 04.01.2021
4095 Clouds -4 1009 82 10000 0.45 268 08:23 04.01.2021
4096 Clouds -4 1009 84 10000 0.45 216 07:47 04.01.2021
4097 Clouds -3 1009 80 10000 0.45 251 05:42 04.01.2021
4098 Clouds -3 1009 80 10000 0.45 251 05:20 04.01.2021
4099 Clouds -2 1009 79 10000 1.54 165 02:26 04.01.2021
4100 Clouds -2 1009 84 10000 1.44 158 00:24 04.01.2021
4101 Clouds -2 1012 92 10000 1.44 158 23:37 03.01.2021
4102 Clouds -2 1012 92 10000 1.61 168 22:58 03.01.2021
4103 Clouds -2 1012 93 10000 1.61 168 22:39 03.01.2021
4104 Clouds -2 1012 93 10000 1.61 168 22:39 03.01.2021
4105 Clouds -2 1013 93 10000 1.66 172 22:21 03.01.2021
4106 Clouds -2 1009 85 10000 1.66 172 21:40 03.01.2021
4107 Clouds -2 1009 85 10000 1.22 177 21:22 03.01.2021
4108 Clouds -2 1009 86 10000 1.22 177 20:40 03.01.2021
4109 Clouds -2 1009 86 10000 0.88 173 20:18 03.01.2021
4110 Clouds -2 1009 85 10000 0.88 173 19:44 03.01.2021
4111 Clouds -2 1009 85 10000 0.84 161 19:24 03.01.2021
4112 Clouds -2 1008 85 10000 0.84 161 18:45 03.01.2021
4113 Clouds -2 1008 85 10000 0.75 164 18:23 03.01.2021
4114 Clouds -2 1008 84 10000 0.75 164 17:51 03.01.2021
4115 Clouds -2 1008 84 10000 0.37 130 17:27 03.01.2021
4116 Clouds -2 1008 84 10000 0.37 130 16:54 03.01.2021
4117 Clouds -1 1007 83 10000 0.45 351 16:36 03.01.2021
4118 Clouds -1 1007 83 10000 0.45 351 16:18 03.01.2021
4119 Clouds -1 1007 82 10000 0.26 67 15:39 03.01.2021
4120 Clouds -1 1007 82 10000 0.31 20 14:59 03.01.2021
4121 Clouds -1 1007 83 10000 0.45 46 14:33 03.01.2021
4122 Clouds -1 1007 85 10000 0.45 15 13:48 03.01.2021
4123 Clouds -1 1007 85 10000 0.45 15 13:24 03.01.2021
4124 Clouds -1 1007 85 10000 0.45 15 13:24 03.01.2021
4125 Clouds -1 1007 86 10000 0.27 342 12:51 03.01.2021
4126 Clouds -2 1007 88 10000 0.45 294 11:44 03.01.2021
4127 Clouds -2 1007 88 10000 0.45 294 11:25 03.01.2021
4128 Clouds -2 1007 88 10000 0.45 294 10:55 03.01.2021
4129 Clouds -2 1007 88 10000 0.45 268 10:30 03.01.2021
4130 Clouds -2 1007 88 10000 0.87 196 09:41 03.01.2021
4131 Clouds -2 1007 88 10000 1.19 180 09:23 03.01.2021
4132 Clouds -3 1009 95 10000 1.03 178 07:54 03.01.2021
4133 Clouds -3 1006 91 10000 0.89 312 05:59 03.01.2021
4134 Clouds -3 1006 93 10000 0.45 17 02:28 03.01.2021
4135 Clouds -3 1006 94 10000 0.45 344 01:47 03.01.2021
4136 Clouds -3 1006 94 10000 0.45 344 01:47 03.01.2021
4137 Clouds -3 1006 93 10000 0.45 324 00:21 03.01.2021
4138 Clouds -3 1006 94 10000 0.45 329 23:30 02.01.2021
4139 Clouds -3 1006 94 9987 0.45 329 22:56 02.01.2021
4140 Clouds -2 1006 93 9987 1.79 337 22:32 02.01.2021
4141 Clouds -2 1006 93 9994 1.79 337 21:52 02.01.2021
4142 Clouds -2 1006 93 9994 0.45 25 21:32 02.01.2021
4143 Clouds -2 1006 93 10000 0.45 25 20:55 02.01.2021
4144 Clouds -2 1006 91 10000 0.89 4 20:36 02.01.2021
4145 Snow -2 1006 91 10000 0.89 4 20:18 02.01.2021
4146 Clouds -2 1006 90 6983 1.34 358 19:20 02.01.2021
4147 Clouds -2 1006 90 6983 1.34 358 18:58 02.01.2021
4148 Clouds -1 1006 86 8835 1.79 326 18:39 02.01.2021
4149 Clouds -1 1006 86 8382 1.79 326 18:19 02.01.2021
4150 Clouds -1 1006 85 8382 0.45 359 17:43 02.01.2021
4151 Clouds -1 1006 85 10000 0.45 359 16:58 02.01.2021
4152 Clouds -1 1006 81 10000 0.89 350 16:23 02.01.2021
4153 Clouds -1 1006 81 10000 0.89 350 15:54 02.01.2021
4154 Clouds 0 1006 77 10000 0.45 340 15:32 02.01.2021
4155 Clouds 0 1006 77 10000 0.45 340 14:55 02.01.2021
4156 Clouds 1 1006 71 10000 0.45 296 14:35 02.01.2021
4157 Clouds 0 1006 71 10000 0.45 296 13:49 02.01.2021
4158 Clouds 0 1007 71 10000 1.39 63 13:18 02.01.2021
4159 Clouds 0 1007 70 10000 0.45 87 12:43 02.01.2021
4160 Clouds 0 1007 70 10000 0.45 87 12:24 02.01.2021
4161 Clouds 0 1008 70 10000 0.45 79 11:43 02.01.2021
4162 Clouds 0 1008 70 10000 0.45 79 11:21 02.01.2021
4163 Clouds -1 1008 77 10000 0.45 70 10:42 02.01.2021
4164 Clouds -2 1008 77 10000 0.45 70 10:24 02.01.2021
4165 Clouds -2 1008 83 10000 0.45 203 09:43 02.01.2021
4166 Clouds -2 1008 83 10000 0.45 203 09:21 02.01.2021
4167 Clouds -2 1008 83 10000 0.45 203 08:49 02.01.2021
4168 Clouds -2 1008 82 10000 0.45 150 08:19 02.01.2021
4169 Clouds -2 1008 80 10000 0.45 157 07:25 02.01.2021
4170 Clouds -2 1008 80 10000 0.45 157 06:58 02.01.2021
4171 Clouds -2 1007 80 10000 1.17 115 06:18 02.01.2021
4172 Clouds -2 1008 85 10000 0.45 230 04:26 02.01.2021
4173 Clouds -3 1008 85 10000 1.1 148 00:49 02.01.2021
4174 Clouds -3 1008 85 10000 1.22 157 00:28 02.01.2021
4175 Clouds -3 1007 86 10000 0.45 223 23:39 01.01.2021
4176 Clouds -3 1007 86 10000 0.45 223 23:19 01.01.2021
4177 Clouds -2 1007 83 10000 1.14 164 22:46 01.01.2021
4178 Clouds -2 1007 83 10000 1.21 144 22:21 01.01.2021
4179 Clouds -3 1007 86 10000 0.45 134 21:43 01.01.2021
4180 Clouds -3 1007 86 10000 0.45 134 21:20 01.01.2021
4181 Clouds -3 1007 86 10000 0.45 134 20:51 01.01.2021
4182 Clouds -3 1007 86 10000 1.32 150 20:19 01.01.2021
4183 Clouds -3 1007 85 10000 0.45 270 19:42 01.01.2021
4184 Clouds -3 1007 85 10000 0.45 270 19:22 01.01.2021
4185 Clouds -3 1006 86 10000 1.27 152 18:48 01.01.2021
4186 Clouds -3 1006 86 10000 1.04 134 18:29 01.01.2021
4187 Clouds -3 1006 86 10000 1.04 134 17:50 01.01.2021
4188 Clouds -2 1006 82 10000 0.68 123 17:24 01.01.2021
4189 Clouds -2 1006 82 10000 0.68 123 16:53 01.01.2021
4190 Clouds 0 1006 69 10000 0.45 82 16:29 01.01.2021
4191 Clouds 0 1005 66 10000 0.9 44 15:43 01.01.2021
4192 Clouds 0 1005 66 10000 0.9 13 14:51 01.01.2021
4193 Clouds 0 1005 72 10000 0.9 13 14:32 01.01.2021
4194 Clouds 2 922 56 10000 0.68 10 13:42 01.01.2021
4195 Clouds 2 922 55 10000 0.83 66 13:23 01.01.2021
4196 Clouds 2 1006 44 10000 0.85 72 12:37 01.01.2021
4197 Clouds 2 1006 77 10000 0.71 106 12:18 01.01.2021
4198 Clouds 2 1007 52 10000 0.71 106 11:39 01.01.2021
4199 Clouds 0 1002 76 10000 0.93 142 11:18 01.01.2021
4200 Clouds 1 1002 75 10000 0.93 142 10:34 01.01.2021
4201 Clouds -1 1008 89 10000 1.41 164 09:46 01.01.2021
4202 Clouds -4 1007 90 10000 0.89 160 08:54 01.01.2021
4203 Clouds -5 1005 89 10000 1.98 163 08:25 01.01.2021
4204 Clouds -4 1004 86 10000 0.45 134 04:52 01.01.2021
4205 Clouds -5 1004 89 10000 2.99 167 02:26 01.01.2021
4206 Clouds -4 1004 88 10000 0.89 178 00:41 01.01.2021
4207 Clouds -4 1004 88 10000 0.89 178 00:21 01.01.2021
4208 Clouds -4 1005 88 10000 0.45 214 23:22 31.12.2020
4209 Clouds -3 1005 88 10000 0.45 214 22:56 31.12.2020
4210 Clouds -3 1005 85 10000 0.89 290 22:38 31.12.2020
4211 Clouds -3 1005 85 10000 0.89 290 22:19 31.12.2020
4212 Clouds -3 1005 88 10000 2.82 165 21:46 31.12.2020
4213 Clouds -3 1005 88 10000 3.01 182 21:23 31.12.2020
4214 Snow -3 1004 86 10000 3.01 182 20:48 31.12.2020
4215 Snow -3 1004 86 10000 2.87 168 20:18 31.12.2020
4216 Clouds -3 1003 86 10000 0.45 241 19:45 31.12.2020
4217 Clouds -3 1003 86 10000 0.45 241 19:24 31.12.2020
4218 Clouds -3 1003 88 10000 0.89 159 18:42 31.12.2020
4219 Clouds -3 1003 88 10000 0.89 159 18:23 31.12.2020
4220 Clouds -2 1004 83 10000 0.45 129 17:44 31.12.2020
4221 Clouds -2 1004 83 10000 0.45 129 17:22 31.12.2020
4222 Clouds -1 1003 76 10000 0.45 173 16:43 31.12.2020
4223 Clouds -1 1003 76 10000 0.45 173 16:22 31.12.2020
4224 Clouds 0 1004 69 10000 0.89 220 15:45 31.12.2020
4225 Clouds 0 1004 69 10000 0.89 220 15:22 31.12.2020
4226 Clouds 0 1004 69 10000 0.89 220 14:56 31.12.2020
4227 Snow 0 1004 67 10000 1.07 193 14:37 31.12.2020
4228 Clouds 0 1004 67 10000 1.2 190 14:19 31.12.2020
4229 Clouds 1 1004 51 10000 0.89 62 13:38 31.12.2020
4230 Clouds 3 1006 79 10000 1.77 162 13:19 31.12.2020
4231 Clouds 2 1006 83 10000 1.77 162 12:53 31.12.2020
4232 Clouds 1 1007 84 10000 1.9 166 12:35 31.12.2020
4233 Clouds 3 922 57 10000 2.29 159 11:51 31.12.2020
4234 Clouds 0 998 100 10000 2.29 159 11:32 31.12.2020
4235 Clouds 0 998 100 10000 2.29 159 11:32 31.12.2020
4236 Clouds -1 1006 72 10000 0.45 180 10:49 31.12.2020
4237 Clouds 0 1006 74 10000 0.45 180 10:29 31.12.2020
4238 Clouds -1 923 83 10000 0.45 315 09:56 31.12.2020
4239 Clouds -3 1006 78 10000 0.45 135 09:34 31.12.2020
4240 Clouds -6 1009 93 10000 0.89 168 08:50 31.12.2020
4241 Clouds -6 923 86 10000 3.15 161 08:32 31.12.2020
4242 Clear -6 1009 93 10000 1.34 149 07:57 31.12.2020
4243 Clear -6 1007 90 10000 0.45 191 07:28 31.12.2020
4244 Clear -4 1007 93 10000 1.34 224 05:31 31.12.2020
4245 Clear -2 1007 91 10000 0.45 105 03:40 31.12.2020
4246 Clear -1 1010 94 10000 2.24 164 02:45 31.12.2020
4247 Clear -1 1010 93 10000 2.04 172 02:25 31.12.2020
4248 Clear -1 1010 93 10000 2.04 172 01:43 31.12.2020
4249 Clouds -1 1010 93 10000 1.85 184 01:22 31.12.2020
4250 Clouds -1 1010 93 10000 2.05 177 00:43 31.12.2020
4251 Clouds -1 1010 93 10000 1.8 185 23:43 30.12.2020
4252 Clouds -1 1011 93 10000 1.76 185 23:19 30.12.2020
4253 Clouds -1 1007 90 10000 1.76 185 22:45 30.12.2020
4254 Snow -1 1007 90 10000 1.91 188 22:27 30.12.2020
4255 Clear -1 1007 93 10000 1.91 188 21:39 30.12.2020
4256 Clouds -1 1007 93 10000 2.04 191 21:20 30.12.2020
4257 Clouds -1 1010 92 10000 0.89 344 20:41 30.12.2020
4258 Clouds -1 1010 92 10000 1.96 197 20:20 30.12.2020
4259 Clouds -1 1009 92 10000 0.45 355 19:39 30.12.2020
4260 Clouds -1 1009 92 10000 1.79 200 19:20 30.12.2020
4261 Clouds -1 1009 91 10000 0.45 252 18:44 30.12.2020
4262 Clouds -1 1009 92 10000 1.43 209 18:24 30.12.2020
4263 Clouds -1 1008 91 10000 0.45 130 17:50 30.12.2020
4264 Clouds 0 1008 91 10000 0.45 130 17:31 30.12.2020
4265 Clouds 1 1008 89 10000 0.45 129 16:52 30.12.2020
4266 Snow 1 1008 88 2167 0.45 342 16:27 30.12.2020
4267 Snow 1 1007 85 2167 0.69 278 15:45 30.12.2020
4268 Snow 1 1007 84 661 0.45 274 15:24 30.12.2020
4269 Snow 1 1006 84 661 1.34 339 14:43 30.12.2020
4270 Snow 1 1006 84 2243 0.89 337 14:22 30.12.2020
4271 Clouds 1 1006 82 7623 0.45 224 13:26 30.12.2020
4272 Clouds 2 1006 82 5504 0.77 340 12:28 30.12.2020
4273 Clouds 1 1006 81 5504 0.77 340 11:50 30.12.2020
4274 Clouds 0 1006 86 9667 0.28 167 11:25 30.12.2020
4275 Clouds -1 1006 88 9667 0.89 144 10:59 30.12.2020
4276 Clouds -2 1005 88 9667 1.34 149 10:39 30.12.2020
4277 Clouds -2 1006 90 7711 0.45 156 10:20 30.12.2020
4278 Clouds -1 1005 92 7711 1.15 175 09:47 30.12.2020
4279 Clouds -4 1002 90 10000 0.45 91 09:18 30.12.2020
4280 Clouds -4 1002 90 10000 0.45 91 08:23 30.12.2020
4281 Clouds -4 1002 89 10000 0.45 164 07:28 30.12.2020
4282 Clouds -5 1001 88 10000 0.45 123 06:43 30.12.2020
4283 Clouds -4 1001 88 10000 0.45 123 05:50 30.12.2020
4284 Clouds -4 917 87 10000 1.6 166 05:31 30.12.2020
4285 Clouds -4 1001 93 10000 0.45 212 03:45 30.12.2020
4286 Clouds -4 1001 93 4044 0.45 212 03:25 30.12.2020
4287 Clouds -4 1000 92 4044 1.74 151 02:36 30.12.2020
4288 Clouds -4 1000 92 2356 1.75 152 01:50 30.12.2020
4289 Clouds -4 1000 92 2356 1.34 214 01:31 30.12.2020
4290 Clouds -2 1002 94 10000 1.53 159 00:47 30.12.2020
4291 Clouds -2 1002 94 5488 0.89 145 00:27 30.12.2020
4292 Clouds -2 1002 94 5488 0.89 153 23:52 29.12.2020
4293 Clouds -3 1000 96 5488 1.78 158 23:34 29.12.2020
4294 Clouds -2 1000 96 10000 1.97 159 22:50 29.12.2020
4295 Clouds -2 999 93 10000 1.97 159 22:31 29.12.2020
4296 Snow -2 999 93 10000 1.82 181 21:56 29.12.2020
4297 Snow -1 999 93 10000 1.82 181 21:38 29.12.2020
4298 Snow -1 999 93 10000 1.88 195 21:20 29.12.2020
4299 Snow -2 999 92 10000 0.89 92 20:43 29.12.2020
4300 Snow -2 999 92 10000 0.89 92 20:25 29.12.2020
4301 Snow -1 998 95 10000 0.89 186 19:45 29.12.2020
4302 Snow -1 998 95 10000 0.89 186 19:22 29.12.2020
4303 Clouds -1 998 95 6025 0.89 186 18:53 29.12.2020
4304 Clouds -2 997 92 10000 1.49 163 18:28 29.12.2020
4305 Clouds -1 996 90 10000 0.45 78 17:47 29.12.2020
4306 Clouds -1 996 90 10000 0.45 78 17:23 29.12.2020
4307 Clouds -1 996 90 10000 0.45 78 16:55 29.12.2020
4308 Clouds -1 996 88 10000 0.26 133 16:26 29.12.2020
4309 Clouds 0 995 88 10000 0.45 164 15:46 29.12.2020
4310 Clouds 0 995 88 10000 0.45 164 15:26 29.12.2020
4311 Clouds 0 995 83 10000 0.54 320 14:45 29.12.2020
4312 Clouds 0 995 83 10000 1.05 288 14:27 29.12.2020
4313 Clouds 0 995 83 10000 1.05 288 13:55 29.12.2020
4314 Clouds 1 995 82 10000 1.47 286 13:24 29.12.2020
4315 Clouds 2 995 42 10000 1.34 229 12:45 29.12.2020
4316 Clouds 1 996 91 10000 2.24 217 12:26 29.12.2020
4317 Clouds 2 910 63 10000 0.45 337 11:58 29.12.2020
4318 Clouds 2 995 77 10000 0.45 248 11:32 29.12.2020
4319 Clouds 2 910 73 10000 1.7 203 10:40 29.12.2020
4320 Clouds 0 994 93 10000 0.45 158 10:19 29.12.2020
4321 Clouds -4 992 92 10000 0.45 275 09:39 29.12.2020
4322 Clouds -5 992 92 10000 0.45 275 09:18 29.12.2020
4323 Clouds -6 991 92 10000 0.45 262 08:45 29.12.2020
4324 Clouds -5 991 94 10000 3.42 173 07:35 29.12.2020
4325 Clouds -5 990 94 10000 0.45 154 06:58 29.12.2020
4326 Clouds -5 987 92 10000 0.45 235 05:33 29.12.2020
4327 Clouds -3 986 91 10000 0.89 128 01:36 29.12.2020
4328 Snow -3 985 92 10000 0.45 192 00:24 29.12.2020
4329 Snow -4 984 90 10000 0.89 141 23:37 28.12.2020
4330 Clouds -4 984 91 10000 0.89 169 22:41 28.12.2020
4331 Clouds -3 984 93 10000 0.45 73 21:47 28.12.2020
4332 Clouds -2 984 93 10000 0.45 73 21:29 28.12.2020
4333 Clouds -2 984 94 10000 1.79 214 20:47 28.12.2020
4334 Snow -1 984 94 10000 1.79 214 20:29 28.12.2020
4335 Snow -1 984 94 10000 1.79 214 19:59 28.12.2020
4336 Snow 0 985 89 10000 1.34 160 19:40 28.12.2020
4337 Snow 0 985 89 493 1.34 160 19:20 28.12.2020
4338 Snow 0 985 95 493 0.89 188 18:44 28.12.2020
4339 Snow 0 985 95 10000 0.89 188 18:23 28.12.2020
4340 Snow 0 985 95 10000 0.45 113 17:41 28.12.2020
4341 Snow 0 985 95 10000 0.45 113 17:18 28.12.2020
4342 Snow 0 983 97 10000 1.6 211 16:32 28.12.2020
4343 Snow 0 983 97 1539 1.35 279 15:58 28.12.2020
4344 Snow 0 983 94 1539 1.35 279 15:38 28.12.2020
4345 Snow 0 983 93 94 0.45 47 14:43 28.12.2020
4346 Snow 0 983 93 135 0.45 47 13:51 28.12.2020
4347 Snow 0 983 90 2942 0.45 21 13:23 28.12.2020
4348 Snow 0 982 85 146 0.45 267 12:38 28.12.2020
4349 Snow 0 982 85 181 0.45 267 12:18 28.12.2020
4350 Snow 0 983 90 181 0.89 191 11:42 28.12.2020
4351 Snow 0 983 90 3155 0.89 191 11:18 28.12.2020
4352 Snow -2 983 91 3155 0.45 233 10:38 28.12.2020
4353 Snow -2 983 91 5878 0.45 233 10:19 28.12.2020
4354 Snow -1 982 90 5878 1.93 212 09:38 28.12.2020
4355 Snow -1 982 90 10000 2.36 195 09:18 28.12.2020
4356 Snow -2 983 92 10000 2.24 150 06:55 28.12.2020
4357 Snow -2 983 91 10000 0.89 86 05:57 28.12.2020
4358 Clouds -2 984 92 10000 4.02 150 03:59 28.12.2020
4359 Clouds -2 986 92 10000 0.45 266 01:56 28.12.2020
4360 Clouds -1 986 92 10000 0.45 353 00:28 28.12.2020
4361 Snow -1 987 92 10000 0.45 220 23:37 27.12.2020
4362 Snow -2 987 92 10000 0.45 220 22:52 27.12.2020
4363 Snow -2 987 91 10000 0.45 87 21:55 27.12.2020
4364 Clouds -2 988 93 10000 0.45 71 21:24 27.12.2020
4365 Clouds -3 990 93 10000 0.45 295 20:37 27.12.2020
4366 Clouds -3 991 92 10000 0.45 239 19:24 27.12.2020
4367 Clouds -3 991 92 10000 0.45 239 18:52 27.12.2020
4368 Clouds -3 993 92 10000 0.45 90 18:24 27.12.2020
4369 Clouds -3 993 92 10000 0.45 90 17:59 27.12.2020
4370 Clouds -3 994 90 10000 0.89 133 17:39 27.12.2020
4371 Clouds -2 994 90 10000 0.89 133 17:18 27.12.2020
4372 Clouds -2 996 86 10000 0.45 155 16:25 27.12.2020
4373 Clouds -2 996 52 10000 2.71 160 15:34 27.12.2020
4374 Clouds -1 999 85 10000 1.83 151 14:56 27.12.2020
4375 Clouds 0 914 68 10000 1.83 151 14:38 27.12.2020
4376 Clouds 0 999 48 10000 1.02 171 13:39 27.12.2020
4377 Clouds 0 917 66 10000 0.45 337 12:59 27.12.2020
4378 Clouds -1 917 68 10000 2.24 315 12:28 27.12.2020
4379 Clouds -1 919 72 10000 0.89 337 11:42 27.12.2020
4380 Clouds -2 920 74 10000 1.94 170 11:21 27.12.2020
4381 Clear -3 1007 86 10000 2.1 100 10:45 27.12.2020
4382 Clouds -4 921 84 10000 1.79 315 10:21 27.12.2020
4383 Clouds -4 997 100 10000 1.92 184 09:39 27.12.2020
4384 Clouds -6 999 100 10000 2.2 178 08:28 27.12.2020
4385 Clouds -6 1011 88 10000 2.26 176 07:29 27.12.2020
4386 Clear -6 1009 42 10000 1.34 66 06:48 27.12.2020
4387 Clear -6 1011 46 10000 2.24 66 05:38 27.12.2020
4388 Clear -7 1014 79 10000 0.45 135 03:26 27.12.2020
4389 Clear -5 1015 67 10000 2.68 66 02:30 27.12.2020
4390 Clear -6 1015 81 10000 2.68 157 00:58 27.12.2020
4391 Clear -6 1008 100 10000 2.16 167 23:44 26.12.2020
4392 Clear -6 1019 81 10000 2.68 22 23:25 26.12.2020
4393 Clear -7 1019 88 10000 2.45 164 22:46 26.12.2020
4394 Clear -7 1019 88 10000 2.33 164 22:19 26.12.2020
4395 Clear -7 1019 88 10000 2.33 164 21:54 26.12.2020
4396 Clear -7 1020 88 10000 0.45 167 21:29 26.12.2020
4397 Clear -8 1021 88 10000 0.89 240 20:46 26.12.2020
4398 Clear -8 1021 88 10000 0.89 240 20:24 26.12.2020
4399 Clear -7 1021 88 10000 0.45 179 19:42 26.12.2020
4400 Clear -7 1021 88 10000 0.45 179 19:20 26.12.2020
4401 Clear -6 1021 89 10000 0.45 107 18:35 26.12.2020
4402 Clear -4 1021 85 10000 0.45 48 17:48 26.12.2020
4403 Clouds -4 1021 85 10000 0.45 48 17:29 26.12.2020
4404 Clouds -3 1022 80 10000 0.57 158 16:40 26.12.2020
4405 Clouds -3 1022 80 10000 0.19 65 16:19 26.12.2020
4406 Clouds -2 1022 78 10000 0.45 64 15:23 26.12.2020
4407 Clouds -2 1022 76 10000 0.45 70 14:41 26.12.2020
4408 Clear -2 1022 76 10000 0.45 70 14:20 26.12.2020
4409 Clear -1 1026 81 10000 0.45 304 13:39 26.12.2020
4410 Clouds -2 1022 84 10000 0.45 235 13:20 26.12.2020
4411 Clouds -1 1022 84 10000 0.45 235 12:42 26.12.2020
4412 Clouds -2 1022 84 10000 0.45 235 12:19 26.12.2020
4413 Clouds -2 1023 82 10000 0.33 172 11:42 26.12.2020
4414 Clouds -2 1023 82 10000 0.65 164 11:20 26.12.2020
4415 Clouds -2 1023 82 10000 0.65 164 10:49 26.12.2020
4416 Clouds -3 1023 85 10000 0.45 67 10:27 26.12.2020
4417 Clouds -3 1023 85 10000 0.45 67 09:49 26.12.2020
4418 Clouds -3 1023 89 10000 1.08 159 09:24 26.12.2020
4419 Clouds -3 1022 91 10000 0.45 288 08:20 26.12.2020
4420 Clouds -3 1022 92 10000 0.45 329 07:33 26.12.2020
4421 Clouds -6 1014 100 3284 0.85 178 06:19 26.12.2020
4422 Clouds -3 1023 93 6613 1.34 339 02:48 26.12.2020
4423 Clouds -2 1020 90 1353 1.34 347 00:41 26.12.2020
4424 Snow -2 1020 90 449 1.34 347 23:58 25.12.2020
4425 Snow -2 1019 90 449 1.34 333 23:38 25.12.2020
4426 Snow -2 1019 90 169 1.34 333 23:20 25.12.2020
4427 Snow -2 1019 94 120 1.34 333 22:28 25.12.2020
4428 Snow -2 1019 94 120 1.34 333 21:49 25.12.2020
4429 Snow -1 1018 95 120 1.34 327 21:31 25.12.2020
4430 Snow -1 1018 91 142 3.58 308 20:47 25.12.2020
4431 Snow -1 1018 91 162 3.58 308 20:28 25.12.2020
4432 Snow -1 1017 94 162 1.79 313 19:43 25.12.2020
4433 Snow -1 1017 94 180 1.79 313 18:56 25.12.2020
4434 Snow -1 1017 90 117 1.34 326 18:37 25.12.2020
4435 Snow 0 1016 89 106 1.79 286 17:35 25.12.2020
4436 Snow 0 1016 89 126 1.79 286 16:56 25.12.2020
4437 Snow 0 1016 92 126 3.13 314 16:26 25.12.2020
4438 Snow 0 1016 92 126 3.13 314 15:55 25.12.2020
4439 Snow 0 1015 95 126 1.34 329 15:34 25.12.2020
4440 Snow 0 1015 95 124 0.89 322 14:44 25.12.2020
4441 Snow 0 1015 95 125 0.89 322 14:21 25.12.2020
4442 Snow 0 1015 94 125 1.34 336 13:43 25.12.2020
4443 Snow 0 1015 94 133 1.34 336 13:25 25.12.2020
4444 Snow 0 1015 95 137 0.89 328 12:29 25.12.2020
4445 Snow 0 1015 95 137 0.89 328 11:50 25.12.2020
4446 Snow 0 1016 96 135 1.81 353 11:25 25.12.2020
4447 Snow 0 1016 96 135 1.81 353 10:49 25.12.2020
4448 Snow 0 1015 95 138 1.63 350 10:22 25.12.2020
4449 Snow 0 1015 92 140 0.45 75 09:27 25.12.2020
4450 Snow 0 1015 94 140 0.89 7 08:47 25.12.2020
4451 Snow 0 1015 94 121 0.89 7 07:52 25.12.2020
4452 Snow 0 1014 89 88 0.45 225 06:44 25.12.2020
4453 Clouds 2 1011 88 165 2.68 150 02:47 25.12.2020
4454 Clouds 3 1011 81 410 2.68 71 00:48 25.12.2020
4455 Clouds 4 1011 81 85 2.68 71 23:58 24.12.2020
4456 Rain 3 1010 94 443 0.45 295 23:22 24.12.2020
4457 Clouds 3 1010 92 443 0.89 219 22:37 24.12.2020
4458 Rain 4 1010 92 5940 0.89 219 22:18 24.12.2020
4459 Rain 4 1010 93 5940 1.93 247 21:32 24.12.2020
4460 Rain 4 1010 93 8759 0.45 184 20:19 24.12.2020
4461 Clouds 4 1010 93 9852 0.89 145 18:22 24.12.2020
4462 Rain 5 1010 93 9852 0.89 145 17:58 24.12.2020
4463 Clouds 5 1011 90 9852 0.89 210 17:36 24.12.2020
4464 Rain 6 1011 71 10000 1.34 175 16:28 24.12.2020
4465 Rain 6 1011 71 10000 1.34 175 15:58 24.12.2020
4466 Rain 7 1011 67 10000 0.45 100 15:40 24.12.2020
4467 Rain 7 1011 67 9955 0.45 100 15:18 24.12.2020
4468 Clouds 7 1012 67 9955 0.89 81 14:42 24.12.2020
4469 Clouds 7 1012 67 10000 0.89 81 14:23 24.12.2020
4470 Clouds 6 1012 92 10000 0.45 239 13:39 24.12.2020
4471 Clouds 6 1012 92 8931 0.45 239 13:20 24.12.2020
4472 Clouds 6 1012 89 8931 0.45 129 12:41 24.12.2020
4473 Clouds 6 1012 89 744 0.45 129 12:20 24.12.2020
4474 Clouds 5 1012 90 744 0.89 202 11:39 24.12.2020
4475 Clouds 5 1012 90 2649 0.89 202 11:20 24.12.2020
4476 Rain 5 1012 90 2649 0.89 202 10:49 24.12.2020
4477 Clouds 5 1013 90 2649 0.89 211 10:30 24.12.2020
4478 Clouds 4 1013 90 1762 0.89 211 09:51 24.12.2020
4479 Clouds 3 1013 93 415 3.13 176 09:23 24.12.2020
4480 Rain 3 1014 95 88 0.89 155 07:59 24.12.2020
4481 Rain 4 1015 89 88 2.32 231 07:38 24.12.2020
4482 Rain 4 1015 89 57 1.8 251 06:52 24.12.2020
4483 Rain 7 1014 79 10000 1.34 168 04:24 24.12.2020
4484 Clouds 7 1014 80 10000 2.24 82 01:53 24.12.2020
4485 Clouds 7 1013 80 10000 1.73 182 01:30 24.12.2020
4486 Clouds 7 1013 80 10000 1.73 182 00:55 24.12.2020
4487 Clouds 7 1014 79 10000 1.34 111 00:19 24.12.2020
4488 Clouds 7 1015 77 10000 0.45 265 23:40 23.12.2020
4489 Clouds 7 1015 77 10000 0.45 265 23:21 23.12.2020
4490 Clouds 8 1015 77 10000 0.45 265 22:50 23.12.2020
4491 Clouds 8 1015 78 10000 0.45 198 22:29 23.12.2020
4492 Clouds 9 1015 78 10000 0.45 198 21:49 23.12.2020
4493 Clouds 8 1015 77 10000 0.89 271 21:24 23.12.2020
4494 Clouds 8 1014 77 10000 2.03 197 20:49 23.12.2020
4495 Rain 7 1014 80 10000 1.34 167 20:31 23.12.2020
4496 Clouds 8 1014 80 10000 1.34 167 19:59 23.12.2020
4497 Clouds 8 1015 74 10000 1.88 200 19:38 23.12.2020
4498 Clouds 8 1015 74 10000 1.75 199 19:19 23.12.2020
4499 Clouds 8 1015 81 10000 1.34 165 18:46 23.12.2020
4500 Clouds 8 1015 81 10000 1.34 165 18:21 23.12.2020
4501 Clouds 8 1015 87 10000 1.88 222 17:37 23.12.2020
4502 Clouds 9 1015 87 10000 2.45 187 17:19 23.12.2020
4503 Clouds 10 1015 79 10000 0.89 108 16:42 23.12.2020
4504 Clouds 10 1015 79 10000 0.89 108 16:24 23.12.2020
4505 Clouds 10 1015 79 10000 0.89 108 15:50 23.12.2020
4506 Clouds 11 1015 78 10000 0.45 214 15:27 23.12.2020
4507 Clouds 11 1015 78 10000 0.45 214 14:58 23.12.2020
4508 Clouds 12 1015 66 10000 2.52 163 14:38 23.12.2020
4509 Clouds 12 1015 66 10000 1.76 185 14:20 23.12.2020
4510 Clouds 12 1015 72 10000 1.76 185 13:43 23.12.2020
4511 Clouds 11 1017 74 10000 0.45 218 13:19 23.12.2020
4512 Clouds 11 1017 74 10000 0.45 218 12:49 23.12.2020
4513 Clouds 11 1017 74 10000 0.45 218 12:24 23.12.2020
4514 Clouds 9 1018 82 10000 0.45 219 11:46 23.12.2020
4515 Clouds 9 1018 82 10000 0.45 219 11:19 23.12.2020
4516 Clouds 9 935 77 10000 1.71 201 10:43 23.12.2020
4517 Clouds 9 936 77 10000 0.45 337 10:25 23.12.2020
4518 Clouds 8 1019 77 10000 0.45 135 09:35 23.12.2020
4519 Clouds 7 1019 82 10000 0.45 112 08:48 23.12.2020
4520 Clouds 7 1018 58 10000 2.55 171 08:20 23.12.2020
4521 Clouds 7 936 79 10000 2.74 182 07:27 23.12.2020
4522 Clouds 7 936 80 10000 2.69 185 06:41 23.12.2020
4523 Clouds 8 1018 37 10000 1.79 205 05:39 23.12.2020
4524 Clouds 8 1018 37 10000 3.13 182 04:57 23.12.2020
4525 Clouds 6 1021 96 10000 0.45 206 00:34 23.12.2020
4526 Clouds 7 1021 96 10000 0.45 206 23:58 22.12.2020
4527 Clouds 7 1022 97 10000 0.89 162 23:33 22.12.2020
4528 Clouds 7 1022 95 10000 1.79 110 22:44 22.12.2020
4529 Clouds 7 1022 95 10000 1.79 110 22:26 22.12.2020
4530 Clouds 7 1022 95 10000 1.79 110 21:59 22.12.2020
4531 Clouds 8 1022 96 10000 0.89 207 21:41 22.12.2020
4532 Clouds 8 1022 96 10000 0.89 207 21:19 22.12.2020
4533 Clouds 8 1022 96 10000 0.89 226 20:48 22.12.2020
4534 Clouds 8 1022 96 10000 0.89 226 20:22 22.12.2020
4535 Clouds 8 1022 91 10000 0.89 214 19:44 22.12.2020
4536 Rain 8 1022 91 10000 0.89 214 19:22 22.12.2020
4537 Rain 8 1022 91 10000 0.89 214 18:55 22.12.2020
4538 Rain 8 1022 94 10000 0.89 208 18:30 22.12.2020
4539 Clouds 8 1022 94 9956 0.89 208 17:59 22.12.2020
4540 Clouds 9 1022 84 7958 0.89 237 17:26 22.12.2020
4541 Rain 10 1022 84 7958 0.89 237 16:56 22.12.2020
4542 Clouds 10 1022 85 7958 0.45 189 16:37 22.12.2020
4543 Rain 10 1022 85 5691 0.45 189 16:19 22.12.2020
4544 Rain 10 1022 85 5691 0.45 189 16:19 22.12.2020
4545 Rain 11 1021 77 5691 0.45 202 15:43 22.12.2020
4546 Clouds 11 1021 77 6279 0.45 202 15:23 22.12.2020
4547 Clouds 12 1021 79 6279 1.79 234 14:45 22.12.2020
4548 Clouds 12 1020 35 8394 4.02 211 14:27 22.12.2020
4549 Clouds 12 1020 36 8394 3.58 230 13:50 22.12.2020
4550 Clouds 12 1024 63 10000 1.34 202 13:20 22.12.2020
4551 Clouds 13 1022 64 10000 2.24 212 12:58 22.12.2020
4552 Clouds 13 1021 68 10000 0.45 132 12:39 22.12.2020
4553 Clouds 13 1021 68 10000 0.45 132 12:19 22.12.2020
4554 Clouds 12 1022 86 10000 0.45 140 11:42 22.12.2020
4555 Clouds 10 1022 86 10000 0.45 140 11:22 22.12.2020
4556 Clouds 10 1022 86 10000 0.45 140 10:55 22.12.2020
4557 Clouds 8 1021 99 10000 1.34 212 10:27 22.12.2020
4558 Clouds 8 1021 99 10000 1.34 212 09:58 22.12.2020
4559 Clouds 7 1021 99 10000 0.45 198 09:30 22.12.2020
4560 Clouds 8 1021 99 10000 0.45 198 08:59 22.12.2020
4561 Clouds 8 1021 100 10000 0.89 210 08:40 22.12.2020
4562 Clouds 8 1021 100 10000 0.89 210 08:19 22.12.2020
4563 Clouds 9 1022 81 10000 2.24 167 07:27 22.12.2020
4564 Clouds 8 1022 93 10000 2.24 172 06:36 22.12.2020
4565 Clouds 7 1019 99 10000 0.89 226 05:34 22.12.2020
4566 Clouds 6 1022 95 2509 3.22 197 02:35 22.12.2020
4567 Rain 6 1020 96 6944 0.89 214 00:30 22.12.2020
4568 Rain 6 1020 96 9458 0.89 214 23:51 21.12.2020
4569 Rain 5 1020 93 9438 0.89 169 23:22 21.12.2020
4570 Rain 5 1020 95 9438 0.45 151 22:37 21.12.2020
4571 Rain 5 1020 95 10000 0.45 151 22:19 21.12.2020
4572 Rain 5 1020 95 10000 0.45 151 22:19 21.12.2020
4573 Rain 5 1020 95 10000 0.45 151 22:19 21.12.2020
4574 Rain 4 1020 93 10000 0.89 207 21:48 21.12.2020
4575 Rain 4 1020 93 10000 0.89 207 21:30 21.12.2020
4576 Rain 4 1020 89 10000 0.45 252 20:45 21.12.2020
4577 Rain 4 1020 89 8419 0.45 252 20:21 21.12.2020
4578 Rain 4 1020 89 8419 0.45 252 19:54 21.12.2020
4579 Rain 5 1020 82 8419 0.45 113 19:36 21.12.2020
4580 Rain 5 1020 82 10000 0.45 113 19:18 21.12.2020
4581 Rain 5 1020 80 10000 2.32 188 18:44 21.12.2020
4582 Rain 5 1020 80 10000 1.63 186 18:25 21.12.2020
4583 Clouds 6 1022 83 10000 1.63 186 17:42 21.12.2020
4584 Clouds 6 1022 81 10000 0.45 163 17:23 21.12.2020
4585 Clouds 6 1022 82 10000 0.45 161 16:45 21.12.2020
4586 Clouds 6 1022 79 10000 0.45 161 16:21 21.12.2020
4587 Clouds 6 1023 80 10000 0.89 149 15:43 21.12.2020
4588 Clouds 6 1023 80 10000 0.45 142 14:58 21.12.2020
4589 Rain 6 1024 80 10000 1.27 182 14:36 21.12.2020
4590 Clouds 6 1024 80 10000 0.91 185 14:18 21.12.2020
4591 Clouds 5 1024 82 10000 0.91 185 13:41 21.12.2020
4592 Clouds 5 1022 78 10000 0.45 310 13:22 21.12.2020
4593 Clouds 5 1022 78 10000 0.45 310 12:42 21.12.2020
4594 Clouds 5 1022 78 10000 0.45 310 12:22 21.12.2020
4595 Clouds 4 1022 85 10000 0.45 212 11:43 21.12.2020
4596 Clouds 4 1022 85 10000 0.45 212 11:23 21.12.2020
4597 Clouds 4 1022 85 10000 0.45 212 11:23 21.12.2020
4598 Clouds 4 1022 85 10000 0.45 212 10:58 21.12.2020
4599 Clouds 3 1023 85 10000 1.34 151 10:39 21.12.2020
4600 Clouds 2 1023 85 10000 1.34 151 09:58 21.12.2020
4601 Clouds 1 1023 95 10000 0.45 189 09:40 21.12.2020
4602 Clouds 1 1023 95 10000 0.45 189 09:40 21.12.2020
4603 Clouds 1 1023 95 10000 0.45 189 09:22 21.12.2020
4604 Clouds 1 1025 91 10000 2.15 161 08:29 21.12.2020
4605 Clouds 1 1023 91 10000 0.45 201 07:27 21.12.2020
4606 Clouds 3 1023 86 10000 0.45 177 05:40 21.12.2020
4607 Clouds 3 1024 86 10000 1.44 172 04:31 21.12.2020
4608 Clouds 3 1023 79 233 1.25 166 00:37 21.12.2020
4609 Clouds 3 1023 79 193 1.37 169 23:51 20.12.2020
4610 Clouds 3 1023 79 290 0.45 218 23:21 20.12.2020
4611 Rain 3 1023 78 290 1.24 175 22:45 20.12.2020
4612 Clouds 2 1023 78 5233 1.16 193 22:26 20.12.2020
4613 Rain 2 1023 78 5233 1.16 193 21:58 20.12.2020
4614 Clouds 2 1022 84 5233 0.89 176 21:38 20.12.2020
4615 Clouds 2 1022 84 10000 0.89 176 21:18 20.12.2020
4616 Clouds 2 1022 82 10000 0.89 117 20:44 20.12.2020
4617 Clouds 2 1022 82 10000 0.89 117 20:21 20.12.2020
4618 Clouds 1 1021 85 10000 1.29 205 19:43 20.12.2020
4619 Clouds 2 1021 85 10000 1.38 216 19:22 20.12.2020
4620 Clouds 2 1021 85 10000 1.38 216 18:54 20.12.2020
4621 Clouds 2 1021 83 10000 0.45 140 18:36 20.12.2020
4622 Clouds 3 1020 78 10000 1.06 213 17:48 20.12.2020
4623 Clouds 4 1020 78 10000 0.95 218 17:29 20.12.2020
4624 Clouds 5 1020 78 10000 0.95 218 16:57 20.12.2020
4625 Clouds 6 1020 70 10000 0.95 218 16:38 20.12.2020
4626 Clouds 6 1020 70 10000 0.6 217 16:19 20.12.2020
4627 Clouds 7 1019 66 10000 0.6 217 15:37 20.12.2020
4628 Clouds 7 1019 66 10000 0.65 220 15:18 20.12.2020
4629 Clouds 6 1019 69 10000 0.65 220 14:38 20.12.2020
4630 Clouds 6 1019 69 10000 0.86 197 14:19 20.12.2020
4631 Clouds 6 1021 72 10000 0.45 161 13:41 20.12.2020
4632 Clouds 6 1021 74 10000 1.24 186 13:21 20.12.2020
4633 Clouds 7 1019 32 10000 1.22 209 12:49 20.12.2020
4634 Clouds 8 1019 33 10000 1.48 194 12:22 20.12.2020
4635 Clouds 7 937 57 10000 1.48 194 11:49 20.12.2020
4636 Clouds 6 1020 60 10000 1.91 177 11:26 20.12.2020
4637 Clouds 6 937 62 10000 1.91 177 10:49 20.12.2020
4638 Clouds 3 1020 68 10000 2.29 170 10:21 20.12.2020
4639 Clouds 5 937 81 10000 2.29 170 09:55 20.12.2020
4640 Mist 5 1021 100 3700 1 0 09:36 20.12.2020
4641 Mist 4 1021 100 4300 1 0 09:18 20.12.2020
4642 Mist 4 1021 100 2000 1.5 220 08:44 20.12.2020
4643 Mist 3 1021 100 2000 1.5 220 08:25 20.12.2020
4644 Clouds 0 1021 95 10000 2.62 161 07:21 20.12.2020
4645 Clear 1 1020 84 10000 0.45 189 02:47 20.12.2020
4646 Clouds 1 1020 83 10000 0.45 177 01:25 20.12.2020
4647 Clouds 2 1020 84 10000 0.45 155 23:41 19.12.2020
4648 Clouds 2 1020 84 10000 0.45 155 23:18 19.12.2020
4649 Clouds 2 1020 84 10000 0.45 155 23:18 19.12.2020
4650 Clouds 2 1020 84 10000 0.45 155 23:18 19.12.2020
4651 Clouds 2 1020 79 10000 2.6 168 22:44 19.12.2020
4652 Clouds 2 1020 79 10000 2.79 162 22:24 19.12.2020
4653 Clouds 2 1020 80 10000 2.79 162 21:45 19.12.2020
4654 Clouds 2 1020 80 10000 3.1 161 21:26 19.12.2020
4655 Clouds 2 1020 80 10000 3.1 161 20:59 19.12.2020
4656 Clouds 1 1020 82 10000 0.89 83 20:36 19.12.2020
4657 Clouds 1 1020 82 10000 0.89 83 20:18 19.12.2020
4658 Clouds 2 1020 77 10000 0.45 107 19:41 19.12.2020
4659 Clouds 2 1020 77 10000 0.45 107 19:23 19.12.2020
4660 Clear 2 1020 79 10000 3.09 165 18:34 19.12.2020
4661 Clear 2 1020 79 10000 2.91 168 17:57 19.12.2020
4662 Clear 3 1019 80 10000 0.45 173 17:36 19.12.2020
4663 Clear 3 1019 80 10000 0.45 173 17:18 19.12.2020
4664 Clear 5 1019 60 10000 0.45 204 16:40 19.12.2020
4665 Clear 6 1019 60 10000 0.45 204 16:22 19.12.2020
4666 Clear 7 1019 60 10000 0.45 204 15:54 19.12.2020
4667 Clear 9 1019 56 10000 0.45 233 15:21 19.12.2020
4668 Clear 9 1019 57 10000 0.89 242 14:38 19.12.2020
4669 Clear 8 1019 57 10000 0.89 242 13:58 19.12.2020
4670 Clear 9 1021 53 10000 0.89 135 13:37 19.12.2020
4671 Clear 8 1020 72 10000 0.45 225 13:18 19.12.2020
4672 Clear 7 1020 72 10000 0.45 225 12:42 19.12.2020
4673 Clear 6 1020 72 10000 0.45 225 12:24 19.12.2020
4674 Clear 6 1020 72 10000 0.45 225 11:53 19.12.2020
4675 Clear 5 1022 69 10000 2.46 171 11:32 19.12.2020
4676 Clear 6 938 60 10000 2.46 171 10:42 19.12.2020
4677 Clear 6 938 66 10000 0.45 315 10:19 19.12.2020
4678 Clear 5 937 87 10000 2.77 170 09:42 19.12.2020
4679 Fog 3 1021 100 350 1 0 08:59 19.12.2020
4680 Fog 0 1021 100 350 1.5 0 08:23 19.12.2020
4681 Clear 0 1019 76 10000 3.25 170 07:22 19.12.2020
4682 Clear 1 1021 90 10000 0.89 166 06:51 19.12.2020
4683 Clear 1 1022 91 10000 0.89 149 05:24 19.12.2020
4684 Clear 1 1022 90 10000 0.89 162 03:50 19.12.2020
4685 Clear 2 1023 91 10000 1.34 159 00:49 19.12.2020
4686 Clear 1 1023 90 10000 0.89 161 00:22 19.12.2020
4687 Clear 1 1023 91 10000 1.34 139 23:57 18.12.2020
4688 Clear 1 1024 90 10000 1.34 154 23:39 18.12.2020
4689 Clear 2 1024 90 10000 0.89 156 23:18 18.12.2020
4690 Clear 2 1024 90 10000 1.34 151 22:42 18.12.2020
4691 Clear 2 1024 91 10000 1.34 148 22:20 18.12.2020
4692 Clear 0 1022 91 10000 2.87 164 21:46 18.12.2020
4693 Clear 1 1022 91 10000 2.76 164 21:28 18.12.2020
4694 Clear 1 1022 88 10000 2.66 164 20:27 18.12.2020
4695 Clear 1 1022 88 10000 2.66 164 19:52 18.12.2020
4696 Clear 2 1022 87 10000 0.45 217 19:27 18.12.2020
4697 Clear 2 1022 87 10000 0.45 217 18:54 18.12.2020
4698 Clear 3 1022 84 10000 0.89 210 18:36 18.12.2020
4699 Clear 3 1022 84 10000 0.89 210 18:18 18.12.2020
4700 Clear 4 1022 81 10000 0.45 227 17:22 18.12.2020
4701 Clear 6 1023 72 10000 0.45 217 16:49 18.12.2020
4702 Clear 6 1023 72 10000 0.45 217 16:27 18.12.2020
4703 Clear 6 1023 72 10000 0.45 217 15:56 18.12.2020
4704 Clear 8 1022 67 10000 0.45 257 15:38 18.12.2020
4705 Clear 8 1022 67 10000 0.45 257 15:20 18.12.2020
4706 Clear 8 1022 67 10000 0.45 257 14:54 18.12.2020
4707 Clear 9 1023 59 10000 0.9 173 14:21 18.12.2020
4708 Clear 9 1023 59 10000 0.9 173 13:46 18.12.2020
4709 Clear 9 1023 59 10000 1.17 167 13:24 18.12.2020
4710 Clear 8 1023 66 10000 1.17 167 12:46 18.12.2020
4711 Clear 7 1026 74 10000 1.41 167 11:45 18.12.2020
4712 Clouds 6 1026 76 10000 1.61 165 11:22 18.12.2020
4713 Clouds 7 942 60 10000 1.61 165 10:39 18.12.2020
4714 Clouds 4 1022 95 10000 0.45 163 10:20 18.12.2020
4715 Clouds 4 1022 95 10000 0.45 163 10:20 18.12.2020
4716 Clouds 4 942 88 10000 1.82 164 09:38 18.12.2020
4717 Clouds 2 942 90 10000 2.17 161 09:20 18.12.2020
4718 Fog 3 1026 100 2200 0.5 0 08:53 18.12.2020
4719 Clouds 1 1027 97 10000 0.89 55 08:29 18.12.2020
4720 Clouds 1 1027 97 10000 0.89 54 07:36 18.12.2020
4721 Clouds 0 1028 95 10000 1.95 164 07:18 18.12.2020
4722 Clouds 0 1024 77 10000 1.34 58 06:42 18.12.2020
4723 Clouds 0 1024 77 10000 2.05 166 05:38 18.12.2020
4724 Clouds 1 1024 77 10000 1.34 59 04:51 18.12.2020
4725 Clouds 1 1024 76 10000 1.89 168 01:57 18.12.2020
4726 Clouds 1 1024 76 10000 1.34 54 01:37 18.12.2020
4727 Clouds 1 1024 75 10000 2.14 163 23:58 17.12.2020
4728 Clouds 2 1020 100 10000 2.09 161 23:25 17.12.2020
4729 Clouds 2 1020 100 10000 2.09 161 22:52 17.12.2020
4730 Clouds 2 1020 100 10000 2.04 161 22:28 17.12.2020
4731 Clouds 2 1020 100 10000 2.04 161 22:28 17.12.2020
4732 Clouds 2 1020 100 10000 2.04 161 21:55 17.12.2020
4733 Clouds 1 1024 91 10000 0.45 283 21:37 17.12.2020
4734 Clear 1 1024 91 10000 0.45 283 21:18 17.12.2020
4735 Clear 1 1024 91 10000 0.45 283 21:18 17.12.2020
4736 Clear 2 1024 90 10000 0.45 237 20:41 17.12.2020
4737 Clear 2 1024 90 10000 0.45 237 20:19 17.12.2020
4738 Clear 2 1024 89 10000 0.45 126 19:47 17.12.2020
4739 Clear 2 1024 89 10000 0.45 126 19:24 17.12.2020
4740 Clear 4 1024 78 10000 0.45 101 18:42 17.12.2020
4741 Clear 4 1024 78 10000 0.45 101 18:23 17.12.2020
4742 Clear 5 1024 78 10000 0.45 101 17:53 17.12.2020
4743 Clear 5 1024 82 10000 1.79 225 17:32 17.12.2020
4744 Clear 6 1024 85 10000 2.24 216 16:46 17.12.2020
4745 Clear 6 1024 85 10000 2.24 216 16:27 17.12.2020
4746 Clear 6 1024 85 10000 2.24 216 15:52 17.12.2020
4747 Clear 6 1024 85 10000 2.24 216 15:52 17.12.2020
4748 Clear 7 1023 75 10000 0.89 76 15:34 17.12.2020
4749 Clear 6 1023 75 10000 0.89 76 14:55 17.12.2020
4750 Clear 7 1023 67 10000 0.45 180 14:34 17.12.2020
4751 Clouds 7 1023 67 10000 0.45 180 13:58 17.12.2020
4752 Clouds 7 1023 66 10000 0.89 239 13:35 17.12.2020
4753 Clouds 6 1023 69 10000 0.76 216 12:49 17.12.2020
4754 Clouds 6 1023 69 10000 0.72 234 12:26 17.12.2020
4755 Clouds 7 941 74 10000 0.72 234 11:45 17.12.2020
4756 Clouds 6 941 73 10000 0.7 239 11:25 17.12.2020
4757 Clouds 6 1022 94 10000 0.89 209 10:56 17.12.2020
4758 Clouds 6 1022 94 10000 0.89 209 10:56 17.12.2020
4759 Clouds 4 1025 72 10000 0.45 135 10:21 17.12.2020
4760 Clouds 3 1018 100 10000 1.79 202 09:29 17.12.2020
4761 Clouds 2 1017 100 10000 1.76 210 07:55 17.12.2020
4762 Clouds 1 1017 100 10000 1.76 210 07:35 17.12.2020
4763 Clouds 0 1024 97 10000 0.89 128 06:54 17.12.2020
4764 Clouds 2 1016 100 10000 1.67 207 06:33 17.12.2020
4765 Clouds 2 1023 97 10000 0.45 115 05:59 17.12.2020
4766 Clouds 2 1021 97 10000 2.57 170 00:40 17.12.2020
4767 Clouds 2 1021 97 10000 2.71 169 23:54 16.12.2020
4768 Clear 4 1015 88 10000 0.45 70 23:22 16.12.2020
4769 Clear 3 1014 100 10000 2.98 165 22:56 16.12.2020
4770 Clear 1 1020 92 10000 0.45 161 22:35 16.12.2020
4771 Clear 1 1020 92 10000 0.89 148 21:52 16.12.2020
4772 Clear 1 1020 92 10000 1.34 148 21:34 16.12.2020
4773 Clear 2 1020 92 10000 3.05 162 20:56 16.12.2020
4774 Clear 1 1018 93 10000 0.89 160 20:37 16.12.2020
4775 Clear 2 1018 93 10000 0.89 160 20:18 16.12.2020
4776 Clear 3 1018 91 10000 0.45 150 19:20 16.12.2020
4777 Clear 3 1018 91 10000 0.45 150 18:56 16.12.2020
4778 Clear 3 1017 87 10000 1.34 134 18:29 16.12.2020
4779 Clear 3 1017 87 10000 1.34 134 17:51 16.12.2020
4780 Clear 4 1017 85 10000 0.45 193 17:29 16.12.2020
4781 Clear 6 1017 82 10000 0.45 225 16:40 16.12.2020
4782 Clear 7 1017 82 10000 0.45 225 16:22 16.12.2020
4783 Clear 7 1017 82 10000 0.45 225 15:51 16.12.2020
4784 Clear 9 1017 70 10000 0.45 254 15:28 16.12.2020
4785 Clear 9 1017 73 10000 0.45 222 14:48 16.12.2020
4786 Clear 9 1017 73 10000 0.45 222 14:28 16.12.2020
4787 Clear 9 1017 73 10000 0.45 222 13:50 16.12.2020
4788 Clear 10 1019 72 10000 0.45 157 13:31 16.12.2020
4789 Clouds 8 1018 73 10000 0.45 217 12:56 16.12.2020
4790 Clouds 8 1018 73 2032 0.45 217 12:36 16.12.2020
4791 Clouds 4 1018 87 2835 0.45 150 11:41 16.12.2020
4792 Clouds 5 1018 87 3039 0.45 150 11:22 16.12.2020
4793 Clouds 5 1018 87 3039 0.45 150 10:49 16.12.2020
4794 Clouds 5 1018 77 2834 1.34 62 10:26 16.12.2020
4795 Clouds 4 1013 100 2834 1.48 173 09:43 16.12.2020
4796 Clouds 2 1019 97 3807 1.47 168 08:45 16.12.2020
4797 Clouds 2 935 88 10000 1.38 183 07:58 16.12.2020
4798 Clouds 2 935 88 10000 1.38 183 07:39 16.12.2020
4799 Clouds 2 934 88 10000 0.96 221 06:53 16.12.2020
4800 Clouds 2 1017 94 10000 0.45 142 02:26 16.12.2020
4801 Clouds 2 1016 95 10000 0.45 232 01:20 16.12.2020
4802 Clouds 3 1016 93 10000 1.54 143 23:45 15.12.2020
4803 Clouds 3 1017 92 10000 1.34 144 22:48 15.12.2020
4804 Clouds 3 1017 92 10000 1.3 138 22:25 15.12.2020
4805 Clouds 3 1017 92 10000 1.3 138 21:57 15.12.2020
4806 Clouds 4 1017 88 10000 0.89 136 21:38 15.12.2020
4807 Clouds 4 1017 88 10000 0.89 136 21:19 15.12.2020
4808 Clouds 4 1017 92 10000 0.45 153 20:44 15.12.2020
4809 Clouds 4 1017 92 10000 0.45 153 20:25 15.12.2020
4810 Clouds 4 1017 92 10000 0.45 153 19:51 15.12.2020
4811 Clouds 4 1016 90 10000 1.35 144 19:26 15.12.2020
4812 Clouds 4 1016 87 10000 0.45 300 18:39 15.12.2020
4813 Clouds 4 1016 87 10000 0.45 300 18:21 15.12.2020
4814 Clouds 4 1015 90 10000 0.45 67 17:44 15.12.2020
4815 Clouds 5 1015 90 10000 0.45 67 17:23 15.12.2020
4816 Clouds 6 1014 80 10000 0.45 265 16:40 15.12.2020
4817 Clouds 6 1014 80 10000 0.45 265 16:21 15.12.2020
4818 Clouds 7 1013 77 10000 0.95 178 15:37 15.12.2020
4819 Rain 7 1013 77 10000 1.2 221 15:18 15.12.2020
4820 Clouds 7 1013 76 10000 0.45 269 14:41 15.12.2020
4821 Clouds 7 1013 76 10000 0.45 269 14:41 15.12.2020
4822 Clouds 7 1013 76 10000 0.45 269 14:19 15.12.2020
4823 Clouds 7 1013 76 10000 0.45 269 13:49 15.12.2020
4824 Clouds 6 1013 80 10000 0.45 230 13:24 15.12.2020
4825 Rain 5 1015 85 10000 0.45 163 12:46 15.12.2020
4826 Rain 6 1013 66 10000 0.89 63 12:19 15.12.2020
4827 Clouds 6 1014 68 10000 1.09 195 11:51 15.12.2020
4828 Clouds 5 1013 77 10000 1.34 179 11:23 15.12.2020
4829 Clouds 4 1015 89 10000 0.45 143 10:48 15.12.2020
4830 Clouds 4 1015 92 10000 1.34 145 10:20 15.12.2020
4831 Clouds 3 930 89 10000 1.71 181 09:43 15.12.2020
4832 Clouds 2 1013 76 10000 2.06 176 09:25 15.12.2020
4833 Clouds 2 1013 77 10000 2.06 176 08:41 15.12.2020
4834 Clouds 1 1013 82 10000 0.45 112 08:21 15.12.2020
4835 Clouds 1 1014 97 10000 0.45 115 07:44 15.12.2020
4836 Clouds 3 1013 77 10000 2.17 165 06:59 15.12.2020
4837 Clouds 2 1012 77 10000 2.23 163 05:37 15.12.2020
4838 Clouds 1 1015 96 10000 2.65 169 00:39 15.12.2020
4839 Clouds 1 1016 61 10000 2.55 166 23:51 14.12.2020
4840 Clouds 2 1013 74 10000 1.34 55 23:19 14.12.2020
4841 Clouds 1 1013 74 10000 2.47 170 22:44 14.12.2020
4842 Clouds 1 929 85 10000 2.49 168 22:19 14.12.2020
4843 Clouds 2 929 86 10000 2.49 168 21:40 14.12.2020
4844 Clouds 2 929 86 10000 2.49 159 21:18 14.12.2020
4845 Clouds 2 929 86 10000 2.49 159 21:18 14.12.2020
4846 Clouds 2 1012 75 10000 2.49 159 20:46 14.12.2020
4847 Clouds 3 1016 44 10000 2.49 154 20:27 14.12.2020
4848 Clouds 4 1016 44 10000 2.49 154 19:41 14.12.2020
4849 Clouds 3 930 85 10000 2.28 155 19:23 14.12.2020
4850 Clouds 3 1015 92 10000 0.45 175 18:43 14.12.2020
4851 Clouds 4 930 84 10000 2 156 18:23 14.12.2020
4852 Clouds 4 1014 95 10000 0.45 222 17:38 14.12.2020
4853 Clouds 4 1014 95 10000 0.45 222 17:19 14.12.2020
4854 Clouds 5 1013 85 10000 1.68 162 16:42 14.12.2020
4855 Clouds 5 1013 85 10000 1.59 155 16:23 14.12.2020
4856 Clouds 5 1015 86 10000 1.59 155 15:33 14.12.2020
4857 Clouds 5 1015 84 10000 0.89 72 14:51 14.12.2020
4858 Clouds 8 1015 79 10000 0.89 198 14:32 14.12.2020
4859 Clouds 6 1015 80 10000 1.62 159 13:57 14.12.2020
4860 Clouds 6 1015 80 10000 0.89 140 13:35 14.12.2020
4861 Clouds 6 1015 87 10000 1.52 171 12:56 14.12.2020
4862 Clouds 9 1015 41 10000 1.52 171 12:34 14.12.2020
4863 Clouds 6 1014 81 10000 1.67 172 11:58 14.12.2020
4864 Clouds 6 1016 93 10000 1.87 169 11:25 14.12.2020
4865 Clouds 5 1016 44 10000 2.2 165 10:28 14.12.2020
4866 Clouds 4 931 86 10000 2.2 165 09:53 14.12.2020
4867 Clear 0 1015 97 10000 2.56 166 09:25 14.12.2020
4868 Clear 0 1015 97 10000 2.56 166 08:44 14.12.2020
4869 Clear 0 1015 97 10000 2.72 166 08:23 14.12.2020
4870 Clouds 0 1014 78 10000 0.45 90 07:22 14.12.2020
4871 Clouds 0 1014 97 10000 2.55 169 06:43 14.12.2020
4872 Clouds 0 1015 96 10000 0.45 157 03:58 14.12.2020
4873 Clouds 0 1013 94 10000 0.45 140 02:23 14.12.2020
4874 Clouds 0 1013 97 10000 2.9 168 00:49 14.12.2020
4875 Clouds 0 1013 97 10000 2.77 169 00:27 14.12.2020
4876 Clouds -1 1013 97 10000 2.77 169 23:44 13.12.2020
4877 Clouds 0 1013 97 10000 2.72 171 22:58 13.12.2020
4878 Clouds 0 1013 95 10000 0.45 292 22:39 13.12.2020
4879 Clouds 1 1013 95 10000 0.45 292 22:18 13.12.2020
4880 Clouds 1 1014 96 10000 0.89 164 21:41 13.12.2020
4881 Clouds 1 1014 96 10000 0.89 164 20:55 13.12.2020
4882 Clear 2 1013 96 10000 0.45 221 20:28 13.12.2020
4883 Clear 2 1013 94 10000 1.83 165 19:48 13.12.2020
4884 Clouds 2 1013 94 10000 1.43 151 19:24 13.12.2020
4885 Clouds 2 1013 94 10000 1.48 153 18:56 13.12.2020
4886 Clouds 2 1013 96 10000 1.48 153 18:36 13.12.2020
4887 Clouds 2 1013 96 10000 1.07 129 18:18 13.12.2020
4888 Clouds 3 1013 94 10000 1.07 129 17:45 13.12.2020
4889 Clouds 3 1013 94 2010 0.8 107 17:18 13.12.2020
4890 Clouds 3 1013 94 2010 0.8 107 16:50 13.12.2020
4891 Clouds 3 1013 93 2010 0.45 317 16:31 13.12.2020
4892 Clouds 4 1012 93 257 0.45 341 15:47 13.12.2020
4893 Clouds 4 1012 93 335 0.45 341 15:26 13.12.2020
4894 Clouds 4 1012 94 335 0.9 12 14:47 13.12.2020
4895 Clouds 3 1012 94 717 0.77 20 14:29 13.12.2020
4896 Clouds 3 1012 94 717 0.45 179 13:50 13.12.2020
4897 Clouds 3 1012 94 717 0.45 179 13:31 13.12.2020
4898 Clouds 3 1012 94 1114 0.45 179 12:56 13.12.2020
4899 Clouds 3 1013 96 1784 0.45 227 12:24 13.12.2020
4900 Clouds 3 1013 96 1784 0.45 227 11:58 13.12.2020
4901 Rain 3 1013 97 1784 0.89 148 11:32 13.12.2020
4902 Rain 2 1012 98 1030 0.89 270 10:45 13.12.2020
4903 Rain 2 1012 98 1190 1.03 248 10:21 13.12.2020
4904 Clouds 2 1011 98 1190 0.45 239 09:39 13.12.2020
4905 Clouds 2 1011 98 2116 1.34 136 08:48 13.12.2020
4906 Clouds 2 1011 98 1470 1.34 136 08:30 13.12.2020
4907 Snow 1 1010 95 107 1.2 249 07:19 13.12.2020
4908 Clouds 1 1010 96 117 1.24 228 02:44 13.12.2020
4909 Snow 1 1007 96 107 0.89 207 02:20 13.12.2020
4910 Snow 1 1007 96 107 0.89 207 01:34 13.12.2020
4911 Snow 1 1007 98 114 1.49 219 00:44 13.12.2020
4912 Snow 2 1006 96 223 0.89 217 23:37 12.12.2020
4913 Snow 2 1006 96 1066 0.89 217 23:19 12.12.2020
4914 Snow 2 1006 97 1066 0.45 287 22:34 12.12.2020
4915 Rain 2 1005 96 471 0.89 138 21:46 12.12.2020
4916 Rain 2 1005 96 660 0.89 138 21:20 12.12.2020
4917 Snow 2 1005 96 660 0.45 232 20:45 12.12.2020
4918 Clouds 2 1005 96 3737 0.45 232 20:21 12.12.2020
4919 Clouds 2 1005 96 3737 0.45 232 19:52 12.12.2020
4920 Rain 2 1004 96 3737 1.45 217 19:33 12.12.2020
4921 Clouds 2 1004 96 7753 1.29 229 18:56 12.12.2020
4922 Rain 2 1003 95 744 0.89 142 18:37 12.12.2020
4923 Rain 2 1003 95 844 0.89 142 18:18 12.12.2020
4924 Rain 2 1002 98 844 0.89 176 17:40 12.12.2020
4925 Clouds 2 1001 95 1082 0.45 219 16:42 12.12.2020
4926 Clouds 3 1001 95 2546 0.45 219 15:57 12.12.2020
4927 Clouds 3 1001 95 2546 0.45 219 15:57 12.12.2020
4928 Clouds 3 1001 90 2546 0.45 229 15:39 12.12.2020
4929 Clouds 3 1001 90 10000 0.45 229 14:54 12.12.2020
4930 Clouds 3 1000 89 10000 0.45 351 14:21 12.12.2020
4931 Clouds 3 1000 83 10000 1.07 289 13:41 12.12.2020
4932 Clouds 3 1000 83 10000 1.07 289 13:41 12.12.2020
4933 Clouds 3 1000 83 10000 1.02 291 13:22 12.12.2020
4934 Clouds 2 999 87 10000 0.76 258 12:36 12.12.2020
4935 Clouds 2 999 90 10000 0.89 210 11:20 12.12.2020
4936 Clouds 1 998 90 10000 1.01 193 10:45 12.12.2020
4937 Clouds 0 998 92 10000 1.97 179 09:24 12.12.2020
4938 Clouds -1 997 92 10000 1.99 192 07:42 12.12.2020
4939 Clouds 0 997 93 10000 2.22 173 01:39 12.12.2020
4940 Clouds 0 997 92 10000 0.89 214 23:21 11.12.2020
4941 Clouds -1 998 93 10000 0.45 157 20:57 11.12.2020
4942 Snow -1 998 93 10000 2.52 171 19:42 11.12.2020
4943 Clouds -1 998 92 10000 0.45 83 16:52 11.12.2020
4944 Clouds 1 915 69 10000 1.45 158 14:37 11.12.2020
4945 Clouds 3 1001 82 10000 0.45 230 13:42 11.12.2020
4946 Clouds 3 991 100 10000 1.4 166 12:22 11.12.2020
4947 Clouds 1 991 100 10000 1.4 166 11:54 11.12.2020
4948 Clouds 2 916 72 10000 1.4 166 11:35 11.12.2020
4949 Clouds -1 1003 99 10000 1.79 52 10:40 11.12.2020
4950 Clouds -3 1002 90 10000 0.45 67 07:31 11.12.2020
4951 Clouds -4 1002 87 10000 0.45 112 05:36 11.12.2020
4952 Clouds -3 921 87 10000 0.45 337 02:58 11.12.2020
4953 Clouds -2 922 86 10000 2.11 194 00:42 11.12.2020
4954 Clear -3 1007 92 10000 2.1 169 23:26 10.12.2020
4955 Clear -3 1006 90 10000 0.45 201 21:37 10.12.2020
4956 Clear -2 1005 86 10000 1.78 181 20:51 10.12.2020
4957 Clear -2 1005 86 10000 1.61 186 19:53 10.12.2020
4958 Clear -2 1005 84 10000 0.45 83 19:21 10.12.2020
4959 Clear -2 1005 87 10000 1.65 180 18:47 10.12.2020
4960 Clear -2 1005 88 10000 1.12 170 17:26 10.12.2020
4961 Clouds -1 1004 85 10000 0.45 56 15:58 10.12.2020
4962 Clouds -1 1004 84 10000 0.45 162 15:19 10.12.2020
4963 Clouds -1 1005 89 10000 0.89 155 14:42 10.12.2020
4964 Clouds 0 1005 89 10000 0.89 154 13:26 10.12.2020
4965 Clear 0 1004 76 10000 1.34 54 11:51 10.12.2020
4966 Clear -2 1004 87 10000 0.45 311 10:46 10.12.2020
4967 Clear -2 1004 93 10000 0.45 275 08:20 10.12.2020
4968 Clouds -2 1004 91 10000 1.92 163 06:59 10.12.2020
4969 Clouds 0 922 88 10000 1.7 152 05:26 10.12.2020
4970 Clouds -1 1009 95 10000 1.81 170 02:31 10.12.2020
4971 Clouds 0 1009 95 10000 1.79 178 01:18 10.12.2020
4972 Clouds 0 1010 94 9703 1.86 197 23:35 09.12.2020
4973 Clouds 0 1008 100 10000 1.27 205 20:37 09.12.2020
4974 Clouds 0 1008 100 1656 0.77 228 19:38 09.12.2020
4975 Snow 0 1007 100 697 0.89 285 18:21 09.12.2020
4976 Snow 0 1007 100 309 1.2 300 16:54 09.12.2020
4977 Snow 0 1007 100 167 0.89 14 16:25 09.12.2020
4978 Snow 0 1007 100 167 0.45 351 15:41 09.12.2020
4979 Snow 0 1007 100 292 0.45 351 14:49 09.12.2020
4980 Snow 0 1007 100 214 1.35 311 14:25 09.12.2020
4981 Snow 0 1007 100 213 1.37 303 13:19 09.12.2020
4982 Snow 0 1007 100 213 1.37 303 12:57 09.12.2020
4983 Snow 0 1007 95 153 1.36 299 12:22 09.12.2020
4984 Snow 0 1007 95 153 1.36 299 11:33 09.12.2020
4985 Snow 0 1007 92 126 1.04 291 09:51 09.12.2020
4986 Snow 0 1006 91 615 0.45 357 08:34 09.12.2020
4987 Clouds 0 1005 93 10000 1.1 234 06:29 09.12.2020
4988 Clouds 0 1005 95 9658 0.45 308 04:49 09.12.2020
4989 Clouds 0 1004 95 10000 1.39 238 02:31 09.12.2020
4990 Clouds 0 1004 94 4157 1.42 255 00:24 09.12.2020
4991 Snow 0 1003 94 7720 1.19 268 23:28 08.12.2020
4992 Clouds 0 1003 95 10000 0.45 353 21:54 08.12.2020
4993 Snow 0 1002 95 10000 0.45 13 20:23 08.12.2020
4994 Snow 0 1001 93 10000 0.45 304 19:25 08.12.2020
4995 Clouds 0 1001 94 8660 0.49 309 18:31 08.12.2020
4996 Snow 1 999 94 10000 0.45 213 16:28 08.12.2020
4997 Clouds 1 1001 92 10000 0.45 9 14:46 08.12.2020
4998 Clouds 1 916 79 10000 0.2 172 13:44 08.12.2020
4999 Clouds 0 916 79 10000 0.55 166 12:37 08.12.2020
5000 Clouds 2 917 85 10000 1.32 155 11:52 08.12.2020
5001 Clouds -1 1000 79 10000 1.98 147 10:54 08.12.2020
5002 Clouds -2 1000 92 10000 0.45 226 10:34 08.12.2020
5003 Clouds -1 1002 97 10000 2.49 155 09:35 08.12.2020
5004 Clouds -4 1000 90 10000 0.45 84 07:34 08.12.2020
5005 Clouds -6 1000 91 10000 0.89 140 04:22 08.12.2020
5006 Clouds -5 1001 92 10000 0.45 194 01:38 08.12.2020
5007 Clouds -5 1001 94 10000 3.57 160 00:44 08.12.2020
5008 Clear -4 1001 93 10000 3.43 158 22:50 07.12.2020
5009 Clear -3 1001 94 10000 0.89 176 22:18 07.12.2020
5010 Clear -2 1001 94 10000 0.45 247 20:47 07.12.2020
5011 Clouds -1 1000 97 10000 0.45 225 18:58 07.12.2020
5012 Clouds -1 1000 94 10000 0.89 212 17:31 07.12.2020
5013 Clouds -1 1000 94 10000 0.89 212 16:59 07.12.2020
5014 Clouds 1 1000 95 10000 0.45 189 16:19 07.12.2020
5015 Clouds 2 1000 84 10000 0.97 79 15:24 07.12.2020
5016 Clouds 1 1000 85 10000 0.45 136 14:26 07.12.2020
5017 Clouds 1 1001 91 10000 0.45 218 13:34 07.12.2020
5018 Clouds 0 1001 93 10000 0.45 89 11:46 07.12.2020
5019 Clouds 0 1001 93 10000 0.45 89 11:27 07.12.2020
5020 Clouds 0 1001 96 10000 1.26 160 10:20 07.12.2020
5021 Clouds -1 917 89 10000 1.78 164 08:30 07.12.2020
5022 Clouds -1 916 89 10000 1.54 144 06:45 07.12.2020
5023 Clouds 0 999 96 10000 0.45 148 04:58 07.12.2020
5024 Snow 0 998 97 359 1.61 231 01:57 07.12.2020
5025 Snow 1 997 97 281 0.45 209 00:30 07.12.2020
5026 Snow 0 998 97 146 0.45 150 22:33 06.12.2020
5027 Snow 0 997 97 104 2.04 267 21:32 06.12.2020
5028 Snow 0 997 98 104 0.89 11 20:34 06.12.2020
5029 Snow 0 997 98 100 0.89 11 19:57 06.12.2020
5030 Snow 1 998 95 102 1.11 324 18:41 06.12.2020
5031 Snow 1 998 95 128 0.45 217 17:23 06.12.2020
5032 Snow 2 998 90 79 0.45 165 15:53 06.12.2020
5033 Clouds 2 998 91 69 1.59 312 13:58 06.12.2020
5034 Clouds 1 998 94 82 1.34 3 12:52 06.12.2020
5035 Snow 2 998 90 156 0.45 51 12:23 06.12.2020
5036 Clouds 1 998 90 156 0.89 356 11:35 06.12.2020
5037 Clouds 1 998 90 153 0.89 356 10:55 06.12.2020
5038 Snow 1 998 96 186 0.45 177 10:24 06.12.2020
5039 Clouds 0 998 96 268 0.45 344 08:37 06.12.2020
5040 Snow 0 997 94 268 0.45 63 06:50 06.12.2020
5041 Snow 0 997 97 239 1.15 229 02:21 06.12.2020
5042 Snow 0 998 96 584 0.45 147 00:42 06.12.2020
5043 Snow 0 998 96 530 0.45 147 00:23 06.12.2020
5044 Snow 0 998 96 3274 0.23 113 22:50 05.12.2020
5045 Snow 0 998 96 6436 0.69 218 22:20 05.12.2020
5046 Snow 1 998 96 6436 0.69 218 21:51 05.12.2020
5047 Snow 0 998 95 941 0.96 134 21:26 05.12.2020
5048 Snow 0 999 93 4852 0.41 239 19:48 05.12.2020
5049 Snow 0 999 94 400 1.3 253 18:41 05.12.2020
5050 Snow 1 999 91 201 0.86 46 17:34 05.12.2020
5051 Snow 1 998 91 295 1.43 22 16:33 05.12.2020
5052 Snow 2 998 91 107 1.65 28 15:57 05.12.2020
5053 Rain 2 999 90 95 2.05 13 14:27 05.12.2020
5054 Rain 2 1000 92 120 0.45 102 12:23 05.12.2020
5055 Snow 2 999 93 120 1.33 14 11:41 05.12.2020
5056 Snow 1 999 94 544 0.45 21 10:31 05.12.2020
5057 Snow 1 998 95 10000 0.45 216 07:49 05.12.2020
5058 Snow 1 998 94 147 0.45 288 07:24 05.12.2020
5059 Snow 1 994 83 10000 0.45 98 03:55 05.12.2020
5060 Snow 0 990 84 5704 0.45 206 23:55 04.12.2020
5061 Clouds 0 989 84 10000 0.45 181 22:24 04.12.2020
5062 Clouds 2 990 80 10000 2.1 146 20:25 04.12.2020
5063 Clouds 2 990 75 10000 0.89 133 18:53 04.12.2020
5064 Snow 2 907 72 10000 2.96 160 18:19 04.12.2020
5065 Clear 2 984 77 10000 2.96 160 17:37 04.12.2020
5066 Clear 4 983 73 10000 0.45 321 15:46 04.12.2020
5067 Clear 7 989 46 10000 1.34 341 13:40 04.12.2020
5068 Clouds 7 989 46 10000 1.34 341 13:22 04.12.2020
5069 Clouds 6 989 46 10000 1.34 341 12:51 04.12.2020
5070 Clouds 2 991 73 10000 3.52 151 10:40 04.12.2020
5071 Clouds 0 991 81 10000 0.45 56 09:46 04.12.2020
5072 Clouds 1 991 70 10000 1.79 178 06:43 04.12.2020
5073 Clouds 1 991 70 10000 1.79 178 05:59 04.12.2020
5074 Clouds 1 998 44 10000 3.94 159 01:57 04.12.2020
5075 Clouds -2 1001 92 10000 1.79 83 22:52 03.12.2020
5076 Clouds -2 1001 93 10000 1.79 90 22:30 03.12.2020
5077 Clear -3 1001 90 10000 2.73 168 20:49 03.12.2020
5078 Clear -3 1000 88 10000 0.45 228 19:29 03.12.2020
5079 Clear -3 1000 88 10000 0.45 228 18:53 03.12.2020
5080 Clear -2 1001 88 10000 0.45 227 17:53 03.12.2020
5081 Clear -2 1001 83 10000 1.63 155 17:18 03.12.2020
5082 Clear 1 1002 70 10000 0.63 128 15:55 03.12.2020
5083 Clear 1 1003 73 10000 0.4 6 15:30 03.12.2020
5084 Clear 1 1004 72 10000 0.45 347 14:48 03.12.2020
5085 Clear 2 1004 65 10000 0.89 10 13:36 03.12.2020
5086 Clear 1 1005 70 10000 1.34 165 12:28 03.12.2020
5087 Clear 0 1007 75 10000 0.89 139 11:31 03.12.2020
5088 Clouds -1 1007 86 10000 0.45 217 10:18 03.12.2020
5089 Clouds -2 1008 90 10000 0.45 228 06:27 03.12.2020
5090 Clouds -2 1010 89 10000 1.14 257 03:22 03.12.2020
5091 Clouds -2 1010 88 7512 1.13 260 01:18 03.12.2020
5092 Clouds -2 1011 90 2425 1.65 285 22:48 02.12.2020
5093 Clouds -3 1011 90 4409 1.65 283 22:26 02.12.2020
5094 Clouds -3 1010 90 4309 1.39 272 21:25 02.12.2020
5095 Clouds -3 1010 92 4309 0.45 356 20:46 02.12.2020
5096 Clouds -3 1010 92 2863 0.45 356 20:28 02.12.2020
5097 Clouds -3 1010 93 3214 0.89 348 18:39 02.12.2020
5098 Clouds -2 1010 94 3041 0.89 356 17:47 02.12.2020
5099 Clouds -2 1010 94 3459 0.89 356 17:28 02.12.2020
5100 Clouds -2 1012 94 10000 1.34 321 15:23 02.12.2020
5101 Snow -1 1011 88 10000 1.34 345 12:45 02.12.2020
5102 Clouds -1 1012 89 10000 1.79 351 10:29 02.12.2020
5103 Clouds -1 1012 89 10000 1.79 5 09:27 02.12.2020
5104 Clouds 0 1013 93 10000 0.45 4 04:39 02.12.2020
5105 Clouds 0 1014 93 548 0.45 348 22:21 01.12.2020
5106 Clouds 0 1014 93 548 0.45 348 21:53 01.12.2020
5107 Snow 1 1014 90 251 0.65 350 19:36 01.12.2020
5108 Snow 1 1014 89 369 0.71 327 18:18 01.12.2020
5109 Snow 1 1013 85 301 0.96 311 16:37 01.12.2020
5110 Clouds 2 1013 84 171 0.89 129 13:39 01.12.2020
5111 Snow 1 1013 70 1134 0.45 214 12:25 01.12.2020
5112 Snow 1 1013 81 846 0.45 245 11:27 01.12.2020
5113 Rain -1 1017 83 846 0.45 163 10:39 01.12.2020
5114 Clouds -1 930 85 5990 0.82 289 09:24 01.12.2020
5115 Snow -1 1014 69 10000 0.89 216 07:19 01.12.2020
5116 Clear -1 1012 100 10000 2.14 198 01:56 01.12.2020
5117 Clear -3 1019 76 10000 2.24 254 00:56 01.12.2020
5118 Clear -3 1021 83 10000 0.45 157 23:22 30.11.2020
5119 Clear -3 1021 75 10000 1.79 215 22:45 30.11.2020
5120 Clear -3 1022 83 10000 0.89 180 22:25 30.11.2020
5121 Clear -2 1023 82 10000 0.45 180 21:22 30.11.2020
5122 Clear -3 1022 74 10000 2.24 233 19:42 30.11.2020
5123 Clear -3 1026 90 10000 1.51 216 18:24 30.11.2020
5124 Clear -2 1025 90 10000 0.45 40 17:51 30.11.2020
5125 Clear -2 1021 81 10000 1.24 215 16:58 30.11.2020
5126 Clear -1 1021 78 10000 0.45 11 16:38 30.11.2020
5127 Clear 1 1023 78 10000 1.34 45 14:47 30.11.2020
5128 Clear 0 1023 86 10000 1.79 203 13:53 30.11.2020
5129 Clouds 1 1026 80 10000 2.1 260 12:34 30.11.2020
5130 Clouds 0 1026 86 10000 1.5 0 11:58 30.11.2020
5131 Clear -2 941 81 10000 0.57 313 10:30 30.11.2020
5132 Clear -2 940 83 10000 0.45 299 09:51 30.11.2020
5133 Clear -3 1025 90 10000 0.45 5 07:26 30.11.2020
5134 Clear -2 1021 80 10000 0.45 268 00:54 30.11.2020
5135 Clear -1 1021 79 10000 0.45 92 22:19 29.11.2020
5136 Clear -1 1021 80 10000 0.72 121 21:42 29.11.2020
5137 Clear -1 1021 80 10000 0.79 112 21:24 29.11.2020
5138 Clear -1 1019 78 10000 0.89 162 17:48 29.11.2020
5139 Clear 0 1019 76 10000 1.17 53 16:29 29.11.2020
5140 Clear 0 936 86 10000 1.47 23 13:24 29.11.2020
5141 Clear 0 937 86 10000 1.34 180 12:27 29.11.2020
5142 Clear -1 937 87 10000 0.98 29 10:54 29.11.2020
5143 Clouds -1 936 87 10000 0.68 86 08:39 29.11.2020
5144 Clouds -2 1020 91 10000 0.45 184 06:33 29.11.2020
5145 Clouds 0 934 86 10000 1.29 129 00:30 29.11.2020
5146 Clouds -1 1015 71 10000 2.68 51 22:57 28.11.2020
5147 Clouds -1 934 84 10000 1.62 130 20:50 28.11.2020
5148 Clouds -1 934 85 10000 1.58 127 19:51 28.11.2020
5149 Clear -1 1014 66 10000 3.58 75 19:24 28.11.2020
5150 Clear -1 933 85 10000 1.6 126 18:51 28.11.2020
5151 Clear -1 1014 79 10000 2.24 92 17:48 28.11.2020
5152 Clear 3 1014 70 10000 1.79 323 16:44 28.11.2020
5153 Clear 5 1014 64 10000 0.89 348 14:57 28.11.2020
5154 Clouds 6 1018 100 8000 1.5 0 13:27 28.11.2020
5155 Clouds 5 1019 100 8000 1 0 10:57 28.11.2020
5156 Clear 0 1010 100 10000 1.87 160 06:42 28.11.2020
5157 Clear 0 1011 100 10000 1.93 165 03:33 28.11.2020
5158 Clear 0 1020 96 10000 2.12 165 01:51 28.11.2020
5159 Clear 0 1020 96 10000 2.04 165 23:18 27.11.2020
5160 Clear 1 1012 100 10000 2.05 163 21:51 27.11.2020
5161 Clear 2 1012 100 10000 2.08 163 20:37 27.11.2020
5162 Clear 1 935 81 10000 2.11 165 19:30 27.11.2020
5163 Clear 2 1019 81 10000 2.04 164 18:51 27.11.2020
5164 Clear 10 1017 45 10000 0.45 13 15:19 27.11.2020
5165 Clear 10 1018 46 10000 0.99 19 13:44 27.11.2020
5166 Clear 9 1018 54 10000 0.45 124 12:48 27.11.2020
5167 Clear 8 1018 54 10000 0.45 124 11:50 27.11.2020
5168 Fog 7 1022 49 700 2.6 100 10:51 27.11.2020
5169 Clear 6 937 61 10000 0.45 315 10:22 27.11.2020
5170 Clear 0 1014 100 10000 1.53 169 07:29 27.11.2020
5171 Clear 0 1023 96 10000 1.64 178 22:29 26.11.2020
5172 Clear 0 1023 95 10000 1.64 178 21:57 26.11.2020
5173 Clear 0 1015 100 10000 1.67 175 21:25 26.11.2020
5174 Clouds 1 1023 84 10000 1.57 175 19:24 26.11.2020
5175 Clear 2 1020 78 10000 1.79 204 18:30 26.11.2020
5176 Clear 8 1020 59 10000 0.45 214 16:20 26.11.2020
5177 Clear 10 1020 44 10000 0.45 97 13:43 26.11.2020
5178 Clear 8 1021 52 10000 0.89 140 12:44 26.11.2020
5179 Clear 8 1021 52 10000 0.89 140 12:23 26.11.2020
5180 Fog 5 1024 49 300 2.6 70 10:38 26.11.2020
5181 Clear 6 940 72 10000 1.04 170 09:48 26.11.2020
5182 Clear 4 940 86 10000 1.04 170 09:30 26.11.2020
5183 Clear 0 1017 100 10000 1.63 168 08:39 26.11.2020
5184 Clouds 1 1024 44 10000 1.51 176 06:55 26.11.2020
5185 Clear 2 1015 100 10000 2.22 166 23:54 25.11.2020
5186 Clear 2 1024 97 10000 2.09 164 21:26 25.11.2020
5187 Clear 2 1024 96 10000 1.99 165 19:56 25.11.2020
5188 Clear 3 1023 96 10000 1.87 168 18:28 25.11.2020
5189 Clear 4 1021 76 10000 1.56 166 17:23 25.11.2020
5190 Clear 9 1018 41 10000 0.45 353 15:41 25.11.2020
5191 Clear 10 1018 39 10000 0.89 357 13:58 25.11.2020
5192 Clear 10 1018 43 10000 0.27 71 13:38 25.11.2020
5193 Clear 11 1019 52 10000 0.56 172 12:26 25.11.2020
5194 Mist 6 1022 93 3800 2.1 90 11:20 25.11.2020
5195 Clear 4 937 88 10000 2.41 161 09:19 25.11.2020
5196 Mist 3 1022 100 2200 2.1 80 08:47 25.11.2020
5197 Clear 2 1014 100 10000 2.43 166 05:18 25.11.2020
5198 Clear 0 1021 89 10000 2.48 167 02:53 25.11.2020
5199 Clear 0 1021 89 10000 2.47 167 00:48 25.11.2020
5200 Clear 1 1015 100 10000 2.57 166 23:55 24.11.2020
5201 Clear 1 1015 100 10000 2.57 166 23:34 24.11.2020
5202 Clear 3 1024 45 10000 2.7 165 21:52 24.11.2020
5203 Clear 3 1024 45 10000 2.7 165 21:31 24.11.2020
5204 Clear 1 1024 44 10000 2.6 164 20:45 24.11.2020
5205 Clear 0 1020 58 10000 2.31 166 18:57 24.11.2020
5206 Clear 3 1021 80 10000 0.45 200 17:31 24.11.2020
5207 Clear 4 1021 80 10000 0.45 200 16:54 24.11.2020
5208 Clear 5 1021 68 10000 0.45 251 16:35 24.11.2020
5209 Clear 7 1021 68 10000 0.45 251 15:54 24.11.2020
5210 Clear 8 1021 52 10000 0.89 338 15:19 24.11.2020
5211 Clear 8 1021 51 10000 0.47 123 14:43 24.11.2020
5212 Clear 8 1022 54 10000 0.34 79 12:55 24.11.2020
5213 Clear 6 1024 55 10000 0.45 225 12:22 24.11.2020
5214 Clear 6 1025 42 10000 0.29 133 11:58 24.11.2020
5215 Clouds 7 1026 49 9000 1 0 10:48 24.11.2020
5216 Clear 5 1027 91 10000 1.49 165 10:25 24.11.2020
5217 Clear 5 1027 91 10000 1.49 165 10:25 24.11.2020
5218 Clouds 4 1026 53 9000 2.1 100 09:35 24.11.2020
5219 Clear -1 1028 45 10000 1.9 158 08:26 24.11.2020
5220 Clear -2 1026 84 10000 0.45 135 04:49 24.11.2020
5221 Clear -2 1026 84 10000 0.45 135 04:49 24.11.2020
5222 Clouds -1 1027 64 10000 1.34 66 23:28 23.11.2020
5223 Clouds 0 1027 79 10000 0.89 175 21:46 23.11.2020
5224 Clouds 0 1027 79 10000 0.89 175 20:57 23.11.2020
5225 Clouds 1 1027 78 10000 0.89 177 20:28 23.11.2020
5226 Clouds 1 1027 78 10000 0.89 178 19:36 23.11.2020
5227 Clouds 4 1027 68 10000 1.14 113 17:27 23.11.2020
5228 Clouds 5 1027 68 10000 1.14 113 16:54 23.11.2020
5229 Clouds 8 1026 47 10000 1.79 16 14:49 23.11.2020
5230 Clouds 9 1026 39 10000 0.45 298 13:54 23.11.2020
5231 Clouds 7 1030 64 10000 1.34 197 12:39 23.11.2020
5232 Clouds 7 945 53 10000 1.13 349 11:50 23.11.2020
5233 Clouds 6 945 58 10000 1.13 349 11:30 23.11.2020
5234 Clouds 2 945 74 10000 0.29 246 09:46 23.11.2020
5235 Clouds 2 1028 44 10000 0.6 249 08:49 23.11.2020
5236 Clouds 0 945 83 10000 0.93 233 07:34 23.11.2020
5237 Clouds 0 943 81 10000 1.29 221 01:45 23.11.2020
5238 Clouds -1 1029 91 10000 0.93 215 23:43 22.11.2020
5239 Clouds 0 943 77 10000 0.92 181 22:19 22.11.2020
5240 Clouds 0 943 77 10000 1.11 178 21:24 22.11.2020
5241 Clouds 1 1029 91 10000 1.24 159 19:59 22.11.2020
5242 Clouds 0 943 70 10000 1.06 167 18:57 22.11.2020
5243 Clouds 4 1025 72 10000 0.89 139 17:59 22.11.2020
5244 Clouds 7 1025 59 10000 0.89 213 16:25 22.11.2020
5245 Clouds 9 1024 48 10000 0.45 310 14:58 22.11.2020
5246 Clouds 8 1026 45 10000 0.45 24 12:51 22.11.2020
5247 Clouds 7 1026 24 10000 1.34 220 12:31 22.11.2020
5248 Clouds 6 1027 25 10000 0.89 152 11:39 22.11.2020
5249 Clouds 7 1030 46 7000 2.1 100 10:47 22.11.2020
5250 Clouds 6 1031 78 10000 0.66 163 10:29 22.11.2020
5251 Clouds 0 1031 45 10000 1.27 165 02:47 22.11.2020
5252 Clear -1 1032 93 10000 1.37 157 23:54 21.11.2020
5253 Clear -1 1030 69 10000 0.45 112 22:40 21.11.2020
5254 Clear -1 1029 64 10000 0.72 174 21:30 21.11.2020
5255 Clear -1 1030 73 10000 0.89 157 20:49 21.11.2020
5256 Clear -2 1033 88 10000 1.13 166 19:58 21.11.2020
5257 Clear 0 1033 88 10000 1.13 166 19:37 21.11.2020
5258 Clear 0 1029 87 10000 0.89 244 18:39 21.11.2020
5259 Clear 1 1029 85 10000 0.45 211 17:30 21.11.2020
5260 Clear 3 1029 71 10000 0.45 163 16:44 21.11.2020
5261 Clear 5 1029 57 10000 0.13 343 15:40 21.11.2020
5262 Clouds 4 1029 57 10000 0.44 42 15:19 21.11.2020
5263 Clouds 4 1030 55 10000 0.89 176 14:39 21.11.2020
5264 Clear 4 1034 72 10000 0.45 208 12:43 21.11.2020
5265 Clear 4 1031 30 10000 1.34 222 12:20 21.11.2020
5266 Clear 4 1035 80 10000 0.45 269 11:23 21.11.2020
5267 Clear 0 1031 72 10000 0.79 122 10:27 21.11.2020
5268 Clear -1 1033 74 10000 0.45 157 08:52 21.11.2020
5269 Clear -4 1031 86 10000 0.45 205 07:52 21.11.2020
5270 Clear -3 1031 82 10000 0.45 273 05:24 21.11.2020
5271 Clear -2 1035 92 10000 2.25 148 01:43 21.11.2020
5272 Clouds -1 1035 91 10000 1.67 138 23:59 20.11.2020
5273 Clouds -2 950 81 10000 1.5 130 22:31 20.11.2020
5274 Clouds 1 1032 84 10000 0.45 102 21:44 20.11.2020
5275 Clouds 1 1032 84 10000 0.45 102 21:21 20.11.2020
5276 Clouds 2 1032 82 2853 0.45 350 19:52 20.11.2020
5277 Clouds 2 1031 81 2908 1.31 33 18:53 20.11.2020
5278 Clouds 2 1031 79 1901 1.79 357 17:53 20.11.2020
5279 Clouds 2 1030 78 2156 0.89 313 17:28 20.11.2020
5280 Clouds 3 1030 80 2156 0.89 322 16:40 20.11.2020
5281 Clouds 3 1030 80 5743 0.89 322 15:59 20.11.2020
5282 Clouds 3 1030 83 7052 1.79 351 15:27 20.11.2020
5283 Clouds 3 1030 87 7032 1.34 352 13:47 20.11.2020
5284 Clouds 3 1030 87 2271 1.34 352 13:18 20.11.2020
5285 Clouds 3 1030 86 2271 0.89 337 12:36 20.11.2020
5286 Clouds 3 1030 91 445 0.45 127 11:45 20.11.2020
5287 Clouds 3 1030 91 231 0.45 127 10:59 20.11.2020
5288 Clouds 2 1029 96 62 0.45 85 08:54 20.11.2020
5289 Clouds 1 1029 95 62 1.52 341 08:25 20.11.2020
5290 Rain 2 1028 92 62 1.52 341 07:32 20.11.2020
5291 Clouds 3 1027 94 68 1.29 314 03:44 20.11.2020
5292 Rain 5 1028 80 108 1.34 217 22:42 19.11.2020
5293 Clouds 5 1028 80 251 1.34 217 21:56 19.11.2020
5294 Clouds 5 1028 72 251 0.45 55 21:36 19.11.2020
5295 Clouds 6 1028 70 86 1.79 144 20:32 19.11.2020
5296 Clouds 6 1028 70 63 1.79 144 19:49 19.11.2020
5297 Clouds 6 1027 79 119 2.37 265 19:24 19.11.2020
5298 Clouds 6 1025 87 323 0.45 269 17:40 19.11.2020
5299 Rain 6 1025 87 48 0.45 269 16:54 19.11.2020
5300 Rain 9 1023 86 104 1.79 127 15:36 19.11.2020
5301 Rain 10 1023 86 1020 1.79 127 15:18 19.11.2020
5302 Rain 11 1022 71 5810 0.45 146 13:46 19.11.2020
5303 Rain 11 1022 71 9807 0.45 146 13:18 19.11.2020
5304 Rain 10 1022 67 10000 0.89 252 12:35 19.11.2020
5305 Clouds 10 1022 70 10000 1.34 282 11:44 19.11.2020
5306 Clouds 12 1023 74 10000 0.45 267 11:25 19.11.2020
5307 Clouds 9 940 68 10000 2.24 0 10:52 19.11.2020
5308 Clouds 9 1023 45 10000 1.34 234 09:58 19.11.2020
5309 Clouds 9 941 53 10000 1.68 229 09:37 19.11.2020
5310 Clouds 9 940 54 10000 1.95 226 09:18 19.11.2020
5311 Clouds 7 1023 72 10000 2.16 213 08:19 19.11.2020
5312 Clear 7 1021 100 10000 1.69 214 02:20 19.11.2020
5313 Clear 6 1021 100 10000 1.97 200 01:30 19.11.2020
5314 Clouds 9 1022 100 10000 2.14 183 23:47 18.11.2020
5315 Clouds 9 1022 100 10000 2.14 183 23:47 18.11.2020
5316 Clouds 9 1022 100 10000 2.23 183 23:24 18.11.2020
5317 Clouds 10 1022 100 10000 2.23 183 22:30 18.11.2020
5318 Clouds 10 1022 100 10000 2.25 190 21:45 18.11.2020
5319 Clouds 9 1026 53 10000 0.89 135 21:27 18.11.2020
5320 Clouds 8 1026 54 10000 0.89 180 20:40 18.11.2020
5321 Clouds 8 1023 100 10000 2.27 189 19:45 18.11.2020
5322 Clouds 8 1026 56 10000 0.45 180 19:25 18.11.2020
5323 Clouds 8 1025 84 10000 0.89 174 18:48 18.11.2020
5324 Clouds 8 1025 84 10000 0.89 174 17:55 18.11.2020
5325 Clear 9 1025 78 10000 0.45 220 16:58 18.11.2020
5326 Clear 12 1025 66 10000 1.34 227 16:21 18.11.2020
5327 Clear 15 1025 47 10000 0.39 271 14:44 18.11.2020
5328 Clear 15 1025 47 10000 0.43 309 14:25 18.11.2020
5329 Clear 15 1025 48 10000 0.43 309 13:37 18.11.2020
5330 Clear 12 1027 60 10000 0.58 315 12:45 18.11.2020
5331 Clear 11 1026 29 10000 1.34 191 11:57 18.11.2020
5332 Clear 10 1028 74 10000 0.08 107 11:25 18.11.2020
5333 Clear 12 1025 75 10000 0.45 213 10:31 18.11.2020
5334 Clouds 7 1029 100 9000 0.5 0 08:52 18.11.2020
5335 Clear 6 1029 43 10000 1.86 166 07:36 18.11.2020
5336 Clouds 4 1023 100 10000 1.61 160 06:28 18.11.2020
5337 Clouds 3 1026 73 10000 1.9 164 00:22 18.11.2020
5338 Clouds 5 1028 94 10000 1.9 164 23:30 17.11.2020
5339 Clouds 4 1028 80 10000 2.68 45 22:46 17.11.2020
5340 Clouds 5 1029 94 10000 1.73 163 22:27 17.11.2020
5341 Clouds 4 1029 90 10000 0.45 161 21:49 17.11.2020
5342 Clouds 5 1030 90 10000 0.89 163 21:29 17.11.2020
5343 Clouds 5 1029 90 10000 0.89 161 20:43 17.11.2020
5344 Clouds 5 1029 90 10000 0.45 155 20:23 17.11.2020
5345 Clouds 5 1028 88 10000 0.89 213 19:44 17.11.2020
5346 Clouds 6 1028 88 10000 1.34 206 18:23 17.11.2020
5347 Clouds 8 1028 84 10000 0.45 208 17:33 17.11.2020
5348 Clouds 9 1029 74 10000 0.45 274 16:37 17.11.2020
5349 Clouds 10 1029 71 10000 0.45 294 15:58 17.11.2020
5350 Clouds 10 1027 63 10000 1.34 8 15:36 17.11.2020
5351 Clouds 10 1027 63 10000 1.34 8 14:58 17.11.2020
5352 Clouds 10 1027 63 10000 1.79 349 14:30 17.11.2020
5353 Clouds 10 1027 59 10000 0.56 346 13:45 17.11.2020
5354 Clouds 11 1027 59 10000 0.6 335 13:21 17.11.2020
5355 Clouds 11 1027 59 10000 0.6 335 13:21 17.11.2020
5356 Clouds 10 1028 64 10000 0.52 337 12:42 17.11.2020
5357 Clouds 8 1029 73 10000 0.88 327 11:45 17.11.2020
5358 Clouds 8 1029 73 10000 0.5 292 11:21 17.11.2020
5359 Clouds 9 947 70 10000 0.5 292 10:39 17.11.2020
5360 Clouds 7 947 79 10000 0.36 190 09:53 17.11.2020
5361 Clouds 7 947 81 10000 0.36 190 09:33 17.11.2020
5362 Clouds 1 1027 95 10000 0.45 164 08:25 17.11.2020
5363 Clouds 1 1027 95 10000 0.45 164 07:56 17.11.2020
5364 Clouds 1 1026 96 10000 0.45 137 07:26 17.11.2020
5365 Clouds 3 1026 97 10000 0.45 196 04:28 17.11.2020
5366 Clouds 4 1026 94 10000 0.45 151 02:55 17.11.2020
5367 Clouds 5 1026 94 10000 0.45 165 02:21 17.11.2020
5368 Clouds 5 1026 95 10000 0.45 252 00:56 17.11.2020
5369 Clouds 6 1025 94 10000 0.45 169 23:51 16.11.2020
5370 Clouds 6 1025 94 10000 0.45 169 23:51 16.11.2020
5371 Clouds 6 1025 93 10000 1.34 144 23:29 16.11.2020
5372 Clouds 6 1025 93 10000 1.42 208 22:48 16.11.2020
5373 Clouds 6 1025 93 10000 1.44 205 22:21 16.11.2020
5374 Clouds 6 1024 91 10000 0.45 152 21:48 16.11.2020
5375 Clouds 6 1024 91 10000 0.45 152 21:25 16.11.2020
5376 Clouds 6 1024 91 10000 0.45 152 20:54 16.11.2020
5377 Clouds 6 1024 90 10000 0.89 174 20:25 16.11.2020
5378 Clouds 7 1024 88 10000 0.45 201 19:42 16.11.2020
5379 Clouds 7 1024 88 10000 0.45 201 19:24 16.11.2020
5380 Clouds 7 1023 85 10000 0.45 125 18:42 16.11.2020
5381 Clouds 7 1023 85 10000 0.45 125 17:53 16.11.2020
5382 Rain 8 1022 85 7665 1.34 220 17:25 16.11.2020
5383 Clouds 8 1022 85 7665 1.34 220 16:56 16.11.2020
5384 Clouds 8 1022 75 7665 1.18 233 16:36 16.11.2020
5385 Clouds 8 1022 75 10000 1.16 271 16:18 16.11.2020
5386 Clouds 9 1021 70 10000 0.45 335 15:41 16.11.2020
5387 Clouds 9 1021 70 10000 0.45 335 15:21 16.11.2020
5388 Clouds 10 1021 67 10000 0.89 222 14:39 16.11.2020
5389 Clouds 9 1020 57 10000 0.89 181 13:33 16.11.2020
5390 Clouds 10 1020 75 10000 0.89 219 12:34 16.11.2020
5391 Clouds 9 1020 81 10000 0.89 238 11:44 16.11.2020
5392 Clouds 9 1020 81 10000 0.89 238 11:25 16.11.2020
5393 Clouds 8 1020 81 10000 0.89 238 10:51 16.11.2020
5394 Rain 7 1020 87 8442 0.89 213 10:27 16.11.2020
5395 Clouds 7 1020 87 8442 0.89 213 09:59 16.11.2020
5396 Clouds 7 1019 86 8442 0.89 218 09:40 16.11.2020
5397 Rain 7 1019 86 114 0.89 218 08:49 16.11.2020
5398 Rain 7 1019 75 125 3.13 113 08:27 16.11.2020
5399 Rain 7 1018 76 125 1.79 123 07:43 16.11.2020
5400 Rain 7 1018 76 125 1.79 123 07:43 16.11.2020
5401 Rain 7 1016 83 818 0.89 324 06:47 16.11.2020
5402 Rain 7 1016 83 818 0.89 324 06:47 16.11.2020
5403 Rain 8 1016 83 10000 0.89 324 05:50 16.11.2020
5404 Rain 10 1015 71 10000 0.89 120 04:36 16.11.2020
5405 Clouds 7 1015 81 10000 3.48 185 01:47 16.11.2020
5406 Clouds 7 1015 81 10000 2.51 190 01:21 16.11.2020
5407 Rain 6 1015 88 10000 1.34 161 23:43 15.11.2020
5408 Clouds 8 932 76 10000 2.66 185 23:21 15.11.2020
5409 Clouds 8 932 76 10000 0.89 315 22:37 15.11.2020
5410 Clouds 7 932 75 10000 2.9 168 22:18 15.11.2020
5411 Clouds 6 1014 86 10000 0.89 207 21:37 15.11.2020
5412 Clouds 7 1014 86 10000 0.89 207 21:19 15.11.2020
5413 Clouds 5 1014 86 10000 1.34 180 20:40 15.11.2020
5414 Clouds 5 1014 86 10000 1.34 180 19:59 15.11.2020
5415 Clouds 7 1014 80 10000 0.89 219 19:41 15.11.2020
5416 Clouds 7 1014 80 10000 0.89 219 19:21 15.11.2020
5417 Clouds 7 1014 81 10000 1.34 231 18:45 15.11.2020
5418 Clouds 8 1014 81 10000 1.34 231 18:25 15.11.2020
5419 Clouds 8 1014 81 10000 1.34 231 17:59 15.11.2020
5420 Clouds 9 1014 72 10000 0.89 164 17:40 15.11.2020
5421 Clouds 10 1014 72 10000 0.89 164 17:22 15.11.2020
5422 Clouds 10 932 65 10000 1.26 199 16:44 15.11.2020
5423 Clouds 14 1014 62 10000 0.91 238 16:19 15.11.2020
5424 Clouds 14 1013 51 10000 0.89 293 15:44 15.11.2020
5425 Clouds 14 1013 51 10000 0.89 293 15:25 15.11.2020
5426 Clouds 15 1013 51 10000 0.89 293 14:54 15.11.2020
5427 Clouds 15 1014 45 10000 0.45 20 14:27 15.11.2020
5428 Clouds 14 1015 53 10000 0.89 212 13:44 15.11.2020
5429 Clouds 14 1015 53 10000 0.89 212 13:25 15.11.2020
5430 Clouds 13 1016 56 10000 0.18 137 12:47 15.11.2020
5431 Clouds 13 1016 56 10000 0.29 177 12:19 15.11.2020
5432 Clouds 13 1016 61 10000 0.45 173 11:44 15.11.2020
5433 Clouds 13 1017 49 10000 0.45 157 11:19 15.11.2020
5434 Clouds 12 935 49 10000 0.77 158 10:53 15.11.2020
5435 Clouds 10 1017 76 10000 0.77 158 10:31 15.11.2020
5436 Clouds 11 1018 92 10000 1 160 09:55 15.11.2020
5437 Clouds 9 936 63 10000 0.89 337 09:32 15.11.2020
5438 Clouds 8 1014 100 10000 1.29 166 08:56 15.11.2020
5439 Clouds 7 1014 100 10000 1.29 166 08:38 15.11.2020
5440 Clouds 7 1014 100 10000 1.48 167 07:45 15.11.2020
5441 Clouds 5 1020 44 10000 1.43 166 06:42 15.11.2020
5442 Clear 4 1019 96 10000 1.58 167 04:53 15.11.2020
5443 Clear 6 1021 43 10000 2.03 163 01:54 15.11.2020
5444 Clear 7 1022 43 10000 2.06 164 00:30 15.11.2020
5445 Clear 7 1022 42 10000 2.19 166 23:49 14.11.2020
5446 Clear 6 1022 42 10000 2.33 167 22:55 14.11.2020
5447 Clear 6 1022 42 10000 2.33 167 22:55 14.11.2020
5448 Clear 6 1022 42 10000 2.33 167 22:37 14.11.2020
5449 Clear 7 1022 42 10000 2.24 170 22:18 14.11.2020
5450 Clear 6 1022 42 10000 2.24 170 21:39 14.11.2020
5451 Clear 7 1019 79 10000 0.89 22 21:20 14.11.2020
5452 Clear 7 1019 81 10000 0.45 163 20:42 14.11.2020
5453 Clouds 7 1019 84 10000 0.89 156 20:23 14.11.2020
5454 Clouds 6 1019 79 10000 0.45 225 19:36 14.11.2020
5455 Clear 7 1019 79 10000 0.45 225 18:58 14.11.2020
5456 Clear 7 1019 77 10000 0.89 227 18:39 14.11.2020
5457 Clear 8 1019 77 10000 0.89 227 18:21 14.11.2020
5458 Clear 8 1019 76 10000 0.45 158 17:44 14.11.2020
5459 Clear 9 1019 74 10000 0.89 160 17:25 14.11.2020
5460 Clear 11 1019 68 10000 1.27 168 16:52 14.11.2020
5461 Clear 12 1019 64 10000 1.27 168 16:31 14.11.2020
5462 Clear 13 937 52 10000 0.55 136 15:53 14.11.2020
5463 Clear 15 1019 52 10000 0.45 340 15:31 14.11.2020
5464 Clear 15 1019 50 10000 0.89 306 14:54 14.11.2020
5465 Clear 16 1019 51 10000 0.89 299 14:29 14.11.2020
5466 Clear 15 1019 49 10000 0.45 320 13:51 14.11.2020
5467 Clear 15 1020 51 10000 0.43 22 13:29 14.11.2020
5468 Clear 15 1020 50 10000 0.43 22 12:49 14.11.2020
5469 Clear 14 1020 49 10000 0.43 22 12:30 14.11.2020
5470 Clear 13 1021 54 10000 0.71 2 11:55 14.11.2020
5471 Clear 13 1021 58 10000 0.71 2 11:36 14.11.2020
5472 Clear 12 1023 54 10000 0.45 180 10:51 14.11.2020
5473 Clear 11 1023 70 10000 0.76 151 10:27 14.11.2020
5474 Clear 11 1023 70 10000 0.76 151 10:27 14.11.2020
5475 Clear 13 940 55 10000 0.89 315 09:58 14.11.2020
5476 Clear 11 940 57 10000 1.34 337 09:40 14.11.2020
5477 Clouds 9 940 69 10000 0.89 337 09:22 14.11.2020
5478 Clear 6 1023 100 10000 2.6 110 08:40 14.11.2020
5479 Clouds 6 1024 44 10000 1.58 158 08:18 14.11.2020
5480 Clouds 6 1024 43 10000 1.58 158 07:41 14.11.2020
5481 Clouds 6 1024 43 10000 1.46 162 06:38 14.11.2020
5482 Clouds 6 1024 43 10000 1.2 174 06:20 14.11.2020
5483 Clouds 6 1024 42 10000 1.38 177 04:39 14.11.2020
5484 Clouds 7 1024 42 10000 1.65 171 01:29 14.11.2020
5485 Clouds 6 1022 84 10000 0.45 168 23:54 13.11.2020
5486 Clouds 6 1022 84 10000 0.45 168 23:54 13.11.2020
5487 Clouds 6 1022 83 10000 0.89 136 23:33 13.11.2020
5488 Clouds 6 1022 83 10000 0.89 136 22:56 13.11.2020
5489 Clouds 6 1022 83 10000 0.89 220 22:38 13.11.2020
5490 Clouds 6 1022 83 10000 0.89 220 22:19 13.11.2020
5491 Clouds 6 1022 77 10000 0.89 213 21:42 13.11.2020
5492 Clouds 7 1022 77 10000 0.89 213 21:22 13.11.2020
5493 Clouds 7 1022 77 10000 0.89 213 20:50 13.11.2020
5494 Clouds 7 1022 75 10000 0.89 143 20:23 13.11.2020
5495 Clouds 8 1022 79 10000 0.45 258 19:47 13.11.2020
5496 Clouds 8 1022 79 10000 0.45 258 19:24 13.11.2020
5497 Clouds 8 1022 79 10000 0.45 258 18:58 13.11.2020
5498 Clouds 8 1021 70 10000 0.45 221 18:30 13.11.2020
5499 Clouds 10 1021 67 10000 1.34 212 17:43 13.11.2020
5500 Clouds 10 1021 67 10000 1.34 212 17:20 13.11.2020
5501 Clouds 9 1021 67 10000 1.34 212 16:50 13.11.2020
5502 Clouds 13 1021 55 10000 0.4 288 16:25 13.11.2020
5503 Clouds 13 939 52 10000 0.4 288 15:55 13.11.2020
5504 Clouds 15 1020 44 10000 1.34 150 15:32 13.11.2020
5505 Clear 15 1020 44 10000 1.34 150 14:52 13.11.2020
5506 Clear 15 1021 43 10000 1.34 2 14:28 13.11.2020
5507 Clear 15 1021 43 10000 1.34 2 13:54 13.11.2020
5508 Clear 14 1021 50 10000 0.89 348 13:31 13.11.2020
5509 Clouds 13 1021 50 10000 0.89 348 12:52 13.11.2020
5510 Clouds 13 1021 46 10000 0.89 288 12:27 13.11.2020
5511 Clouds 13 1021 46 10000 0.89 288 11:56 13.11.2020
5512 Clouds 11 1022 55 10000 0.89 240 11:37 13.11.2020
5513 Clouds 11 1022 55 10000 0.89 240 10:59 13.11.2020
5514 Clouds 11 1021 38 10000 1.05 274 10:41 13.11.2020
5515 Clouds 10 1021 77 10000 1.34 71 10:22 13.11.2020
5516 Clouds 10 1023 89 10000 0.45 293 09:47 13.11.2020
5517 Clear 9 1023 95 10000 1.42 179 09:25 13.11.2020
5518 Clouds 5 1023 93 10000 1 0 08:52 13.11.2020
5519 Clear 4 1024 43 10000 1.62 174 08:22 13.11.2020
5520 Clear 3 1022 87 10000 1.62 174 07:48 13.11.2020
5521 Clear 5 1024 43 10000 1.57 179 07:27 13.11.2020
5522 Clear 5 1022 64 10000 0.45 112 06:55 13.11.2020
5523 Clear 5 1022 65 10000 0.45 112 06:34 13.11.2020
5524 Clear 5 1022 65 10000 0.45 112 06:34 13.11.2020
5525 Clear 4 1023 63 10000 0.45 112 05:40 13.11.2020
5526 Clouds 4 1022 96 10000 1.79 165 02:57 13.11.2020
5527 Clouds 6 1024 42 10000 1.65 164 01:39 13.11.2020
5528 Clouds 5 1024 65 10000 0.45 112 00:35 13.11.2020
5529 Clouds 5 1023 80 10000 1.71 164 23:47 12.11.2020
5530 Clouds 6 1022 80 10000 1.51 160 23:20 12.11.2020
5531 Clouds 6 1023 94 10000 1.51 160 22:54 12.11.2020
5532 Clouds 6 1023 94 10000 1.51 160 22:36 12.11.2020
5533 Clouds 6 1023 93 10000 1.32 157 21:57 12.11.2020
5534 Clouds 6 1023 93 10000 1.32 157 21:38 12.11.2020
5535 Clouds 7 1023 77 10000 1.28 158 21:18 12.11.2020
5536 Clouds 6 1022 78 10000 0.89 180 20:40 12.11.2020
5537 Clouds 6 1022 78 10000 0.89 180 20:22 12.11.2020
5538 Clouds 6 1022 78 10000 0.89 180 19:52 12.11.2020
5539 Clouds 7 1023 78 10000 0.45 201 19:33 12.11.2020
5540 Clouds 7 1023 78 10000 0.45 201 18:56 12.11.2020
5541 Clouds 7 1023 78 10000 0.45 201 18:56 12.11.2020
5542 Clouds 7 1022 70 10000 0.89 239 18:37 12.11.2020
5543 Clouds 8 1022 70 10000 0.89 239 18:18 12.11.2020
5544 Clouds 7 940 72 10000 0.7 178 17:39 12.11.2020
5545 Clouds 8 1021 44 10000 0.47 301 17:20 12.11.2020
5546 Clouds 11 1022 60 10000 1.79 345 16:44 12.11.2020
5547 Clouds 13 1022 62 10000 2.68 348 16:23 12.11.2020
5548 Clouds 14 1021 52 10000 0.45 199 15:46 12.11.2020
5549 Clouds 14 1021 52 10000 0.45 199 15:26 12.11.2020
5550 Clouds 15 1021 44 10000 1.37 309 14:47 12.11.2020
5551 Clear 15 1021 44 10000 1.69 291 14:27 12.11.2020
5552 Clear 15 1021 44 10000 1.69 291 14:27 12.11.2020
5553 Clear 15 1021 44 10000 1.69 291 13:57 12.11.2020
5554 Clear 14 1021 47 10000 3.13 71 13:37 12.11.2020
5555 Clouds 14 1021 47 10000 3.13 71 13:18 12.11.2020
5556 Clouds 13 1022 69 10000 0.45 177 12:44 12.11.2020
5557 Clouds 13 1022 69 10000 0.45 177 12:23 12.11.2020
5558 Clouds 12 1022 69 10000 0.45 177 11:52 12.11.2020
5559 Clouds 10 1022 74 10000 1.7 275 11:30 12.11.2020
5560 Clouds 9 1023 93 10000 1.89 269 10:45 12.11.2020
5561 Rain 9 1023 96 10000 1.25 231 10:27 12.11.2020
5562 Clouds 7 1023 98 10000 1.25 231 09:49 12.11.2020
5563 Clouds 6 1023 98 10000 1.07 208 09:24 12.11.2020
5564 Clouds 6 1023 98 10000 1.07 208 08:57 12.11.2020
5565 Clouds 6 1023 98 10000 1.07 208 08:39 12.11.2020
5566 Clouds 6 1022 98 10000 0.45 107 08:20 12.11.2020
5567 Clouds 5 1024 42 10000 1.44 198 07:52 12.11.2020
5568 Clear 4 1022 98 10000 0.89 116 07:25 12.11.2020
5569 Clear 4 1020 79 10000 1.82 191 06:51 12.11.2020
5570 Clear 3 1022 98 10000 0.89 202 05:38 12.11.2020
5571 Clear 3 1021 78 10000 2.01 186 03:24 12.11.2020
5572 Clear 3 1021 78 10000 2.01 186 02:53 12.11.2020
5573 Clear 4 940 88 10000 1.8 178 00:22 12.11.2020
5574 Clear 4 1021 78 10000 1.75 188 23:26 11.11.2020
5575 Clear 4 940 88 10000 1.75 188 22:59 11.11.2020
5576 Clear 4 940 88 10000 1.75 188 22:40 11.11.2020
5577 Clear 4 940 88 10000 1.55 190 22:21 11.11.2020
5578 Clear 4 1023 92 10000 1.55 190 21:54 11.11.2020
5579 Clear 3 1022 92 10000 0.45 212 21:36 11.11.2020
5580 Clear 4 1022 92 10000 0.45 212 21:18 11.11.2020
5581 Clear 4 1022 90 10000 0.45 217 20:41 11.11.2020
5582 Clear 5 1022 90 10000 0.45 217 20:21 11.11.2020
5583 Clear 5 1022 88 10000 0.45 223 19:49 11.11.2020
5584 Clear 5 1022 88 10000 0.45 223 19:31 11.11.2020
5585 Clouds 6 1022 88 10000 0.45 223 18:55 11.11.2020
5586 Clouds 7 1022 83 10000 0.97 159 18:35 11.11.2020
5587 Clouds 8 1021 83 10000 0.89 221 17:43 11.11.2020
5588 Clouds 8 1021 83 10000 0.89 221 17:23 11.11.2020
5589 Clouds 9 1021 83 10000 0.89 221 16:56 11.11.2020
5590 Clouds 11 1021 65 10000 0.45 289 16:34 11.11.2020
5591 Clouds 12 1021 65 10000 0.45 289 15:53 11.11.2020
5592 Clouds 12 1022 65 10000 0.89 34 15:27 11.11.2020
5593 Clouds 12 1022 65 10000 0.89 34 14:59 11.11.2020
5594 Clouds 12 1022 69 10000 1.79 308 14:39 11.11.2020
5595 Clouds 12 1022 69 10000 1.79 308 14:18 11.11.2020
5596 Clouds 11 1023 62 10000 0.45 342 13:38 11.11.2020
5597 Clear 11 1023 62 10000 0.45 342 12:52 11.11.2020
5598 Clear 10 1023 75 10000 1.3 8 12:21 11.11.2020
5599 Clear 10 1023 75 10000 1.3 8 11:50 11.11.2020
5600 Clear 10 1023 75 10000 1.3 8 11:50 11.11.2020
5601 Clear 9 1024 82 10000 1.3 8 11:30 11.11.2020
5602 Clear 9 1025 98 10000 0.85 18 10:43 11.11.2020
5603 Clear 9 1025 98 10000 0.24 60 10:25 11.11.2020
5604 Clear 8 1024 77 10000 0.24 60 09:52 11.11.2020
5605 Clear 6 1025 91 10000 0.45 73 09:29 11.11.2020
5606 Clear 6 1025 91 10000 0.45 73 08:57 11.11.2020
5607 Clear 5 1025 92 10000 0.45 222 08:36 11.11.2020
5608 Clear 4 1025 92 10000 0.45 222 08:18 11.11.2020
5609 Clear 3 1025 96 10000 0.45 206 07:41 11.11.2020
5610 Clouds 3 1025 94 10000 0.45 222 06:30 11.11.2020
5611 Clouds 3 1026 93 10000 0.45 284 04:48 11.11.2020
5612 Clouds 5 1026 94 10000 0.45 166 01:35 11.11.2020
5613 Clouds 5 1026 94 10000 0.44 169 00:55 11.11.2020
5614 Clouds 5 1026 93 10000 0.46 167 00:22 11.11.2020
5615 Clouds 7 1026 87 10000 0.45 182 23:25 10.11.2020
5616 Clouds 7 1026 87 10000 0.45 182 22:59 10.11.2020
5617 Clouds 7 1026 86 10000 0.63 214 22:37 10.11.2020
5618 Clouds 7 1026 86 10000 0.69 211 22:19 10.11.2020
5619 Clouds 7 1026 86 10000 0.69 211 22:19 10.11.2020
5620 Clouds 7 1025 83 10000 0.69 211 21:40 10.11.2020
5621 Clouds 7 1025 83 10000 0.64 180 21:22 10.11.2020
5622 Clouds 7 1025 83 10000 0.45 340 20:43 10.11.2020
5623 Clouds 7 1025 83 10000 0.45 340 20:23 10.11.2020
5624 Clouds 8 1025 83 10000 0.45 340 19:58 10.11.2020
5625 Clouds 7 1026 90 10000 0.45 56 19:39 10.11.2020
5626 Clouds 7 1026 89 10000 0.72 144 19:21 10.11.2020
5627 Clouds 9 1025 78 10000 0.72 144 18:42 10.11.2020
5628 Clouds 9 1025 78 10000 0.55 112 18:21 10.11.2020
5629 Clouds 10 1024 78 10000 0.89 243 17:47 10.11.2020
5630 Clouds 10 1024 78 10000 0.89 243 17:28 10.11.2020
5631 Clouds 9 1024 78 10000 0.89 243 16:58 10.11.2020
5632 Clouds 9 943 71 10000 0.72 41 16:40 10.11.2020
5633 Clouds 12 1025 76 10000 0.89 318 16:22 10.11.2020
5634 Clouds 14 1024 63 10000 1.17 9 15:48 10.11.2020
5635 Clouds 14 1024 63 10000 1.6 4 15:27 10.11.2020
5636 Clouds 13 1024 65 10000 1.79 319 14:47 10.11.2020
5637 Clouds 13 1024 65 10000 1.79 319 14:24 10.11.2020
5638 Clouds 13 1024 65 10000 1.79 319 14:00 10.11.2020
5639 Clouds 13 1024 63 10000 0.45 32 13:38 10.11.2020
5640 Clouds 12 1024 63 10000 0.45 32 13:19 10.11.2020
5641 Clouds 12 1024 59 10000 0.45 306 12:45 10.11.2020
5642 Clouds 12 1024 59 10000 0.45 306 12:24 10.11.2020
5643 Clouds 12 1024 59 10000 0.45 306 12:24 10.11.2020
5644 Clouds 11 1025 71 10000 0.45 44 11:43 10.11.2020
5645 Clouds 11 1025 71 10000 0.45 44 11:21 10.11.2020
5646 Clouds 11 1025 71 10000 0.45 44 11:21 10.11.2020
5647 Clouds 10 1025 71 10000 0.45 44 10:57 10.11.2020
5648 Clouds 11 1026 86 10000 0.98 20 10:37 10.11.2020
5649 Clouds 10 1024 77 10000 0.42 90 10:19 10.11.2020
5650 Clouds 10 943 88 10000 0.42 90 09:42 10.11.2020
5651 Clouds 7 1026 97 10000 1.03 148 09:24 10.11.2020
5652 Clouds 7 1026 97 10000 1.03 148 09:24 10.11.2020
5653 Fog 6 1027 100 700 2.1 80 08:52 10.11.2020
5654 Clouds 5 1026 97 10000 1.38 150 08:26 10.11.2020
5655 Fog 5 1026 93 450 2.1 100 07:44 10.11.2020
5656 Clear 3 1024 78 10000 0.89 68 07:22 10.11.2020
5657 Clear 2 1024 78 10000 1.34 67 06:40 10.11.2020
5658 Clear 2 1024 78 10000 0.89 67 05:42 10.11.2020
5659 Clear 3 1025 96 10000 1.27 149 04:54 10.11.2020
5660 Clear 4 1025 96 10000 1.29 157 02:28 10.11.2020
5661 Clear 4 1025 96 10000 1.27 157 01:29 10.11.2020
5662 Clear 4 1025 95 10000 1.08 156 23:54 09.11.2020
5663 Clear 4 1025 91 10000 0.89 148 23:30 09.11.2020
5664 Clear 5 1025 91 10000 0.89 157 22:47 09.11.2020
5665 Clear 5 1025 91 10000 0.89 162 22:24 09.11.2020
5666 Clear 5 1024 89 10000 1.06 176 21:46 09.11.2020
5667 Clear 5 1024 89 10000 1.06 176 21:46 09.11.2020
5668 Clear 5 1024 89 10000 1.13 176 21:27 09.11.2020
5669 Clear 5 1024 89 10000 1.13 176 20:58 09.11.2020
5670 Clear 6 1024 90 10000 0.45 206 20:37 09.11.2020
5671 Clear 6 1024 90 10000 0.45 206 20:18 09.11.2020
5672 Clear 7 1024 88 10000 1.34 210 19:40 09.11.2020
5673 Clear 7 1024 88 10000 1.34 210 19:21 09.11.2020
5674 Clear 8 1024 82 10000 0.45 185 18:41 09.11.2020
5675 Clear 8 1024 82 10000 0.45 185 18:20 09.11.2020
5676 Clear 9 1024 82 10000 0.45 185 17:50 09.11.2020
5677 Clear 10 1023 75 10000 0.89 227 17:30 09.11.2020
5678 Clear 12 1023 65 10000 0.45 241 16:46 09.11.2020
5679 Clear 13 1023 65 10000 0.45 241 16:27 09.11.2020
5680 Clear 13 1023 65 10000 0.45 241 16:27 09.11.2020
5681 Clear 13 1023 65 10000 0.45 241 15:51 09.11.2020
5682 Clear 15 1022 49 10000 0.45 310 15:30 09.11.2020
5683 Clear 15 1022 49 10000 0.45 310 14:57 09.11.2020
5684 Clear 15 1022 49 10000 0.89 302 14:37 09.11.2020
5685 Clear 15 1022 49 10000 0.89 302 14:19 09.11.2020
5686 Clear 16 1023 49 10000 0.45 79 13:43 09.11.2020
5687 Clear 15 1023 49 10000 0.45 79 13:19 09.11.2020
5688 Clear 14 1023 53 10000 1.34 136 12:47 09.11.2020
5689 Clear 14 1023 53 10000 1.34 136 12:21 09.11.2020
5690 Clear 13 1024 58 10000 0.45 154 11:43 09.11.2020
5691 Clear 13 1024 58 10000 0.45 154 11:43 09.11.2020
5692 Clear 12 1024 62 10000 0.45 154 11:25 09.11.2020
5693 Clear 11 1024 65 10000 0.87 319 10:59 09.11.2020
5694 Clear 13 1021 74 10000 0.45 240 10:41 09.11.2020
5695 Clear 10 1023 78 10000 0.51 273 10:22 09.11.2020
5696 Clear 11 942 73 10000 0.51 273 09:40 09.11.2020
5697 Clear 8 942 87 10000 0.89 337 09:22 09.11.2020
5698 Clear 6 1025 97 10000 1.4 179 08:29 09.11.2020
5699 Clear 5 1025 97 10000 1.4 179 07:57 09.11.2020
5700 Clear 5 1025 97 10000 1.4 179 07:38 09.11.2020
5701 Clear 4 1024 97 10000 1.42 184 07:18 09.11.2020
5702 Clear 3 1024 97 10000 1.17 184 05:54 09.11.2020
5703 Clear 4 1024 97 10000 1.35 192 02:57 09.11.2020
5704 Clear 4 1024 97 10000 1.31 195 01:41 09.11.2020
5705 Clouds 5 1024 97 10000 1.14 196 00:56 09.11.2020
5706 Clouds 3 941 86 10000 1.13 211 23:50 08.11.2020
5707 Clouds 3 941 86 10000 1.2 209 23:28 08.11.2020
5708 Clouds 4 1024 91 10000 0.45 147 22:43 08.11.2020
5709 Clouds 5 1024 91 10000 0.89 176 22:22 08.11.2020
5710 Clouds 5 1024 91 10000 1.16 211 21:49 08.11.2020
5711 Clear 5 1024 89 10000 0.89 150 21:24 08.11.2020
5712 Clear 5 1024 88 10000 1.12 200 20:57 08.11.2020
5713 Clear 5 1024 88 10000 1.12 200 20:38 08.11.2020
5714 Clear 6 1024 87 10000 1.13 195 20:20 08.11.2020
5715 Clear 7 1023 86 10000 1.13 195 19:46 08.11.2020
5716 Clouds 7 1023 86 10000 0.96 202 19:24 08.11.2020
5717 Clouds 8 1023 76 10000 0.96 202 18:59 08.11.2020
5718 Clouds 10 1023 82 10000 1.02 180 18:40 08.11.2020
5719 Clouds 11 1022 68 10000 0.45 234 18:20 08.11.2020
5720 Clouds 11 1022 68 10000 0.45 234 17:56 08.11.2020
5721 Clouds 11 1022 68 10000 0.45 234 17:36 08.11.2020
5722 Clouds 12 1022 68 10000 0.45 234 17:18 08.11.2020
5723 Clouds 10 1023 66 10000 0.71 120 16:38 08.11.2020
5724 Clouds 12 1023 66 10000 0.45 155 16:20 08.11.2020
5725 Rain 12 1023 67 10000 0.78 42 15:46 08.11.2020
5726 Rain 12 1023 65 10000 0.45 149 15:27 08.11.2020
5727 Rain 12 1023 65 10000 0.45 149 15:27 08.11.2020
5728 Clouds 13 1023 60 10000 0.45 146 14:44 08.11.2020
5729 Clouds 14 1023 58 10000 1.34 189 14:24 08.11.2020
5730 Clouds 15 1023 51 10000 0.45 279 13:56 08.11.2020
5731 Clouds 14 1023 53 10000 1.34 351 13:26 08.11.2020
5732 Clouds 14 1023 53 10000 1.34 351 13:26 08.11.2020
5733 Clouds 14 1024 54 10000 0.45 351 12:59 08.11.2020
5734 Clouds 14 1024 47 10000 0.45 298 12:40 08.11.2020
5735 Clouds 13 1024 53 10000 0.45 148 12:20 08.11.2020
5736 Clouds 13 1025 55 10000 0.89 148 11:55 08.11.2020
5737 Clouds 13 1024 35 10000 0.89 52 11:37 08.11.2020
5738 Clouds 13 1024 36 10000 0.89 52 11:19 08.11.2020
5739 Mist 13 1026 100 2000 2.1 120 10:42 08.11.2020
5740 Mist 9 1027 100 4700 2.6 110 10:18 08.11.2020
5741 Clouds 13 943 54 10000 0.21 349 09:42 08.11.2020
5742 Clear 11 943 63 10000 0.71 159 09:22 08.11.2020
5743 Clouds 9 1027 100 5000 1 0 08:47 08.11.2020
5744 Mist 9 1026 100 4400 1 0 08:23 08.11.2020
5745 Mist 8 1026 100 3300 0.5 0 07:53 08.11.2020
5746 Clear 7 1021 100 10000 1.4 156 07:31 08.11.2020
5747 Mist 6 1025 100 2700 0.5 0 06:29 08.11.2020
5748 Mist 5 1025 100 2700 1 0 05:54 08.11.2020
5749 Fog 4 1025 100 450 1.5 90 04:51 08.11.2020
5750 Fog 7 1025 100 250 2.1 100 02:44 08.11.2020
5751 Mist 7 1025 100 4300 1.5 90 01:19 08.11.2020
5752 Mist 7 1025 100 4300 1.5 90 01:19 08.11.2020
5753 Mist 7 1025 100 4300 1.5 90 01:19 08.11.2020
5754 Clear 9 1026 61 10000 0.45 112 00:31 08.11.2020
5755 Clear 9 1026 61 10000 0.45 112 23:56 07.11.2020
5756 Clear 9 1026 61 10000 0.45 112 23:37 07.11.2020
5757 Clear 7 1026 61 10000 0.45 112 23:18 07.11.2020
5758 Mist 6 1026 100 2400 1 0 22:39 07.11.2020
5759 Clear 6 1023 70 10000 2.62 167 22:20 07.11.2020
5760 Clear 6 1023 73 10000 2.62 167 21:40 07.11.2020
5761 Clear 6 1023 77 10000 2.63 167 21:19 07.11.2020
5762 Clear 6 1023 77 10000 2.63 167 20:46 07.11.2020
5763 Clear 6 1023 77 10000 2.55 168 20:28 07.11.2020
5764 Clear 5 943 84 10000 2.55 168 19:49 07.11.2020
5765 Clear 5 943 84 10000 2.46 172 19:28 07.11.2020
5766 Clear 8 1024 72 10000 0.45 206 18:45 07.11.2020
5767 Clear 8 1024 72 10000 0.45 206 18:27 07.11.2020
5768 Clear 9 1024 72 10000 0.45 206 17:57 07.11.2020
5769 Clear 10 1024 68 10000 1.34 215 17:37 07.11.2020
5770 Clear 11 1024 68 10000 1.34 215 16:54 07.11.2020
5771 Clear 14 1024 51 10000 0.89 218 16:36 07.11.2020
5772 Clear 15 1024 51 10000 0.89 218 16:18 07.11.2020
5773 Clear 17 1024 35 10000 0.65 184 15:41 07.11.2020
5774 Clear 18 1024 35 10000 0.26 316 15:22 07.11.2020
5775 Clear 17 1024 41 10000 0.89 19 14:45 07.11.2020
5776 Clear 17 1024 41 10000 0.89 19 14:26 07.11.2020
5777 Clear 16 1024 41 10000 0.89 19 13:55 07.11.2020
5778 Clear 16 1024 41 10000 0.38 315 13:30 07.11.2020
5779 Clear 17 1026 38 10000 0.11 264 12:47 07.11.2020
5780 Clear 16 1023 58 10000 0.45 239 12:25 07.11.2020
5781 Clear 16 1023 100 10000 1.34 267 11:43 07.11.2020
5782 Clear 16 1024 69 10000 0.45 135 11:22 07.11.2020
5783 Clear 15 1024 74 10000 0.45 246 10:45 07.11.2020
5784 Clouds 10 1028 93 8000 2.1 90 10:25 07.11.2020
5785 Clear 11 944 65 10000 1.08 176 09:52 07.11.2020
5786 Clear 10 944 70 10000 1.08 176 09:34 07.11.2020
5787 Clear 7 1024 100 10000 1.61 174 08:53 07.11.2020
5788 Clouds 9 1028 100 10000 2.1 90 08:34 07.11.2020
5789 Clear 5 1028 91 10000 0.45 45 07:50 07.11.2020
5790 Clear 4 1028 91 10000 2.24 67 07:19 07.11.2020
5791 Clear 4 1028 91 10000 1.98 173 06:47 07.11.2020
5792 Clear 4 1023 79 10000 2.05 169 05:23 07.11.2020
5793 Clear 4 1028 97 10000 2.08 167 03:23 07.11.2020
5794 Clear 4 1027 77 10000 2.16 164 01:28 07.11.2020
5795 Clear 4 1027 77 10000 2.16 164 00:59 07.11.2020
5796 Clear 4 1029 97 10000 2.18 166 23:53 06.11.2020
5797 Clear 4 1027 76 10000 2.26 167 23:21 06.11.2020
5798 Clear 5 1027 75 10000 2.26 167 22:41 06.11.2020
5799 Clear 5 946 89 10000 2.24 165 22:19 06.11.2020
5800 Clear 5 1027 74 10000 0.89 61 21:46 06.11.2020
5801 Clear 5 946 88 10000 2.13 162 21:21 06.11.2020
5802 Clear 6 946 88 10000 0.45 315 20:56 06.11.2020
5803 Clear 5 1028 98 10000 0.45 130 20:38 06.11.2020
5804 Clear 5 1028 98 10000 0.45 130 20:18 06.11.2020
5805 Clear 6 1028 96 10000 0.89 98 19:44 06.11.2020
5806 Clear 6 1028 96 10000 0.89 98 19:26 06.11.2020
5807 Clear 7 1029 93 10000 0.89 193 18:45 06.11.2020
5808 Clear 7 1029 93 10000 0.89 193 18:23 06.11.2020
5809 Clear 7 1029 93 10000 0.89 193 17:51 06.11.2020
5810 Clear 7 1029 89 10000 0.45 212 17:26 06.11.2020
5811 Clear 8 1029 89 10000 0.45 212 16:50 06.11.2020
5812 Clear 8 1030 87 10000 0.42 50 16:27 06.11.2020
5813 Clear 9 1030 86 10000 0.45 146 15:49 06.11.2020
5814 Clear 12 1029 80 10000 0.63 354 15:29 06.11.2020
5815 Clear 11 947 69 10000 0.63 354 14:53 06.11.2020
5816 Clear 12 1028 36 10000 0.77 337 14:27 06.11.2020
5817 Clear 12 1031 72 10000 0.89 292 13:47 06.11.2020
5818 Clear 12 948 62 10000 0.72 342 13:24 06.11.2020
5819 Clear 11 948 65 10000 0.6 346 12:46 06.11.2020
5820 Clear 11 1029 45 10000 1.34 46 12:25 06.11.2020
5821 Clear 10 948 70 10000 0.35 359 11:55 06.11.2020
5822 Clear 9 1032 74 10000 0.45 270 11:35 06.11.2020
5823 Clear 8 1031 90 10000 0.26 70 10:46 06.11.2020
5824 Clear 7 1030 61 10000 0.77 154 10:25 06.11.2020
5825 Clear 7 948 79 10000 0.77 154 09:49 06.11.2020
5826 Clear 6 948 82 10000 1.44 157 09:22 06.11.2020
5827 Clear 6 1032 81 10000 0.45 180 08:51 06.11.2020
5828 Clear 5 1029 88 10000 0.89 230 08:29 06.11.2020
5829 Clear 5 1029 88 10000 0.89 230 07:53 06.11.2020
5830 Clear 6 1029 86 10000 0.45 176 07:34 06.11.2020
5831 Clear 6 1029 86 10000 0.45 176 06:58 06.11.2020
5832 Clear 6 1029 86 10000 1.34 230 06:24 06.11.2020
5833 Clear 6 1030 86 10000 0.89 154 04:42 06.11.2020
5834 Clouds 7 1030 89 10000 0.45 129 01:23 06.11.2020
5835 Clouds 7 1031 92 10000 0.45 1 00:22 06.11.2020
5836 Clouds 7 1031 92 10000 0.89 22 23:35 05.11.2020
5837 Clouds 7 1031 92 10000 0.89 22 22:58 05.11.2020
5838 Clouds 7 1031 92 10000 1.2 138 22:40 05.11.2020
5839 Clouds 7 1031 92 10000 1.11 119 22:21 05.11.2020
5840 Clouds 7 1031 91 10000 1.11 119 21:43 05.11.2020
5841 Clouds 7 1031 91 10000 0.96 95 21:22 05.11.2020
5842 Clouds 7 1031 91 10000 0.96 95 20:57 05.11.2020
5843 Clouds 7 1031 89 10000 0.96 95 20:39 05.11.2020
5844 Clouds 7 1031 89 10000 0.93 75 20:21 05.11.2020
5845 Clouds 7 1031 90 10000 0.45 14 19:41 05.11.2020
5846 Clouds 7 1031 90 10000 0.45 14 19:23 05.11.2020
5847 Clouds 8 1031 93 10000 0.89 9 18:46 05.11.2020
5848 Clouds 8 1031 93 10000 0.89 9 18:26 05.11.2020
5849 Clouds 8 1031 93 10000 0.89 9 17:52 05.11.2020
5850 Clouds 8 1030 86 10000 0.45 320 17:31 05.11.2020
5851 Clouds 8 1030 86 7701 0.45 320 16:59 05.11.2020
5852 Clouds 8 1031 82 7701 1.22 54 16:41 05.11.2020
5853 Clouds 8 1031 82 10000 1.42 44 16:20 05.11.2020
5854 Clouds 8 1031 86 10000 1.34 358 15:46 05.11.2020
5855 Clouds 8 1031 86 10000 1.34 358 15:22 05.11.2020
5856 Clouds 8 1031 87 10000 0.45 4 14:46 05.11.2020
5857 Clouds 8 1031 87 10000 0.45 4 14:27 05.11.2020
5858 Clouds 8 1031 86 10000 1.34 350 13:45 05.11.2020
5859 Clouds 8 1031 86 10000 1.34 350 13:26 05.11.2020
5860 Clouds 8 1031 86 10000 1.34 350 12:53 05.11.2020
5861 Clouds 8 1032 92 10000 1.79 9 12:27 05.11.2020
5862 Clouds 8 1032 92 10000 1.79 9 11:55 05.11.2020
5863 Clouds 7 1032 93 10000 1.34 3 11:30 05.11.2020
5864 Clouds 7 1032 93 10000 1.34 3 10:58 05.11.2020
5865 Clouds 7 1032 97 10000 0.89 359 10:39 05.11.2020
5866 Clouds 7 1032 97 8962 0.89 359 10:21 05.11.2020
5867 Clouds 7 1032 94 8962 0.45 333 09:44 05.11.2020
5868 Clouds 7 1032 94 5167 0.45 333 09:21 05.11.2020
5869 Clouds 7 1032 94 5167 0.45 333 09:21 05.11.2020
5870 Clouds 7 1032 96 5167 0.45 104 08:43 05.11.2020
5871 Clouds 7 1032 96 7879 0.45 104 08:25 05.11.2020
5872 Clouds 7 1031 93 7879 0.99 60 07:30 05.11.2020
5873 Clouds 7 1031 93 10000 0.76 60 06:52 05.11.2020
5874 Clouds 7 1031 94 10000 0.45 289 06:34 05.11.2020
5875 Clouds 7 1030 93 10000 1.1 94 05:22 05.11.2020
5876 Clouds 6 1030 94 304 0.45 32 01:23 05.11.2020
5877 Clouds 6 1030 95 304 1.29 73 00:30 05.11.2020
5878 Clouds 6 1030 97 7313 1.3 72 23:44 04.11.2020
5879 Clouds 6 1030 97 7326 1.19 64 23:25 04.11.2020
5880 Clouds 6 1029 97 7326 1.34 316 22:48 04.11.2020
5881 Clouds 6 1029 97 7372 1.34 316 22:24 04.11.2020
5882 Clouds 6 1029 97 7372 1.34 316 22:24 04.11.2020
5883 Clouds 6 1029 97 7372 1.34 316 21:56 04.11.2020
5884 Clouds 6 1028 97 7372 1.34 341 21:36 04.11.2020
5885 Clouds 6 1028 97 512 1.34 341 21:18 04.11.2020
5886 Clouds 6 1028 94 512 0.45 15 20:41 04.11.2020
5887 Clouds 6 1028 94 180 0.45 15 20:23 04.11.2020
5888 Clouds 7 1027 89 180 1.02 61 19:44 04.11.2020
5889 Clouds 7 1027 89 180 1.02 61 19:44 04.11.2020
5890 Clouds 7 1027 89 124 1.18 65 19:26 04.11.2020
5891 Clouds 7 1027 86 119 0.45 16 18:44 04.11.2020
5892 Clouds 8 1027 86 124 0.45 16 18:25 04.11.2020
5893 Clouds 8 1027 86 124 0.45 16 18:25 04.11.2020
5894 Clouds 8 1027 86 124 0.45 16 17:57 04.11.2020
5895 Clouds 8 1026 85 124 0.45 336 17:38 04.11.2020
5896 Clouds 8 1026 85 149 0.45 336 17:19 04.11.2020
5897 Clouds 8 1026 82 149 2.1 47 16:38 04.11.2020
5898 Clouds 8 1026 82 221 2.06 30 16:20 04.11.2020
5899 Clouds 8 1025 82 221 0.45 34 15:46 04.11.2020
5900 Clouds 8 1025 82 649 0.45 34 15:24 04.11.2020
5901 Clouds 8 1025 82 649 1.81 22 14:48 04.11.2020
5902 Clouds 8 1025 82 7339 1.45 48 14:27 04.11.2020
5903 Clouds 8 1025 82 7339 1.45 48 13:57 04.11.2020
5904 Clouds 8 1026 86 7339 0.89 141 13:39 04.11.2020
5905 Clouds 8 1026 85 834 1.68 52 13:19 04.11.2020
5906 Clouds 8 1026 85 834 1.68 52 12:48 04.11.2020
5907 Clouds 7 1026 85 190 2.29 52 12:24 04.11.2020
5908 Clouds 7 1026 89 190 2.29 52 11:48 04.11.2020
5909 Clouds 6 1026 89 190 2.29 52 11:30 04.11.2020
5910 Clouds 6 1026 89 205 1.99 43 10:58 04.11.2020
5911 Clouds 6 1026 95 205 1.79 342 10:39 04.11.2020
5912 Rain 6 1026 95 117 1.79 342 10:21 04.11.2020
5913 Clouds 5 1026 94 117 1.34 13 09:44 04.11.2020
5914 Rain 5 1026 94 111 1.34 13 09:20 04.11.2020
5915 Clouds 6 1026 93 111 0.45 314 08:42 04.11.2020
5916 Clouds 6 1026 93 128 0.45 314 08:18 04.11.2020
5917 Clouds 6 1025 93 128 1.67 29 07:44 04.11.2020
5918 Rain 6 1025 93 145 1.91 28 07:25 04.11.2020
5919 Clouds 6 1026 94 150 0.45 295 06:41 04.11.2020
5920 Clouds 6 1026 94 263 0.45 295 05:54 04.11.2020
5921 Clouds 7 1026 93 271 0.45 327 02:31 04.11.2020
5922 Rain 7 1026 90 271 0.45 166 01:40 04.11.2020
5923 Rain 7 1025 89 507 0.45 94 00:27 04.11.2020
5924 Rain 8 1026 96 507 1.95 330 23:33 03.11.2020
5925 Rain 8 1026 96 206 1.79 328 22:59 03.11.2020
5926 Rain 8 1026 95 206 0.45 284 22:40 03.11.2020
5927 Rain 8 1026 95 162 0.45 284 22:20 03.11.2020
5928 Rain 8 1025 95 162 1.79 345 21:43 03.11.2020
5929 Rain 8 1025 95 162 1.79 345 21:43 03.11.2020
5930 Rain 8 1025 95 165 1.79 345 21:25 03.11.2020
5931 Rain 8 1025 95 165 1.79 345 20:56 03.11.2020
5932 Rain 9 1025 96 165 0.89 308 20:38 03.11.2020
5933 Rain 9 1025 96 133 0.89 308 20:18 03.11.2020
5934 Rain 10 1024 92 133 2.56 335 19:42 03.11.2020
5935 Rain 10 1024 92 110 2.69 331 19:19 03.11.2020
5936 Rain 10 1023 96 110 0.89 290 18:41 03.11.2020
5937 Rain 10 1023 96 104 0.89 290 18:19 03.11.2020
5938 Clouds 11 1023 96 104 0.89 290 17:53 03.11.2020
5939 Rain 11 1022 92 104 0.45 75 17:34 03.11.2020
5940 Clouds 11 1022 94 105 0.45 9 16:52 03.11.2020
5941 Clouds 11 1022 94 105 0.45 9 16:31 03.11.2020
5942 Clouds 11 1022 94 103 0.45 9 15:59 03.11.2020
5943 Clouds 11 1021 92 103 0.45 328 15:40 03.11.2020
5944 Rain 11 1021 92 92 0.45 328 15:20 03.11.2020
5945 Clouds 11 1022 93 92 0.45 356 14:46 03.11.2020
5946 Rain 11 1022 93 106 0.45 356 14:27 03.11.2020
5947 Clouds 11 1022 95 106 1.34 347 13:42 03.11.2020
5948 Rain 11 1022 95 107 1.34 347 13:22 03.11.2020
5949 Clouds 11 1022 93 107 1.79 355 12:48 03.11.2020
5950 Rain 11 1022 93 106 1.79 355 12:27 03.11.2020
5951 Clouds 11 1022 93 106 1.79 355 11:55 03.11.2020
5952 Clouds 11 1023 96 106 1.34 22 11:36 03.11.2020
5953 Rain 11 1023 96 113 1.34 22 11:18 03.11.2020
5954 Clouds 11 1023 90 113 0.89 11 10:39 03.11.2020
5955 Rain 12 1023 90 175 0.89 11 10:19 03.11.2020
5956 Clouds 12 1022 88 175 1.52 5 09:47 03.11.2020
5957 Rain 13 1022 88 319 1.24 352 09:26 03.11.2020
5958 Clouds 13 1022 88 319 1.24 352 08:51 03.11.2020
5959 Clouds 13 1022 90 319 0.45 243 08:33 03.11.2020
5960 Clouds 13 1022 90 419 0.92 342 07:48 03.11.2020
5961 Rain 13 1022 90 3426 0.66 320 07:20 03.11.2020
5962 Clouds 13 1022 87 526 1 331 06:34 03.11.2020
5963 Clouds 14 1022 83 3845 1.34 182 04:37 03.11.2020
5964 Clouds 13 1021 87 10000 0.45 165 00:46 03.11.2020
5965 Clouds 13 1021 87 10000 0.45 165 00:24 03.11.2020
5966 Clouds 14 1021 87 10000 0.89 152 23:46 02.11.2020
5967 Clouds 14 1021 87 10000 0.89 152 23:28 02.11.2020
5968 Clouds 14 1021 83 10000 0.89 235 22:44 02.11.2020
5969 Clouds 14 1021 83 10000 0.89 235 22:25 02.11.2020
5970 Clouds 14 1021 83 10000 0.89 235 21:56 02.11.2020
5971 Clouds 14 1021 82 10000 0.45 207 21:36 02.11.2020
5972 Clouds 14 1021 82 10000 0.45 207 21:36 02.11.2020
5973 Clouds 15 1021 82 10000 0.45 207 21:18 02.11.2020
5974 Clouds 14 1020 81 10000 1.34 115 20:38 02.11.2020
5975 Clouds 14 1020 81 10000 1.34 115 20:19 02.11.2020
5976 Clouds 13 1020 89 10000 2.24 219 19:44 02.11.2020
5977 Clouds 14 1020 89 10000 2.24 219 19:25 02.11.2020
5978 Clouds 16 1020 75 10000 0.89 136 18:43 02.11.2020
5979 Clouds 16 1020 75 10000 0.89 136 18:22 02.11.2020
5980 Clouds 17 1020 75 10000 0.89 136 17:58 02.11.2020
5981 Clouds 17 1017 69 10000 0.45 350 17:40 02.11.2020
5982 Clouds 17 1017 67 10000 0.89 7 17:20 02.11.2020
5983 Clouds 18 1016 64 10000 1.79 10 16:43 02.11.2020
5984 Clouds 19 1017 65 10000 1.34 10 16:24 02.11.2020
5985 Clouds 17 1017 100 10000 0.72 282 15:46 02.11.2020
5986 Clouds 21 1016 60 10000 0.89 345 15:24 02.11.2020
5987 Clouds 21 1016 58 10000 1.34 22 14:58 02.11.2020
5988 Clouds 21 1019 52 10000 0.89 151 14:37 02.11.2020
5989 Clouds 21 1019 52 10000 0.89 151 14:18 02.11.2020
5990 Clouds 21 1020 52 10000 0.45 65 13:42 02.11.2020
5991 Clouds 21 1020 52 10000 0.45 65 13:21 02.11.2020
5992 Clouds 20 1020 55 10000 0.61 285 12:40 02.11.2020
5993 Clouds 20 1020 55 10000 0.82 275 12:20 02.11.2020
5994 Clouds 19 1020 64 10000 1.34 207 11:45 02.11.2020
5995 Clouds 18 1020 64 10000 1.34 207 11:19 02.11.2020
5996 Clouds 17 1021 70 10000 0.89 253 10:44 02.11.2020
5997 Clouds 17 1021 70 10000 0.89 253 10:22 02.11.2020
5998 Clouds 17 1021 70 10000 0.89 253 09:55 02.11.2020
5999 Clouds 14 1021 81 10000 0.89 176 09:25 02.11.2020
6000 Clouds 13 1021 83 10000 0.45 169 08:46 02.11.2020
6001 Clouds 13 1021 83 10000 0.45 169 08:27 02.11.2020
6002 Clouds 13 1021 83 10000 0.45 169 07:54 02.11.2020
6003 Clouds 13 1021 77 10000 1.34 146 07:30 02.11.2020
6004 Clouds 13 1020 85 10000 0.45 131 06:37 02.11.2020
6005 Clouds 12 1020 82 10000 0.45 255 04:55 02.11.2020
6006 Clouds 12 1020 83 10000 0.45 310 01:26 02.11.2020
6007 Clouds 11 1020 87 10000 2.63 185 00:36 02.11.2020
6008 Clouds 11 1021 84 10000 0.89 136 23:45 01.11.2020
6009 Rain 11 1021 84 10000 0.89 136 23:25 01.11.2020
6010 Clouds 11 1021 85 10000 0.89 211 22:48 01.11.2020
6011 Rain 11 1021 85 10000 0.89 211 22:27 01.11.2020
6012 Rain 11 1021 85 10000 0.89 211 22:27 01.11.2020
6013 Clouds 11 1021 85 10000 0.89 211 21:59 01.11.2020
6014 Clouds 11 1020 80 10000 0.89 145 21:41 01.11.2020
6015 Rain 11 1020 80 10000 0.89 145 21:23 01.11.2020
6016 Rain 12 1021 75 10000 2.95 181 20:43 01.11.2020
6017 Rain 12 1021 75 10000 2.58 205 20:25 01.11.2020
6018 Clouds 12 1021 73 10000 0.45 176 19:45 01.11.2020
6019 Clouds 12 1021 73 10000 0.45 176 19:26 01.11.2020
6020 Clouds 12 1021 73 10000 0.45 176 18:55 01.11.2020
6021 Rain 13 1021 66 10000 2.68 183 18:37 01.11.2020
6022 Rain 13 1021 66 10000 2.68 183 18:18 01.11.2020
6023 Rain 13 1020 63 10000 2.6 185 17:43 01.11.2020
6024 Rain 13 1020 63 10000 2.09 208 17:24 01.11.2020
6025 Rain 13 1020 78 10000 0.45 284 16:42 01.11.2020
6026 Clouds 13 1020 78 10000 0.45 284 16:24 01.11.2020
6027 Clouds 13 1020 78 10000 0.45 284 15:55 01.11.2020
6028 Rain 14 1020 73 10000 1.78 219 15:37 01.11.2020
6029 Clouds 14 1020 73 10000 1.21 237 15:18 01.11.2020
6030 Rain 14 1021 71 10000 0.89 223 14:45 01.11.2020
6031 Rain 14 1021 71 10000 0.89 223 14:22 01.11.2020
6032 Rain 14 1021 71 10000 0.89 223 13:49 01.11.2020
6033 Rain 15 1021 58 10000 0.89 99 13:31 01.11.2020
6034 Rain 15 1021 58 10000 0.89 99 12:56 01.11.2020
6035 Rain 13 1022 64 10000 0.89 150 12:37 01.11.2020
6036 Rain 14 1022 64 10000 0.89 150 12:18 01.11.2020
6037 Rain 12 1021 74 10000 0.89 113 11:44 01.11.2020
6038 Clouds 12 940 60 10000 1.57 265 11:18 01.11.2020
6039 Clouds 10 1021 44 10000 1.35 231 10:41 01.11.2020
6040 Clouds 12 940 68 10000 1.35 231 10:22 01.11.2020
6041 Clouds 12 1018 100 10000 1.35 231 09:47 01.11.2020
6042 Clouds 11 1018 100 10000 1.78 197 08:52 01.11.2020
6043 Clouds 11 1018 100 10000 1.78 197 08:33 01.11.2020
6044 Clouds 11 1018 100 10000 2.13 180 07:45 01.11.2020
6045 Clouds 9 1023 60 10000 0.45 180 06:22 01.11.2020
6046 Clouds 8 1019 100 10000 1.15 203 01:58 01.11.2020
6047 Clouds 9 1023 60 10000 0.45 112 00:55 01.11.2020
6048 Clear 9 1023 60 10000 0.45 112 23:42 31.10.2020
6049 Clouds 7 1023 60 10000 0.45 112 23:19 31.10.2020
6050 Clouds 9 1020 100 10000 1.34 174 22:43 31.10.2020
6051 Clouds 9 1023 62 10000 0.89 180 22:23 31.10.2020
6052 Clouds 6 1021 47 10000 2.15 189 21:46 31.10.2020
6053 Clouds 6 1021 50 10000 0.89 277 21:21 31.10.2020
6054 Clouds 8 1022 96 10000 2.02 189 20:41 31.10.2020
6055 Clouds 8 1022 86 10000 0.45 176 20:20 31.10.2020
6056 Clouds 9 1022 86 10000 0.89 149 19:44 31.10.2020
6057 Clouds 8 939 82 10000 2.22 187 19:24 31.10.2020
6058 Clouds 8 1022 86 10000 0.45 173 18:56 31.10.2020
6059 Clouds 8 1022 86 10000 0.45 173 18:56 31.10.2020
6060 Clouds 9 1021 80 10000 0.45 178 18:38 31.10.2020
6061 Clouds 11 1021 74 10000 0.89 233 17:44 31.10.2020
6062 Clouds 11 1021 74 10000 0.89 233 17:25 31.10.2020
6063 Clouds 13 1021 74 10000 0.89 233 16:55 31.10.2020
6064 Clouds 16 1021 60 10000 0.45 246 16:33 31.10.2020
6065 Clouds 17 1021 60 10000 0.45 246 15:55 31.10.2020
6066 Clouds 17 1021 43 10000 0.45 108 15:26 31.10.2020
6067 Clouds 17 1021 43 10000 0.45 108 14:55 31.10.2020
6068 Clouds 16 1022 48 10000 1.79 11 14:32 31.10.2020
6069 Clouds 16 1022 48 10000 1.79 11 13:55 31.10.2020
6070 Clouds 16 1022 51 10000 0.45 55 13:37 31.10.2020
6071 Clouds 16 1022 51 10000 0.45 55 13:18 31.10.2020
6072 Clouds 15 1023 69 10000 0.5 283 12:25 31.10.2020
6073 Clouds 15 1023 38 10000 0.5 283 11:42 31.10.2020
6074 Clouds 14 1023 67 10000 0.41 187 11:23 31.10.2020
6075 Clouds 14 1022 73 10000 0.45 218 10:49 31.10.2020
6076 Clouds 12 1023 81 10000 0.41 187 10:30 31.10.2020
6077 Clouds 10 942 84 10000 0.77 184 09:40 31.10.2020
6078 Clouds 8 942 90 10000 1.51 159 09:20 31.10.2020
6079 Clouds 7 1024 98 10000 1.76 159 08:27 31.10.2020
6080 Clouds 6 1022 100 10000 1.76 159 07:45 31.10.2020
6081 Clear 4 1024 97 10000 1.67 162 07:25 31.10.2020
6082 Clear 4 1023 82 10000 1.61 157 06:37 31.10.2020
6083 Clear 7 1026 90 10000 1.34 67 03:49 31.10.2020
6084 Clear 7 1026 90 10000 1.34 67 02:48 31.10.2020
6085 Clear 7 1026 90 10000 2.24 67 00:55 31.10.2020
6086 Clear 6 1025 77 10000 0.89 61 23:58 30.10.2020
6087 Clear 6 944 88 10000 1.66 191 23:39 30.10.2020
6088 Clear 6 944 88 10000 1.59 193 23:20 30.10.2020
6089 Clear 5 1026 94 10000 1.59 193 22:40 30.10.2020
6090 Clear 5 1026 94 10000 1.77 195 22:22 30.10.2020
6091 Clear 6 1026 94 10000 1.77 195 21:49 30.10.2020
6092 Clear 6 1026 94 10000 1.95 195 21:27 30.10.2020
6093 Clear 7 1025 95 10000 1.95 195 20:46 30.10.2020
6094 Clear 7 1025 95 10000 2.24 202 20:28 30.10.2020
6095 Clear 7 1025 95 10000 2.24 202 20:28 30.10.2020
6096 Clear 8 1025 95 10000 2.24 202 19:59 30.10.2020
6097 Clear 8 1025 94 10000 0.89 211 19:40 30.10.2020
6098 Clouds 8 1025 94 10000 0.89 211 19:18 30.10.2020
6099 Clouds 9 1025 90 10000 0.45 287 18:42 30.10.2020
6100 Clouds 9 1025 90 10000 0.45 287 18:23 30.10.2020
6101 Clouds 12 1025 79 10000 0.89 195 17:47 30.10.2020
6102 Clouds 12 1025 79 10000 0.89 195 17:22 30.10.2020
6103 Clouds 12 1025 79 10000 0.89 195 16:52 30.10.2020
6104 Clouds 13 1024 74 10000 0.45 319 16:25 30.10.2020
6105 Clouds 13 1024 74 10000 0.45 319 15:56 30.10.2020
6106 Clouds 14 1024 71 10000 1.79 319 15:37 30.10.2020
6107 Clouds 13 1024 71 10000 1.79 319 15:18 30.10.2020
6108 Clouds 14 1024 66 10000 1.34 223 14:42 30.10.2020
6109 Clouds 14 1024 66 10000 1.34 223 14:23 30.10.2020
6110 Clouds 14 1024 64 10000 0.89 146 13:44 30.10.2020
6111 Clouds 15 1024 64 10000 0.89 146 13:20 30.10.2020
6112 Clouds 14 1024 64 10000 0.89 146 12:49 30.10.2020
6113 Clouds 13 1024 71 10000 0.89 131 12:22 30.10.2020
6114 Clouds 13 1024 71 10000 0.89 131 11:56 30.10.2020
6115 Clouds 12 1025 82 10000 1.79 174 11:22 30.10.2020
6116 Clouds 11 1025 82 10000 1.79 174 10:50 30.10.2020
6117 Clouds 10 1025 89 10000 1.34 99 10:26 30.10.2020
6118 Clouds 10 1025 89 10000 1.34 99 09:56 30.10.2020
6119 Clouds 9 1025 94 10000 0.45 196 09:38 30.10.2020
6120 Clouds 9 1025 94 10000 0.45 196 09:19 30.10.2020
6121 Clouds 8 1024 97 10000 0.89 232 08:32 30.10.2020
6122 Clouds 8 1024 97 10000 0.89 232 07:54 30.10.2020
6123 Clouds 8 1024 98 10000 1.34 166 07:36 30.10.2020
6124 Clouds 8 1024 98 10000 1.34 166 06:59 30.10.2020
6125 Clouds 8 1024 98 10000 1.34 217 05:53 30.10.2020
6126 Clouds 8 1024 96 10000 0.89 139 03:47 30.10.2020
6127 Rain 7 1025 99 7622 0.89 229 01:24 30.10.2020
6128 Rain 7 1024 98 6327 0.89 268 23:59 29.10.2020
6129 Rain 7 1024 98 6327 1.79 146 23:41 29.10.2020
6130 Rain 7 1024 98 5831 1.79 146 23:23 29.10.2020
6131 Rain 7 1024 98 5831 1.34 216 22:44 29.10.2020
6132 Rain 7 1024 98 6272 1.34 216 22:25 29.10.2020
6133 Rain 7 1024 97 6272 0.45 149 21:44 29.10.2020
6134 Rain 7 1024 97 8931 0.45 149 21:24 29.10.2020
6135 Rain 7 1023 98 8931 1.34 190 20:43 29.10.2020
6136 Rain 7 1023 98 7564 1.34 190 20:24 29.10.2020
6137 Rain 7 1023 98 7564 1.34 190 19:56 29.10.2020
6138 Rain 7 1024 98 7564 1.79 208 19:38 29.10.2020
6139 Rain 7 1024 98 5978 1.79 208 19:18 29.10.2020
6140 Rain 8 1023 98 6116 1.34 153 18:45 29.10.2020
6141 Rain 8 1023 98 4510 1.34 153 18:25 29.10.2020
6142 Rain 8 1022 96 4510 0.89 218 17:42 29.10.2020
6143 Rain 8 1022 96 2447 0.89 218 17:22 29.10.2020
6144 Rain 8 1022 96 2447 0.89 218 16:52 29.10.2020
6145 Rain 8 1022 95 2885 0.45 162 16:23 29.10.2020
6146 Rain 8 1022 95 2885 0.45 162 15:58 29.10.2020
6147 Rain 8 1022 95 2885 1.34 168 15:40 29.10.2020
6148 Rain 8 1022 95 2950 1.34 168 15:21 29.10.2020
6149 Rain 8 1022 93 2950 0.45 195 14:46 29.10.2020
6150 Rain 8 1022 93 2844 0.45 195 14:24 29.10.2020
6151 Rain 8 1022 93 2844 0.45 195 13:59 29.10.2020
6152 Rain 7 1022 93 2844 2.24 149 13:39 29.10.2020
6153 Rain 7 1022 93 3078 2.24 149 13:21 29.10.2020
6154 Rain 7 1022 93 195 1.34 175 12:40 29.10.2020
6155 Rain 8 1022 93 173 1.34 175 12:19 29.10.2020
6156 Rain 8 1022 93 173 0.45 194 11:45 29.10.2020
6157 Rain 8 1022 93 290 0.45 194 11:24 29.10.2020
6158 Rain 8 1021 96 290 2.33 226 10:37 29.10.2020
6159 Rain 8 1021 96 675 2.5 222 10:19 29.10.2020
6160 Rain 8 1021 96 675 2.5 222 09:51 29.10.2020
6161 Rain 8 1020 98 1372 0.89 222 09:28 29.10.2020
6162 Rain 8 1020 98 1372 0.89 222 08:55 29.10.2020
6163 Rain 8 1019 98 1372 0.45 195 08:31 29.10.2020
6164 Rain 8 1019 98 1900 0.45 195 07:53 29.10.2020
6165 Rain 7 1018 96 1900 2.15 222 07:35 29.10.2020
6166 Rain 7 1018 96 2544 1.83 238 06:55 29.10.2020
6167 Clouds 8 1018 93 6504 0.89 130 04:51 29.10.2020
6168 Clouds 8 1018 84 10000 0.89 342 02:51 29.10.2020
6169 Rain 7 1018 92 10000 2.24 171 00:51 29.10.2020
6170 Rain 7 1019 89 10000 0.45 101 00:30 29.10.2020
6171 Rain 7 1018 87 10000 0.89 304 23:45 28.10.2020
6172 Rain 7 1018 87 10000 0.89 304 23:20 28.10.2020
6173 Clouds 7 1017 89 10000 0.89 149 22:44 28.10.2020
6174 Clouds 7 1017 89 10000 0.89 149 22:44 28.10.2020
6175 Clouds 7 1017 89 10000 0.89 149 22:26 28.10.2020
6176 Clouds 7 1017 89 10000 0.89 149 21:55 28.10.2020
6177 Clouds 7 1017 90 10000 1.34 204 21:37 28.10.2020
6178 Clouds 7 1017 90 10000 1.34 204 21:18 28.10.2020
6179 Clouds 7 1018 87 10000 1.81 186 20:41 28.10.2020
6180 Clouds 8 1018 87 10000 1.42 194 20:20 28.10.2020
6181 Clouds 8 1018 87 10000 1.42 194 19:49 28.10.2020
6182 Clouds 9 1018 83 10000 0.89 102 19:27 28.10.2020
6183 Clouds 10 1018 77 10000 0.98 193 18:47 28.10.2020
6184 Clouds 10 1018 77 10000 0.66 210 18:21 28.10.2020
6185 Clouds 11 1017 75 10000 1.79 97 17:44 28.10.2020
6186 Clouds 11 1017 75 10000 1.79 97 17:25 28.10.2020
6187 Clouds 11 1017 75 10000 1.79 97 16:50 28.10.2020
6188 Clouds 11 1017 73 10000 0.45 301 16:32 28.10.2020
6189 Clouds 11 1017 73 10000 0.45 301 15:55 28.10.2020
6190 Clouds 11 1016 72 10000 0.45 12 15:36 28.10.2020
6191 Clouds 12 1016 72 10000 0.45 12 15:18 28.10.2020
6192 Clouds 11 1016 74 10000 0.45 134 14:41 28.10.2020
6193 Clouds 11 1016 74 10000 0.45 134 14:20 28.10.2020
6194 Clouds 9 1017 85 10000 0.89 235 12:40 28.10.2020
6195 Rain 9 1017 85 10000 0.89 235 12:21 28.10.2020
6196 Clouds 8 1018 84 10000 1.34 155 11:45 28.10.2020
6197 Clouds 8 1017 94 10000 1.65 290 11:24 28.10.2020
6198 Clouds 8 934 77 10000 1.65 290 11:00 28.10.2020
6199 Rain 7 1016 74 10000 1.65 290 10:41 28.10.2020
6200 Clouds 7 934 78 10000 1.48 276 10:22 28.10.2020
6201 Clouds 7 933 70 10000 1.48 276 09:42 28.10.2020
6202 Clouds 6 1015 58 10000 1.63 184 09:22 28.10.2020
6203 Rain 6 1010 75 10000 1.63 184 08:49 28.10.2020
6204 Clouds 5 1015 50 10000 2.49 165 08:27 28.10.2020
6205 Clouds 5 932 81 10000 2.49 165 07:49 28.10.2020
6206 Clouds 6 1013 35 10000 1.34 235 07:30 28.10.2020
6207 Clouds 4 1013 68 10000 2.45 164 06:42 28.10.2020
6208 Clouds 4 1013 63 10000 2.58 179 05:52 28.10.2020
6209 Clouds 5 1010 83 10000 0.45 270 05:20 28.10.2020
6210 Clouds 4 931 80 10000 1.79 315 04:25 28.10.2020
6211 Clouds 4 1015 94 10000 0.89 149 02:26 28.10.2020
6212 Clouds 4 931 87 10000 3.17 173 01:51 28.10.2020
6213 Clouds 1 1015 94 10000 0.89 161 00:22 28.10.2020
6214 Clouds 1 1014 93 10000 3.41 171 23:43 27.10.2020
6215 Clouds 1 1014 93 10000 3.14 171 23:20 27.10.2020
6216 Clouds 1 1014 94 10000 0.45 229 22:44 27.10.2020
6217 Clouds 1 1014 94 10000 0.45 229 22:19 27.10.2020
6218 Clouds 1 1014 94 10000 0.45 229 22:19 27.10.2020
6219 Clouds 1 1014 94 10000 0.45 229 21:56 27.10.2020
6220 Clouds 2 1014 94 10000 0.89 178 21:37 27.10.2020
6221 Clouds 1 1014 94 10000 0.89 178 21:37 27.10.2020
6222 Clouds 2 1014 94 10000 0.89 178 21:37 27.10.2020
6223 Clouds 1 1014 94 10000 0.89 178 21:37 27.10.2020
6224 Clouds 1 1014 94 10000 0.89 178 21:37 27.10.2020
6225 Clouds 1 1014 94 10000 0.89 178 21:19 27.10.2020
6226 Clouds 2 1013 92 10000 0.45 155 20:44 27.10.2020
6227 Clouds 3 1013 92 10000 0.45 155 20:22 27.10.2020
6228 Clouds 3 1013 89 10000 0.45 282 19:40 27.10.2020
6229 Clouds 3 1013 89 10000 0.45 282 19:21 27.10.2020
6230 Clouds 4 1013 89 10000 0.45 282 18:59 27.10.2020
6231 Clouds 4 1013 88 10000 1.34 188 18:40 27.10.2020
6232 Clouds 4 1013 88 10000 1.34 188 18:40 27.10.2020
6233 Clouds 4 1013 88 10000 1.34 188 18:20 27.10.2020
6234 Clouds 6 1013 88 10000 0.89 227 17:43 27.10.2020
6235 Clouds 6 1013 88 10000 0.89 227 17:22 27.10.2020
6236 Clouds 6 1013 88 10000 0.89 227 16:57 27.10.2020
6237 Clouds 8 1013 66 10000 0.89 232 16:39 27.10.2020
6238 Clouds 9 1013 66 10000 0.89 232 16:20 27.10.2020
6239 Clouds 9 1013 71 10000 1.79 144 15:40 27.10.2020
6240 Clouds 9 1013 71 10000 1.79 144 15:21 27.10.2020
6241 Clouds 8 1013 70 10000 1.34 212 14:48 27.10.2020
6242 Clouds 9 1013 70 10000 1.34 212 14:29 27.10.2020
6243 Clouds 8 1013 70 10000 1.34 212 13:54 27.10.2020
6244 Rain 7 1014 81 10000 0.89 239 13:24 27.10.2020
6245 Clouds 7 1014 82 10000 2.24 154 12:42 27.10.2020
6246 Rain 7 1014 86 10000 0.45 245 12:24 27.10.2020
6247 Clouds 6 1014 91 10000 0.93 273 11:43 27.10.2020
6248 Clouds 6 1014 92 10000 1.23 294 11:25 27.10.2020
6249 Clouds 5 1014 94 10000 1.23 294 10:51 27.10.2020
6250 Clouds 5 1014 95 10000 0.45 133 10:33 27.10.2020
6251 Clouds 4 1014 96 10000 0.45 157 09:47 27.10.2020
6252 Clouds 4 1014 96 10000 0.45 148 09:27 27.10.2020
6253 Clouds 3 1013 96 10000 1.01 238 08:49 27.10.2020
6254 Clouds 3 1013 96 10000 1.19 197 08:26 27.10.2020
6255 Rain 3 1013 96 10000 1.19 197 07:47 27.10.2020
6256 Rain 3 1013 96 10000 1.31 185 07:29 27.10.2020
6257 Rain 2 1012 95 10000 0.89 138 06:39 27.10.2020
6258 Rain 2 1012 96 10000 0.72 173 06:19 27.10.2020
6259 Rain 3 1012 96 10000 0.72 173 05:44 27.10.2020
6260 Rain 3 1012 96 10000 0.6 236 04:57 27.10.2020
6261 Rain 2 1011 95 10000 0.45 153 02:35 27.10.2020
6262 Rain 2 1011 95 114 0.45 149 00:59 27.10.2020
6263 Rain 2 1011 97 871 0.45 246 23:53 26.10.2020
6264 Rain 2 1011 97 871 0.45 246 23:32 26.10.2020
6265 Rain 2 1011 97 311 0.45 246 22:52 26.10.2020
6266 Rain 2 1011 96 122 0.45 227 22:28 26.10.2020
6267 Rain 1 1011 96 122 0.45 227 21:51 26.10.2020
6268 Rain 1 1011 95 180 0.45 224 21:21 26.10.2020
6269 Rain 1 1011 95 180 0.45 224 20:58 26.10.2020
6270 Rain 1 1010 98 180 0.45 209 20:40 26.10.2020
6271 Rain 2 1010 98 89 0.45 209 20:22 26.10.2020
6272 Rain 1 1010 96 89 0.45 224 19:48 26.10.2020
6273 Rain 1 1010 96 208 0.45 224 19:26 26.10.2020
6274 Rain 1 1009 97 96 0.45 251 18:47 26.10.2020
6275 Rain 1 1009 97 69 0.45 251 18:25 26.10.2020
6276 Rain 1 1009 97 69 0.45 251 17:59 26.10.2020
6277 Rain 1 1009 95 69 1.42 261 17:40 26.10.2020
6278 Rain 1 1009 95 69 1.42 261 17:40 26.10.2020
6279 Rain 1 1009 95 70 1.1 269 17:22 26.10.2020
6280 Rain 2 1009 95 70 0.89 175 16:43 26.10.2020
6281 Rain 2 1009 95 49 0.89 175 16:22 26.10.2020
6282 Rain 3 1009 92 49 0.89 203 15:43 26.10.2020
6283 Rain 3 1009 92 50 0.89 203 15:25 26.10.2020
6284 Rain 3 1009 92 50 0.89 203 14:54 26.10.2020
6285 Rain 4 1008 92 50 0.89 151 14:35 26.10.2020
6286 Rain 4 1008 93 100 0.45 208 13:46 26.10.2020
6287 Rain 4 1008 93 121 0.45 208 13:28 26.10.2020
6288 Rain 5 1008 93 121 0.45 208 12:58 26.10.2020
6289 Rain 5 1008 86 2533 1.34 125 12:36 26.10.2020
6290 Rain 6 1008 86 191 1.34 125 12:18 26.10.2020
6291 Rain 7 1007 82 191 1.79 229 11:45 26.10.2020
6292 Rain 7 1007 82 154 1.79 229 11:23 26.10.2020
6293 Rain 7 1007 82 154 1.79 229 10:57 26.10.2020
6294 Rain 7 1007 82 154 0.89 254 10:38 26.10.2020
6295 Rain 8 1007 82 238 0.89 254 10:18 26.10.2020
6296 Rain 7 1006 89 238 0.89 342 09:31 26.10.2020
6297 Clouds 6 1006 89 1917 0.89 342 08:55 26.10.2020
6298 Rain 5 1005 92 10000 0.45 92 08:25 26.10.2020
6299 Clouds 6 1004 94 10000 0.45 342 07:48 26.10.2020
6300 Clouds 5 1004 94 10000 0.45 342 07:28 26.10.2020
6301 Clouds 5 1004 89 10000 1.72 199 05:46 26.10.2020
6302 Clouds 6 1004 88 10000 2.77 164 04:19 26.10.2020
6303 Clouds 6 1004 90 10000 0.45 331 03:21 26.10.2020
6304 Clouds 6 1004 90 10000 0.45 331 03:21 26.10.2020
6305 Clouds 6 1004 90 10000 0.45 331 03:21 26.10.2020
6306 Clouds 6 1004 90 10000 0.45 331 03:21 26.10.2020
6307 Clouds 5 1006 89 10000 0.45 129 01:34 26.10.2020
6308 Clouds 7 1005 91 10000 0.45 156 00:36 26.10.2020
6309 Clouds 7 1005 90 10000 0.89 158 23:51 25.10.2020
6310 Clouds 5 1007 90 10000 0.45 33 23:30 25.10.2020
6311 Clouds 7 1009 89 10000 0.45 216 22:48 25.10.2020
6312 Clouds 6 1009 89 10000 0.45 216 22:30 25.10.2020
6313 Clouds 6 1009 89 10000 0.45 216 21:55 25.10.2020
6314 Clouds 6 1009 89 10000 2.86 157 21:36 25.10.2020
6315 Clouds 6 1009 89 10000 2.67 168 21:18 25.10.2020
6316 Clouds 7 1009 90 10000 0.45 150 20:43 25.10.2020
6317 Clouds 7 1009 90 10000 0.45 150 20:23 25.10.2020
6318 Clouds 7 1009 90 10000 0.45 150 19:55 25.10.2020
6319 Clouds 8 1009 86 10000 2.74 165 19:37 25.10.2020
6320 Clouds 8 1009 86 10000 2.6 173 19:19 25.10.2020
6321 Clouds 9 1008 80 10000 1.34 235 18:41 25.10.2020
6322 Clouds 9 1008 80 10000 1.34 235 18:41 25.10.2020
6323 Clouds 10 1008 80 10000 1.34 235 18:22 25.10.2020
6324 Clouds 10 1008 80 10000 1.34 235 17:56 25.10.2020
6325 Clouds 12 1008 71 10000 0.89 214 17:38 25.10.2020
6326 Clouds 12 1008 71 10000 0.89 214 17:19 25.10.2020
6327 Clouds 15 1009 49 10000 0.45 99 16:43 25.10.2020
6328 Clouds 16 1009 49 10000 0.45 99 16:23 25.10.2020
6329 Clouds 16 1009 48 10000 0.45 283 15:47 25.10.2020
6330 Clouds 16 1009 48 10000 0.45 283 15:27 25.10.2020
6331 Clouds 16 1009 48 10000 0.45 283 14:53 25.10.2020
6332 Clouds 17 1009 43 10000 0.45 267 14:29 25.10.2020
6333 Clouds 15 1010 44 10000 0.45 312 13:45 25.10.2020
6334 Clouds 15 1010 44 10000 0.45 312 13:24 25.10.2020
6335 Clouds 15 1010 44 10000 0.45 312 12:56 25.10.2020
6336 Clouds 15 1009 56 10000 0.89 322 12:38 25.10.2020
6337 Clouds 14 1009 25 10000 1.34 216 12:18 25.10.2020
6338 Clouds 16 1007 73 10000 0.45 120 11:42 25.10.2020
6339 Clouds 15 1007 75 10000 0.89 238 11:19 25.10.2020
6340 Clouds 13 1008 79 10000 0.45 221 10:46 25.10.2020
6341 Clouds 14 1011 87 10000 1.68 151 10:26 25.10.2020
6342 Clouds 12 929 77 10000 1.68 151 09:52 25.10.2020
6343 Clear 11 930 88 10000 2.38 154 09:22 25.10.2020
6344 Clear 9 1009 100 10000 0.45 225 08:59 25.10.2020
6345 Clear 7 1009 100 10000 2.38 154 08:40 25.10.2020
6346 Clear 6 1012 98 10000 0.45 82 08:22 25.10.2020
6347 Clear 6 1013 86 10000 1.34 45 07:43 25.10.2020
6348 Clouds 7 1013 86 10000 2.24 67 06:53 25.10.2020
6349 Clouds 6 1013 75 10000 0.45 112 06:27 25.10.2020
6350 Clouds 5 1014 85 10000 2.68 45 05:19 25.10.2020
6351 Clouds 4 1014 85 10000 2.24 45 04:48 25.10.2020
6352 Clear 5 1013 78 10000 2.33 156 02:24 25.10.2020
6353 Clear 5 1015 95 10000 0.89 146 00:53 25.10.2020
6354 Clear 4 1017 99 10000 0.45 178 00:28 25.10.2020
6355 Clear 5 1017 99 10000 0.45 178 23:54 24.10.2020
6356 Clear 5 1018 98 10000 2.09 163 23:31 24.10.2020
6357 Clear 5 1018 98 10000 1.8 170 22:58 24.10.2020
6358 Clear 5 1018 100 10000 1.34 134 22:40 24.10.2020
6359 Clear 5 1018 100 10000 1.34 134 22:21 24.10.2020
6360 Clear 7 1017 93 10000 0.89 159 21:43 24.10.2020
6361 Clear 7 1017 93 10000 0.45 161 21:21 24.10.2020
6362 Clear 7 1017 93 10000 0.45 161 20:50 24.10.2020
6363 Clouds 8 1017 92 10000 0.45 162 20:27 24.10.2020
6364 Clouds 8 1017 92 10000 0.45 143 19:58 24.10.2020
6365 Clouds 8 1017 91 10000 1.07 166 19:40 24.10.2020
6366 Clouds 8 1017 90 10000 0.74 136 19:22 24.10.2020
6367 Clouds 8 1017 90 10000 0.74 136 19:22 24.10.2020
6368 Clouds 10 1017 89 10000 0.45 217 18:47 24.10.2020
6369 Clouds 12 1018 81 10000 0.41 43 18:27 24.10.2020
6370 Clouds 12 1018 81 10000 0.41 43 17:42 24.10.2020
6371 Clouds 13 1018 81 10000 0.62 346 17:22 24.10.2020
6372 Clouds 13 1017 80 10000 0.45 331 16:47 24.10.2020
6373 Clouds 13 1017 79 10000 1.34 332 16:28 24.10.2020
6374 Clouds 13 1017 80 10000 0.45 339 15:41 24.10.2020
6375 Rain 12 1019 75 10000 1.34 141 15:20 24.10.2020
6376 Clouds 13 1019 75 10000 1.34 141 14:56 24.10.2020
6377 Rain 13 1019 75 10000 1.34 141 14:29 24.10.2020
6378 Clouds 13 1019 75 10000 1.34 141 13:49 24.10.2020
6379 Clouds 12 1018 79 10000 0.45 170 13:31 24.10.2020
6380 Clouds 11 1018 91 10000 1.24 325 12:58 24.10.2020
6381 Clouds 11 1018 91 10000 1.24 325 12:58 24.10.2020
6382 Clouds 11 1019 94 10000 1.34 143 12:37 24.10.2020
6383 Rain 10 1020 97 10000 1.34 154 12:19 24.10.2020
6384 Clouds 10 1020 97 10000 1.34 154 11:43 24.10.2020
6385 Clouds 9 1020 97 10000 1.34 154 10:59 24.10.2020
6386 Rain 9 1018 95 10000 1.02 295 10:39 24.10.2020
6387 Rain 9 1019 97 10000 0.89 218 09:59 24.10.2020
6388 Rain 9 1019 97 10000 0.89 218 09:40 24.10.2020
6389 Rain 9 1019 97 10000 0.89 218 09:21 24.10.2020
6390 Rain 9 1018 96 10000 0.89 223 08:40 24.10.2020
6391 Rain 9 1018 96 10000 0.89 223 08:18 24.10.2020
6392 Rain 9 1017 93 10000 0.78 258 07:45 24.10.2020
6393 Rain 9 1018 97 10000 0.45 178 07:19 24.10.2020
6394 Rain 9 1018 97 10000 0.45 178 06:36 24.10.2020
6395 Clouds 9 1018 93 10000 0.89 208 03:51 24.10.2020
6396 Rain 9 1018 89 10000 1.34 148 02:20 24.10.2020
6397 Rain 11 1018 96 10000 1.79 159 00:43 24.10.2020
6398 Rain 11 1018 96 10000 1.79 159 00:22 24.10.2020
6399 Rain 11 1018 96 10000 1.79 159 23:56 23.10.2020
6400 Rain 11 1016 91 10000 0.89 160 23:36 23.10.2020
6401 Rain 11 1016 90 7418 2.73 187 23:18 23.10.2020
6402 Rain 12 1015 89 7418 0.89 140 22:42 23.10.2020
6403 Rain 12 1016 88 4230 0.45 81 22:20 23.10.2020
6404 Rain 13 1016 88 4230 0.45 81 21:51 23.10.2020
6405 Rain 13 1016 88 3708 0.45 81 21:25 23.10.2020
6406 Clouds 12 1014 87 3708 0.89 92 20:42 23.10.2020
6407 Rain 12 1014 88 3302 0.45 70 20:23 23.10.2020
6408 Clouds 13 1014 88 3302 1.31 235 19:58 23.10.2020
6409 Clouds 13 1014 87 5064 1.65 246 19:33 23.10.2020
6410 Clouds 14 1015 77 2194 0.89 74 18:57 23.10.2020
6411 Clouds 14 1015 77 2194 0.89 74 18:38 23.10.2020
6412 Rain 14 1015 77 8227 0.89 74 18:19 23.10.2020
6413 Clouds 15 1013 82 8227 0.45 148 17:42 23.10.2020
6414 Clouds 15 1014 81 10000 0.45 160 17:20 23.10.2020
6415 Clouds 15 1014 81 10000 0.45 160 16:44 23.10.2020
6416 Clouds 15 1014 81 10000 0.45 160 16:25 23.10.2020
6417 Clouds 14 1015 81 10000 0.86 333 15:45 23.10.2020
6418 Clouds 14 1015 81 10000 0.74 12 15:24 23.10.2020
6419 Rain 14 1015 81 10000 0.74 12 14:54 23.10.2020
6420 Rain 14 1013 82 10000 0.74 12 14:35 23.10.2020
6421 Rain 14 1015 77 10000 0.79 332 13:59 23.10.2020
6422 Rain 14 1015 77 10000 0.88 286 13:38 23.10.2020
6423 Rain 14 1015 77 10000 0.48 214 13:19 23.10.2020
6424 Rain 15 1016 85 10000 0.48 214 12:47 23.10.2020
6425 Clouds 15 1016 87 10000 0.55 183 12:24 23.10.2020
6426 Rain 14 1016 87 10000 0.55 183 11:47 23.10.2020
6427 Clouds 14 1016 87 10000 1.02 148 11:22 23.10.2020
6428 Clouds 13 1016 94 10000 1.02 148 10:45 23.10.2020
6429 Clouds 11 1016 94 10000 1.43 139 10:25 23.10.2020
6430 Clouds 10 1016 96 10000 0.45 129 09:46 23.10.2020
6431 Clouds 10 1016 96 10000 0.45 129 09:27 23.10.2020
6432 Clouds 10 1016 96 10000 0.45 129 08:52 23.10.2020
6433 Rain 10 1016 97 10000 0.45 82 08:32 23.10.2020
6434 Clouds 9 1016 96 10000 0.73 103 07:38 23.10.2020
6435 Clouds 10 1016 96 10000 0.69 87 07:19 23.10.2020
6436 Rain 10 1017 94 10000 1.26 157 06:20 23.10.2020
6437 Rain 10 1017 95 10000 0.45 143 05:34 23.10.2020
6438 Rain 10 1019 88 10000 0.89 210 02:32 23.10.2020
6439 Rain 11 1018 86 10000 0.45 255 01:24 23.10.2020
6440 Clouds 11 1017 88 10000 1.67 169 00:42 23.10.2020
6441 Rain 11 1019 83 10000 0.45 184 23:45 22.10.2020
6442 Rain 11 1019 83 10000 0.45 184 23:24 22.10.2020
6443 Rain 11 1019 80 10000 0.45 251 22:48 22.10.2020
6444 Rain 11 1019 80 10000 0.45 251 22:27 22.10.2020
6445 Rain 11 1019 80 10000 0.45 251 21:58 22.10.2020
6446 Rain 11 1019 72 10000 1.24 213 21:40 22.10.2020
6447 Clouds 12 1019 72 10000 1.05 211 21:20 22.10.2020
6448 Clouds 11 1019 80 10000 0.89 226 20:45 22.10.2020
6449 Clouds 11 1019 80 10000 0.89 226 20:25 22.10.2020
6450 Clouds 12 1019 80 10000 0.89 226 19:58 22.10.2020
6451 Clouds 12 1019 80 10000 0.89 226 19:58 22.10.2020
6452 Clouds 14 1018 72 10000 0.89 216 19:39 22.10.2020
6453 Clouds 14 1018 72 10000 0.89 216 19:18 22.10.2020
6454 Clouds 14 1017 72 10000 1.92 195 18:41 22.10.2020
6455 Clouds 16 1016 67 10000 1.13 210 18:19 22.10.2020
6456 Clouds 19 1017 46 10000 0.89 159 17:45 22.10.2020
6457 Clouds 19 1017 46 10000 0.89 159 17:22 22.10.2020
6458 Clouds 19 1016 50 10000 0.89 329 16:46 22.10.2020
6459 Clouds 20 1016 43 10000 0.89 246 16:25 22.10.2020
6460 Clouds 20 1016 43 10000 0.89 246 16:25 22.10.2020
6461 Clouds 19 1016 45 10000 0.45 188 15:50 22.10.2020
6462 Clouds 19 1016 45 10000 0.1 229 15:27 22.10.2020
6463 Clouds 19 1017 47 10000 0.1 229 14:58 22.10.2020
6464 Clouds 19 1017 46 10000 0.89 12 14:38 22.10.2020
6465 Clouds 18 1017 48 10000 0.45 48 14:20 22.10.2020
6466 Clouds 18 1017 49 10000 0.45 327 13:43 22.10.2020
6467 Clouds 18 1018 53 10000 0.45 95 13:22 22.10.2020
6468 Clouds 16 937 55 10000 0.19 322 12:43 22.10.2020
6469 Clouds 15 1018 61 10000 0.89 164 12:22 22.10.2020
6470 Clouds 15 938 61 10000 0.15 212 11:45 22.10.2020
6471 Clouds 15 1018 38 10000 0.57 236 11:19 22.10.2020
6472 Clouds 13 1018 40 10000 0.57 236 10:49 22.10.2020
6473 Clouds 12 937 68 10000 1.17 185 10:25 22.10.2020
6474 Clouds 10 937 77 10000 0.89 337 09:44 22.10.2020
6475 Clouds 8 937 81 10000 1.56 173 09:22 22.10.2020
6476 Clouds 9 1017 91 10000 1.56 173 08:43 22.10.2020
6477 Clouds 6 1017 73 10000 0.89 69 08:25 22.10.2020
6478 Clouds 6 1016 91 10000 1.79 178 07:43 22.10.2020
6479 Clouds 6 936 86 10000 1.61 169 07:20 22.10.2020
6480 Clouds 6 1017 88 10000 1.61 169 06:45 22.10.2020
6481 Clouds 6 1017 88 10000 0.45 28 06:23 22.10.2020
6482 Clouds 8 1016 89 10000 0.45 165 05:38 22.10.2020
6483 Clouds 8 1017 88 10000 1.93 161 03:25 22.10.2020
6484 Clouds 11 1015 83 10000 0.89 250 00:55 22.10.2020
6485 Clouds 11 1015 83 10000 3.09 165 00:22 22.10.2020
6486 Clouds 11 1014 86 10000 0.45 163 23:43 21.10.2020
6487 Clouds 10 1015 88 10000 1.34 143 23:19 21.10.2020
6488 Rain 10 1015 88 10000 2.24 153 22:38 21.10.2020
6489 Clear 10 1015 86 10000 0.45 97 22:19 21.10.2020
6490 Clear 10 1015 86 10000 0.45 97 22:19 21.10.2020
6491 Clear 10 1015 86 10000 0.45 97 22:19 21.10.2020
6492 Clear 10 1015 86 10000 0.45 97 21:46 21.10.2020
6493 Clear 10 1015 86 10000 0.45 97 21:20 21.10.2020
6494 Clear 10 1015 86 10000 0.45 97 20:57 21.10.2020
6495 Clear 11 1014 83 10000 0.45 173 20:39 21.10.2020
6496 Clouds 12 1014 83 10000 0.45 173 20:18 21.10.2020
6497 Clouds 13 1014 76 10000 0.45 126 19:40 21.10.2020
6498 Clouds 13 1014 76 10000 0.45 126 19:22 21.10.2020
6499 Clouds 14 1014 76 10000 0.45 126 18:52 21.10.2020
6500 Clouds 16 1013 64 10000 2.91 168 18:30 21.10.2020
6501 Clouds 16 1013 64 10000 2.19 177 17:50 21.10.2020
6502 Clouds 18 1013 46 10000 0.45 225 17:22 21.10.2020
6503 Clouds 18 1013 46 10000 0.45 225 16:58 21.10.2020
6504 Clouds 18 1014 44 10000 1.53 192 16:38 21.10.2020
6505 Clouds 18 1014 44 10000 1.43 190 16:19 21.10.2020
6506 Clouds 18 1013 47 10000 2.24 358 15:44 21.10.2020
6507 Clouds 18 1013 47 10000 2.24 358 15:21 21.10.2020
6508 Clouds 18 1013 47 10000 2.24 358 14:49 21.10.2020
6509 Clouds 18 1013 44 10000 0.45 39 14:28 21.10.2020
6510 Clouds 18 1013 44 10000 0.45 39 13:56 21.10.2020
6511 Clouds 17 1014 47 10000 2.68 350 13:38 21.10.2020
6512 Clouds 17 1014 47 10000 2.68 350 13:19 21.10.2020
6513 Clouds 15 1015 47 10000 0.45 180 12:38 21.10.2020
6514 Clouds 15 1013 24 10000 1.34 212 12:19 21.10.2020
6515 Clouds 14 1013 26 10000 2.05 181 11:41 21.10.2020
6516 Clouds 14 1013 30 10000 3.54 165 11:20 21.10.2020
6517 Clouds 15 1011 47 10000 3.54 165 10:47 21.10.2020
6518 Clouds 13 1011 72 10000 0.89 334 10:26 21.10.2020
6519 Clouds 10 930 73 10000 4.08 162 09:57 21.10.2020
6520 Clouds 9 1012 87 10000 1 0 09:34 21.10.2020
6521 Clouds 8 929 82 10000 4.15 163 08:56 21.10.2020
6522 Clouds 8 1011 89 10000 4.15 163 08:38 21.10.2020
6523 Clouds 7 1010 84 10000 0.89 149 08:19 21.10.2020
6524 Clouds 6 1008 70 10000 4.3 164 07:37 21.10.2020
6525 Clouds 6 1008 71 10000 4.45 164 06:55 21.10.2020
6526 Clouds 7 1005 63 10000 4.45 164 06:30 21.10.2020
6527 Clouds 7 1008 73 10000 1.34 64 04:47 21.10.2020
6528 Clouds 7 1010 74 10000 3.34 164 00:57 21.10.2020
6529 Clouds 6 932 84 10000 3.53 162 23:50 20.10.2020
6530 Clouds 7 1015 85 10000 0.89 155 23:20 20.10.2020
6531 Clouds 6 1016 83 10000 1.34 173 22:29 20.10.2020
6532 Clouds 6 1016 83 10000 1.34 173 21:50 20.10.2020
6533 Clouds 7 1017 85 10000 0.45 231 21:21 20.10.2020
6534 Clouds 7 1017 85 10000 0.45 231 21:21 20.10.2020
6535 Clouds 7 1017 85 10000 0.45 231 20:57 20.10.2020
6536 Clouds 8 1016 76 10000 0.89 95 20:38 20.10.2020
6537 Clouds 8 1016 76 10000 0.89 95 20:20 20.10.2020
6538 Clouds 9 1016 76 10000 0.45 148 19:44 20.10.2020
6539 Clouds 10 1016 76 10000 0.45 148 19:22 20.10.2020
6540 Clouds 10 1016 76 10000 0.45 148 18:54 20.10.2020
6541 Clouds 12 1016 65 10000 0.45 242 18:36 20.10.2020
6542 Clouds 13 1016 65 10000 0.45 242 17:50 20.10.2020
6543 Clouds 16 1016 50 10000 0.45 277 17:31 20.10.2020
6544 Clouds 16 1016 50 10000 0.45 277 16:49 20.10.2020
6545 Clouds 15 1015 53 10000 0.89 353 16:28 20.10.2020
6546 Clouds 17 1015 49 10000 0.89 346 15:57 20.10.2020
6547 Clouds 17 1015 34 10000 0.45 340 15:39 20.10.2020
6548 Clouds 17 1015 35 10000 0.45 275 15:20 20.10.2020
6549 Clouds 16 1016 44 10000 0.45 234 14:42 20.10.2020
6550 Clouds 16 1016 44 10000 0.89 265 14:24 20.10.2020
6551 Clouds 16 934 41 10000 0.77 276 13:44 20.10.2020
6552 Clouds 16 1014 28 10000 0.64 274 13:25 20.10.2020
6553 Clouds 15 935 45 10000 0.64 274 12:59 20.10.2020
6554 Clouds 13 935 50 10000 0.64 274 12:40 20.10.2020
6555 Clouds 13 936 49 10000 1.28 154 12:22 20.10.2020
6556 Clouds 12 936 49 10000 1.28 154 11:45 20.10.2020
6557 Clouds 11 1015 76 10000 1.4 156 11:27 20.10.2020
6558 Clouds 9 936 58 10000 1.4 156 10:39 20.10.2020
6559 Clouds 9 1019 57 10000 1.79 202 10:19 20.10.2020
6560 Clouds 9 1019 57 10000 1.79 202 10:19 20.10.2020
6561 Clouds 9 1018 93 10000 0.89 114 09:42 20.10.2020
6562 Clouds 5 1013 84 10000 1.34 159 09:18 20.10.2020
6563 Clouds 6 1013 75 10000 0.89 167 08:39 20.10.2020
6564 Clouds 5 1019 100 5000 2.1 270 07:53 20.10.2020
6565 Clouds 5 1019 100 5000 2.1 270 07:26 20.10.2020
6566 Clouds 4 1018 100 10000 2.1 240 06:32 20.10.2020
6567 Clouds 4 1012 77 10000 2.76 169 05:51 20.10.2020
6568 Clouds 6 1019 81 10000 1.34 67 03:58 20.10.2020
6569 Clouds 4 1018 95 10000 3 164 02:25 20.10.2020
6570 Clouds 4 1019 94 10000 2.82 166 00:59 20.10.2020
6571 Clouds 3 1020 72 10000 0.45 180 00:41 20.10.2020
6572 Clouds 3 1020 82 10000 0.45 45 00:21 20.10.2020
6573 Clouds 4 1020 82 10000 2.89 164 23:47 19.10.2020
6574 Clouds 3 1019 92 10000 0.45 160 23:23 19.10.2020
6575 Clouds 3 1019 92 10000 0.45 160 22:44 19.10.2020
6576 Clouds 3 1019 92 10000 0.45 160 22:22 19.10.2020
6577 Clouds 4 1020 90 10000 2.76 170 21:45 19.10.2020
6578 Clear 5 1020 83 10000 0.45 210 21:22 19.10.2020
6579 Clear 5 1020 83 10000 0.45 210 20:48 19.10.2020
6580 Clouds 6 1020 83 10000 0.45 210 20:29 19.10.2020
6581 Clouds 6 1020 83 10000 0.45 210 19:51 19.10.2020
6582 Clouds 7 1020 82 10000 1.98 175 19:24 19.10.2020
6583 Clouds 7 1020 82 10000 1.98 175 19:24 19.10.2020
6584 Clouds 8 1020 82 10000 1.98 175 18:55 19.10.2020
6585 Clouds 12 1019 55 10000 1.79 331 18:37 19.10.2020
6586 Clouds 12 1019 55 10000 1.79 331 18:18 19.10.2020
6587 Clouds 12 1019 55 10000 1.79 331 17:44 19.10.2020
6588 Clouds 12 1019 55 10000 1.79 331 17:23 19.10.2020
6589 Clouds 13 1020 55 10000 0.89 273 16:43 19.10.2020
6590 Clouds 13 1020 55 10000 0.89 273 16:25 19.10.2020
6591 Clouds 12 1020 56 10000 0.89 300 15:43 19.10.2020
6592 Clouds 12 1020 56 10000 0.89 300 15:24 19.10.2020
6593 Clouds 12 1020 56 10000 0.89 300 14:51 19.10.2020
6594 Clouds 11 1020 55 10000 1.34 301 14:26 19.10.2020
6595 Clouds 11 1020 55 10000 1.34 301 13:52 19.10.2020
6596 Clouds 12 1021 51 10000 0.89 6 13:33 19.10.2020
6597 Clouds 12 1021 51 10000 0.89 6 13:33 19.10.2020
6598 Clouds 11 1021 51 10000 0.89 6 12:52 19.10.2020
6599 Clouds 9 1021 63 10000 1.34 74 12:34 19.10.2020
6600 Clear 9 1021 63 10000 1.34 74 11:51 19.10.2020
6601 Clear 7 1022 77 10000 0.45 86 11:26 19.10.2020
6602 Clear 7 1022 77 10000 0.45 86 10:59 19.10.2020
6603 Clear 9 1021 76 10000 0.89 244 10:39 19.10.2020
6604 Clear 6 1020 83 10000 0.58 131 10:19 19.10.2020
6605 Clear 4 1023 94 10000 0.89 155 09:43 19.10.2020
6606 Clear 2 1023 94 10000 0.89 155 09:19 19.10.2020
6607 Clear 1 1021 94 10000 1.5 159 08:48 19.10.2020
6608 Clouds 2 1021 94 10000 1.66 163 08:23 19.10.2020
6609 Clouds 2 1022 96 10000 0.45 187 07:43 19.10.2020
6610 Clouds 2 1022 96 10000 0.45 187 07:19 19.10.2020
6611 Clouds 3 1022 96 10000 0.45 220 06:19 19.10.2020
6612 Clouds 4 1022 93 10000 1.64 170 03:49 19.10.2020
6613 Clouds 5 1022 92 10000 1.1 168 02:28 19.10.2020
6614 Clouds 5 1022 90 10000 1.18 172 00:50 19.10.2020
6615 Clouds 4 1023 89 10000 1.1 178 00:24 19.10.2020
6616 Clouds 5 1023 88 10000 1.1 178 23:47 18.10.2020
6617 Clouds 5 1023 87 10000 1.06 178 23:24 18.10.2020
6618 Clouds 6 1023 85 10000 1.06 178 22:51 18.10.2020
6619 Clouds 6 1023 83 10000 0.9 189 22:22 18.10.2020
6620 Clouds 6 1023 82 10000 0.9 189 21:54 18.10.2020
6621 Clouds 6 1023 82 10000 0.9 189 21:32 18.10.2020
6622 Clouds 6 1022 81 10000 0.89 317 20:59 18.10.2020
6623 Clouds 6 1022 81 10000 0.89 317 20:39 18.10.2020
6624 Clouds 6 940 76 10000 0.42 193 20:19 18.10.2020
6625 Clouds 6 940 76 10000 0.42 193 20:19 18.10.2020
6626 Clouds 6 940 74 10000 0.26 192 19:43 18.10.2020
6627 Clouds 5 940 73 10000 0.27 20 19:22 18.10.2020
6628 Clouds 5 939 71 10000 0.27 20 18:48 18.10.2020
6629 Clouds 8 939 69 10000 0.9 349 18:26 18.10.2020
6630 Clouds 9 1020 66 10000 2.24 294 17:43 18.10.2020
6631 Clouds 9 1020 66 10000 2.24 294 17:25 18.10.2020
6632 Clouds 10 1020 62 10000 0.89 307 16:45 18.10.2020
6633 Clouds 10 1020 62 10000 0.89 307 16:26 18.10.2020
6634 Clouds 10 1020 62 10000 0.89 307 15:57 18.10.2020
6635 Clouds 10 1021 70 10000 0.89 355 15:39 18.10.2020
6636 Clouds 10 1020 60 10000 2.24 340 15:19 18.10.2020
6637 Clouds 10 1020 60 10000 2.24 340 14:52 18.10.2020
6638 Clouds 10 1020 60 10000 2.24 340 14:28 18.10.2020
6639 Clouds 10 1020 60 10000 2.24 340 13:56 18.10.2020
6640 Clouds 9 1022 69 10000 2.24 284 13:37 18.10.2020
6641 Clouds 9 1022 69 10000 1.34 319 13:18 18.10.2020
6642 Clouds 10 1022 69 10000 1.34 319 12:41 18.10.2020
6643 Clouds 8 1021 85 10000 0.89 27 12:21 18.10.2020
6644 Clouds 6 1021 85 10000 0.89 27 11:41 18.10.2020
6645 Clouds 6 1021 85 10000 0.89 27 11:22 18.10.2020
6646 Clouds 6 1022 94 10000 0.77 313 10:41 18.10.2020
6647 Clouds 6 1021 90 10000 0.45 225 10:21 18.10.2020
6648 Clouds 5 1021 90 10000 0.45 225 09:51 18.10.2020
6649 Clouds 5 1021 90 10000 0.45 225 09:23 18.10.2020
6650 Clouds 5 1021 90 10000 0.45 225 09:23 18.10.2020
6651 Clouds 5 1021 90 10000 0.45 225 08:58 18.10.2020
6652 Clouds 5 1020 93 10000 0.45 227 08:38 18.10.2020
6653 Clouds 5 1020 93 10000 0.45 227 08:19 18.10.2020
6654 Clouds 4 1020 92 10000 0.45 142 07:29 18.10.2020
6655 Clouds 5 1019 91 10000 1.21 187 04:51 18.10.2020
6656 Clouds 5 1019 89 10000 0.45 4 02:56 18.10.2020
6657 Clouds 6 1019 85 10000 0.97 193 01:40 18.10.2020
6658 Clouds 5 1019 85 10000 0.9 208 00:50 18.10.2020
6659 Clouds 5 1019 87 10000 0.89 193 00:32 18.10.2020
6660 Clouds 6 1019 93 7812 0.56 227 23:47 17.10.2020
6661 Clouds 6 1019 93 1855 0.48 284 23:25 17.10.2020
6662 Clouds 6 1019 93 1855 0.48 284 22:59 17.10.2020
6663 Clouds 6 1019 93 1855 0.48 284 22:40 17.10.2020
6664 Rain 6 1019 93 1218 0.49 318 22:20 17.10.2020
6665 Clouds 6 1018 92 1218 0.89 145 21:46 17.10.2020
6666 Clouds 6 1018 92 1048 0.89 145 21:27 17.10.2020
6667 Clouds 6 1018 92 1048 0.89 145 20:51 17.10.2020
6668 Rain 7 1018 89 733 0.8 329 20:22 17.10.2020
6669 Clouds 7 1018 89 1697 0.68 330 19:59 17.10.2020
6670 Clouds 7 1017 84 1697 0.45 329 19:40 17.10.2020
6671 Clouds 7 1017 84 6117 0.45 329 19:18 17.10.2020
6672 Clouds 7 1017 80 6117 0.89 293 18:41 17.10.2020
6673 Clouds 7 1017 80 10000 0.89 293 18:19 17.10.2020
6674 Clouds 7 1017 79 10000 0.89 347 17:42 17.10.2020
6675 Rain 7 1017 79 10000 0.89 347 17:21 17.10.2020
6676 Clouds 7 1017 86 10000 0.45 318 16:48 17.10.2020
6677 Clouds 7 1016 79 10000 0.89 306 16:23 17.10.2020
6678 Clouds 8</